<?xml version="1.0" encoding="UTF-8" standalone="no" ?>
<gpx xmlns="http://www.topografix.com/GPX/1/1" xmlns:xsi="http://www.w3.org/2001/XMLSchema-instance" xsi:schemaLocation="http://www.topografix.com/GPX/1/1 http://www.topografix.com/GPX/1/1/gpx.xsd" version="1.1" creator="VisuGPX - https://www.visugpx.com">
  <metadata>
    <name>2017-08-14 Bike ride-Amberieux-Savigneux O 33</name>
    <desc><![CDATA[2017-08-14 Bike ride-Amberieux-Savigneux O 33]]></desc>
  </metadata>
  <wpt lat="45.9246" lon="4.73696">
    <ele>174</ele>
    <name><![CDATA[2017-08-14 09:56 (Start)]]></name>
  </wpt>
  <wpt lat="45.92459" lon="4.737">
    <ele>174</ele>
    <name><![CDATA[2017-08-14 09:56 (End)]]></name>
    <desc><![CDATA[Created by Google My Tracks on Android  Name: 2017-08-14 09:56 Activity type: biking Description: - Total distance: 32.67 km (20.3 mi) Total time: 1:39:10 Moving time: 1:38:11 Average speed: 19.76 km/h (12.3 mi/h) Average moving speed: 19.96 km/h (12.4 mi/h) Max speed: 37.28 km/h (23.2 mi/h) Average pace: 3:02 min/km (4:53 min/mi) Average moving pace: 3:00 min/km (4:50 min/mi) Fastest pace: 1:37 min/km (2:35 min/mi) Max elevation: 296 m (970 ft) Min elevation: 165 m (541 ft) Elevation gain: 565 m (1854 ft) Max grade: 20 % Min grade: -54 % Recorded: 14/08/2017 09:56]]></desc>
  </wpt>
  <trk>
    <name><![CDATA[2017-08-14 09:56]]></name>
    <trkseg>
      <trkpt lat="45.9246" lon="4.73696">
        <ele>174</ele>
        <time>2017-08-14T07:56:16.028Z</time>
      </trkpt>
      <trkpt lat="45.92466" lon="4.73705">
        <ele>174</ele>
        <time>2017-08-14T07:57:41Z</time>
      </trkpt>
      <trkpt lat="45.92468" lon="4.73703">
        <ele>174</ele>
        <time>2017-08-14T07:57:42Z</time>
      </trkpt>
      <trkpt lat="45.9247" lon="4.73691">
        <ele>174</ele>
        <time>2017-08-14T07:57:47Z</time>
      </trkpt>
      <trkpt lat="45.9247" lon="4.73687">
        <ele>174</ele>
        <time>2017-08-14T07:57:48Z</time>
      </trkpt>
      <trkpt lat="45.92471" lon="4.73678">
        <ele>174</ele>
        <time>2017-08-14T07:57:50Z</time>
      </trkpt>
      <trkpt lat="45.92472" lon="4.73672">
        <ele>174</ele>
        <time>2017-08-14T07:57:51Z</time>
      </trkpt>
      <trkpt lat="45.92472" lon="4.7366">
        <ele>174</ele>
        <time>2017-08-14T07:57:53Z</time>
      </trkpt>
      <trkpt lat="45.92473" lon="4.73655">
        <ele>174</ele>
        <time>2017-08-14T07:57:54Z</time>
      </trkpt>
      <trkpt lat="45.92475" lon="4.73647">
        <ele>174</ele>
        <time>2017-08-14T07:57:56Z</time>
      </trkpt>
      <trkpt lat="45.92478" lon="4.73644">
        <ele>174</ele>
        <time>2017-08-14T07:57:57Z</time>
      </trkpt>
      <trkpt lat="45.92484" lon="4.7364">
        <ele>174</ele>
        <time>2017-08-14T07:57:59Z</time>
      </trkpt>
      <trkpt lat="45.92489" lon="4.7364">
        <ele>174</ele>
        <time>2017-08-14T07:58:00Z</time>
      </trkpt>
      <trkpt lat="45.92497" lon="4.7364">
        <ele>174</ele>
        <time>2017-08-14T07:58:02Z</time>
      </trkpt>
      <trkpt lat="45.92502" lon="4.73641">
        <ele>174</ele>
        <time>2017-08-14T07:58:03Z</time>
      </trkpt>
      <trkpt lat="45.92507" lon="4.73641">
        <ele>174</ele>
        <time>2017-08-14T07:58:04Z</time>
      </trkpt>
      <trkpt lat="45.92512" lon="4.7364">
        <ele>174</ele>
        <time>2017-08-14T07:58:05Z</time>
      </trkpt>
      <trkpt lat="45.92517" lon="4.73639">
        <ele>173</ele>
        <time>2017-08-14T07:58:06Z</time>
      </trkpt>
      <trkpt lat="45.92523" lon="4.73639">
        <ele>173</ele>
        <time>2017-08-14T07:58:07Z</time>
      </trkpt>
      <trkpt lat="45.92528" lon="4.73639">
        <ele>173</ele>
        <time>2017-08-14T07:58:08Z</time>
      </trkpt>
      <trkpt lat="45.92534" lon="4.73638">
        <ele>173</ele>
        <time>2017-08-14T07:58:09Z</time>
      </trkpt>
      <trkpt lat="45.92539" lon="4.73637">
        <ele>173</ele>
        <time>2017-08-14T07:58:10Z</time>
      </trkpt>
      <trkpt lat="45.92543" lon="4.73636">
        <ele>173</ele>
        <time>2017-08-14T07:58:11Z</time>
      </trkpt>
      <trkpt lat="45.92552" lon="4.73633">
        <ele>173</ele>
        <time>2017-08-14T07:58:13Z</time>
      </trkpt>
      <trkpt lat="45.92556" lon="4.73631">
        <ele>173</ele>
        <time>2017-08-14T07:58:14Z</time>
      </trkpt>
      <trkpt lat="45.92563" lon="4.73629">
        <ele>173</ele>
        <time>2017-08-14T07:58:16Z</time>
      </trkpt>
      <trkpt lat="45.92567" lon="4.73628">
        <ele>173</ele>
        <time>2017-08-14T07:58:17Z</time>
      </trkpt>
      <trkpt lat="45.92573" lon="4.73627">
        <ele>173</ele>
        <time>2017-08-14T07:58:19Z</time>
      </trkpt>
      <trkpt lat="45.92576" lon="4.73627">
        <ele>173</ele>
        <time>2017-08-14T07:58:20Z</time>
      </trkpt>
      <trkpt lat="45.92584" lon="4.73624">
        <ele>172</ele>
        <time>2017-08-14T07:58:23Z</time>
      </trkpt>
      <trkpt lat="45.92586" lon="4.73623">
        <ele>173</ele>
        <time>2017-08-14T07:58:24Z</time>
      </trkpt>
      <trkpt lat="45.92593" lon="4.73621">
        <ele>173</ele>
        <time>2017-08-14T07:58:26Z</time>
      </trkpt>
      <trkpt lat="45.92596" lon="4.73621">
        <ele>173</ele>
        <time>2017-08-14T07:58:27Z</time>
      </trkpt>
      <trkpt lat="45.92605" lon="4.73621">
        <ele>173</ele>
        <time>2017-08-14T07:58:29Z</time>
      </trkpt>
      <trkpt lat="45.92609" lon="4.73622">
        <ele>173</ele>
        <time>2017-08-14T07:58:30Z</time>
      </trkpt>
      <trkpt lat="45.92614" lon="4.73625">
        <ele>173</ele>
        <time>2017-08-14T07:58:31Z</time>
      </trkpt>
      <trkpt lat="45.92618" lon="4.73629">
        <ele>173</ele>
        <time>2017-08-14T07:58:32Z</time>
      </trkpt>
      <trkpt lat="45.92622" lon="4.73633">
        <ele>173</ele>
        <time>2017-08-14T07:58:33Z</time>
      </trkpt>
      <trkpt lat="45.92625" lon="4.73637">
        <ele>173</ele>
        <time>2017-08-14T07:58:34Z</time>
      </trkpt>
      <trkpt lat="45.92628" lon="4.73643">
        <ele>173</ele>
        <time>2017-08-14T07:58:35Z</time>
      </trkpt>
      <trkpt lat="45.92631" lon="4.73648">
        <ele>173</ele>
        <time>2017-08-14T07:58:36Z</time>
      </trkpt>
      <trkpt lat="45.92635" lon="4.73654">
        <ele>173</ele>
        <time>2017-08-14T07:58:37Z</time>
      </trkpt>
      <trkpt lat="45.92638" lon="4.7366">
        <ele>173</ele>
        <time>2017-08-14T07:58:38Z</time>
      </trkpt>
      <trkpt lat="45.9264" lon="4.73666">
        <ele>173</ele>
        <time>2017-08-14T07:58:39Z</time>
      </trkpt>
      <trkpt lat="45.92645" lon="4.73672">
        <ele>173</ele>
        <time>2017-08-14T07:58:40Z</time>
      </trkpt>
      <trkpt lat="45.92648" lon="4.73677">
        <ele>173</ele>
        <time>2017-08-14T07:58:41Z</time>
      </trkpt>
      <trkpt lat="45.92652" lon="4.73683">
        <ele>173</ele>
        <time>2017-08-14T07:58:42Z</time>
      </trkpt>
      <trkpt lat="45.92657" lon="4.73688">
        <ele>173</ele>
        <time>2017-08-14T07:58:43Z</time>
      </trkpt>
      <trkpt lat="45.92661" lon="4.73692">
        <ele>173</ele>
        <time>2017-08-14T07:58:44Z</time>
      </trkpt>
      <trkpt lat="45.92665" lon="4.73696">
        <ele>173</ele>
        <time>2017-08-14T07:58:45Z</time>
      </trkpt>
      <trkpt lat="45.9267" lon="4.73699">
        <ele>174</ele>
        <time>2017-08-14T07:58:46Z</time>
      </trkpt>
      <trkpt lat="45.92674" lon="4.73702">
        <ele>174</ele>
        <time>2017-08-14T07:58:47Z</time>
      </trkpt>
      <trkpt lat="45.92678" lon="4.73704">
        <ele>173</ele>
        <time>2017-08-14T07:58:48Z</time>
      </trkpt>
      <trkpt lat="45.92682" lon="4.73706">
        <ele>173</ele>
        <time>2017-08-14T07:58:49Z</time>
      </trkpt>
      <trkpt lat="45.92687" lon="4.73709">
        <ele>173</ele>
        <time>2017-08-14T07:58:50Z</time>
      </trkpt>
      <trkpt lat="45.92694" lon="4.73713">
        <ele>173</ele>
        <time>2017-08-14T07:58:52Z</time>
      </trkpt>
      <trkpt lat="45.92699" lon="4.73714">
        <ele>173</ele>
        <time>2017-08-14T07:58:53Z</time>
      </trkpt>
      <trkpt lat="45.92705" lon="4.73716">
        <ele>173</ele>
        <time>2017-08-14T07:58:54Z</time>
      </trkpt>
      <trkpt lat="45.92711" lon="4.73718">
        <ele>173</ele>
        <time>2017-08-14T07:58:55Z</time>
      </trkpt>
      <trkpt lat="45.92717" lon="4.73719">
        <ele>173</ele>
        <time>2017-08-14T07:58:56Z</time>
      </trkpt>
      <trkpt lat="45.92722" lon="4.73721">
        <ele>173</ele>
        <time>2017-08-14T07:58:57Z</time>
      </trkpt>
      <trkpt lat="45.92727" lon="4.73722">
        <ele>173</ele>
        <time>2017-08-14T07:58:58Z</time>
      </trkpt>
      <trkpt lat="45.92731" lon="4.73724">
        <ele>173</ele>
        <time>2017-08-14T07:58:59Z</time>
      </trkpt>
      <trkpt lat="45.92736" lon="4.73725">
        <ele>173</ele>
        <time>2017-08-14T07:59:00Z</time>
      </trkpt>
      <trkpt lat="45.9274" lon="4.73701">
        <ele>173</ele>
        <time>2017-08-14T07:59:01Z</time>
      </trkpt>
      <trkpt lat="45.92745" lon="4.73706">
        <ele>173</ele>
        <time>2017-08-14T07:59:02Z</time>
      </trkpt>
      <trkpt lat="45.92749" lon="4.73707">
        <ele>173</ele>
        <time>2017-08-14T07:59:03Z</time>
      </trkpt>
      <trkpt lat="45.92757" lon="4.73711">
        <ele>172</ele>
        <time>2017-08-14T07:59:05Z</time>
      </trkpt>
      <trkpt lat="45.92763" lon="4.73716">
        <ele>172</ele>
        <time>2017-08-14T07:59:06Z</time>
      </trkpt>
      <trkpt lat="45.92768" lon="4.73721">
        <ele>172</ele>
        <time>2017-08-14T07:59:08Z</time>
      </trkpt>
      <trkpt lat="45.92774" lon="4.73724">
        <ele>172</ele>
        <time>2017-08-14T07:59:09Z</time>
      </trkpt>
      <trkpt lat="45.92779" lon="4.73732">
        <ele>172</ele>
        <time>2017-08-14T07:59:11Z</time>
      </trkpt>
      <trkpt lat="45.92783" lon="4.73739">
        <ele>172</ele>
        <time>2017-08-14T07:59:12Z</time>
      </trkpt>
      <trkpt lat="45.92787" lon="4.73744">
        <ele>172</ele>
        <time>2017-08-14T07:59:13Z</time>
      </trkpt>
      <trkpt lat="45.92793" lon="4.7375">
        <ele>172</ele>
        <time>2017-08-14T07:59:14Z</time>
      </trkpt>
      <trkpt lat="45.92797" lon="4.73754">
        <ele>173</ele>
        <time>2017-08-14T07:59:15Z</time>
      </trkpt>
      <trkpt lat="45.92803" lon="4.73758">
        <ele>173</ele>
        <time>2017-08-14T07:59:16Z</time>
      </trkpt>
      <trkpt lat="45.92808" lon="4.73761">
        <ele>173</ele>
        <time>2017-08-14T07:59:17Z</time>
      </trkpt>
      <trkpt lat="45.92812" lon="4.73763">
        <ele>173</ele>
        <time>2017-08-14T07:59:18Z</time>
      </trkpt>
      <trkpt lat="45.92817" lon="4.73766">
        <ele>173</ele>
        <time>2017-08-14T07:59:19Z</time>
      </trkpt>
      <trkpt lat="45.92823" lon="4.7377">
        <ele>173</ele>
        <time>2017-08-14T07:59:20Z</time>
      </trkpt>
      <trkpt lat="45.92828" lon="4.73773">
        <ele>173</ele>
        <time>2017-08-14T07:59:21Z</time>
      </trkpt>
      <trkpt lat="45.92833" lon="4.73777">
        <ele>173</ele>
        <time>2017-08-14T07:59:22Z</time>
      </trkpt>
      <trkpt lat="45.92839" lon="4.7378">
        <ele>173</ele>
        <time>2017-08-14T07:59:23Z</time>
      </trkpt>
      <trkpt lat="45.92844" lon="4.73784">
        <ele>173</ele>
        <time>2017-08-14T07:59:24Z</time>
      </trkpt>
      <trkpt lat="45.92849" lon="4.73788">
        <ele>173</ele>
        <time>2017-08-14T07:59:25Z</time>
      </trkpt>
      <trkpt lat="45.92853" lon="4.73793">
        <ele>173</ele>
        <time>2017-08-14T07:59:26Z</time>
      </trkpt>
      <trkpt lat="45.92858" lon="4.73799">
        <ele>173</ele>
        <time>2017-08-14T07:59:27Z</time>
      </trkpt>
      <trkpt lat="45.92861" lon="4.73805">
        <ele>173</ele>
        <time>2017-08-14T07:59:28Z</time>
      </trkpt>
      <trkpt lat="45.92863" lon="4.73813">
        <ele>173</ele>
        <time>2017-08-14T07:59:29Z</time>
      </trkpt>
      <trkpt lat="45.92865" lon="4.73821">
        <ele>173</ele>
        <time>2017-08-14T07:59:30Z</time>
      </trkpt>
      <trkpt lat="45.92867" lon="4.73828">
        <ele>173</ele>
        <time>2017-08-14T07:59:31Z</time>
      </trkpt>
      <trkpt lat="45.92869" lon="4.73835">
        <ele>173</ele>
        <time>2017-08-14T07:59:32Z</time>
      </trkpt>
      <trkpt lat="45.92871" lon="4.73842">
        <ele>173</ele>
        <time>2017-08-14T07:59:33Z</time>
      </trkpt>
      <trkpt lat="45.92874" lon="4.73849">
        <ele>173</ele>
        <time>2017-08-14T07:59:34Z</time>
      </trkpt>
      <trkpt lat="45.92876" lon="4.73855">
        <ele>173</ele>
        <time>2017-08-14T07:59:35Z</time>
      </trkpt>
      <trkpt lat="45.9288" lon="4.73862">
        <ele>173</ele>
        <time>2017-08-14T07:59:36Z</time>
      </trkpt>
      <trkpt lat="45.92881" lon="4.7387">
        <ele>173</ele>
        <time>2017-08-14T07:59:37Z</time>
      </trkpt>
      <trkpt lat="45.92882" lon="4.73879">
        <ele>173</ele>
        <time>2017-08-14T07:59:38Z</time>
      </trkpt>
      <trkpt lat="45.92882" lon="4.73889">
        <ele>173</ele>
        <time>2017-08-14T07:59:39Z</time>
      </trkpt>
      <trkpt lat="45.92883" lon="4.73898">
        <ele>173</ele>
        <time>2017-08-14T07:59:40Z</time>
      </trkpt>
      <trkpt lat="45.92882" lon="4.73907">
        <ele>173</ele>
        <time>2017-08-14T07:59:41Z</time>
      </trkpt>
      <trkpt lat="45.92882" lon="4.73916">
        <ele>173</ele>
        <time>2017-08-14T07:59:42Z</time>
      </trkpt>
      <trkpt lat="45.92882" lon="4.73925">
        <ele>172</ele>
        <time>2017-08-14T07:59:43Z</time>
      </trkpt>
      <trkpt lat="45.92883" lon="4.73934">
        <ele>172</ele>
        <time>2017-08-14T07:59:44Z</time>
      </trkpt>
      <trkpt lat="45.92883" lon="4.73942">
        <ele>172</ele>
        <time>2017-08-14T07:59:45Z</time>
      </trkpt>
      <trkpt lat="45.92883" lon="4.7395">
        <ele>172</ele>
        <time>2017-08-14T07:59:46Z</time>
      </trkpt>
      <trkpt lat="45.92882" lon="4.73958">
        <ele>172</ele>
        <time>2017-08-14T07:59:47Z</time>
      </trkpt>
      <trkpt lat="45.92882" lon="4.73965">
        <ele>172</ele>
        <time>2017-08-14T07:59:48Z</time>
      </trkpt>
      <trkpt lat="45.92881" lon="4.73973">
        <ele>172</ele>
        <time>2017-08-14T07:59:49Z</time>
      </trkpt>
      <trkpt lat="45.92879" lon="4.7398">
        <ele>172</ele>
        <time>2017-08-14T07:59:50Z</time>
      </trkpt>
      <trkpt lat="45.92878" lon="4.73988">
        <ele>172</ele>
        <time>2017-08-14T07:59:51Z</time>
      </trkpt>
      <trkpt lat="45.92876" lon="4.73995">
        <ele>172</ele>
        <time>2017-08-14T07:59:52Z</time>
      </trkpt>
      <trkpt lat="45.92874" lon="4.74003">
        <ele>172</ele>
        <time>2017-08-14T07:59:53Z</time>
      </trkpt>
      <trkpt lat="45.92873" lon="4.74011">
        <ele>172</ele>
        <time>2017-08-14T07:59:54Z</time>
      </trkpt>
      <trkpt lat="45.92872" lon="4.74019">
        <ele>172</ele>
        <time>2017-08-14T07:59:55Z</time>
      </trkpt>
      <trkpt lat="45.9287" lon="4.74028">
        <ele>172</ele>
        <time>2017-08-14T07:59:56Z</time>
      </trkpt>
      <trkpt lat="45.92868" lon="4.74035">
        <ele>172</ele>
        <time>2017-08-14T07:59:57Z</time>
      </trkpt>
      <trkpt lat="45.92867" lon="4.74041">
        <ele>172</ele>
        <time>2017-08-14T07:59:58Z</time>
      </trkpt>
      <trkpt lat="45.92864" lon="4.74046">
        <ele>172</ele>
        <time>2017-08-14T07:59:59Z</time>
      </trkpt>
      <trkpt lat="45.9286" lon="4.74051">
        <ele>172</ele>
        <time>2017-08-14T08:00:00Z</time>
      </trkpt>
      <trkpt lat="45.92856" lon="4.74056">
        <ele>172</ele>
        <time>2017-08-14T08:00:01Z</time>
      </trkpt>
      <trkpt lat="45.92851" lon="4.74062">
        <ele>172</ele>
        <time>2017-08-14T08:00:02Z</time>
      </trkpt>
      <trkpt lat="45.92847" lon="4.74068">
        <ele>172</ele>
        <time>2017-08-14T08:00:03Z</time>
      </trkpt>
      <trkpt lat="45.92842" lon="4.74073">
        <ele>172</ele>
        <time>2017-08-14T08:00:04Z</time>
      </trkpt>
      <trkpt lat="45.92838" lon="4.74079">
        <ele>171</ele>
        <time>2017-08-14T08:00:05Z</time>
      </trkpt>
      <trkpt lat="45.92832" lon="4.74084">
        <ele>171</ele>
        <time>2017-08-14T08:00:06Z</time>
      </trkpt>
      <trkpt lat="45.92827" lon="4.7409">
        <ele>171</ele>
        <time>2017-08-14T08:00:07Z</time>
      </trkpt>
      <trkpt lat="45.92822" lon="4.74096">
        <ele>171</ele>
        <time>2017-08-14T08:00:08Z</time>
      </trkpt>
      <trkpt lat="45.92817" lon="4.74102">
        <ele>171</ele>
        <time>2017-08-14T08:00:09Z</time>
      </trkpt>
      <trkpt lat="45.92811" lon="4.74108">
        <ele>172</ele>
        <time>2017-08-14T08:00:10Z</time>
      </trkpt>
      <trkpt lat="45.92806" lon="4.74113">
        <ele>172</ele>
        <time>2017-08-14T08:00:11Z</time>
      </trkpt>
      <trkpt lat="45.92801" lon="4.74119">
        <ele>172</ele>
        <time>2017-08-14T08:00:12Z</time>
      </trkpt>
      <trkpt lat="45.92796" lon="4.74124">
        <ele>172</ele>
        <time>2017-08-14T08:00:13Z</time>
      </trkpt>
      <trkpt lat="45.9279" lon="4.7413">
        <ele>172</ele>
        <time>2017-08-14T08:00:14Z</time>
      </trkpt>
      <trkpt lat="45.92785" lon="4.74135">
        <ele>172</ele>
        <time>2017-08-14T08:00:15Z</time>
      </trkpt>
      <trkpt lat="45.9278" lon="4.7414">
        <ele>172</ele>
        <time>2017-08-14T08:00:16Z</time>
      </trkpt>
      <trkpt lat="45.92774" lon="4.74146">
        <ele>172</ele>
        <time>2017-08-14T08:00:17Z</time>
      </trkpt>
      <trkpt lat="45.92769" lon="4.74151">
        <ele>172</ele>
        <time>2017-08-14T08:00:18Z</time>
      </trkpt>
      <trkpt lat="45.92764" lon="4.74157">
        <ele>172</ele>
        <time>2017-08-14T08:00:19Z</time>
      </trkpt>
      <trkpt lat="45.92758" lon="4.74163">
        <ele>172</ele>
        <time>2017-08-14T08:00:20Z</time>
      </trkpt>
      <trkpt lat="45.92753" lon="4.74169">
        <ele>172</ele>
        <time>2017-08-14T08:00:21Z</time>
      </trkpt>
      <trkpt lat="45.92748" lon="4.74175">
        <ele>172</ele>
        <time>2017-08-14T08:00:22Z</time>
      </trkpt>
      <trkpt lat="45.92742" lon="4.7418">
        <ele>172</ele>
        <time>2017-08-14T08:00:23Z</time>
      </trkpt>
      <trkpt lat="45.92738" lon="4.74187">
        <ele>172</ele>
        <time>2017-08-14T08:00:24Z</time>
      </trkpt>
      <trkpt lat="45.92733" lon="4.74193">
        <ele>171</ele>
        <time>2017-08-14T08:00:25Z</time>
      </trkpt>
      <trkpt lat="45.92729" lon="4.742">
        <ele>171</ele>
        <time>2017-08-14T08:00:26Z</time>
      </trkpt>
      <trkpt lat="45.92725" lon="4.74206">
        <ele>171</ele>
        <time>2017-08-14T08:00:27Z</time>
      </trkpt>
      <trkpt lat="45.92721" lon="4.74212">
        <ele>171</ele>
        <time>2017-08-14T08:00:28Z</time>
      </trkpt>
      <trkpt lat="45.92717" lon="4.74218">
        <ele>171</ele>
        <time>2017-08-14T08:00:29Z</time>
      </trkpt>
      <trkpt lat="45.92713" lon="4.74224">
        <ele>171</ele>
        <time>2017-08-14T08:00:30Z</time>
      </trkpt>
      <trkpt lat="45.92708" lon="4.7423">
        <ele>171</ele>
        <time>2017-08-14T08:00:31Z</time>
      </trkpt>
      <trkpt lat="45.92704" lon="4.74237">
        <ele>171</ele>
        <time>2017-08-14T08:00:32Z</time>
      </trkpt>
      <trkpt lat="45.927" lon="4.74243">
        <ele>171</ele>
        <time>2017-08-14T08:00:33Z</time>
      </trkpt>
      <trkpt lat="45.92696" lon="4.7425">
        <ele>171</ele>
        <time>2017-08-14T08:00:34Z</time>
      </trkpt>
      <trkpt lat="45.92692" lon="4.74257">
        <ele>171</ele>
        <time>2017-08-14T08:00:35Z</time>
      </trkpt>
      <trkpt lat="45.92687" lon="4.74263">
        <ele>171</ele>
        <time>2017-08-14T08:00:36Z</time>
      </trkpt>
      <trkpt lat="45.92683" lon="4.7427">
        <ele>171</ele>
        <time>2017-08-14T08:00:37Z</time>
      </trkpt>
      <trkpt lat="45.92679" lon="4.74278">
        <ele>171</ele>
        <time>2017-08-14T08:00:38Z</time>
      </trkpt>
      <trkpt lat="45.92675" lon="4.74284">
        <ele>171</ele>
        <time>2017-08-14T08:00:39Z</time>
      </trkpt>
      <trkpt lat="45.92671" lon="4.74291">
        <ele>171</ele>
        <time>2017-08-14T08:00:40Z</time>
      </trkpt>
      <trkpt lat="45.92668" lon="4.74298">
        <ele>171</ele>
        <time>2017-08-14T08:00:41Z</time>
      </trkpt>
      <trkpt lat="45.92665" lon="4.74305">
        <ele>171</ele>
        <time>2017-08-14T08:00:42Z</time>
      </trkpt>
      <trkpt lat="45.92661" lon="4.74311">
        <ele>171</ele>
        <time>2017-08-14T08:00:43Z</time>
      </trkpt>
      <trkpt lat="45.92658" lon="4.74317">
        <ele>171</ele>
        <time>2017-08-14T08:00:44Z</time>
      </trkpt>
      <trkpt lat="45.92654" lon="4.74323">
        <ele>171</ele>
        <time>2017-08-14T08:00:45Z</time>
      </trkpt>
      <trkpt lat="45.92651" lon="4.7433">
        <ele>171</ele>
        <time>2017-08-14T08:00:46Z</time>
      </trkpt>
      <trkpt lat="45.92647" lon="4.74337">
        <ele>171</ele>
        <time>2017-08-14T08:00:47Z</time>
      </trkpt>
      <trkpt lat="45.92643" lon="4.74345">
        <ele>171</ele>
        <time>2017-08-14T08:00:48Z</time>
      </trkpt>
      <trkpt lat="45.92639" lon="4.74352">
        <ele>171</ele>
        <time>2017-08-14T08:00:49Z</time>
      </trkpt>
      <trkpt lat="45.92635" lon="4.74359">
        <ele>171</ele>
        <time>2017-08-14T08:00:50Z</time>
      </trkpt>
      <trkpt lat="45.92631" lon="4.74366">
        <ele>171</ele>
        <time>2017-08-14T08:00:51Z</time>
      </trkpt>
      <trkpt lat="45.92627" lon="4.74373">
        <ele>171</ele>
        <time>2017-08-14T08:00:52Z</time>
      </trkpt>
      <trkpt lat="45.92623" lon="4.74381">
        <ele>170</ele>
        <time>2017-08-14T08:00:53Z</time>
      </trkpt>
      <trkpt lat="45.92619" lon="4.74388">
        <ele>170</ele>
        <time>2017-08-14T08:00:54Z</time>
      </trkpt>
      <trkpt lat="45.92615" lon="4.74396">
        <ele>170</ele>
        <time>2017-08-14T08:00:55Z</time>
      </trkpt>
      <trkpt lat="45.92611" lon="4.74404">
        <ele>170</ele>
        <time>2017-08-14T08:00:56Z</time>
      </trkpt>
      <trkpt lat="45.92607" lon="4.74411">
        <ele>170</ele>
        <time>2017-08-14T08:00:57Z</time>
      </trkpt>
      <trkpt lat="45.92602" lon="4.74419">
        <ele>170</ele>
        <time>2017-08-14T08:00:58Z</time>
      </trkpt>
      <trkpt lat="45.92598" lon="4.74426">
        <ele>170</ele>
        <time>2017-08-14T08:00:59Z</time>
      </trkpt>
      <trkpt lat="45.92593" lon="4.74434">
        <ele>170</ele>
        <time>2017-08-14T08:01:00Z</time>
      </trkpt>
      <trkpt lat="45.92589" lon="4.74442">
        <ele>170</ele>
        <time>2017-08-14T08:01:01Z</time>
      </trkpt>
      <trkpt lat="45.92585" lon="4.7445">
        <ele>170</ele>
        <time>2017-08-14T08:01:02Z</time>
      </trkpt>
      <trkpt lat="45.92581" lon="4.74458">
        <ele>170</ele>
        <time>2017-08-14T08:01:03Z</time>
      </trkpt>
      <trkpt lat="45.92576" lon="4.74465">
        <ele>170</ele>
        <time>2017-08-14T08:01:04Z</time>
      </trkpt>
      <trkpt lat="45.92572" lon="4.74472">
        <ele>170</ele>
        <time>2017-08-14T08:01:05Z</time>
      </trkpt>
      <trkpt lat="45.92568" lon="4.74479">
        <ele>170</ele>
        <time>2017-08-14T08:01:06Z</time>
      </trkpt>
      <trkpt lat="45.92564" lon="4.74486">
        <ele>170</ele>
        <time>2017-08-14T08:01:07Z</time>
      </trkpt>
      <trkpt lat="45.92561" lon="4.74493">
        <ele>170</ele>
        <time>2017-08-14T08:01:08Z</time>
      </trkpt>
      <trkpt lat="45.92557" lon="4.745">
        <ele>170</ele>
        <time>2017-08-14T08:01:09Z</time>
      </trkpt>
      <trkpt lat="45.92553" lon="4.74507">
        <ele>170</ele>
        <time>2017-08-14T08:01:10Z</time>
      </trkpt>
      <trkpt lat="45.92549" lon="4.74515">
        <ele>170</ele>
        <time>2017-08-14T08:01:11Z</time>
      </trkpt>
      <trkpt lat="45.92545" lon="4.74523">
        <ele>170</ele>
        <time>2017-08-14T08:01:12Z</time>
      </trkpt>
      <trkpt lat="45.92541" lon="4.7453">
        <ele>171</ele>
        <time>2017-08-14T08:01:13Z</time>
      </trkpt>
      <trkpt lat="45.92537" lon="4.74538">
        <ele>171</ele>
        <time>2017-08-14T08:01:14Z</time>
      </trkpt>
      <trkpt lat="45.92532" lon="4.74545">
        <ele>171</ele>
        <time>2017-08-14T08:01:15Z</time>
      </trkpt>
      <trkpt lat="45.92528" lon="4.74552">
        <ele>171</ele>
        <time>2017-08-14T08:01:16Z</time>
      </trkpt>
      <trkpt lat="45.92523" lon="4.74559">
        <ele>171</ele>
        <time>2017-08-14T08:01:17Z</time>
      </trkpt>
      <trkpt lat="45.92518" lon="4.74566">
        <ele>171</ele>
        <time>2017-08-14T08:01:18Z</time>
      </trkpt>
      <trkpt lat="45.92513" lon="4.74572">
        <ele>171</ele>
        <time>2017-08-14T08:01:19Z</time>
      </trkpt>
      <trkpt lat="45.92508" lon="4.74579">
        <ele>171</ele>
        <time>2017-08-14T08:01:20Z</time>
      </trkpt>
      <trkpt lat="45.92503" lon="4.74585">
        <ele>171</ele>
        <time>2017-08-14T08:01:21Z</time>
      </trkpt>
      <trkpt lat="45.92497" lon="4.74591">
        <ele>171</ele>
        <time>2017-08-14T08:01:22Z</time>
      </trkpt>
      <trkpt lat="45.92492" lon="4.74597">
        <ele>171</ele>
        <time>2017-08-14T08:01:23Z</time>
      </trkpt>
      <trkpt lat="45.92487" lon="4.74603">
        <ele>171</ele>
        <time>2017-08-14T08:01:24Z</time>
      </trkpt>
      <trkpt lat="45.92482" lon="4.74609">
        <ele>171</ele>
        <time>2017-08-14T08:01:25Z</time>
      </trkpt>
      <trkpt lat="45.92477" lon="4.74615">
        <ele>171</ele>
        <time>2017-08-14T08:01:26Z</time>
      </trkpt>
      <trkpt lat="45.92472" lon="4.74622">
        <ele>171</ele>
        <time>2017-08-14T08:01:27Z</time>
      </trkpt>
      <trkpt lat="45.92467" lon="4.74629">
        <ele>171</ele>
        <time>2017-08-14T08:01:28Z</time>
      </trkpt>
      <trkpt lat="45.92463" lon="4.74635">
        <ele>171</ele>
        <time>2017-08-14T08:01:29Z</time>
      </trkpt>
      <trkpt lat="45.92459" lon="4.74642">
        <ele>171</ele>
        <time>2017-08-14T08:01:30Z</time>
      </trkpt>
      <trkpt lat="45.92454" lon="4.74648">
        <ele>171</ele>
        <time>2017-08-14T08:01:31Z</time>
      </trkpt>
      <trkpt lat="45.9245" lon="4.74654">
        <ele>171</ele>
        <time>2017-08-14T08:01:32Z</time>
      </trkpt>
      <trkpt lat="45.92447" lon="4.74661">
        <ele>171</ele>
        <time>2017-08-14T08:01:33Z</time>
      </trkpt>
      <trkpt lat="45.92443" lon="4.74669">
        <ele>171</ele>
        <time>2017-08-14T08:01:34Z</time>
      </trkpt>
      <trkpt lat="45.9244" lon="4.74675">
        <ele>171</ele>
        <time>2017-08-14T08:01:35Z</time>
      </trkpt>
      <trkpt lat="45.92437" lon="4.74683">
        <ele>171</ele>
        <time>2017-08-14T08:01:36Z</time>
      </trkpt>
      <trkpt lat="45.92434" lon="4.7469">
        <ele>171</ele>
        <time>2017-08-14T08:01:37Z</time>
      </trkpt>
      <trkpt lat="45.9243" lon="4.74699">
        <ele>171</ele>
        <time>2017-08-14T08:01:38Z</time>
      </trkpt>
      <trkpt lat="45.92426" lon="4.74707">
        <ele>171</ele>
        <time>2017-08-14T08:01:39Z</time>
      </trkpt>
      <trkpt lat="45.92422" lon="4.74715">
        <ele>171</ele>
        <time>2017-08-14T08:01:40Z</time>
      </trkpt>
      <trkpt lat="45.92419" lon="4.74724">
        <ele>171</ele>
        <time>2017-08-14T08:01:41Z</time>
      </trkpt>
      <trkpt lat="45.92416" lon="4.74733">
        <ele>171</ele>
        <time>2017-08-14T08:01:42Z</time>
      </trkpt>
      <trkpt lat="45.92413" lon="4.74742">
        <ele>172</ele>
        <time>2017-08-14T08:01:43Z</time>
      </trkpt>
      <trkpt lat="45.9241" lon="4.7475">
        <ele>172</ele>
        <time>2017-08-14T08:01:44Z</time>
      </trkpt>
      <trkpt lat="45.92408" lon="4.74759">
        <ele>172</ele>
        <time>2017-08-14T08:01:45Z</time>
      </trkpt>
      <trkpt lat="45.92406" lon="4.74767">
        <ele>172</ele>
        <time>2017-08-14T08:01:46Z</time>
      </trkpt>
      <trkpt lat="45.92404" lon="4.74776">
        <ele>171</ele>
        <time>2017-08-14T08:01:47Z</time>
      </trkpt>
      <trkpt lat="45.92402" lon="4.74786">
        <ele>171</ele>
        <time>2017-08-14T08:01:48Z</time>
      </trkpt>
      <trkpt lat="45.924" lon="4.74795">
        <ele>171</ele>
        <time>2017-08-14T08:01:49Z</time>
      </trkpt>
      <trkpt lat="45.92398" lon="4.74804">
        <ele>171</ele>
        <time>2017-08-14T08:01:50Z</time>
      </trkpt>
      <trkpt lat="45.92396" lon="4.74814">
        <ele>171</ele>
        <time>2017-08-14T08:01:51Z</time>
      </trkpt>
      <trkpt lat="45.92394" lon="4.74825">
        <ele>171</ele>
        <time>2017-08-14T08:01:52Z</time>
      </trkpt>
      <trkpt lat="45.92392" lon="4.74834">
        <ele>171</ele>
        <time>2017-08-14T08:01:53Z</time>
      </trkpt>
      <trkpt lat="45.92389" lon="4.74844">
        <ele>171</ele>
        <time>2017-08-14T08:01:54Z</time>
      </trkpt>
      <trkpt lat="45.92386" lon="4.74853">
        <ele>171</ele>
        <time>2017-08-14T08:01:55Z</time>
      </trkpt>
      <trkpt lat="45.92384" lon="4.74862">
        <ele>171</ele>
        <time>2017-08-14T08:01:56Z</time>
      </trkpt>
      <trkpt lat="45.92381" lon="4.74871">
        <ele>171</ele>
        <time>2017-08-14T08:01:57Z</time>
      </trkpt>
      <trkpt lat="45.92379" lon="4.74881">
        <ele>171</ele>
        <time>2017-08-14T08:01:58Z</time>
      </trkpt>
      <trkpt lat="45.92376" lon="4.74889">
        <ele>171</ele>
        <time>2017-08-14T08:01:59Z</time>
      </trkpt>
      <trkpt lat="45.92373" lon="4.74898">
        <ele>171</ele>
        <time>2017-08-14T08:02:00Z</time>
      </trkpt>
      <trkpt lat="45.9237" lon="4.74906">
        <ele>171</ele>
        <time>2017-08-14T08:02:01Z</time>
      </trkpt>
      <trkpt lat="45.92367" lon="4.74914">
        <ele>171</ele>
        <time>2017-08-14T08:02:02Z</time>
      </trkpt>
      <trkpt lat="45.92364" lon="4.74921">
        <ele>170</ele>
        <time>2017-08-14T08:02:03Z</time>
      </trkpt>
      <trkpt lat="45.92361" lon="4.74928">
        <ele>170</ele>
        <time>2017-08-14T08:02:04Z</time>
      </trkpt>
      <trkpt lat="45.92359" lon="4.74935">
        <ele>170</ele>
        <time>2017-08-14T08:02:05Z</time>
      </trkpt>
      <trkpt lat="45.92355" lon="4.74942">
        <ele>170</ele>
        <time>2017-08-14T08:02:06Z</time>
      </trkpt>
      <trkpt lat="45.92352" lon="4.7495">
        <ele>170</ele>
        <time>2017-08-14T08:02:07Z</time>
      </trkpt>
      <trkpt lat="45.92349" lon="4.74957">
        <ele>170</ele>
        <time>2017-08-14T08:02:08Z</time>
      </trkpt>
      <trkpt lat="45.92346" lon="4.74966">
        <ele>170</ele>
        <time>2017-08-14T08:02:09Z</time>
      </trkpt>
      <trkpt lat="45.92343" lon="4.74973">
        <ele>170</ele>
        <time>2017-08-14T08:02:10Z</time>
      </trkpt>
      <trkpt lat="45.9234" lon="4.74982">
        <ele>170</ele>
        <time>2017-08-14T08:02:11Z</time>
      </trkpt>
      <trkpt lat="45.92336" lon="4.7499">
        <ele>170</ele>
        <time>2017-08-14T08:02:12Z</time>
      </trkpt>
      <trkpt lat="45.92332" lon="4.74998">
        <ele>170</ele>
        <time>2017-08-14T08:02:13Z</time>
      </trkpt>
      <trkpt lat="45.92329" lon="4.75007">
        <ele>171</ele>
        <time>2017-08-14T08:02:14Z</time>
      </trkpt>
      <trkpt lat="45.92324" lon="4.75015">
        <ele>171</ele>
        <time>2017-08-14T08:02:15Z</time>
      </trkpt>
      <trkpt lat="45.92319" lon="4.75023">
        <ele>171</ele>
        <time>2017-08-14T08:02:16Z</time>
      </trkpt>
      <trkpt lat="45.92314" lon="4.75031">
        <ele>171</ele>
        <time>2017-08-14T08:02:17Z</time>
      </trkpt>
      <trkpt lat="45.9231" lon="4.75039">
        <ele>172</ele>
        <time>2017-08-14T08:02:18Z</time>
      </trkpt>
      <trkpt lat="45.92305" lon="4.75046">
        <ele>172</ele>
        <time>2017-08-14T08:02:19Z</time>
      </trkpt>
      <trkpt lat="45.923" lon="4.75052">
        <ele>172</ele>
        <time>2017-08-14T08:02:20Z</time>
      </trkpt>
      <trkpt lat="45.92295" lon="4.75058">
        <ele>172</ele>
        <time>2017-08-14T08:02:21Z</time>
      </trkpt>
      <trkpt lat="45.9229" lon="4.75064">
        <ele>172</ele>
        <time>2017-08-14T08:02:22Z</time>
      </trkpt>
      <trkpt lat="45.92285" lon="4.75069">
        <ele>172</ele>
        <time>2017-08-14T08:02:23Z</time>
      </trkpt>
      <trkpt lat="45.9228" lon="4.75075">
        <ele>172</ele>
        <time>2017-08-14T08:02:24Z</time>
      </trkpt>
      <trkpt lat="45.92274" lon="4.7508">
        <ele>172</ele>
        <time>2017-08-14T08:02:25Z</time>
      </trkpt>
      <trkpt lat="45.92269" lon="4.75086">
        <ele>173</ele>
        <time>2017-08-14T08:02:26Z</time>
      </trkpt>
      <trkpt lat="45.92264" lon="4.75092">
        <ele>173</ele>
        <time>2017-08-14T08:02:27Z</time>
      </trkpt>
      <trkpt lat="45.92259" lon="4.75097">
        <ele>173</ele>
        <time>2017-08-14T08:02:28Z</time>
      </trkpt>
      <trkpt lat="45.92252" lon="4.75103">
        <ele>173</ele>
        <time>2017-08-14T08:02:29Z</time>
      </trkpt>
      <trkpt lat="45.92247" lon="4.75109">
        <ele>174</ele>
        <time>2017-08-14T08:02:30Z</time>
      </trkpt>
      <trkpt lat="45.92241" lon="4.75115">
        <ele>174</ele>
        <time>2017-08-14T08:02:31Z</time>
      </trkpt>
      <trkpt lat="45.92236" lon="4.75122">
        <ele>174</ele>
        <time>2017-08-14T08:02:32Z</time>
      </trkpt>
      <trkpt lat="45.92231" lon="4.75128">
        <ele>174</ele>
        <time>2017-08-14T08:02:33Z</time>
      </trkpt>
      <trkpt lat="45.92227" lon="4.75135">
        <ele>174</ele>
        <time>2017-08-14T08:02:34Z</time>
      </trkpt>
      <trkpt lat="45.92223" lon="4.75143">
        <ele>174</ele>
        <time>2017-08-14T08:02:35Z</time>
      </trkpt>
      <trkpt lat="45.92219" lon="4.75151">
        <ele>174</ele>
        <time>2017-08-14T08:02:36Z</time>
      </trkpt>
      <trkpt lat="45.92215" lon="4.75158">
        <ele>174</ele>
        <time>2017-08-14T08:02:37Z</time>
      </trkpt>
      <trkpt lat="45.92212" lon="4.75166">
        <ele>174</ele>
        <time>2017-08-14T08:02:38Z</time>
      </trkpt>
      <trkpt lat="45.92209" lon="4.75175">
        <ele>175</ele>
        <time>2017-08-14T08:02:39Z</time>
      </trkpt>
      <trkpt lat="45.92207" lon="4.75183">
        <ele>175</ele>
        <time>2017-08-14T08:02:40Z</time>
      </trkpt>
      <trkpt lat="45.92206" lon="4.75191">
        <ele>175</ele>
        <time>2017-08-14T08:02:41Z</time>
      </trkpt>
      <trkpt lat="45.92204" lon="4.752">
        <ele>175</ele>
        <time>2017-08-14T08:02:42Z</time>
      </trkpt>
      <trkpt lat="45.92203" lon="4.75208">
        <ele>175</ele>
        <time>2017-08-14T08:02:43Z</time>
      </trkpt>
      <trkpt lat="45.92202" lon="4.75217">
        <ele>175</ele>
        <time>2017-08-14T08:02:44Z</time>
      </trkpt>
      <trkpt lat="45.92202" lon="4.75225">
        <ele>175</ele>
        <time>2017-08-14T08:02:45Z</time>
      </trkpt>
      <trkpt lat="45.92202" lon="4.75233">
        <ele>175</ele>
        <time>2017-08-14T08:02:46Z</time>
      </trkpt>
      <trkpt lat="45.92201" lon="4.75241">
        <ele>175</ele>
        <time>2017-08-14T08:02:47Z</time>
      </trkpt>
      <trkpt lat="45.92201" lon="4.75249">
        <ele>175</ele>
        <time>2017-08-14T08:02:48Z</time>
      </trkpt>
      <trkpt lat="45.922" lon="4.75257">
        <ele>175</ele>
        <time>2017-08-14T08:02:49Z</time>
      </trkpt>
      <trkpt lat="45.922" lon="4.75265">
        <ele>176</ele>
        <time>2017-08-14T08:02:50Z</time>
      </trkpt>
      <trkpt lat="45.92201" lon="4.75274">
        <ele>176</ele>
        <time>2017-08-14T08:02:51Z</time>
      </trkpt>
      <trkpt lat="45.92201" lon="4.75282">
        <ele>176</ele>
        <time>2017-08-14T08:02:52Z</time>
      </trkpt>
      <trkpt lat="45.92203" lon="4.75291">
        <ele>176</ele>
        <time>2017-08-14T08:02:53Z</time>
      </trkpt>
      <trkpt lat="45.92203" lon="4.75299">
        <ele>176</ele>
        <time>2017-08-14T08:02:54Z</time>
      </trkpt>
      <trkpt lat="45.92203" lon="4.75307">
        <ele>176</ele>
        <time>2017-08-14T08:02:55Z</time>
      </trkpt>
      <trkpt lat="45.92202" lon="4.75314">
        <ele>176</ele>
        <time>2017-08-14T08:02:56Z</time>
      </trkpt>
      <trkpt lat="45.92201" lon="4.7532">
        <ele>176</ele>
        <time>2017-08-14T08:02:57Z</time>
      </trkpt>
      <trkpt lat="45.922" lon="4.75326">
        <ele>176</ele>
        <time>2017-08-14T08:02:58Z</time>
      </trkpt>
      <trkpt lat="45.92198" lon="4.75333">
        <ele>176</ele>
        <time>2017-08-14T08:02:59Z</time>
      </trkpt>
      <trkpt lat="45.92199" lon="4.7534">
        <ele>177</ele>
        <time>2017-08-14T08:03:00Z</time>
      </trkpt>
      <trkpt lat="45.92199" lon="4.75347">
        <ele>177</ele>
        <time>2017-08-14T08:03:01Z</time>
      </trkpt>
      <trkpt lat="45.92197" lon="4.75354">
        <ele>177</ele>
        <time>2017-08-14T08:03:02Z</time>
      </trkpt>
      <trkpt lat="45.92193" lon="4.7536">
        <ele>177</ele>
        <time>2017-08-14T08:03:03Z</time>
      </trkpt>
      <trkpt lat="45.9219" lon="4.75366">
        <ele>177</ele>
        <time>2017-08-14T08:03:04Z</time>
      </trkpt>
      <trkpt lat="45.92187" lon="4.75373">
        <ele>177</ele>
        <time>2017-08-14T08:03:05Z</time>
      </trkpt>
      <trkpt lat="45.92185" lon="4.7538">
        <ele>177</ele>
        <time>2017-08-14T08:03:06Z</time>
      </trkpt>
      <trkpt lat="45.92182" lon="4.75387">
        <ele>177</ele>
        <time>2017-08-14T08:03:07Z</time>
      </trkpt>
      <trkpt lat="45.92179" lon="4.75395">
        <ele>177</ele>
        <time>2017-08-14T08:03:08Z</time>
      </trkpt>
      <trkpt lat="45.92177" lon="4.75402">
        <ele>177</ele>
        <time>2017-08-14T08:03:09Z</time>
      </trkpt>
      <trkpt lat="45.92176" lon="4.7541">
        <ele>178</ele>
        <time>2017-08-14T08:03:10Z</time>
      </trkpt>
      <trkpt lat="45.92174" lon="4.75417">
        <ele>177</ele>
        <time>2017-08-14T08:03:11Z</time>
      </trkpt>
      <trkpt lat="45.92172" lon="4.75424">
        <ele>177</ele>
        <time>2017-08-14T08:03:12Z</time>
      </trkpt>
      <trkpt lat="45.92169" lon="4.7543">
        <ele>177</ele>
        <time>2017-08-14T08:03:13Z</time>
      </trkpt>
      <trkpt lat="45.92167" lon="4.75437">
        <ele>177</ele>
        <time>2017-08-14T08:03:14Z</time>
      </trkpt>
      <trkpt lat="45.92165" lon="4.75443">
        <ele>177</ele>
        <time>2017-08-14T08:03:15Z</time>
      </trkpt>
      <trkpt lat="45.92162" lon="4.7545">
        <ele>176</ele>
        <time>2017-08-14T08:03:16Z</time>
      </trkpt>
      <trkpt lat="45.92158" lon="4.75457">
        <ele>176</ele>
        <time>2017-08-14T08:03:17Z</time>
      </trkpt>
      <trkpt lat="45.92155" lon="4.75464">
        <ele>176</ele>
        <time>2017-08-14T08:03:18Z</time>
      </trkpt>
      <trkpt lat="45.92152" lon="4.75471">
        <ele>176</ele>
        <time>2017-08-14T08:03:19Z</time>
      </trkpt>
      <trkpt lat="45.92148" lon="4.75477">
        <ele>176</ele>
        <time>2017-08-14T08:03:20Z</time>
      </trkpt>
      <trkpt lat="45.92145" lon="4.75483">
        <ele>176</ele>
        <time>2017-08-14T08:03:21Z</time>
      </trkpt>
      <trkpt lat="45.92142" lon="4.7549">
        <ele>176</ele>
        <time>2017-08-14T08:03:22Z</time>
      </trkpt>
      <trkpt lat="45.92139" lon="4.75497">
        <ele>176</ele>
        <time>2017-08-14T08:03:23Z</time>
      </trkpt>
      <trkpt lat="45.92136" lon="4.75504">
        <ele>174</ele>
        <time>2017-08-14T08:03:24Z</time>
      </trkpt>
      <trkpt lat="45.92133" lon="4.75511">
        <ele>174</ele>
        <time>2017-08-14T08:03:25Z</time>
      </trkpt>
      <trkpt lat="45.92129" lon="4.75518">
        <ele>174</ele>
        <time>2017-08-14T08:03:26Z</time>
      </trkpt>
      <trkpt lat="45.92125" lon="4.75525">
        <ele>174</ele>
        <time>2017-08-14T08:03:27Z</time>
      </trkpt>
      <trkpt lat="45.92122" lon="4.75532">
        <ele>174</ele>
        <time>2017-08-14T08:03:28Z</time>
      </trkpt>
      <trkpt lat="45.92118" lon="4.7554">
        <ele>174</ele>
        <time>2017-08-14T08:03:29Z</time>
      </trkpt>
      <trkpt lat="45.92115" lon="4.75546">
        <ele>174</ele>
        <time>2017-08-14T08:03:30Z</time>
      </trkpt>
      <trkpt lat="45.92111" lon="4.75554">
        <ele>174</ele>
        <time>2017-08-14T08:03:31Z</time>
      </trkpt>
      <trkpt lat="45.92108" lon="4.7556">
        <ele>174</ele>
        <time>2017-08-14T08:03:32Z</time>
      </trkpt>
      <trkpt lat="45.92106" lon="4.75566">
        <ele>174</ele>
        <time>2017-08-14T08:03:33Z</time>
      </trkpt>
      <trkpt lat="45.92104" lon="4.75573">
        <ele>174</ele>
        <time>2017-08-14T08:03:34Z</time>
      </trkpt>
      <trkpt lat="45.92105" lon="4.7558">
        <ele>174</ele>
        <time>2017-08-14T08:03:35Z</time>
      </trkpt>
      <trkpt lat="45.9211" lon="4.75587">
        <ele>174</ele>
        <time>2017-08-14T08:03:36Z</time>
      </trkpt>
      <trkpt lat="45.92115" lon="4.75592">
        <ele>174</ele>
        <time>2017-08-14T08:03:37Z</time>
      </trkpt>
      <trkpt lat="45.92119" lon="4.75596">
        <ele>174</ele>
        <time>2017-08-14T08:03:38Z</time>
      </trkpt>
      <trkpt lat="45.92124" lon="4.75601">
        <ele>174</ele>
        <time>2017-08-14T08:03:39Z</time>
      </trkpt>
      <trkpt lat="45.92128" lon="4.75606">
        <ele>174</ele>
        <time>2017-08-14T08:03:40Z</time>
      </trkpt>
      <trkpt lat="45.92133" lon="4.75611">
        <ele>174</ele>
        <time>2017-08-14T08:03:41Z</time>
      </trkpt>
      <trkpt lat="45.92138" lon="4.75616">
        <ele>174</ele>
        <time>2017-08-14T08:03:42Z</time>
      </trkpt>
      <trkpt lat="45.92143" lon="4.75621">
        <ele>174</ele>
        <time>2017-08-14T08:03:43Z</time>
      </trkpt>
      <trkpt lat="45.92148" lon="4.75625">
        <ele>174</ele>
        <time>2017-08-14T08:03:44Z</time>
      </trkpt>
      <trkpt lat="45.92153" lon="4.7563">
        <ele>174</ele>
        <time>2017-08-14T08:03:45Z</time>
      </trkpt>
      <trkpt lat="45.92157" lon="4.75634">
        <ele>174</ele>
        <time>2017-08-14T08:03:46Z</time>
      </trkpt>
      <trkpt lat="45.92162" lon="4.75638">
        <ele>174</ele>
        <time>2017-08-14T08:03:47Z</time>
      </trkpt>
      <trkpt lat="45.92166" lon="4.75642">
        <ele>174</ele>
        <time>2017-08-14T08:03:48Z</time>
      </trkpt>
      <trkpt lat="45.92171" lon="4.75646">
        <ele>174</ele>
        <time>2017-08-14T08:03:49Z</time>
      </trkpt>
      <trkpt lat="45.92175" lon="4.7565">
        <ele>174</ele>
        <time>2017-08-14T08:03:50Z</time>
      </trkpt>
      <trkpt lat="45.92179" lon="4.75654">
        <ele>174</ele>
        <time>2017-08-14T08:03:51Z</time>
      </trkpt>
      <trkpt lat="45.92183" lon="4.75659">
        <ele>174</ele>
        <time>2017-08-14T08:03:52Z</time>
      </trkpt>
      <trkpt lat="45.92188" lon="4.75664">
        <ele>174</ele>
        <time>2017-08-14T08:03:53Z</time>
      </trkpt>
      <trkpt lat="45.92193" lon="4.75668">
        <ele>174</ele>
        <time>2017-08-14T08:03:54Z</time>
      </trkpt>
      <trkpt lat="45.92198" lon="4.75673">
        <ele>174</ele>
        <time>2017-08-14T08:03:55Z</time>
      </trkpt>
      <trkpt lat="45.92203" lon="4.75678">
        <ele>174</ele>
        <time>2017-08-14T08:03:56Z</time>
      </trkpt>
      <trkpt lat="45.92208" lon="4.75683">
        <ele>174</ele>
        <time>2017-08-14T08:03:57Z</time>
      </trkpt>
      <trkpt lat="45.92213" lon="4.75688">
        <ele>174</ele>
        <time>2017-08-14T08:03:58Z</time>
      </trkpt>
      <trkpt lat="45.92218" lon="4.75694">
        <ele>174</ele>
        <time>2017-08-14T08:03:59Z</time>
      </trkpt>
      <trkpt lat="45.92223" lon="4.75699">
        <ele>174</ele>
        <time>2017-08-14T08:04:00Z</time>
      </trkpt>
      <trkpt lat="45.92228" lon="4.75704">
        <ele>174</ele>
        <time>2017-08-14T08:04:01Z</time>
      </trkpt>
      <trkpt lat="45.92232" lon="4.7571">
        <ele>174</ele>
        <time>2017-08-14T08:04:02Z</time>
      </trkpt>
      <trkpt lat="45.92235" lon="4.75716">
        <ele>174</ele>
        <time>2017-08-14T08:04:03Z</time>
      </trkpt>
      <trkpt lat="45.92238" lon="4.75722">
        <ele>174</ele>
        <time>2017-08-14T08:04:04Z</time>
      </trkpt>
      <trkpt lat="45.92241" lon="4.75729">
        <ele>174</ele>
        <time>2017-08-14T08:04:05Z</time>
      </trkpt>
      <trkpt lat="45.92244" lon="4.75736">
        <ele>174</ele>
        <time>2017-08-14T08:04:06Z</time>
      </trkpt>
      <trkpt lat="45.92245" lon="4.75744">
        <ele>174</ele>
        <time>2017-08-14T08:04:07Z</time>
      </trkpt>
      <trkpt lat="45.92247" lon="4.75751">
        <ele>174</ele>
        <time>2017-08-14T08:04:08Z</time>
      </trkpt>
      <trkpt lat="45.92248" lon="4.75759">
        <ele>174</ele>
        <time>2017-08-14T08:04:09Z</time>
      </trkpt>
      <trkpt lat="45.92249" lon="4.75767">
        <ele>174</ele>
        <time>2017-08-14T08:04:10Z</time>
      </trkpt>
      <trkpt lat="45.92251" lon="4.75774">
        <ele>174</ele>
        <time>2017-08-14T08:04:11Z</time>
      </trkpt>
      <trkpt lat="45.92253" lon="4.75782">
        <ele>174</ele>
        <time>2017-08-14T08:04:12Z</time>
      </trkpt>
      <trkpt lat="45.92254" lon="4.7579">
        <ele>174</ele>
        <time>2017-08-14T08:04:13Z</time>
      </trkpt>
      <trkpt lat="45.92255" lon="4.75798">
        <ele>174</ele>
        <time>2017-08-14T08:04:14Z</time>
      </trkpt>
      <trkpt lat="45.92258" lon="4.75806">
        <ele>174</ele>
        <time>2017-08-14T08:04:15Z</time>
      </trkpt>
      <trkpt lat="45.92261" lon="4.75814">
        <ele>174</ele>
        <time>2017-08-14T08:04:16Z</time>
      </trkpt>
      <trkpt lat="45.92265" lon="4.75821">
        <ele>174</ele>
        <time>2017-08-14T08:04:17Z</time>
      </trkpt>
      <trkpt lat="45.9227" lon="4.75827">
        <ele>174</ele>
        <time>2017-08-14T08:04:18Z</time>
      </trkpt>
      <trkpt lat="45.92276" lon="4.75833">
        <ele>174</ele>
        <time>2017-08-14T08:04:19Z</time>
      </trkpt>
      <trkpt lat="45.92282" lon="4.75837">
        <ele>173</ele>
        <time>2017-08-14T08:04:20Z</time>
      </trkpt>
      <trkpt lat="45.92288" lon="4.75841">
        <ele>173</ele>
        <time>2017-08-14T08:04:21Z</time>
      </trkpt>
      <trkpt lat="45.92294" lon="4.75844">
        <ele>173</ele>
        <time>2017-08-14T08:04:22Z</time>
      </trkpt>
      <trkpt lat="45.923" lon="4.75848">
        <ele>173</ele>
        <time>2017-08-14T08:04:23Z</time>
      </trkpt>
      <trkpt lat="45.92306" lon="4.75851">
        <ele>173</ele>
        <time>2017-08-14T08:04:24Z</time>
      </trkpt>
      <trkpt lat="45.92312" lon="4.75855">
        <ele>173</ele>
        <time>2017-08-14T08:04:25Z</time>
      </trkpt>
      <trkpt lat="45.92318" lon="4.75859">
        <ele>173</ele>
        <time>2017-08-14T08:04:26Z</time>
      </trkpt>
      <trkpt lat="45.92324" lon="4.75863">
        <ele>173</ele>
        <time>2017-08-14T08:04:27Z</time>
      </trkpt>
      <trkpt lat="45.9233" lon="4.75867">
        <ele>173</ele>
        <time>2017-08-14T08:04:28Z</time>
      </trkpt>
      <trkpt lat="45.92336" lon="4.75871">
        <ele>173</ele>
        <time>2017-08-14T08:04:29Z</time>
      </trkpt>
      <trkpt lat="45.92342" lon="4.75875">
        <ele>173</ele>
        <time>2017-08-14T08:04:30Z</time>
      </trkpt>
      <trkpt lat="45.92348" lon="4.75879">
        <ele>173</ele>
        <time>2017-08-14T08:04:31Z</time>
      </trkpt>
      <trkpt lat="45.92354" lon="4.75882">
        <ele>173</ele>
        <time>2017-08-14T08:04:32Z</time>
      </trkpt>
      <trkpt lat="45.9236" lon="4.75885">
        <ele>173</ele>
        <time>2017-08-14T08:04:33Z</time>
      </trkpt>
      <trkpt lat="45.92366" lon="4.75888">
        <ele>173</ele>
        <time>2017-08-14T08:04:34Z</time>
      </trkpt>
      <trkpt lat="45.92372" lon="4.75892">
        <ele>173</ele>
        <time>2017-08-14T08:04:35Z</time>
      </trkpt>
      <trkpt lat="45.92377" lon="4.75896">
        <ele>173</ele>
        <time>2017-08-14T08:04:36Z</time>
      </trkpt>
      <trkpt lat="45.92382" lon="4.759">
        <ele>173</ele>
        <time>2017-08-14T08:04:37Z</time>
      </trkpt>
      <trkpt lat="45.92388" lon="4.75903">
        <ele>173</ele>
        <time>2017-08-14T08:04:38Z</time>
      </trkpt>
      <trkpt lat="45.92393" lon="4.75907">
        <ele>173</ele>
        <time>2017-08-14T08:04:39Z</time>
      </trkpt>
      <trkpt lat="45.92399" lon="4.75911">
        <ele>173</ele>
        <time>2017-08-14T08:04:40Z</time>
      </trkpt>
      <trkpt lat="45.92405" lon="4.75915">
        <ele>172</ele>
        <time>2017-08-14T08:04:41Z</time>
      </trkpt>
      <trkpt lat="45.92411" lon="4.75919">
        <ele>172</ele>
        <time>2017-08-14T08:04:42Z</time>
      </trkpt>
      <trkpt lat="45.92416" lon="4.75923">
        <ele>172</ele>
        <time>2017-08-14T08:04:43Z</time>
      </trkpt>
      <trkpt lat="45.92422" lon="4.75927">
        <ele>172</ele>
        <time>2017-08-14T08:04:44Z</time>
      </trkpt>
      <trkpt lat="45.92428" lon="4.75931">
        <ele>172</ele>
        <time>2017-08-14T08:04:45Z</time>
      </trkpt>
      <trkpt lat="45.92434" lon="4.75935">
        <ele>172</ele>
        <time>2017-08-14T08:04:46Z</time>
      </trkpt>
      <trkpt lat="45.92439" lon="4.75939">
        <ele>172</ele>
        <time>2017-08-14T08:04:47Z</time>
      </trkpt>
      <trkpt lat="45.92444" lon="4.75944">
        <ele>172</ele>
        <time>2017-08-14T08:04:48Z</time>
      </trkpt>
      <trkpt lat="45.92449" lon="4.75948">
        <ele>172</ele>
        <time>2017-08-14T08:04:49Z</time>
      </trkpt>
      <trkpt lat="45.92455" lon="4.75952">
        <ele>172</ele>
        <time>2017-08-14T08:04:50Z</time>
      </trkpt>
      <trkpt lat="45.9246" lon="4.75956">
        <ele>172</ele>
        <time>2017-08-14T08:04:51Z</time>
      </trkpt>
      <trkpt lat="45.92466" lon="4.7596">
        <ele>172</ele>
        <time>2017-08-14T08:04:52Z</time>
      </trkpt>
      <trkpt lat="45.92471" lon="4.75964">
        <ele>172</ele>
        <time>2017-08-14T08:04:53Z</time>
      </trkpt>
      <trkpt lat="45.92475" lon="4.75967">
        <ele>172</ele>
        <time>2017-08-14T08:04:54Z</time>
      </trkpt>
      <trkpt lat="45.92479" lon="4.75971">
        <ele>172</ele>
        <time>2017-08-14T08:04:55Z</time>
      </trkpt>
      <trkpt lat="45.92484" lon="4.75976">
        <ele>172</ele>
        <time>2017-08-14T08:04:56Z</time>
      </trkpt>
      <trkpt lat="45.92489" lon="4.7598">
        <ele>172</ele>
        <time>2017-08-14T08:04:57Z</time>
      </trkpt>
      <trkpt lat="45.92494" lon="4.75983">
        <ele>172</ele>
        <time>2017-08-14T08:04:58Z</time>
      </trkpt>
      <trkpt lat="45.92499" lon="4.75987">
        <ele>172</ele>
        <time>2017-08-14T08:04:59Z</time>
      </trkpt>
      <trkpt lat="45.92504" lon="4.75991">
        <ele>172</ele>
        <time>2017-08-14T08:05:00Z</time>
      </trkpt>
      <trkpt lat="45.92509" lon="4.75994">
        <ele>172</ele>
        <time>2017-08-14T08:05:01Z</time>
      </trkpt>
      <trkpt lat="45.92513" lon="4.75998">
        <ele>172</ele>
        <time>2017-08-14T08:05:02Z</time>
      </trkpt>
      <trkpt lat="45.92518" lon="4.76002">
        <ele>172</ele>
        <time>2017-08-14T08:05:03Z</time>
      </trkpt>
      <trkpt lat="45.92523" lon="4.76005">
        <ele>172</ele>
        <time>2017-08-14T08:05:04Z</time>
      </trkpt>
      <trkpt lat="45.92526" lon="4.76008">
        <ele>172</ele>
        <time>2017-08-14T08:05:05Z</time>
      </trkpt>
      <trkpt lat="45.92531" lon="4.76012">
        <ele>172</ele>
        <time>2017-08-14T08:05:06Z</time>
      </trkpt>
      <trkpt lat="45.92535" lon="4.76015">
        <ele>172</ele>
        <time>2017-08-14T08:05:07Z</time>
      </trkpt>
      <trkpt lat="45.9254" lon="4.76019">
        <ele>172</ele>
        <time>2017-08-14T08:05:08Z</time>
      </trkpt>
      <trkpt lat="45.92545" lon="4.76022">
        <ele>172</ele>
        <time>2017-08-14T08:05:09Z</time>
      </trkpt>
      <trkpt lat="45.9255" lon="4.76025">
        <ele>172</ele>
        <time>2017-08-14T08:05:10Z</time>
      </trkpt>
      <trkpt lat="45.92554" lon="4.76029">
        <ele>172</ele>
        <time>2017-08-14T08:05:11Z</time>
      </trkpt>
      <trkpt lat="45.92559" lon="4.76032">
        <ele>172</ele>
        <time>2017-08-14T08:05:12Z</time>
      </trkpt>
      <trkpt lat="45.92563" lon="4.76035">
        <ele>172</ele>
        <time>2017-08-14T08:05:13Z</time>
      </trkpt>
      <trkpt lat="45.92568" lon="4.76039">
        <ele>172</ele>
        <time>2017-08-14T08:05:14Z</time>
      </trkpt>
      <trkpt lat="45.92572" lon="4.76042">
        <ele>171</ele>
        <time>2017-08-14T08:05:15Z</time>
      </trkpt>
      <trkpt lat="45.92576" lon="4.76046">
        <ele>171</ele>
        <time>2017-08-14T08:05:16Z</time>
      </trkpt>
      <trkpt lat="45.9258" lon="4.76049">
        <ele>171</ele>
        <time>2017-08-14T08:05:17Z</time>
      </trkpt>
      <trkpt lat="45.92585" lon="4.76052">
        <ele>171</ele>
        <time>2017-08-14T08:05:18Z</time>
      </trkpt>
      <trkpt lat="45.92589" lon="4.76055">
        <ele>171</ele>
        <time>2017-08-14T08:05:19Z</time>
      </trkpt>
      <trkpt lat="45.92593" lon="4.76059">
        <ele>171</ele>
        <time>2017-08-14T08:05:20Z</time>
      </trkpt>
      <trkpt lat="45.92598" lon="4.76062">
        <ele>171</ele>
        <time>2017-08-14T08:05:21Z</time>
      </trkpt>
      <trkpt lat="45.92602" lon="4.76065">
        <ele>171</ele>
        <time>2017-08-14T08:05:22Z</time>
      </trkpt>
      <trkpt lat="45.92607" lon="4.76068">
        <ele>171</ele>
        <time>2017-08-14T08:05:23Z</time>
      </trkpt>
      <trkpt lat="45.92611" lon="4.76071">
        <ele>171</ele>
        <time>2017-08-14T08:05:24Z</time>
      </trkpt>
      <trkpt lat="45.92616" lon="4.76074">
        <ele>171</ele>
        <time>2017-08-14T08:05:25Z</time>
      </trkpt>
      <trkpt lat="45.92621" lon="4.76078">
        <ele>171</ele>
        <time>2017-08-14T08:05:26Z</time>
      </trkpt>
      <trkpt lat="45.92626" lon="4.76081">
        <ele>170</ele>
        <time>2017-08-14T08:05:27Z</time>
      </trkpt>
      <trkpt lat="45.92632" lon="4.76085">
        <ele>170</ele>
        <time>2017-08-14T08:05:28Z</time>
      </trkpt>
      <trkpt lat="45.92637" lon="4.76089">
        <ele>170</ele>
        <time>2017-08-14T08:05:29Z</time>
      </trkpt>
      <trkpt lat="45.92643" lon="4.76093">
        <ele>170</ele>
        <time>2017-08-14T08:05:30Z</time>
      </trkpt>
      <trkpt lat="45.92649" lon="4.76097">
        <ele>170</ele>
        <time>2017-08-14T08:05:31Z</time>
      </trkpt>
      <trkpt lat="45.92654" lon="4.76102">
        <ele>170</ele>
        <time>2017-08-14T08:05:32Z</time>
      </trkpt>
      <trkpt lat="45.9266" lon="4.76106">
        <ele>170</ele>
        <time>2017-08-14T08:05:33Z</time>
      </trkpt>
      <trkpt lat="45.92667" lon="4.7611">
        <ele>170</ele>
        <time>2017-08-14T08:05:34Z</time>
      </trkpt>
      <trkpt lat="45.92674" lon="4.76115">
        <ele>169</ele>
        <time>2017-08-14T08:05:35Z</time>
      </trkpt>
      <trkpt lat="45.9268" lon="4.76119">
        <ele>169</ele>
        <time>2017-08-14T08:05:36Z</time>
      </trkpt>
      <trkpt lat="45.92687" lon="4.76124">
        <ele>169</ele>
        <time>2017-08-14T08:05:37Z</time>
      </trkpt>
      <trkpt lat="45.92694" lon="4.76128">
        <ele>169</ele>
        <time>2017-08-14T08:05:38Z</time>
      </trkpt>
      <trkpt lat="45.927" lon="4.76132">
        <ele>169</ele>
        <time>2017-08-14T08:05:39Z</time>
      </trkpt>
      <trkpt lat="45.92707" lon="4.76136">
        <ele>169</ele>
        <time>2017-08-14T08:05:40Z</time>
      </trkpt>
      <trkpt lat="45.92714" lon="4.7614">
        <ele>168</ele>
        <time>2017-08-14T08:05:41Z</time>
      </trkpt>
      <trkpt lat="45.9272" lon="4.76145">
        <ele>168</ele>
        <time>2017-08-14T08:05:42Z</time>
      </trkpt>
      <trkpt lat="45.92727" lon="4.7615">
        <ele>168</ele>
        <time>2017-08-14T08:05:43Z</time>
      </trkpt>
      <trkpt lat="45.92734" lon="4.76154">
        <ele>168</ele>
        <time>2017-08-14T08:05:44Z</time>
      </trkpt>
      <trkpt lat="45.9274" lon="4.76158">
        <ele>168</ele>
        <time>2017-08-14T08:05:45Z</time>
      </trkpt>
      <trkpt lat="45.92746" lon="4.76163">
        <ele>167</ele>
        <time>2017-08-14T08:05:46Z</time>
      </trkpt>
      <trkpt lat="45.92752" lon="4.76167">
        <ele>167</ele>
        <time>2017-08-14T08:05:47Z</time>
      </trkpt>
      <trkpt lat="45.92757" lon="4.76171">
        <ele>167</ele>
        <time>2017-08-14T08:05:48Z</time>
      </trkpt>
      <trkpt lat="45.92763" lon="4.76176">
        <ele>167</ele>
        <time>2017-08-14T08:05:49Z</time>
      </trkpt>
      <trkpt lat="45.92768" lon="4.7618">
        <ele>167</ele>
        <time>2017-08-14T08:05:50Z</time>
      </trkpt>
      <trkpt lat="45.92773" lon="4.76184">
        <ele>167</ele>
        <time>2017-08-14T08:05:51Z</time>
      </trkpt>
      <trkpt lat="45.92777" lon="4.76189">
        <ele>168</ele>
        <time>2017-08-14T08:05:52Z</time>
      </trkpt>
      <trkpt lat="45.92782" lon="4.76193">
        <ele>168</ele>
        <time>2017-08-14T08:05:53Z</time>
      </trkpt>
      <trkpt lat="45.92787" lon="4.76198">
        <ele>168</ele>
        <time>2017-08-14T08:05:54Z</time>
      </trkpt>
      <trkpt lat="45.92792" lon="4.76203">
        <ele>168</ele>
        <time>2017-08-14T08:05:55Z</time>
      </trkpt>
      <trkpt lat="45.92797" lon="4.76207">
        <ele>168</ele>
        <time>2017-08-14T08:05:56Z</time>
      </trkpt>
      <trkpt lat="45.92803" lon="4.76212">
        <ele>168</ele>
        <time>2017-08-14T08:05:57Z</time>
      </trkpt>
      <trkpt lat="45.92808" lon="4.76217">
        <ele>168</ele>
        <time>2017-08-14T08:05:58Z</time>
      </trkpt>
      <trkpt lat="45.92814" lon="4.76222">
        <ele>168</ele>
        <time>2017-08-14T08:05:59Z</time>
      </trkpt>
      <trkpt lat="45.9282" lon="4.76228">
        <ele>168</ele>
        <time>2017-08-14T08:06:00Z</time>
      </trkpt>
      <trkpt lat="45.92826" lon="4.76233">
        <ele>168</ele>
        <time>2017-08-14T08:06:01Z</time>
      </trkpt>
      <trkpt lat="45.92831" lon="4.76239">
        <ele>169</ele>
        <time>2017-08-14T08:06:02Z</time>
      </trkpt>
      <trkpt lat="45.92837" lon="4.76244">
        <ele>169</ele>
        <time>2017-08-14T08:06:03Z</time>
      </trkpt>
      <trkpt lat="45.92842" lon="4.76249">
        <ele>169</ele>
        <time>2017-08-14T08:06:04Z</time>
      </trkpt>
      <trkpt lat="45.92847" lon="4.76254">
        <ele>169</ele>
        <time>2017-08-14T08:06:05Z</time>
      </trkpt>
      <trkpt lat="45.92851" lon="4.7626">
        <ele>169</ele>
        <time>2017-08-14T08:06:06Z</time>
      </trkpt>
      <trkpt lat="45.92855" lon="4.76264">
        <ele>169</ele>
        <time>2017-08-14T08:06:07Z</time>
      </trkpt>
      <trkpt lat="45.9286" lon="4.76269">
        <ele>169</ele>
        <time>2017-08-14T08:06:08Z</time>
      </trkpt>
      <trkpt lat="45.92864" lon="4.76274">
        <ele>169</ele>
        <time>2017-08-14T08:06:09Z</time>
      </trkpt>
      <trkpt lat="45.92869" lon="4.76278">
        <ele>169</ele>
        <time>2017-08-14T08:06:10Z</time>
      </trkpt>
      <trkpt lat="45.92873" lon="4.76284">
        <ele>169</ele>
        <time>2017-08-14T08:06:11Z</time>
      </trkpt>
      <trkpt lat="45.92878" lon="4.76289">
        <ele>169</ele>
        <time>2017-08-14T08:06:12Z</time>
      </trkpt>
      <trkpt lat="45.92884" lon="4.76294">
        <ele>169</ele>
        <time>2017-08-14T08:06:13Z</time>
      </trkpt>
      <trkpt lat="45.92889" lon="4.76299">
        <ele>169</ele>
        <time>2017-08-14T08:06:14Z</time>
      </trkpt>
      <trkpt lat="45.92895" lon="4.76304">
        <ele>169</ele>
        <time>2017-08-14T08:06:15Z</time>
      </trkpt>
      <trkpt lat="45.929" lon="4.76309">
        <ele>169</ele>
        <time>2017-08-14T08:06:16Z</time>
      </trkpt>
      <trkpt lat="45.92905" lon="4.76314">
        <ele>169</ele>
        <time>2017-08-14T08:06:17Z</time>
      </trkpt>
      <trkpt lat="45.9291" lon="4.76319">
        <ele>169</ele>
        <time>2017-08-14T08:06:18Z</time>
      </trkpt>
      <trkpt lat="45.92915" lon="4.76324">
        <ele>169</ele>
        <time>2017-08-14T08:06:19Z</time>
      </trkpt>
      <trkpt lat="45.92919" lon="4.76329">
        <ele>169</ele>
        <time>2017-08-14T08:06:20Z</time>
      </trkpt>
      <trkpt lat="45.92923" lon="4.76334">
        <ele>169</ele>
        <time>2017-08-14T08:06:21Z</time>
      </trkpt>
      <trkpt lat="45.92928" lon="4.76339">
        <ele>169</ele>
        <time>2017-08-14T08:06:22Z</time>
      </trkpt>
      <trkpt lat="45.92932" lon="4.76343">
        <ele>169</ele>
        <time>2017-08-14T08:06:23Z</time>
      </trkpt>
      <trkpt lat="45.92936" lon="4.76347">
        <ele>169</ele>
        <time>2017-08-14T08:06:24Z</time>
      </trkpt>
      <trkpt lat="45.9294" lon="4.76351">
        <ele>169</ele>
        <time>2017-08-14T08:06:25Z</time>
      </trkpt>
      <trkpt lat="45.92944" lon="4.76355">
        <ele>169</ele>
        <time>2017-08-14T08:06:26Z</time>
      </trkpt>
      <trkpt lat="45.92949" lon="4.76359">
        <ele>169</ele>
        <time>2017-08-14T08:06:27Z</time>
      </trkpt>
      <trkpt lat="45.92953" lon="4.76364">
        <ele>169</ele>
        <time>2017-08-14T08:06:28Z</time>
      </trkpt>
      <trkpt lat="45.92958" lon="4.76368">
        <ele>169</ele>
        <time>2017-08-14T08:06:29Z</time>
      </trkpt>
      <trkpt lat="45.92963" lon="4.76373">
        <ele>169</ele>
        <time>2017-08-14T08:06:30Z</time>
      </trkpt>
      <trkpt lat="45.92968" lon="4.76378">
        <ele>169</ele>
        <time>2017-08-14T08:06:31Z</time>
      </trkpt>
      <trkpt lat="45.92973" lon="4.76383">
        <ele>169</ele>
        <time>2017-08-14T08:06:32Z</time>
      </trkpt>
      <trkpt lat="45.92978" lon="4.76388">
        <ele>169</ele>
        <time>2017-08-14T08:06:33Z</time>
      </trkpt>
      <trkpt lat="45.92984" lon="4.76393">
        <ele>169</ele>
        <time>2017-08-14T08:06:34Z</time>
      </trkpt>
      <trkpt lat="45.92989" lon="4.76399">
        <ele>169</ele>
        <time>2017-08-14T08:06:35Z</time>
      </trkpt>
      <trkpt lat="45.92993" lon="4.76404">
        <ele>169</ele>
        <time>2017-08-14T08:06:36Z</time>
      </trkpt>
      <trkpt lat="45.92998" lon="4.76409">
        <ele>169</ele>
        <time>2017-08-14T08:06:37Z</time>
      </trkpt>
      <trkpt lat="45.93003" lon="4.76413">
        <ele>169</ele>
        <time>2017-08-14T08:06:38Z</time>
      </trkpt>
      <trkpt lat="45.93007" lon="4.76418">
        <ele>169</ele>
        <time>2017-08-14T08:06:39Z</time>
      </trkpt>
      <trkpt lat="45.93011" lon="4.76422">
        <ele>169</ele>
        <time>2017-08-14T08:06:40Z</time>
      </trkpt>
      <trkpt lat="45.93016" lon="4.76427">
        <ele>169</ele>
        <time>2017-08-14T08:06:41Z</time>
      </trkpt>
      <trkpt lat="45.93021" lon="4.76431">
        <ele>169</ele>
        <time>2017-08-14T08:06:42Z</time>
      </trkpt>
      <trkpt lat="45.93025" lon="4.76435">
        <ele>169</ele>
        <time>2017-08-14T08:06:43Z</time>
      </trkpt>
      <trkpt lat="45.9303" lon="4.76439">
        <ele>169</ele>
        <time>2017-08-14T08:06:44Z</time>
      </trkpt>
      <trkpt lat="45.93035" lon="4.76445">
        <ele>169</ele>
        <time>2017-08-14T08:06:45Z</time>
      </trkpt>
      <trkpt lat="45.9304" lon="4.7645">
        <ele>169</ele>
        <time>2017-08-14T08:06:46Z</time>
      </trkpt>
      <trkpt lat="45.93046" lon="4.76456">
        <ele>169</ele>
        <time>2017-08-14T08:06:47Z</time>
      </trkpt>
      <trkpt lat="45.93052" lon="4.76461">
        <ele>169</ele>
        <time>2017-08-14T08:06:48Z</time>
      </trkpt>
      <trkpt lat="45.93057" lon="4.76466">
        <ele>169</ele>
        <time>2017-08-14T08:06:49Z</time>
      </trkpt>
      <trkpt lat="45.93063" lon="4.76472">
        <ele>169</ele>
        <time>2017-08-14T08:06:50Z</time>
      </trkpt>
      <trkpt lat="45.93068" lon="4.76478">
        <ele>169</ele>
        <time>2017-08-14T08:06:51Z</time>
      </trkpt>
      <trkpt lat="45.93073" lon="4.76483">
        <ele>169</ele>
        <time>2017-08-14T08:06:52Z</time>
      </trkpt>
      <trkpt lat="45.93078" lon="4.76488">
        <ele>170</ele>
        <time>2017-08-14T08:06:53Z</time>
      </trkpt>
      <trkpt lat="45.93083" lon="4.76492">
        <ele>170</ele>
        <time>2017-08-14T08:06:54Z</time>
      </trkpt>
      <trkpt lat="45.93088" lon="4.76497">
        <ele>170</ele>
        <time>2017-08-14T08:06:55Z</time>
      </trkpt>
      <trkpt lat="45.93092" lon="4.76501">
        <ele>170</ele>
        <time>2017-08-14T08:06:56Z</time>
      </trkpt>
      <trkpt lat="45.93096" lon="4.76504">
        <ele>170</ele>
        <time>2017-08-14T08:06:57Z</time>
      </trkpt>
      <trkpt lat="45.931" lon="4.76508">
        <ele>170</ele>
        <time>2017-08-14T08:06:58Z</time>
      </trkpt>
      <trkpt lat="45.93103" lon="4.76513">
        <ele>170</ele>
        <time>2017-08-14T08:06:59Z</time>
      </trkpt>
      <trkpt lat="45.93108" lon="4.76517">
        <ele>170</ele>
        <time>2017-08-14T08:07:00Z</time>
      </trkpt>
      <trkpt lat="45.93113" lon="4.76522">
        <ele>170</ele>
        <time>2017-08-14T08:07:01Z</time>
      </trkpt>
      <trkpt lat="45.93118" lon="4.76526">
        <ele>170</ele>
        <time>2017-08-14T08:07:02Z</time>
      </trkpt>
      <trkpt lat="45.93123" lon="4.76531">
        <ele>170</ele>
        <time>2017-08-14T08:07:03Z</time>
      </trkpt>
      <trkpt lat="45.93127" lon="4.76536">
        <ele>170</ele>
        <time>2017-08-14T08:07:04Z</time>
      </trkpt>
      <trkpt lat="45.93131" lon="4.76541">
        <ele>170</ele>
        <time>2017-08-14T08:07:05Z</time>
      </trkpt>
      <trkpt lat="45.93136" lon="4.76547">
        <ele>170</ele>
        <time>2017-08-14T08:07:06Z</time>
      </trkpt>
      <trkpt lat="45.9314" lon="4.76552">
        <ele>170</ele>
        <time>2017-08-14T08:07:07Z</time>
      </trkpt>
      <trkpt lat="45.93146" lon="4.76558">
        <ele>170</ele>
        <time>2017-08-14T08:07:08Z</time>
      </trkpt>
      <trkpt lat="45.93151" lon="4.76563">
        <ele>170</ele>
        <time>2017-08-14T08:07:09Z</time>
      </trkpt>
      <trkpt lat="45.93157" lon="4.76569">
        <ele>170</ele>
        <time>2017-08-14T08:07:10Z</time>
      </trkpt>
      <trkpt lat="45.93163" lon="4.76574">
        <ele>171</ele>
        <time>2017-08-14T08:07:11Z</time>
      </trkpt>
      <trkpt lat="45.93169" lon="4.7658">
        <ele>171</ele>
        <time>2017-08-14T08:07:12Z</time>
      </trkpt>
      <trkpt lat="45.93174" lon="4.76585">
        <ele>171</ele>
        <time>2017-08-14T08:07:13Z</time>
      </trkpt>
      <trkpt lat="45.93179" lon="4.7659">
        <ele>171</ele>
        <time>2017-08-14T08:07:14Z</time>
      </trkpt>
      <trkpt lat="45.93184" lon="4.76596">
        <ele>171</ele>
        <time>2017-08-14T08:07:15Z</time>
      </trkpt>
      <trkpt lat="45.9319" lon="4.76601">
        <ele>171</ele>
        <time>2017-08-14T08:07:16Z</time>
      </trkpt>
      <trkpt lat="45.93194" lon="4.76605">
        <ele>170</ele>
        <time>2017-08-14T08:07:17Z</time>
      </trkpt>
      <trkpt lat="45.93199" lon="4.7661">
        <ele>170</ele>
        <time>2017-08-14T08:07:18Z</time>
      </trkpt>
      <trkpt lat="45.93204" lon="4.76615">
        <ele>170</ele>
        <time>2017-08-14T08:07:19Z</time>
      </trkpt>
      <trkpt lat="45.93209" lon="4.7662">
        <ele>170</ele>
        <time>2017-08-14T08:07:20Z</time>
      </trkpt>
      <trkpt lat="45.93214" lon="4.76624">
        <ele>170</ele>
        <time>2017-08-14T08:07:21Z</time>
      </trkpt>
      <trkpt lat="45.93219" lon="4.76629">
        <ele>170</ele>
        <time>2017-08-14T08:07:22Z</time>
      </trkpt>
      <trkpt lat="45.93225" lon="4.76634">
        <ele>171</ele>
        <time>2017-08-14T08:07:23Z</time>
      </trkpt>
      <trkpt lat="45.9323" lon="4.76639">
        <ele>171</ele>
        <time>2017-08-14T08:07:24Z</time>
      </trkpt>
      <trkpt lat="45.93235" lon="4.76644">
        <ele>171</ele>
        <time>2017-08-14T08:07:25Z</time>
      </trkpt>
      <trkpt lat="45.93241" lon="4.7665">
        <ele>171</ele>
        <time>2017-08-14T08:07:26Z</time>
      </trkpt>
      <trkpt lat="45.93246" lon="4.76655">
        <ele>171</ele>
        <time>2017-08-14T08:07:27Z</time>
      </trkpt>
      <trkpt lat="45.93252" lon="4.76661">
        <ele>171</ele>
        <time>2017-08-14T08:07:28Z</time>
      </trkpt>
      <trkpt lat="45.93258" lon="4.76667">
        <ele>172</ele>
        <time>2017-08-14T08:07:29Z</time>
      </trkpt>
      <trkpt lat="45.93263" lon="4.76673">
        <ele>172</ele>
        <time>2017-08-14T08:07:30Z</time>
      </trkpt>
      <trkpt lat="45.93268" lon="4.76678">
        <ele>172</ele>
        <time>2017-08-14T08:07:31Z</time>
      </trkpt>
      <trkpt lat="45.93274" lon="4.76683">
        <ele>172</ele>
        <time>2017-08-14T08:07:32Z</time>
      </trkpt>
      <trkpt lat="45.93279" lon="4.76688">
        <ele>172</ele>
        <time>2017-08-14T08:07:33Z</time>
      </trkpt>
      <trkpt lat="45.93285" lon="4.76693">
        <ele>172</ele>
        <time>2017-08-14T08:07:34Z</time>
      </trkpt>
      <trkpt lat="45.93289" lon="4.76698">
        <ele>172</ele>
        <time>2017-08-14T08:07:35Z</time>
      </trkpt>
      <trkpt lat="45.93294" lon="4.76702">
        <ele>172</ele>
        <time>2017-08-14T08:07:36Z</time>
      </trkpt>
      <trkpt lat="45.93298" lon="4.76707">
        <ele>172</ele>
        <time>2017-08-14T08:07:37Z</time>
      </trkpt>
      <trkpt lat="45.93303" lon="4.76713">
        <ele>172</ele>
        <time>2017-08-14T08:07:38Z</time>
      </trkpt>
      <trkpt lat="45.93307" lon="4.76718">
        <ele>172</ele>
        <time>2017-08-14T08:07:39Z</time>
      </trkpt>
      <trkpt lat="45.93312" lon="4.76723">
        <ele>172</ele>
        <time>2017-08-14T08:07:40Z</time>
      </trkpt>
      <trkpt lat="45.93317" lon="4.76728">
        <ele>172</ele>
        <time>2017-08-14T08:07:41Z</time>
      </trkpt>
      <trkpt lat="45.93322" lon="4.76733">
        <ele>172</ele>
        <time>2017-08-14T08:07:42Z</time>
      </trkpt>
      <trkpt lat="45.93327" lon="4.76739">
        <ele>172</ele>
        <time>2017-08-14T08:07:43Z</time>
      </trkpt>
      <trkpt lat="45.93333" lon="4.76745">
        <ele>173</ele>
        <time>2017-08-14T08:07:44Z</time>
      </trkpt>
      <trkpt lat="45.93338" lon="4.7675">
        <ele>173</ele>
        <time>2017-08-14T08:07:45Z</time>
      </trkpt>
      <trkpt lat="45.93343" lon="4.76754">
        <ele>173</ele>
        <time>2017-08-14T08:07:46Z</time>
      </trkpt>
      <trkpt lat="45.93348" lon="4.76759">
        <ele>172</ele>
        <time>2017-08-14T08:07:47Z</time>
      </trkpt>
      <trkpt lat="45.93353" lon="4.76764">
        <ele>172</ele>
        <time>2017-08-14T08:07:48Z</time>
      </trkpt>
      <trkpt lat="45.93358" lon="4.76769">
        <ele>172</ele>
        <time>2017-08-14T08:07:49Z</time>
      </trkpt>
      <trkpt lat="45.93362" lon="4.76773">
        <ele>172</ele>
        <time>2017-08-14T08:07:50Z</time>
      </trkpt>
      <trkpt lat="45.93367" lon="4.76777">
        <ele>172</ele>
        <time>2017-08-14T08:07:51Z</time>
      </trkpt>
      <trkpt lat="45.93371" lon="4.76781">
        <ele>172</ele>
        <time>2017-08-14T08:07:52Z</time>
      </trkpt>
      <trkpt lat="45.93375" lon="4.76785">
        <ele>172</ele>
        <time>2017-08-14T08:07:53Z</time>
      </trkpt>
      <trkpt lat="45.93379" lon="4.7679">
        <ele>172</ele>
        <time>2017-08-14T08:07:54Z</time>
      </trkpt>
      <trkpt lat="45.93384" lon="4.76795">
        <ele>172</ele>
        <time>2017-08-14T08:07:55Z</time>
      </trkpt>
      <trkpt lat="45.93389" lon="4.76801">
        <ele>172</ele>
        <time>2017-08-14T08:07:56Z</time>
      </trkpt>
      <trkpt lat="45.93393" lon="4.76807">
        <ele>172</ele>
        <time>2017-08-14T08:07:57Z</time>
      </trkpt>
      <trkpt lat="45.93397" lon="4.76814">
        <ele>172</ele>
        <time>2017-08-14T08:07:58Z</time>
      </trkpt>
      <trkpt lat="45.93402" lon="4.7682">
        <ele>172</ele>
        <time>2017-08-14T08:07:59Z</time>
      </trkpt>
      <trkpt lat="45.93407" lon="4.76827">
        <ele>172</ele>
        <time>2017-08-14T08:08:00Z</time>
      </trkpt>
      <trkpt lat="45.93411" lon="4.76833">
        <ele>172</ele>
        <time>2017-08-14T08:08:01Z</time>
      </trkpt>
      <trkpt lat="45.93415" lon="4.7684">
        <ele>172</ele>
        <time>2017-08-14T08:08:02Z</time>
      </trkpt>
      <trkpt lat="45.93419" lon="4.76847">
        <ele>171</ele>
        <time>2017-08-14T08:08:03Z</time>
      </trkpt>
      <trkpt lat="45.93422" lon="4.76854">
        <ele>171</ele>
        <time>2017-08-14T08:08:04Z</time>
      </trkpt>
      <trkpt lat="45.93425" lon="4.76861">
        <ele>171</ele>
        <time>2017-08-14T08:08:05Z</time>
      </trkpt>
      <trkpt lat="45.93428" lon="4.76868">
        <ele>171</ele>
        <time>2017-08-14T08:08:06Z</time>
      </trkpt>
      <trkpt lat="45.93431" lon="4.76874">
        <ele>171</ele>
        <time>2017-08-14T08:08:07Z</time>
      </trkpt>
      <trkpt lat="45.93433" lon="4.76881">
        <ele>171</ele>
        <time>2017-08-14T08:08:08Z</time>
      </trkpt>
      <trkpt lat="45.93436" lon="4.76889">
        <ele>171</ele>
        <time>2017-08-14T08:08:09Z</time>
      </trkpt>
      <trkpt lat="45.93438" lon="4.76896">
        <ele>170</ele>
        <time>2017-08-14T08:08:10Z</time>
      </trkpt>
      <trkpt lat="45.9344" lon="4.76903">
        <ele>170</ele>
        <time>2017-08-14T08:08:11Z</time>
      </trkpt>
      <trkpt lat="45.93442" lon="4.76912">
        <ele>170</ele>
        <time>2017-08-14T08:08:12Z</time>
      </trkpt>
      <trkpt lat="45.93444" lon="4.7692">
        <ele>170</ele>
        <time>2017-08-14T08:08:13Z</time>
      </trkpt>
      <trkpt lat="45.93445" lon="4.76929">
        <ele>170</ele>
        <time>2017-08-14T08:08:14Z</time>
      </trkpt>
      <trkpt lat="45.93447" lon="4.76937">
        <ele>170</ele>
        <time>2017-08-14T08:08:15Z</time>
      </trkpt>
      <trkpt lat="45.93448" lon="4.76946">
        <ele>170</ele>
        <time>2017-08-14T08:08:16Z</time>
      </trkpt>
      <trkpt lat="45.93449" lon="4.76954">
        <ele>170</ele>
        <time>2017-08-14T08:08:17Z</time>
      </trkpt>
      <trkpt lat="45.9345" lon="4.76962">
        <ele>170</ele>
        <time>2017-08-14T08:08:18Z</time>
      </trkpt>
      <trkpt lat="45.93451" lon="4.76969">
        <ele>170</ele>
        <time>2017-08-14T08:08:19Z</time>
      </trkpt>
      <trkpt lat="45.93452" lon="4.76976">
        <ele>170</ele>
        <time>2017-08-14T08:08:20Z</time>
      </trkpt>
      <trkpt lat="45.93453" lon="4.76983">
        <ele>170</ele>
        <time>2017-08-14T08:08:21Z</time>
      </trkpt>
      <trkpt lat="45.93454" lon="4.76991">
        <ele>170</ele>
        <time>2017-08-14T08:08:22Z</time>
      </trkpt>
      <trkpt lat="45.93456" lon="4.76999">
        <ele>170</ele>
        <time>2017-08-14T08:08:23Z</time>
      </trkpt>
      <trkpt lat="45.93457" lon="4.77007">
        <ele>170</ele>
        <time>2017-08-14T08:08:24Z</time>
      </trkpt>
      <trkpt lat="45.93458" lon="4.77015">
        <ele>170</ele>
        <time>2017-08-14T08:08:25Z</time>
      </trkpt>
      <trkpt lat="45.9346" lon="4.77023">
        <ele>170</ele>
        <time>2017-08-14T08:08:26Z</time>
      </trkpt>
      <trkpt lat="45.93461" lon="4.77031">
        <ele>170</ele>
        <time>2017-08-14T08:08:27Z</time>
      </trkpt>
      <trkpt lat="45.93462" lon="4.7704">
        <ele>170</ele>
        <time>2017-08-14T08:08:28Z</time>
      </trkpt>
      <trkpt lat="45.93463" lon="4.77048">
        <ele>170</ele>
        <time>2017-08-14T08:08:29Z</time>
      </trkpt>
      <trkpt lat="45.93465" lon="4.77056">
        <ele>170</ele>
        <time>2017-08-14T08:08:30Z</time>
      </trkpt>
      <trkpt lat="45.93466" lon="4.77063">
        <ele>170</ele>
        <time>2017-08-14T08:08:31Z</time>
      </trkpt>
      <trkpt lat="45.93467" lon="4.77071">
        <ele>170</ele>
        <time>2017-08-14T08:08:32Z</time>
      </trkpt>
      <trkpt lat="45.93469" lon="4.77077">
        <ele>170</ele>
        <time>2017-08-14T08:08:33Z</time>
      </trkpt>
      <trkpt lat="45.93471" lon="4.77084">
        <ele>170</ele>
        <time>2017-08-14T08:08:34Z</time>
      </trkpt>
      <trkpt lat="45.93472" lon="4.77091">
        <ele>169</ele>
        <time>2017-08-14T08:08:35Z</time>
      </trkpt>
      <trkpt lat="45.93474" lon="4.77098">
        <ele>169</ele>
        <time>2017-08-14T08:08:36Z</time>
      </trkpt>
      <trkpt lat="45.93475" lon="4.77106">
        <ele>169</ele>
        <time>2017-08-14T08:08:37Z</time>
      </trkpt>
      <trkpt lat="45.93477" lon="4.77114">
        <ele>169</ele>
        <time>2017-08-14T08:08:38Z</time>
      </trkpt>
      <trkpt lat="45.93478" lon="4.77122">
        <ele>169</ele>
        <time>2017-08-14T08:08:39Z</time>
      </trkpt>
      <trkpt lat="45.9348" lon="4.7713">
        <ele>169</ele>
        <time>2017-08-14T08:08:40Z</time>
      </trkpt>
      <trkpt lat="45.93481" lon="4.77139">
        <ele>169</ele>
        <time>2017-08-14T08:08:41Z</time>
      </trkpt>
      <trkpt lat="45.93483" lon="4.77147">
        <ele>169</ele>
        <time>2017-08-14T08:08:42Z</time>
      </trkpt>
      <trkpt lat="45.93484" lon="4.77156">
        <ele>169</ele>
        <time>2017-08-14T08:08:43Z</time>
      </trkpt>
      <trkpt lat="45.93485" lon="4.77164">
        <ele>169</ele>
        <time>2017-08-14T08:08:44Z</time>
      </trkpt>
      <trkpt lat="45.93487" lon="4.77172">
        <ele>169</ele>
        <time>2017-08-14T08:08:45Z</time>
      </trkpt>
      <trkpt lat="45.93489" lon="4.7718">
        <ele>169</ele>
        <time>2017-08-14T08:08:46Z</time>
      </trkpt>
      <trkpt lat="45.93491" lon="4.77187">
        <ele>169</ele>
        <time>2017-08-14T08:08:47Z</time>
      </trkpt>
      <trkpt lat="45.93493" lon="4.77194">
        <ele>169</ele>
        <time>2017-08-14T08:08:48Z</time>
      </trkpt>
      <trkpt lat="45.93495" lon="4.77202">
        <ele>169</ele>
        <time>2017-08-14T08:08:49Z</time>
      </trkpt>
      <trkpt lat="45.93497" lon="4.77209">
        <ele>169</ele>
        <time>2017-08-14T08:08:50Z</time>
      </trkpt>
      <trkpt lat="45.93498" lon="4.77217">
        <ele>169</ele>
        <time>2017-08-14T08:08:51Z</time>
      </trkpt>
      <trkpt lat="45.935" lon="4.77225">
        <ele>169</ele>
        <time>2017-08-14T08:08:52Z</time>
      </trkpt>
      <trkpt lat="45.93502" lon="4.77233">
        <ele>169</ele>
        <time>2017-08-14T08:08:53Z</time>
      </trkpt>
      <trkpt lat="45.93503" lon="4.77241">
        <ele>170</ele>
        <time>2017-08-14T08:08:54Z</time>
      </trkpt>
      <trkpt lat="45.93505" lon="4.77249">
        <ele>170</ele>
        <time>2017-08-14T08:08:55Z</time>
      </trkpt>
      <trkpt lat="45.93507" lon="4.77258">
        <ele>170</ele>
        <time>2017-08-14T08:08:56Z</time>
      </trkpt>
      <trkpt lat="45.93508" lon="4.77266">
        <ele>170</ele>
        <time>2017-08-14T08:08:57Z</time>
      </trkpt>
      <trkpt lat="45.9351" lon="4.77274">
        <ele>170</ele>
        <time>2017-08-14T08:08:58Z</time>
      </trkpt>
      <trkpt lat="45.93512" lon="4.77282">
        <ele>170</ele>
        <time>2017-08-14T08:08:59Z</time>
      </trkpt>
      <trkpt lat="45.93514" lon="4.7729">
        <ele>170</ele>
        <time>2017-08-14T08:09:00Z</time>
      </trkpt>
      <trkpt lat="45.93516" lon="4.77297">
        <ele>170</ele>
        <time>2017-08-14T08:09:01Z</time>
      </trkpt>
      <trkpt lat="45.93517" lon="4.77304">
        <ele>170</ele>
        <time>2017-08-14T08:09:02Z</time>
      </trkpt>
      <trkpt lat="45.93518" lon="4.77311">
        <ele>170</ele>
        <time>2017-08-14T08:09:03Z</time>
      </trkpt>
      <trkpt lat="45.9352" lon="4.77318">
        <ele>170</ele>
        <time>2017-08-14T08:09:04Z</time>
      </trkpt>
      <trkpt lat="45.93521" lon="4.77324">
        <ele>170</ele>
        <time>2017-08-14T08:09:05Z</time>
      </trkpt>
      <trkpt lat="45.93523" lon="4.77331">
        <ele>170</ele>
        <time>2017-08-14T08:09:06Z</time>
      </trkpt>
      <trkpt lat="45.93524" lon="4.77338">
        <ele>170</ele>
        <time>2017-08-14T08:09:07Z</time>
      </trkpt>
      <trkpt lat="45.93526" lon="4.77344">
        <ele>170</ele>
        <time>2017-08-14T08:09:08Z</time>
      </trkpt>
      <trkpt lat="45.93527" lon="4.77351">
        <ele>170</ele>
        <time>2017-08-14T08:09:09Z</time>
      </trkpt>
      <trkpt lat="45.93529" lon="4.77359">
        <ele>170</ele>
        <time>2017-08-14T08:09:10Z</time>
      </trkpt>
      <trkpt lat="45.9353" lon="4.77367">
        <ele>170</ele>
        <time>2017-08-14T08:09:11Z</time>
      </trkpt>
      <trkpt lat="45.93532" lon="4.77375">
        <ele>170</ele>
        <time>2017-08-14T08:09:12Z</time>
      </trkpt>
      <trkpt lat="45.93534" lon="4.77383">
        <ele>170</ele>
        <time>2017-08-14T08:09:13Z</time>
      </trkpt>
      <trkpt lat="45.93536" lon="4.77391">
        <ele>170</ele>
        <time>2017-08-14T08:09:14Z</time>
      </trkpt>
      <trkpt lat="45.93537" lon="4.774">
        <ele>170</ele>
        <time>2017-08-14T08:09:15Z</time>
      </trkpt>
      <trkpt lat="45.93539" lon="4.77408">
        <ele>170</ele>
        <time>2017-08-14T08:09:16Z</time>
      </trkpt>
      <trkpt lat="45.93541" lon="4.77418">
        <ele>170</ele>
        <time>2017-08-14T08:09:17Z</time>
      </trkpt>
      <trkpt lat="45.93543" lon="4.77426">
        <ele>169</ele>
        <time>2017-08-14T08:09:18Z</time>
      </trkpt>
      <trkpt lat="45.93545" lon="4.77436">
        <ele>169</ele>
        <time>2017-08-14T08:09:19Z</time>
      </trkpt>
      <trkpt lat="45.93547" lon="4.77444">
        <ele>169</ele>
        <time>2017-08-14T08:09:20Z</time>
      </trkpt>
      <trkpt lat="45.93549" lon="4.77452">
        <ele>169</ele>
        <time>2017-08-14T08:09:21Z</time>
      </trkpt>
      <trkpt lat="45.93551" lon="4.77459">
        <ele>169</ele>
        <time>2017-08-14T08:09:22Z</time>
      </trkpt>
      <trkpt lat="45.93552" lon="4.77467">
        <ele>169</ele>
        <time>2017-08-14T08:09:23Z</time>
      </trkpt>
      <trkpt lat="45.93554" lon="4.77474">
        <ele>169</ele>
        <time>2017-08-14T08:09:24Z</time>
      </trkpt>
      <trkpt lat="45.93555" lon="4.77481">
        <ele>169</ele>
        <time>2017-08-14T08:09:25Z</time>
      </trkpt>
      <trkpt lat="45.93556" lon="4.77488">
        <ele>169</ele>
        <time>2017-08-14T08:09:26Z</time>
      </trkpt>
      <trkpt lat="45.93558" lon="4.77496">
        <ele>169</ele>
        <time>2017-08-14T08:09:27Z</time>
      </trkpt>
      <trkpt lat="45.9356" lon="4.77503">
        <ele>169</ele>
        <time>2017-08-14T08:09:28Z</time>
      </trkpt>
      <trkpt lat="45.93562" lon="4.7751">
        <ele>169</ele>
        <time>2017-08-14T08:09:29Z</time>
      </trkpt>
      <trkpt lat="45.93564" lon="4.77518">
        <ele>169</ele>
        <time>2017-08-14T08:09:30Z</time>
      </trkpt>
      <trkpt lat="45.93566" lon="4.77525">
        <ele>169</ele>
        <time>2017-08-14T08:09:31Z</time>
      </trkpt>
      <trkpt lat="45.93568" lon="4.77533">
        <ele>169</ele>
        <time>2017-08-14T08:09:32Z</time>
      </trkpt>
      <trkpt lat="45.9357" lon="4.77542">
        <ele>169</ele>
        <time>2017-08-14T08:09:33Z</time>
      </trkpt>
      <trkpt lat="45.93572" lon="4.7755">
        <ele>169</ele>
        <time>2017-08-14T08:09:34Z</time>
      </trkpt>
      <trkpt lat="45.93574" lon="4.77558">
        <ele>169</ele>
        <time>2017-08-14T08:09:35Z</time>
      </trkpt>
      <trkpt lat="45.93576" lon="4.77566">
        <ele>169</ele>
        <time>2017-08-14T08:09:36Z</time>
      </trkpt>
      <trkpt lat="45.93578" lon="4.77573">
        <ele>170</ele>
        <time>2017-08-14T08:09:37Z</time>
      </trkpt>
      <trkpt lat="45.9358" lon="4.77581">
        <ele>170</ele>
        <time>2017-08-14T08:09:38Z</time>
      </trkpt>
      <trkpt lat="45.93583" lon="4.77588">
        <ele>170</ele>
        <time>2017-08-14T08:09:39Z</time>
      </trkpt>
      <trkpt lat="45.93585" lon="4.77594">
        <ele>170</ele>
        <time>2017-08-14T08:09:40Z</time>
      </trkpt>
      <trkpt lat="45.93587" lon="4.77601">
        <ele>170</ele>
        <time>2017-08-14T08:09:41Z</time>
      </trkpt>
      <trkpt lat="45.93589" lon="4.77607">
        <ele>170</ele>
        <time>2017-08-14T08:09:42Z</time>
      </trkpt>
      <trkpt lat="45.93591" lon="4.77614">
        <ele>170</ele>
        <time>2017-08-14T08:09:43Z</time>
      </trkpt>
      <trkpt lat="45.93594" lon="4.77621">
        <ele>170</ele>
        <time>2017-08-14T08:09:44Z</time>
      </trkpt>
      <trkpt lat="45.93597" lon="4.77629">
        <ele>169</ele>
        <time>2017-08-14T08:09:45Z</time>
      </trkpt>
      <trkpt lat="45.936" lon="4.77637">
        <ele>169</ele>
        <time>2017-08-14T08:09:46Z</time>
      </trkpt>
      <trkpt lat="45.93603" lon="4.77645">
        <ele>169</ele>
        <time>2017-08-14T08:09:47Z</time>
      </trkpt>
      <trkpt lat="45.93606" lon="4.77653">
        <ele>169</ele>
        <time>2017-08-14T08:09:48Z</time>
      </trkpt>
      <trkpt lat="45.9361" lon="4.7766">
        <ele>169</ele>
        <time>2017-08-14T08:09:49Z</time>
      </trkpt>
      <trkpt lat="45.93613" lon="4.77668">
        <ele>169</ele>
        <time>2017-08-14T08:09:50Z</time>
      </trkpt>
      <trkpt lat="45.93616" lon="4.77676">
        <ele>169</ele>
        <time>2017-08-14T08:09:51Z</time>
      </trkpt>
      <trkpt lat="45.9362" lon="4.77683">
        <ele>169</ele>
        <time>2017-08-14T08:09:52Z</time>
      </trkpt>
      <trkpt lat="45.93623" lon="4.7769">
        <ele>169</ele>
        <time>2017-08-14T08:09:53Z</time>
      </trkpt>
      <trkpt lat="45.93627" lon="4.77696">
        <ele>169</ele>
        <time>2017-08-14T08:09:54Z</time>
      </trkpt>
      <trkpt lat="45.9363" lon="4.77702">
        <ele>169</ele>
        <time>2017-08-14T08:09:55Z</time>
      </trkpt>
      <trkpt lat="45.93633" lon="4.77708">
        <ele>170</ele>
        <time>2017-08-14T08:09:56Z</time>
      </trkpt>
      <trkpt lat="45.93636" lon="4.77714">
        <ele>170</ele>
        <time>2017-08-14T08:09:57Z</time>
      </trkpt>
      <trkpt lat="45.93639" lon="4.77719">
        <ele>170</ele>
        <time>2017-08-14T08:09:58Z</time>
      </trkpt>
      <trkpt lat="45.93642" lon="4.77724">
        <ele>170</ele>
        <time>2017-08-14T08:09:59Z</time>
      </trkpt>
      <trkpt lat="45.93645" lon="4.77729">
        <ele>170</ele>
        <time>2017-08-14T08:10:00Z</time>
      </trkpt>
      <trkpt lat="45.93648" lon="4.77735">
        <ele>170</ele>
        <time>2017-08-14T08:10:01Z</time>
      </trkpt>
      <trkpt lat="45.93651" lon="4.7774">
        <ele>170</ele>
        <time>2017-08-14T08:10:02Z</time>
      </trkpt>
      <trkpt lat="45.93655" lon="4.77745">
        <ele>170</ele>
        <time>2017-08-14T08:10:03Z</time>
      </trkpt>
      <trkpt lat="45.93658" lon="4.7775">
        <ele>171</ele>
        <time>2017-08-14T08:10:04Z</time>
      </trkpt>
      <trkpt lat="45.93661" lon="4.77755">
        <ele>171</ele>
        <time>2017-08-14T08:10:05Z</time>
      </trkpt>
      <trkpt lat="45.93665" lon="4.77761">
        <ele>171</ele>
        <time>2017-08-14T08:10:06Z</time>
      </trkpt>
      <trkpt lat="45.93669" lon="4.77766">
        <ele>170</ele>
        <time>2017-08-14T08:10:07Z</time>
      </trkpt>
      <trkpt lat="45.93673" lon="4.77771">
        <ele>170</ele>
        <time>2017-08-14T08:10:08Z</time>
      </trkpt>
      <trkpt lat="45.93676" lon="4.77777">
        <ele>170</ele>
        <time>2017-08-14T08:10:09Z</time>
      </trkpt>
      <trkpt lat="45.9368" lon="4.77783">
        <ele>170</ele>
        <time>2017-08-14T08:10:10Z</time>
      </trkpt>
      <trkpt lat="45.93684" lon="4.77789">
        <ele>170</ele>
        <time>2017-08-14T08:10:11Z</time>
      </trkpt>
      <trkpt lat="45.93688" lon="4.77795">
        <ele>170</ele>
        <time>2017-08-14T08:10:12Z</time>
      </trkpt>
      <trkpt lat="45.93692" lon="4.778">
        <ele>169</ele>
        <time>2017-08-14T08:10:13Z</time>
      </trkpt>
      <trkpt lat="45.93696" lon="4.77805">
        <ele>169</ele>
        <time>2017-08-14T08:10:14Z</time>
      </trkpt>
      <trkpt lat="45.937" lon="4.7781">
        <ele>169</ele>
        <time>2017-08-14T08:10:15Z</time>
      </trkpt>
      <trkpt lat="45.93704" lon="4.77815">
        <ele>169</ele>
        <time>2017-08-14T08:10:16Z</time>
      </trkpt>
      <trkpt lat="45.93708" lon="4.7782">
        <ele>169</ele>
        <time>2017-08-14T08:10:17Z</time>
      </trkpt>
      <trkpt lat="45.93712" lon="4.77826">
        <ele>169</ele>
        <time>2017-08-14T08:10:18Z</time>
      </trkpt>
      <trkpt lat="45.93716" lon="4.77831">
        <ele>169</ele>
        <time>2017-08-14T08:10:19Z</time>
      </trkpt>
      <trkpt lat="45.9372" lon="4.77836">
        <ele>167</ele>
        <time>2017-08-14T08:10:20Z</time>
      </trkpt>
      <trkpt lat="45.93724" lon="4.77841">
        <ele>167</ele>
        <time>2017-08-14T08:10:21Z</time>
      </trkpt>
      <trkpt lat="45.93728" lon="4.77845">
        <ele>167</ele>
        <time>2017-08-14T08:10:22Z</time>
      </trkpt>
      <trkpt lat="45.93731" lon="4.77849">
        <ele>167</ele>
        <time>2017-08-14T08:10:23Z</time>
      </trkpt>
      <trkpt lat="45.93734" lon="4.77854">
        <ele>167</ele>
        <time>2017-08-14T08:10:24Z</time>
      </trkpt>
      <trkpt lat="45.93737" lon="4.77859">
        <ele>167</ele>
        <time>2017-08-14T08:10:25Z</time>
      </trkpt>
      <trkpt lat="45.93741" lon="4.77864">
        <ele>167</ele>
        <time>2017-08-14T08:10:26Z</time>
      </trkpt>
      <trkpt lat="45.93744" lon="4.77869">
        <ele>167</ele>
        <time>2017-08-14T08:10:27Z</time>
      </trkpt>
      <trkpt lat="45.93748" lon="4.77873">
        <ele>167</ele>
        <time>2017-08-14T08:10:28Z</time>
      </trkpt>
      <trkpt lat="45.93755" lon="4.77882">
        <ele>166</ele>
        <time>2017-08-14T08:10:30Z</time>
      </trkpt>
      <trkpt lat="45.93758" lon="4.77886">
        <ele>166</ele>
        <time>2017-08-14T08:10:31Z</time>
      </trkpt>
      <trkpt lat="45.93764" lon="4.77894">
        <ele>166</ele>
        <time>2017-08-14T08:10:33Z</time>
      </trkpt>
      <trkpt lat="45.93767" lon="4.77897">
        <ele>166</ele>
        <time>2017-08-14T08:10:34Z</time>
      </trkpt>
      <trkpt lat="45.93773" lon="4.77905">
        <ele>166</ele>
        <time>2017-08-14T08:10:36Z</time>
      </trkpt>
      <trkpt lat="45.93775" lon="4.77909">
        <ele>166</ele>
        <time>2017-08-14T08:10:37Z</time>
      </trkpt>
      <trkpt lat="45.93781" lon="4.77917">
        <ele>168</ele>
        <time>2017-08-14T08:10:39Z</time>
      </trkpt>
      <trkpt lat="45.93784" lon="4.77921">
        <ele>168</ele>
        <time>2017-08-14T08:10:40Z</time>
      </trkpt>
      <trkpt lat="45.93788" lon="4.77925">
        <ele>168</ele>
        <time>2017-08-14T08:10:41Z</time>
      </trkpt>
      <trkpt lat="45.93792" lon="4.7793">
        <ele>168</ele>
        <time>2017-08-14T08:10:42Z</time>
      </trkpt>
      <trkpt lat="45.93795" lon="4.77935">
        <ele>168</ele>
        <time>2017-08-14T08:10:43Z</time>
      </trkpt>
      <trkpt lat="45.93799" lon="4.7794">
        <ele>169</ele>
        <time>2017-08-14T08:10:44Z</time>
      </trkpt>
      <trkpt lat="45.93802" lon="4.77944">
        <ele>169</ele>
        <time>2017-08-14T08:10:45Z</time>
      </trkpt>
      <trkpt lat="45.93806" lon="4.77949">
        <ele>169</ele>
        <time>2017-08-14T08:10:46Z</time>
      </trkpt>
      <trkpt lat="45.9381" lon="4.77953">
        <ele>170</ele>
        <time>2017-08-14T08:10:47Z</time>
      </trkpt>
      <trkpt lat="45.93814" lon="4.77957">
        <ele>170</ele>
        <time>2017-08-14T08:10:48Z</time>
      </trkpt>
      <trkpt lat="45.93818" lon="4.77962">
        <ele>171</ele>
        <time>2017-08-14T08:10:49Z</time>
      </trkpt>
      <trkpt lat="45.93822" lon="4.77967">
        <ele>171</ele>
        <time>2017-08-14T08:10:50Z</time>
      </trkpt>
      <trkpt lat="45.93827" lon="4.77972">
        <ele>172</ele>
        <time>2017-08-14T08:10:51Z</time>
      </trkpt>
      <trkpt lat="45.93831" lon="4.77978">
        <ele>173</ele>
        <time>2017-08-14T08:10:52Z</time>
      </trkpt>
      <trkpt lat="45.93834" lon="4.77984">
        <ele>178</ele>
        <time>2017-08-14T08:10:53Z</time>
      </trkpt>
      <trkpt lat="45.93838" lon="4.77991">
        <ele>179</ele>
        <time>2017-08-14T08:10:54Z</time>
      </trkpt>
      <trkpt lat="45.9384" lon="4.77998">
        <ele>179</ele>
        <time>2017-08-14T08:10:55Z</time>
      </trkpt>
      <trkpt lat="45.93842" lon="4.78006">
        <ele>181</ele>
        <time>2017-08-14T08:10:56Z</time>
      </trkpt>
      <trkpt lat="45.93844" lon="4.78015">
        <ele>181</ele>
        <time>2017-08-14T08:10:57Z</time>
      </trkpt>
      <trkpt lat="45.93844" lon="4.78023">
        <ele>182</ele>
        <time>2017-08-14T08:10:58Z</time>
      </trkpt>
      <trkpt lat="45.93846" lon="4.78031">
        <ele>182</ele>
        <time>2017-08-14T08:10:59Z</time>
      </trkpt>
      <trkpt lat="45.93847" lon="4.78038">
        <ele>182</ele>
        <time>2017-08-14T08:11:00Z</time>
      </trkpt>
      <trkpt lat="45.93848" lon="4.78045">
        <ele>183</ele>
        <time>2017-08-14T08:11:01Z</time>
      </trkpt>
      <trkpt lat="45.93848" lon="4.78052">
        <ele>183</ele>
        <time>2017-08-14T08:11:02Z</time>
      </trkpt>
      <trkpt lat="45.93848" lon="4.78058">
        <ele>182</ele>
        <time>2017-08-14T08:11:03Z</time>
      </trkpt>
      <trkpt lat="45.93846" lon="4.78065">
        <ele>182</ele>
        <time>2017-08-14T08:11:04Z</time>
      </trkpt>
      <trkpt lat="45.93845" lon="4.78072">
        <ele>182</ele>
        <time>2017-08-14T08:11:05Z</time>
      </trkpt>
      <trkpt lat="45.93843" lon="4.78078">
        <ele>181</ele>
        <time>2017-08-14T08:11:06Z</time>
      </trkpt>
      <trkpt lat="45.93842" lon="4.78085">
        <ele>182</ele>
        <time>2017-08-14T08:11:07Z</time>
      </trkpt>
      <trkpt lat="45.9384" lon="4.78092">
        <ele>182</ele>
        <time>2017-08-14T08:11:08Z</time>
      </trkpt>
      <trkpt lat="45.93838" lon="4.78099">
        <ele>183</ele>
        <time>2017-08-14T08:11:09Z</time>
      </trkpt>
      <trkpt lat="45.93836" lon="4.78106">
        <ele>183</ele>
        <time>2017-08-14T08:11:10Z</time>
      </trkpt>
      <trkpt lat="45.93834" lon="4.78114">
        <ele>184</ele>
        <time>2017-08-14T08:11:11Z</time>
      </trkpt>
      <trkpt lat="45.93832" lon="4.78122">
        <ele>180</ele>
        <time>2017-08-14T08:11:12Z</time>
      </trkpt>
      <trkpt lat="45.9383" lon="4.7813">
        <ele>180</ele>
        <time>2017-08-14T08:11:13Z</time>
      </trkpt>
      <trkpt lat="45.93828" lon="4.78138">
        <ele>180</ele>
        <time>2017-08-14T08:11:14Z</time>
      </trkpt>
      <trkpt lat="45.93825" lon="4.78146">
        <ele>180</ele>
        <time>2017-08-14T08:11:15Z</time>
      </trkpt>
      <trkpt lat="45.93822" lon="4.78154">
        <ele>180</ele>
        <time>2017-08-14T08:11:16Z</time>
      </trkpt>
      <trkpt lat="45.93819" lon="4.78161">
        <ele>181</ele>
        <time>2017-08-14T08:11:17Z</time>
      </trkpt>
      <trkpt lat="45.93817" lon="4.7817">
        <ele>182</ele>
        <time>2017-08-14T08:11:18Z</time>
      </trkpt>
      <trkpt lat="45.93815" lon="4.78177">
        <ele>182</ele>
        <time>2017-08-14T08:11:19Z</time>
      </trkpt>
      <trkpt lat="45.93813" lon="4.78185">
        <ele>182</ele>
        <time>2017-08-14T08:11:20Z</time>
      </trkpt>
      <trkpt lat="45.93811" lon="4.78193">
        <ele>182</ele>
        <time>2017-08-14T08:11:21Z</time>
      </trkpt>
      <trkpt lat="45.9381" lon="4.782">
        <ele>182</ele>
        <time>2017-08-14T08:11:22Z</time>
      </trkpt>
      <trkpt lat="45.93807" lon="4.78207">
        <ele>182</ele>
        <time>2017-08-14T08:11:23Z</time>
      </trkpt>
      <trkpt lat="45.93804" lon="4.78213">
        <ele>182</ele>
        <time>2017-08-14T08:11:24Z</time>
      </trkpt>
      <trkpt lat="45.93802" lon="4.78219">
        <ele>182</ele>
        <time>2017-08-14T08:11:25Z</time>
      </trkpt>
      <trkpt lat="45.938" lon="4.78225">
        <ele>182</ele>
        <time>2017-08-14T08:11:26Z</time>
      </trkpt>
      <trkpt lat="45.93797" lon="4.7823">
        <ele>182</ele>
        <time>2017-08-14T08:11:27Z</time>
      </trkpt>
      <trkpt lat="45.93794" lon="4.78235">
        <ele>182</ele>
        <time>2017-08-14T08:11:28Z</time>
      </trkpt>
      <trkpt lat="45.93791" lon="4.78242">
        <ele>182</ele>
        <time>2017-08-14T08:11:29Z</time>
      </trkpt>
      <trkpt lat="45.93789" lon="4.7825">
        <ele>182</ele>
        <time>2017-08-14T08:11:30Z</time>
      </trkpt>
      <trkpt lat="45.93788" lon="4.78259">
        <ele>183</ele>
        <time>2017-08-14T08:11:31Z</time>
      </trkpt>
      <trkpt lat="45.93786" lon="4.78266">
        <ele>183</ele>
        <time>2017-08-14T08:11:32Z</time>
      </trkpt>
      <trkpt lat="45.93784" lon="4.78274">
        <ele>183</ele>
        <time>2017-08-14T08:11:33Z</time>
      </trkpt>
      <trkpt lat="45.93781" lon="4.78281">
        <ele>183</ele>
        <time>2017-08-14T08:11:34Z</time>
      </trkpt>
      <trkpt lat="45.93778" lon="4.78288">
        <ele>183</ele>
        <time>2017-08-14T08:11:35Z</time>
      </trkpt>
      <trkpt lat="45.93775" lon="4.78296">
        <ele>183</ele>
        <time>2017-08-14T08:11:36Z</time>
      </trkpt>
      <trkpt lat="45.93773" lon="4.78304">
        <ele>183</ele>
        <time>2017-08-14T08:11:37Z</time>
      </trkpt>
      <trkpt lat="45.93771" lon="4.78313">
        <ele>183</ele>
        <time>2017-08-14T08:11:38Z</time>
      </trkpt>
      <trkpt lat="45.93769" lon="4.78323">
        <ele>183</ele>
        <time>2017-08-14T08:11:39Z</time>
      </trkpt>
      <trkpt lat="45.93767" lon="4.78333">
        <ele>183</ele>
        <time>2017-08-14T08:11:40Z</time>
      </trkpt>
      <trkpt lat="45.93765" lon="4.78343">
        <ele>183</ele>
        <time>2017-08-14T08:11:41Z</time>
      </trkpt>
      <trkpt lat="45.93764" lon="4.78353">
        <ele>183</ele>
        <time>2017-08-14T08:11:42Z</time>
      </trkpt>
      <trkpt lat="45.9376" lon="4.78362">
        <ele>183</ele>
        <time>2017-08-14T08:11:43Z</time>
      </trkpt>
      <trkpt lat="45.93758" lon="4.78371">
        <ele>183</ele>
        <time>2017-08-14T08:11:44Z</time>
      </trkpt>
      <trkpt lat="45.93756" lon="4.7838">
        <ele>183</ele>
        <time>2017-08-14T08:11:45Z</time>
      </trkpt>
      <trkpt lat="45.93754" lon="4.7839">
        <ele>183</ele>
        <time>2017-08-14T08:11:46Z</time>
      </trkpt>
      <trkpt lat="45.93748" lon="4.784">
        <ele>181</ele>
        <time>2017-08-14T08:11:47Z</time>
      </trkpt>
      <trkpt lat="45.93746" lon="4.78409">
        <ele>181</ele>
        <time>2017-08-14T08:11:48Z</time>
      </trkpt>
      <trkpt lat="45.93743" lon="4.78417">
        <ele>181</ele>
        <time>2017-08-14T08:11:49Z</time>
      </trkpt>
      <trkpt lat="45.93742" lon="4.78426">
        <ele>180</ele>
        <time>2017-08-14T08:11:50Z</time>
      </trkpt>
      <trkpt lat="45.9374" lon="4.78436">
        <ele>180</ele>
        <time>2017-08-14T08:11:51Z</time>
      </trkpt>
      <trkpt lat="45.93737" lon="4.78446">
        <ele>180</ele>
        <time>2017-08-14T08:11:52Z</time>
      </trkpt>
      <trkpt lat="45.93735" lon="4.78454">
        <ele>180</ele>
        <time>2017-08-14T08:11:53Z</time>
      </trkpt>
      <trkpt lat="45.93732" lon="4.78464">
        <ele>180</ele>
        <time>2017-08-14T08:11:54Z</time>
      </trkpt>
      <trkpt lat="45.93728" lon="4.78474">
        <ele>180</ele>
        <time>2017-08-14T08:11:55Z</time>
      </trkpt>
      <trkpt lat="45.93726" lon="4.78485">
        <ele>180</ele>
        <time>2017-08-14T08:11:56Z</time>
      </trkpt>
      <trkpt lat="45.93723" lon="4.78495">
        <ele>180</ele>
        <time>2017-08-14T08:11:57Z</time>
      </trkpt>
      <trkpt lat="45.9372" lon="4.78506">
        <ele>179</ele>
        <time>2017-08-14T08:11:58Z</time>
      </trkpt>
      <trkpt lat="45.93717" lon="4.78517">
        <ele>178</ele>
        <time>2017-08-14T08:11:59Z</time>
      </trkpt>
      <trkpt lat="45.93714" lon="4.78527">
        <ele>178</ele>
        <time>2017-08-14T08:12:00Z</time>
      </trkpt>
      <trkpt lat="45.93712" lon="4.78538">
        <ele>178</ele>
        <time>2017-08-14T08:12:01Z</time>
      </trkpt>
      <trkpt lat="45.9371" lon="4.78549">
        <ele>178</ele>
        <time>2017-08-14T08:12:02Z</time>
      </trkpt>
      <trkpt lat="45.93708" lon="4.78559">
        <ele>177</ele>
        <time>2017-08-14T08:12:03Z</time>
      </trkpt>
      <trkpt lat="45.93705" lon="4.7857">
        <ele>177</ele>
        <time>2017-08-14T08:12:04Z</time>
      </trkpt>
      <trkpt lat="45.93702" lon="4.7858">
        <ele>177</ele>
        <time>2017-08-14T08:12:05Z</time>
      </trkpt>
      <trkpt lat="45.93699" lon="4.78589">
        <ele>176</ele>
        <time>2017-08-14T08:12:06Z</time>
      </trkpt>
      <trkpt lat="45.93697" lon="4.78597">
        <ele>176</ele>
        <time>2017-08-14T08:12:07Z</time>
      </trkpt>
      <trkpt lat="45.93695" lon="4.78605">
        <ele>176</ele>
        <time>2017-08-14T08:12:08Z</time>
      </trkpt>
      <trkpt lat="45.93694" lon="4.78612">
        <ele>176</ele>
        <time>2017-08-14T08:12:09Z</time>
      </trkpt>
      <trkpt lat="45.93694" lon="4.7862">
        <ele>176</ele>
        <time>2017-08-14T08:12:10Z</time>
      </trkpt>
      <trkpt lat="45.93697" lon="4.78626">
        <ele>176</ele>
        <time>2017-08-14T08:12:11Z</time>
      </trkpt>
      <trkpt lat="45.93702" lon="4.7863">
        <ele>176</ele>
        <time>2017-08-14T08:12:12Z</time>
      </trkpt>
      <trkpt lat="45.93709" lon="4.7863">
        <ele>176</ele>
        <time>2017-08-14T08:12:14Z</time>
      </trkpt>
      <trkpt lat="45.93712" lon="4.78629">
        <ele>176</ele>
        <time>2017-08-14T08:12:15Z</time>
      </trkpt>
      <trkpt lat="45.93719" lon="4.78626">
        <ele>177</ele>
        <time>2017-08-14T08:12:17Z</time>
      </trkpt>
      <trkpt lat="45.93722" lon="4.78626">
        <ele>177</ele>
        <time>2017-08-14T08:12:18Z</time>
      </trkpt>
      <trkpt lat="45.93729" lon="4.78623">
        <ele>177</ele>
        <time>2017-08-14T08:12:20Z</time>
      </trkpt>
      <trkpt lat="45.93737" lon="4.78624">
        <ele>177</ele>
        <time>2017-08-14T08:12:21Z</time>
      </trkpt>
      <trkpt lat="45.93743" lon="4.78625">
        <ele>177</ele>
        <time>2017-08-14T08:12:22Z</time>
      </trkpt>
      <trkpt lat="45.93749" lon="4.78624">
        <ele>177</ele>
        <time>2017-08-14T08:12:23Z</time>
      </trkpt>
      <trkpt lat="45.93757" lon="4.78622">
        <ele>181</ele>
        <time>2017-08-14T08:12:25Z</time>
      </trkpt>
      <trkpt lat="45.93761" lon="4.78621">
        <ele>181</ele>
        <time>2017-08-14T08:12:26Z</time>
      </trkpt>
      <trkpt lat="45.93769" lon="4.78618">
        <ele>181</ele>
        <time>2017-08-14T08:12:28Z</time>
      </trkpt>
      <trkpt lat="45.93773" lon="4.78617">
        <ele>181</ele>
        <time>2017-08-14T08:12:29Z</time>
      </trkpt>
      <trkpt lat="45.93781" lon="4.78616">
        <ele>181</ele>
        <time>2017-08-14T08:12:31Z</time>
      </trkpt>
      <trkpt lat="45.93785" lon="4.78615">
        <ele>182</ele>
        <time>2017-08-14T08:12:32Z</time>
      </trkpt>
      <trkpt lat="45.93793" lon="4.78613">
        <ele>182</ele>
        <time>2017-08-14T08:12:34Z</time>
      </trkpt>
      <trkpt lat="45.93797" lon="4.78612">
        <ele>182</ele>
        <time>2017-08-14T08:12:35Z</time>
      </trkpt>
      <trkpt lat="45.93806" lon="4.7861">
        <ele>183</ele>
        <time>2017-08-14T08:12:37Z</time>
      </trkpt>
      <trkpt lat="45.9381" lon="4.78608">
        <ele>183</ele>
        <time>2017-08-14T08:12:38Z</time>
      </trkpt>
      <trkpt lat="45.93818" lon="4.78605">
        <ele>184</ele>
        <time>2017-08-14T08:12:40Z</time>
      </trkpt>
      <trkpt lat="45.93822" lon="4.78604">
        <ele>184</ele>
        <time>2017-08-14T08:12:41Z</time>
      </trkpt>
      <trkpt lat="45.93829" lon="4.78601">
        <ele>184</ele>
        <time>2017-08-14T08:12:43Z</time>
      </trkpt>
      <trkpt lat="45.93833" lon="4.786">
        <ele>184</ele>
        <time>2017-08-14T08:12:44Z</time>
      </trkpt>
      <trkpt lat="45.93839" lon="4.78599">
        <ele>187</ele>
        <time>2017-08-14T08:12:46Z</time>
      </trkpt>
      <trkpt lat="45.93842" lon="4.78598">
        <ele>188</ele>
        <time>2017-08-14T08:12:47Z</time>
      </trkpt>
      <trkpt lat="45.93848" lon="4.78596">
        <ele>188</ele>
        <time>2017-08-14T08:12:49Z</time>
      </trkpt>
      <trkpt lat="45.93851" lon="4.78594">
        <ele>188</ele>
        <time>2017-08-14T08:12:50Z</time>
      </trkpt>
      <trkpt lat="45.93858" lon="4.78591">
        <ele>188</ele>
        <time>2017-08-14T08:12:53Z</time>
      </trkpt>
      <trkpt lat="45.93861" lon="4.7859">
        <ele>188</ele>
        <time>2017-08-14T08:12:54Z</time>
      </trkpt>
      <trkpt lat="45.93869" lon="4.78588">
        <ele>189</ele>
        <time>2017-08-14T08:12:57Z</time>
      </trkpt>
      <trkpt lat="45.93872" lon="4.78586">
        <ele>189</ele>
        <time>2017-08-14T08:12:58Z</time>
      </trkpt>
      <trkpt lat="45.9388" lon="4.78582">
        <ele>191</ele>
        <time>2017-08-14T08:13:01Z</time>
      </trkpt>
      <trkpt lat="45.93882" lon="4.78582">
        <ele>191</ele>
        <time>2017-08-14T08:13:02Z</time>
      </trkpt>
      <trkpt lat="45.93891" lon="4.78581">
        <ele>192</ele>
        <time>2017-08-14T08:13:06Z</time>
      </trkpt>
      <trkpt lat="45.93893" lon="4.7858">
        <ele>192</ele>
        <time>2017-08-14T08:13:07Z</time>
      </trkpt>
      <trkpt lat="45.93901" lon="4.78577">
        <ele>192</ele>
        <time>2017-08-14T08:13:10Z</time>
      </trkpt>
      <trkpt lat="45.93903" lon="4.78577">
        <ele>192</ele>
        <time>2017-08-14T08:13:11Z</time>
      </trkpt>
      <trkpt lat="45.93911" lon="4.78576">
        <ele>193</ele>
        <time>2017-08-14T08:13:14Z</time>
      </trkpt>
      <trkpt lat="45.93914" lon="4.78574">
        <ele>193</ele>
        <time>2017-08-14T08:13:15Z</time>
      </trkpt>
      <trkpt lat="45.93919" lon="4.78567">
        <ele>195</ele>
        <time>2017-08-14T08:13:19Z</time>
      </trkpt>
      <trkpt lat="45.93923" lon="4.78567">
        <ele>196</ele>
        <time>2017-08-14T08:13:20Z</time>
      </trkpt>
      <trkpt lat="45.93931" lon="4.78566">
        <ele>196</ele>
        <time>2017-08-14T08:13:23Z</time>
      </trkpt>
      <trkpt lat="45.93932" lon="4.78567">
        <ele>196</ele>
        <time>2017-08-14T08:13:24Z</time>
      </trkpt>
      <trkpt lat="45.93932" lon="4.78578">
        <ele>196</ele>
        <time>2017-08-14T08:13:29Z</time>
      </trkpt>
      <trkpt lat="45.93932" lon="4.78582">
        <ele>195</ele>
        <time>2017-08-14T08:13:30Z</time>
      </trkpt>
      <trkpt lat="45.9393" lon="4.78595">
        <ele>195</ele>
        <time>2017-08-14T08:13:33Z</time>
      </trkpt>
      <trkpt lat="45.93929" lon="4.78599">
        <ele>195</ele>
        <time>2017-08-14T08:13:34Z</time>
      </trkpt>
      <trkpt lat="45.93929" lon="4.78608">
        <ele>195</ele>
        <time>2017-08-14T08:13:36Z</time>
      </trkpt>
      <trkpt lat="45.93928" lon="4.78612">
        <ele>195</ele>
        <time>2017-08-14T08:13:37Z</time>
      </trkpt>
      <trkpt lat="45.93925" lon="4.78619">
        <ele>195</ele>
        <time>2017-08-14T08:13:39Z</time>
      </trkpt>
      <trkpt lat="45.93925" lon="4.78624">
        <ele>195</ele>
        <time>2017-08-14T08:13:40Z</time>
      </trkpt>
      <trkpt lat="45.93925" lon="4.78635">
        <ele>195</ele>
        <time>2017-08-14T08:13:42Z</time>
      </trkpt>
      <trkpt lat="45.93927" lon="4.78641">
        <ele>194</ele>
        <time>2017-08-14T08:13:43Z</time>
      </trkpt>
      <trkpt lat="45.93928" lon="4.78651">
        <ele>194</ele>
        <time>2017-08-14T08:13:45Z</time>
      </trkpt>
      <trkpt lat="45.93928" lon="4.78656">
        <ele>193</ele>
        <time>2017-08-14T08:13:46Z</time>
      </trkpt>
      <trkpt lat="45.93929" lon="4.78666">
        <ele>193</ele>
        <time>2017-08-14T08:13:48Z</time>
      </trkpt>
      <trkpt lat="45.93928" lon="4.78671">
        <ele>192</ele>
        <time>2017-08-14T08:13:49Z</time>
      </trkpt>
      <trkpt lat="45.93929" lon="4.78677">
        <ele>193</ele>
        <time>2017-08-14T08:13:50Z</time>
      </trkpt>
      <trkpt lat="45.93929" lon="4.78684">
        <ele>193</ele>
        <time>2017-08-14T08:13:51Z</time>
      </trkpt>
      <trkpt lat="45.93928" lon="4.78695">
        <ele>193</ele>
        <time>2017-08-14T08:13:53Z</time>
      </trkpt>
      <trkpt lat="45.93928" lon="4.78699">
        <ele>194</ele>
        <time>2017-08-14T08:13:54Z</time>
      </trkpt>
      <trkpt lat="45.93929" lon="4.78709">
        <ele>194</ele>
        <time>2017-08-14T08:13:56Z</time>
      </trkpt>
      <trkpt lat="45.93929" lon="4.78714">
        <ele>194</ele>
        <time>2017-08-14T08:13:57Z</time>
      </trkpt>
      <trkpt lat="45.93928" lon="4.78723">
        <ele>193</ele>
        <time>2017-08-14T08:13:59Z</time>
      </trkpt>
      <trkpt lat="45.93928" lon="4.78729">
        <ele>193</ele>
        <time>2017-08-14T08:14:00Z</time>
      </trkpt>
      <trkpt lat="45.93929" lon="4.7874">
        <ele>193</ele>
        <time>2017-08-14T08:14:02Z</time>
      </trkpt>
      <trkpt lat="45.93929" lon="4.78746">
        <ele>192</ele>
        <time>2017-08-14T08:14:03Z</time>
      </trkpt>
      <trkpt lat="45.93931" lon="4.78758">
        <ele>193</ele>
        <time>2017-08-14T08:14:05Z</time>
      </trkpt>
      <trkpt lat="45.93932" lon="4.78763">
        <ele>193</ele>
        <time>2017-08-14T08:14:06Z</time>
      </trkpt>
      <trkpt lat="45.93931" lon="4.78774">
        <ele>193</ele>
        <time>2017-08-14T08:14:08Z</time>
      </trkpt>
      <trkpt lat="45.93931" lon="4.78779">
        <ele>193</ele>
        <time>2017-08-14T08:14:09Z</time>
      </trkpt>
      <trkpt lat="45.9393" lon="4.78791">
        <ele>194</ele>
        <time>2017-08-14T08:14:11Z</time>
      </trkpt>
      <trkpt lat="45.9393" lon="4.78797">
        <ele>194</ele>
        <time>2017-08-14T08:14:12Z</time>
      </trkpt>
      <trkpt lat="45.93929" lon="4.78803">
        <ele>194</ele>
        <time>2017-08-14T08:14:13Z</time>
      </trkpt>
      <trkpt lat="45.93928" lon="4.7881">
        <ele>193</ele>
        <time>2017-08-14T08:14:14Z</time>
      </trkpt>
      <trkpt lat="45.93928" lon="4.78817">
        <ele>193</ele>
        <time>2017-08-14T08:14:15Z</time>
      </trkpt>
      <trkpt lat="45.93928" lon="4.78824">
        <ele>193</ele>
        <time>2017-08-14T08:14:16Z</time>
      </trkpt>
      <trkpt lat="45.93929" lon="4.78836">
        <ele>192</ele>
        <time>2017-08-14T08:14:18Z</time>
      </trkpt>
      <trkpt lat="45.93929" lon="4.78842">
        <ele>193</ele>
        <time>2017-08-14T08:14:19Z</time>
      </trkpt>
      <trkpt lat="45.93928" lon="4.78852">
        <ele>193</ele>
        <time>2017-08-14T08:14:21Z</time>
      </trkpt>
      <trkpt lat="45.93929" lon="4.78858">
        <ele>193</ele>
        <time>2017-08-14T08:14:22Z</time>
      </trkpt>
      <trkpt lat="45.9393" lon="4.78865">
        <ele>193</ele>
        <time>2017-08-14T08:14:23Z</time>
      </trkpt>
      <trkpt lat="45.93931" lon="4.78872">
        <ele>193</ele>
        <time>2017-08-14T08:14:24Z</time>
      </trkpt>
      <trkpt lat="45.93932" lon="4.78879">
        <ele>193</ele>
        <time>2017-08-14T08:14:25Z</time>
      </trkpt>
      <trkpt lat="45.93932" lon="4.78885">
        <ele>193</ele>
        <time>2017-08-14T08:14:26Z</time>
      </trkpt>
      <trkpt lat="45.9393" lon="4.78897">
        <ele>193</ele>
        <time>2017-08-14T08:14:28Z</time>
      </trkpt>
      <trkpt lat="45.9393" lon="4.78902">
        <ele>192</ele>
        <time>2017-08-14T08:14:29Z</time>
      </trkpt>
      <trkpt lat="45.9393" lon="4.78912">
        <ele>192</ele>
        <time>2017-08-14T08:14:31Z</time>
      </trkpt>
      <trkpt lat="45.9393" lon="4.78917">
        <ele>192</ele>
        <time>2017-08-14T08:14:32Z</time>
      </trkpt>
      <trkpt lat="45.93928" lon="4.78928">
        <ele>192</ele>
        <time>2017-08-14T08:14:34Z</time>
      </trkpt>
      <trkpt lat="45.93929" lon="4.78934">
        <ele>193</ele>
        <time>2017-08-14T08:14:35Z</time>
      </trkpt>
      <trkpt lat="45.9393" lon="4.78941">
        <ele>193</ele>
        <time>2017-08-14T08:14:36Z</time>
      </trkpt>
      <trkpt lat="45.93931" lon="4.78948">
        <ele>193</ele>
        <time>2017-08-14T08:14:37Z</time>
      </trkpt>
      <trkpt lat="45.93931" lon="4.78955">
        <ele>193</ele>
        <time>2017-08-14T08:14:38Z</time>
      </trkpt>
      <trkpt lat="45.93932" lon="4.78962">
        <ele>193</ele>
        <time>2017-08-14T08:14:39Z</time>
      </trkpt>
      <trkpt lat="45.93932" lon="4.78969">
        <ele>193</ele>
        <time>2017-08-14T08:14:40Z</time>
      </trkpt>
      <trkpt lat="45.93932" lon="4.78975">
        <ele>193</ele>
        <time>2017-08-14T08:14:41Z</time>
      </trkpt>
      <trkpt lat="45.93931" lon="4.78982">
        <ele>193</ele>
        <time>2017-08-14T08:14:42Z</time>
      </trkpt>
      <trkpt lat="45.93931" lon="4.78989">
        <ele>193</ele>
        <time>2017-08-14T08:14:43Z</time>
      </trkpt>
      <trkpt lat="45.93932" lon="4.78996">
        <ele>192</ele>
        <time>2017-08-14T08:14:44Z</time>
      </trkpt>
      <trkpt lat="45.93932" lon="4.79002">
        <ele>193</ele>
        <time>2017-08-14T08:14:45Z</time>
      </trkpt>
      <trkpt lat="45.93932" lon="4.7901">
        <ele>193</ele>
        <time>2017-08-14T08:14:46Z</time>
      </trkpt>
      <trkpt lat="45.93933" lon="4.79017">
        <ele>194</ele>
        <time>2017-08-14T08:14:47Z</time>
      </trkpt>
      <trkpt lat="45.93934" lon="4.79024">
        <ele>194</ele>
        <time>2017-08-14T08:14:48Z</time>
      </trkpt>
      <trkpt lat="45.93934" lon="4.7903">
        <ele>195</ele>
        <time>2017-08-14T08:14:49Z</time>
      </trkpt>
      <trkpt lat="45.93935" lon="4.79042">
        <ele>195</ele>
        <time>2017-08-14T08:14:51Z</time>
      </trkpt>
      <trkpt lat="45.93935" lon="4.79048">
        <ele>195</ele>
        <time>2017-08-14T08:14:52Z</time>
      </trkpt>
      <trkpt lat="45.93935" lon="4.79058">
        <ele>195</ele>
        <time>2017-08-14T08:14:54Z</time>
      </trkpt>
      <trkpt lat="45.93936" lon="4.79065">
        <ele>195</ele>
        <time>2017-08-14T08:14:55Z</time>
      </trkpt>
      <trkpt lat="45.93937" lon="4.79077">
        <ele>195</ele>
        <time>2017-08-14T08:14:57Z</time>
      </trkpt>
      <trkpt lat="45.93938" lon="4.79083">
        <ele>195</ele>
        <time>2017-08-14T08:14:58Z</time>
      </trkpt>
      <trkpt lat="45.93938" lon="4.7909">
        <ele>195</ele>
        <time>2017-08-14T08:14:59Z</time>
      </trkpt>
      <trkpt lat="45.93939" lon="4.79096">
        <ele>195</ele>
        <time>2017-08-14T08:15:00Z</time>
      </trkpt>
      <trkpt lat="45.93939" lon="4.79103">
        <ele>196</ele>
        <time>2017-08-14T08:15:01Z</time>
      </trkpt>
      <trkpt lat="45.9394" lon="4.7911">
        <ele>196</ele>
        <time>2017-08-14T08:15:02Z</time>
      </trkpt>
      <trkpt lat="45.93939" lon="4.79123">
        <ele>196</ele>
        <time>2017-08-14T08:15:04Z</time>
      </trkpt>
      <trkpt lat="45.93938" lon="4.79128">
        <ele>196</ele>
        <time>2017-08-14T08:15:05Z</time>
      </trkpt>
      <trkpt lat="45.93938" lon="4.7914">
        <ele>196</ele>
        <time>2017-08-14T08:15:07Z</time>
      </trkpt>
      <trkpt lat="45.93938" lon="4.79147">
        <ele>196</ele>
        <time>2017-08-14T08:15:08Z</time>
      </trkpt>
      <trkpt lat="45.93938" lon="4.79154">
        <ele>195</ele>
        <time>2017-08-14T08:15:09Z</time>
      </trkpt>
      <trkpt lat="45.93938" lon="4.79161">
        <ele>195</ele>
        <time>2017-08-14T08:15:10Z</time>
      </trkpt>
      <trkpt lat="45.93938" lon="4.79168">
        <ele>195</ele>
        <time>2017-08-14T08:15:11Z</time>
      </trkpt>
      <trkpt lat="45.93939" lon="4.79175">
        <ele>196</ele>
        <time>2017-08-14T08:15:12Z</time>
      </trkpt>
      <trkpt lat="45.93939" lon="4.79183">
        <ele>196</ele>
        <time>2017-08-14T08:15:13Z</time>
      </trkpt>
      <trkpt lat="45.93939" lon="4.7919">
        <ele>196</ele>
        <time>2017-08-14T08:15:14Z</time>
      </trkpt>
      <trkpt lat="45.93939" lon="4.79198">
        <ele>196</ele>
        <time>2017-08-14T08:15:15Z</time>
      </trkpt>
      <trkpt lat="45.93939" lon="4.79205">
        <ele>196</ele>
        <time>2017-08-14T08:15:16Z</time>
      </trkpt>
      <trkpt lat="45.9394" lon="4.79216">
        <ele>196</ele>
        <time>2017-08-14T08:15:18Z</time>
      </trkpt>
      <trkpt lat="45.9394" lon="4.79221">
        <ele>196</ele>
        <time>2017-08-14T08:15:19Z</time>
      </trkpt>
      <trkpt lat="45.9394" lon="4.79233">
        <ele>196</ele>
        <time>2017-08-14T08:15:21Z</time>
      </trkpt>
      <trkpt lat="45.93941" lon="4.79239">
        <ele>196</ele>
        <time>2017-08-14T08:15:22Z</time>
      </trkpt>
      <trkpt lat="45.93941" lon="4.79251">
        <ele>196</ele>
        <time>2017-08-14T08:15:24Z</time>
      </trkpt>
      <trkpt lat="45.93941" lon="4.79257">
        <ele>196</ele>
        <time>2017-08-14T08:15:25Z</time>
      </trkpt>
      <trkpt lat="45.93941" lon="4.79269">
        <ele>197</ele>
        <time>2017-08-14T08:15:27Z</time>
      </trkpt>
      <trkpt lat="45.93941" lon="4.79274">
        <ele>197</ele>
        <time>2017-08-14T08:15:28Z</time>
      </trkpt>
      <trkpt lat="45.93941" lon="4.79285">
        <ele>197</ele>
        <time>2017-08-14T08:15:30Z</time>
      </trkpt>
      <trkpt lat="45.93941" lon="4.7929">
        <ele>198</ele>
        <time>2017-08-14T08:15:31Z</time>
      </trkpt>
      <trkpt lat="45.9394" lon="4.79302">
        <ele>198</ele>
        <time>2017-08-14T08:15:33Z</time>
      </trkpt>
      <trkpt lat="45.93943" lon="4.79309">
        <ele>198</ele>
        <time>2017-08-14T08:15:34Z</time>
      </trkpt>
      <trkpt lat="45.93944" lon="4.79321">
        <ele>198</ele>
        <time>2017-08-14T08:15:36Z</time>
      </trkpt>
      <trkpt lat="45.93945" lon="4.79328">
        <ele>198</ele>
        <time>2017-08-14T08:15:37Z</time>
      </trkpt>
      <trkpt lat="45.93945" lon="4.79335">
        <ele>199</ele>
        <time>2017-08-14T08:15:38Z</time>
      </trkpt>
      <trkpt lat="45.93946" lon="4.79341">
        <ele>199</ele>
        <time>2017-08-14T08:15:39Z</time>
      </trkpt>
      <trkpt lat="45.93946" lon="4.79348">
        <ele>200</ele>
        <time>2017-08-14T08:15:40Z</time>
      </trkpt>
      <trkpt lat="45.93947" lon="4.79355">
        <ele>200</ele>
        <time>2017-08-14T08:15:41Z</time>
      </trkpt>
      <trkpt lat="45.93946" lon="4.79368">
        <ele>200</ele>
        <time>2017-08-14T08:15:43Z</time>
      </trkpt>
      <trkpt lat="45.93946" lon="4.79374">
        <ele>200</ele>
        <time>2017-08-14T08:15:44Z</time>
      </trkpt>
      <trkpt lat="45.93945" lon="4.79385">
        <ele>200</ele>
        <time>2017-08-14T08:15:46Z</time>
      </trkpt>
      <trkpt lat="45.93945" lon="4.7939">
        <ele>200</ele>
        <time>2017-08-14T08:15:47Z</time>
      </trkpt>
      <trkpt lat="45.93944" lon="4.79401">
        <ele>200</ele>
        <time>2017-08-14T08:15:49Z</time>
      </trkpt>
      <trkpt lat="45.93943" lon="4.79406">
        <ele>200</ele>
        <time>2017-08-14T08:15:50Z</time>
      </trkpt>
      <trkpt lat="45.93942" lon="4.79417">
        <ele>200</ele>
        <time>2017-08-14T08:15:52Z</time>
      </trkpt>
      <trkpt lat="45.93942" lon="4.79422">
        <ele>201</ele>
        <time>2017-08-14T08:15:53Z</time>
      </trkpt>
      <trkpt lat="45.9394" lon="4.79435">
        <ele>201</ele>
        <time>2017-08-14T08:15:55Z</time>
      </trkpt>
      <trkpt lat="45.93939" lon="4.79441">
        <ele>201</ele>
        <time>2017-08-14T08:15:56Z</time>
      </trkpt>
      <trkpt lat="45.93939" lon="4.79447">
        <ele>201</ele>
        <time>2017-08-14T08:15:57Z</time>
      </trkpt>
      <trkpt lat="45.93939" lon="4.79454">
        <ele>201</ele>
        <time>2017-08-14T08:15:58Z</time>
      </trkpt>
      <trkpt lat="45.93938" lon="4.79462">
        <ele>202</ele>
        <time>2017-08-14T08:15:59Z</time>
      </trkpt>
      <trkpt lat="45.93939" lon="4.79469">
        <ele>202</ele>
        <time>2017-08-14T08:16:00Z</time>
      </trkpt>
      <trkpt lat="45.93939" lon="4.79481">
        <ele>201</ele>
        <time>2017-08-14T08:16:02Z</time>
      </trkpt>
      <trkpt lat="45.93939" lon="4.79487">
        <ele>201</ele>
        <time>2017-08-14T08:16:03Z</time>
      </trkpt>
      <trkpt lat="45.93941" lon="4.79498">
        <ele>201</ele>
        <time>2017-08-14T08:16:05Z</time>
      </trkpt>
      <trkpt lat="45.93942" lon="4.79505">
        <ele>202</ele>
        <time>2017-08-14T08:16:06Z</time>
      </trkpt>
      <trkpt lat="45.93943" lon="4.79511">
        <ele>203</ele>
        <time>2017-08-14T08:16:07Z</time>
      </trkpt>
      <trkpt lat="45.93943" lon="4.79517">
        <ele>203</ele>
        <time>2017-08-14T08:16:08Z</time>
      </trkpt>
      <trkpt lat="45.93944" lon="4.79529">
        <ele>204</ele>
        <time>2017-08-14T08:16:10Z</time>
      </trkpt>
      <trkpt lat="45.93944" lon="4.79535">
        <ele>204</ele>
        <time>2017-08-14T08:16:11Z</time>
      </trkpt>
      <trkpt lat="45.93945" lon="4.79546">
        <ele>204</ele>
        <time>2017-08-14T08:16:13Z</time>
      </trkpt>
      <trkpt lat="45.93946" lon="4.79552">
        <ele>204</ele>
        <time>2017-08-14T08:16:14Z</time>
      </trkpt>
      <trkpt lat="45.93947" lon="4.79563">
        <ele>204</ele>
        <time>2017-08-14T08:16:16Z</time>
      </trkpt>
      <trkpt lat="45.93947" lon="4.79569">
        <ele>204</ele>
        <time>2017-08-14T08:16:17Z</time>
      </trkpt>
      <trkpt lat="45.93948" lon="4.7958">
        <ele>205</ele>
        <time>2017-08-14T08:16:19Z</time>
      </trkpt>
      <trkpt lat="45.93949" lon="4.79586">
        <ele>206</ele>
        <time>2017-08-14T08:16:20Z</time>
      </trkpt>
      <trkpt lat="45.93951" lon="4.79597">
        <ele>206</ele>
        <time>2017-08-14T08:16:22Z</time>
      </trkpt>
      <trkpt lat="45.93952" lon="4.79603">
        <ele>206</ele>
        <time>2017-08-14T08:16:23Z</time>
      </trkpt>
      <trkpt lat="45.93953" lon="4.79614">
        <ele>206</ele>
        <time>2017-08-14T08:16:25Z</time>
      </trkpt>
      <trkpt lat="45.93953" lon="4.7962">
        <ele>206</ele>
        <time>2017-08-14T08:16:26Z</time>
      </trkpt>
      <trkpt lat="45.93952" lon="4.79631">
        <ele>206</ele>
        <time>2017-08-14T08:16:28Z</time>
      </trkpt>
      <trkpt lat="45.93951" lon="4.79636">
        <ele>206</ele>
        <time>2017-08-14T08:16:29Z</time>
      </trkpt>
      <trkpt lat="45.9395" lon="4.79644">
        <ele>206</ele>
        <time>2017-08-14T08:16:31Z</time>
      </trkpt>
      <trkpt lat="45.93951" lon="4.7965">
        <ele>206</ele>
        <time>2017-08-14T08:16:32Z</time>
      </trkpt>
      <trkpt lat="45.93952" lon="4.79661">
        <ele>206</ele>
        <time>2017-08-14T08:16:34Z</time>
      </trkpt>
      <trkpt lat="45.93954" lon="4.79667">
        <ele>206</ele>
        <time>2017-08-14T08:16:35Z</time>
      </trkpt>
      <trkpt lat="45.93956" lon="4.79678">
        <ele>206</ele>
        <time>2017-08-14T08:16:37Z</time>
      </trkpt>
      <trkpt lat="45.93956" lon="4.79684">
        <ele>206</ele>
        <time>2017-08-14T08:16:38Z</time>
      </trkpt>
      <trkpt lat="45.93958" lon="4.79696">
        <ele>206</ele>
        <time>2017-08-14T08:16:40Z</time>
      </trkpt>
      <trkpt lat="45.93959" lon="4.79702">
        <ele>206</ele>
        <time>2017-08-14T08:16:41Z</time>
      </trkpt>
      <trkpt lat="45.93961" lon="4.79714">
        <ele>206</ele>
        <time>2017-08-14T08:16:43Z</time>
      </trkpt>
      <trkpt lat="45.93962" lon="4.79719">
        <ele>206</ele>
        <time>2017-08-14T08:16:44Z</time>
      </trkpt>
      <trkpt lat="45.93963" lon="4.79729">
        <ele>206</ele>
        <time>2017-08-14T08:16:46Z</time>
      </trkpt>
      <trkpt lat="45.93964" lon="4.79736">
        <ele>206</ele>
        <time>2017-08-14T08:16:47Z</time>
      </trkpt>
      <trkpt lat="45.93965" lon="4.79742">
        <ele>206</ele>
        <time>2017-08-14T08:16:48Z</time>
      </trkpt>
      <trkpt lat="45.93966" lon="4.79748">
        <ele>206</ele>
        <time>2017-08-14T08:16:49Z</time>
      </trkpt>
      <trkpt lat="45.93967" lon="4.79755">
        <ele>206</ele>
        <time>2017-08-14T08:16:50Z</time>
      </trkpt>
      <trkpt lat="45.93967" lon="4.79762">
        <ele>206</ele>
        <time>2017-08-14T08:16:51Z</time>
      </trkpt>
      <trkpt lat="45.93967" lon="4.79774">
        <ele>206</ele>
        <time>2017-08-14T08:16:53Z</time>
      </trkpt>
      <trkpt lat="45.93967" lon="4.7978">
        <ele>206</ele>
        <time>2017-08-14T08:16:54Z</time>
      </trkpt>
      <trkpt lat="45.93967" lon="4.79786">
        <ele>206</ele>
        <time>2017-08-14T08:16:55Z</time>
      </trkpt>
      <trkpt lat="45.93966" lon="4.79792">
        <ele>206</ele>
        <time>2017-08-14T08:16:56Z</time>
      </trkpt>
      <trkpt lat="45.93965" lon="4.79801">
        <ele>206</ele>
        <time>2017-08-14T08:16:57Z</time>
      </trkpt>
      <trkpt lat="45.93964" lon="4.79806">
        <ele>206</ele>
        <time>2017-08-14T08:16:58Z</time>
      </trkpt>
      <trkpt lat="45.93962" lon="4.79817">
        <ele>206</ele>
        <time>2017-08-14T08:17:00Z</time>
      </trkpt>
      <trkpt lat="45.93962" lon="4.79823">
        <ele>206</ele>
        <time>2017-08-14T08:17:01Z</time>
      </trkpt>
      <trkpt lat="45.9396" lon="4.79833">
        <ele>206</ele>
        <time>2017-08-14T08:17:03Z</time>
      </trkpt>
      <trkpt lat="45.9396" lon="4.79839">
        <ele>206</ele>
        <time>2017-08-14T08:17:04Z</time>
      </trkpt>
      <trkpt lat="45.93959" lon="4.79846">
        <ele>206</ele>
        <time>2017-08-14T08:17:05Z</time>
      </trkpt>
      <trkpt lat="45.93958" lon="4.79853">
        <ele>206</ele>
        <time>2017-08-14T08:17:06Z</time>
      </trkpt>
      <trkpt lat="45.93957" lon="4.79859">
        <ele>206</ele>
        <time>2017-08-14T08:17:07Z</time>
      </trkpt>
      <trkpt lat="45.93956" lon="4.79865">
        <ele>206</ele>
        <time>2017-08-14T08:17:08Z</time>
      </trkpt>
      <trkpt lat="45.93954" lon="4.79872">
        <ele>206</ele>
        <time>2017-08-14T08:17:09Z</time>
      </trkpt>
      <trkpt lat="45.93953" lon="4.79878">
        <ele>206</ele>
        <time>2017-08-14T08:17:10Z</time>
      </trkpt>
      <trkpt lat="45.93951" lon="4.7989">
        <ele>205</ele>
        <time>2017-08-14T08:17:12Z</time>
      </trkpt>
      <trkpt lat="45.9395" lon="4.79895">
        <ele>205</ele>
        <time>2017-08-14T08:17:13Z</time>
      </trkpt>
      <trkpt lat="45.93947" lon="4.79907">
        <ele>205</ele>
        <time>2017-08-14T08:17:15Z</time>
      </trkpt>
      <trkpt lat="45.93946" lon="4.79914">
        <ele>205</ele>
        <time>2017-08-14T08:17:16Z</time>
      </trkpt>
      <trkpt lat="45.93945" lon="4.79922">
        <ele>205</ele>
        <time>2017-08-14T08:17:17Z</time>
      </trkpt>
      <trkpt lat="45.93944" lon="4.79928">
        <ele>205</ele>
        <time>2017-08-14T08:17:18Z</time>
      </trkpt>
      <trkpt lat="45.93944" lon="4.79935">
        <ele>205</ele>
        <time>2017-08-14T08:17:19Z</time>
      </trkpt>
      <trkpt lat="45.93943" lon="4.79941">
        <ele>205</ele>
        <time>2017-08-14T08:17:20Z</time>
      </trkpt>
      <trkpt lat="45.93941" lon="4.79952">
        <ele>205</ele>
        <time>2017-08-14T08:17:22Z</time>
      </trkpt>
      <trkpt lat="45.9394" lon="4.79958">
        <ele>205</ele>
        <time>2017-08-14T08:17:23Z</time>
      </trkpt>
      <trkpt lat="45.93939" lon="4.79968">
        <ele>205</ele>
        <time>2017-08-14T08:17:25Z</time>
      </trkpt>
      <trkpt lat="45.93938" lon="4.79974">
        <ele>204</ele>
        <time>2017-08-14T08:17:26Z</time>
      </trkpt>
      <trkpt lat="45.93937" lon="4.7998">
        <ele>204</ele>
        <time>2017-08-14T08:17:27Z</time>
      </trkpt>
      <trkpt lat="45.93936" lon="4.79988">
        <ele>204</ele>
        <time>2017-08-14T08:17:28Z</time>
      </trkpt>
      <trkpt lat="45.93936" lon="4.79995">
        <ele>204</ele>
        <time>2017-08-14T08:17:29Z</time>
      </trkpt>
      <trkpt lat="45.93934" lon="4.80001">
        <ele>205</ele>
        <time>2017-08-14T08:17:30Z</time>
      </trkpt>
      <trkpt lat="45.93931" lon="4.80012">
        <ele>205</ele>
        <time>2017-08-14T08:17:32Z</time>
      </trkpt>
      <trkpt lat="45.9393" lon="4.80018">
        <ele>205</ele>
        <time>2017-08-14T08:17:33Z</time>
      </trkpt>
      <trkpt lat="45.93929" lon="4.80029">
        <ele>206</ele>
        <time>2017-08-14T08:17:35Z</time>
      </trkpt>
      <trkpt lat="45.93929" lon="4.80035">
        <ele>206</ele>
        <time>2017-08-14T08:17:36Z</time>
      </trkpt>
      <trkpt lat="45.93928" lon="4.80042">
        <ele>207</ele>
        <time>2017-08-14T08:17:37Z</time>
      </trkpt>
      <trkpt lat="45.93928" lon="4.80048">
        <ele>207</ele>
        <time>2017-08-14T08:17:38Z</time>
      </trkpt>
      <trkpt lat="45.93928" lon="4.80055">
        <ele>207</ele>
        <time>2017-08-14T08:17:39Z</time>
      </trkpt>
      <trkpt lat="45.93928" lon="4.80063">
        <ele>207</ele>
        <time>2017-08-14T08:17:40Z</time>
      </trkpt>
      <trkpt lat="45.93928" lon="4.8007">
        <ele>207</ele>
        <time>2017-08-14T08:17:41Z</time>
      </trkpt>
      <trkpt lat="45.93929" lon="4.80077">
        <ele>206</ele>
        <time>2017-08-14T08:17:42Z</time>
      </trkpt>
      <trkpt lat="45.9393" lon="4.80085">
        <ele>207</ele>
        <time>2017-08-14T08:17:43Z</time>
      </trkpt>
      <trkpt lat="45.93931" lon="4.80092">
        <ele>207</ele>
        <time>2017-08-14T08:17:44Z</time>
      </trkpt>
      <trkpt lat="45.93932" lon="4.80099">
        <ele>208</ele>
        <time>2017-08-14T08:17:45Z</time>
      </trkpt>
      <trkpt lat="45.93933" lon="4.80105">
        <ele>208</ele>
        <time>2017-08-14T08:17:46Z</time>
      </trkpt>
      <trkpt lat="45.93935" lon="4.80117">
        <ele>208</ele>
        <time>2017-08-14T08:17:48Z</time>
      </trkpt>
      <trkpt lat="45.93936" lon="4.80123">
        <ele>208</ele>
        <time>2017-08-14T08:17:49Z</time>
      </trkpt>
      <trkpt lat="45.93938" lon="4.80135">
        <ele>208</ele>
        <time>2017-08-14T08:17:51Z</time>
      </trkpt>
      <trkpt lat="45.93938" lon="4.80142">
        <ele>208</ele>
        <time>2017-08-14T08:17:52Z</time>
      </trkpt>
      <trkpt lat="45.93939" lon="4.80149">
        <ele>208</ele>
        <time>2017-08-14T08:17:53Z</time>
      </trkpt>
      <trkpt lat="45.93941" lon="4.80156">
        <ele>208</ele>
        <time>2017-08-14T08:17:54Z</time>
      </trkpt>
      <trkpt lat="45.93942" lon="4.80163">
        <ele>208</ele>
        <time>2017-08-14T08:17:55Z</time>
      </trkpt>
      <trkpt lat="45.93944" lon="4.80169">
        <ele>205</ele>
        <time>2017-08-14T08:17:56Z</time>
      </trkpt>
      <trkpt lat="45.93945" lon="4.80176">
        <ele>205</ele>
        <time>2017-08-14T08:17:57Z</time>
      </trkpt>
      <trkpt lat="45.93946" lon="4.80183">
        <ele>205</ele>
        <time>2017-08-14T08:17:58Z</time>
      </trkpt>
      <trkpt lat="45.93949" lon="4.80189">
        <ele>205</ele>
        <time>2017-08-14T08:17:59Z</time>
      </trkpt>
      <trkpt lat="45.93951" lon="4.80196">
        <ele>205</ele>
        <time>2017-08-14T08:18:00Z</time>
      </trkpt>
      <trkpt lat="45.93954" lon="4.80207">
        <ele>205</ele>
        <time>2017-08-14T08:18:02Z</time>
      </trkpt>
      <trkpt lat="45.93956" lon="4.80213">
        <ele>205</ele>
        <time>2017-08-14T08:18:03Z</time>
      </trkpt>
      <trkpt lat="45.9396" lon="4.80224">
        <ele>205</ele>
        <time>2017-08-14T08:18:05Z</time>
      </trkpt>
      <trkpt lat="45.93962" lon="4.8023">
        <ele>205</ele>
        <time>2017-08-14T08:18:06Z</time>
      </trkpt>
      <trkpt lat="45.93965" lon="4.80241">
        <ele>204</ele>
        <time>2017-08-14T08:18:08Z</time>
      </trkpt>
      <trkpt lat="45.93966" lon="4.80247">
        <ele>204</ele>
        <time>2017-08-14T08:18:09Z</time>
      </trkpt>
      <trkpt lat="45.93968" lon="4.80254">
        <ele>202</ele>
        <time>2017-08-14T08:18:10Z</time>
      </trkpt>
      <trkpt lat="45.9397" lon="4.80261">
        <ele>202</ele>
        <time>2017-08-14T08:18:11Z</time>
      </trkpt>
      <trkpt lat="45.93972" lon="4.80268">
        <ele>202</ele>
        <time>2017-08-14T08:18:12Z</time>
      </trkpt>
      <trkpt lat="45.93974" lon="4.80275">
        <ele>203</ele>
        <time>2017-08-14T08:18:13Z</time>
      </trkpt>
      <trkpt lat="45.93976" lon="4.80282">
        <ele>203</ele>
        <time>2017-08-14T08:18:14Z</time>
      </trkpt>
      <trkpt lat="45.93978" lon="4.80289">
        <ele>203</ele>
        <time>2017-08-14T08:18:15Z</time>
      </trkpt>
      <trkpt lat="45.93981" lon="4.80301">
        <ele>203</ele>
        <time>2017-08-14T08:18:17Z</time>
      </trkpt>
      <trkpt lat="45.93982" lon="4.80306">
        <ele>203</ele>
        <time>2017-08-14T08:18:18Z</time>
      </trkpt>
      <trkpt lat="45.93984" lon="4.80317">
        <ele>203</ele>
        <time>2017-08-14T08:18:20Z</time>
      </trkpt>
      <trkpt lat="45.93985" lon="4.80322">
        <ele>204</ele>
        <time>2017-08-14T08:18:21Z</time>
      </trkpt>
      <trkpt lat="45.93988" lon="4.80333">
        <ele>204</ele>
        <time>2017-08-14T08:18:23Z</time>
      </trkpt>
      <trkpt lat="45.93989" lon="4.80338">
        <ele>206</ele>
        <time>2017-08-14T08:18:24Z</time>
      </trkpt>
      <trkpt lat="45.93991" lon="4.80348">
        <ele>206</ele>
        <time>2017-08-14T08:18:26Z</time>
      </trkpt>
      <trkpt lat="45.93992" lon="4.80353">
        <ele>206</ele>
        <time>2017-08-14T08:18:27Z</time>
      </trkpt>
      <trkpt lat="45.93995" lon="4.80361">
        <ele>207</ele>
        <time>2017-08-14T08:18:29Z</time>
      </trkpt>
      <trkpt lat="45.93997" lon="4.80364">
        <ele>207</ele>
        <time>2017-08-14T08:18:30Z</time>
      </trkpt>
      <trkpt lat="45.94" lon="4.80374">
        <ele>208</ele>
        <time>2017-08-14T08:18:32Z</time>
      </trkpt>
      <trkpt lat="45.94" lon="4.80379">
        <ele>216</ele>
        <time>2017-08-14T08:18:33Z</time>
      </trkpt>
      <trkpt lat="45.94002" lon="4.80388">
        <ele>217</ele>
        <time>2017-08-14T08:18:35Z</time>
      </trkpt>
      <trkpt lat="45.94004" lon="4.80392">
        <ele>217</ele>
        <time>2017-08-14T08:18:36Z</time>
      </trkpt>
      <trkpt lat="45.94006" lon="4.80401">
        <ele>217</ele>
        <time>2017-08-14T08:18:38Z</time>
      </trkpt>
      <trkpt lat="45.94007" lon="4.80406">
        <ele>217</ele>
        <time>2017-08-14T08:18:39Z</time>
      </trkpt>
      <trkpt lat="45.9401" lon="4.80417">
        <ele>219</ele>
        <time>2017-08-14T08:18:42Z</time>
      </trkpt>
      <trkpt lat="45.94011" lon="4.80421">
        <ele>220</ele>
        <time>2017-08-14T08:18:43Z</time>
      </trkpt>
      <trkpt lat="45.94014" lon="4.80432">
        <ele>221</ele>
        <time>2017-08-14T08:18:46Z</time>
      </trkpt>
      <trkpt lat="45.94014" lon="4.80437">
        <ele>222</ele>
        <time>2017-08-14T08:18:47Z</time>
      </trkpt>
      <trkpt lat="45.94014" lon="4.80446">
        <ele>222</ele>
        <time>2017-08-14T08:18:49Z</time>
      </trkpt>
      <trkpt lat="45.94015" lon="4.8045">
        <ele>223</ele>
        <time>2017-08-14T08:18:50Z</time>
      </trkpt>
      <trkpt lat="45.94015" lon="4.8046">
        <ele>223</ele>
        <time>2017-08-14T08:18:52Z</time>
      </trkpt>
      <trkpt lat="45.94014" lon="4.80465">
        <ele>223</ele>
        <time>2017-08-14T08:18:53Z</time>
      </trkpt>
      <trkpt lat="45.94014" lon="4.80475">
        <ele>223</ele>
        <time>2017-08-14T08:18:55Z</time>
      </trkpt>
      <trkpt lat="45.94013" lon="4.80479">
        <ele>222</ele>
        <time>2017-08-14T08:18:56Z</time>
      </trkpt>
      <trkpt lat="45.94014" lon="4.80488">
        <ele>222</ele>
        <time>2017-08-14T08:18:59Z</time>
      </trkpt>
      <trkpt lat="45.94014" lon="4.80492">
        <ele>221</ele>
        <time>2017-08-14T08:19:00Z</time>
      </trkpt>
      <trkpt lat="45.94015" lon="4.80502">
        <ele>222</ele>
        <time>2017-08-14T08:19:02Z</time>
      </trkpt>
      <trkpt lat="45.94015" lon="4.80506">
        <ele>222</ele>
        <time>2017-08-14T08:19:03Z</time>
      </trkpt>
      <trkpt lat="45.94014" lon="4.80517">
        <ele>223</ele>
        <time>2017-08-14T08:19:06Z</time>
      </trkpt>
      <trkpt lat="45.94014" lon="4.8052">
        <ele>223</ele>
        <time>2017-08-14T08:19:07Z</time>
      </trkpt>
      <trkpt lat="45.94014" lon="4.80531">
        <ele>224</ele>
        <time>2017-08-14T08:19:10Z</time>
      </trkpt>
      <trkpt lat="45.94014" lon="4.80536">
        <ele>224</ele>
        <time>2017-08-14T08:19:11Z</time>
      </trkpt>
      <trkpt lat="45.94014" lon="4.80547">
        <ele>224</ele>
        <time>2017-08-14T08:19:14Z</time>
      </trkpt>
      <trkpt lat="45.94014" lon="4.8055">
        <ele>224</ele>
        <time>2017-08-14T08:19:15Z</time>
      </trkpt>
      <trkpt lat="45.94015" lon="4.80562">
        <ele>223</ele>
        <time>2017-08-14T08:19:18Z</time>
      </trkpt>
      <trkpt lat="45.94015" lon="4.80566">
        <ele>223</ele>
        <time>2017-08-14T08:19:19Z</time>
      </trkpt>
      <trkpt lat="45.94015" lon="4.80576">
        <ele>222</ele>
        <time>2017-08-14T08:19:22Z</time>
      </trkpt>
      <trkpt lat="45.94016" lon="4.80581">
        <ele>222</ele>
        <time>2017-08-14T08:19:23Z</time>
      </trkpt>
      <trkpt lat="45.94015" lon="4.80592">
        <ele>222</ele>
        <time>2017-08-14T08:19:26Z</time>
      </trkpt>
      <trkpt lat="45.94016" lon="4.80595">
        <ele>223</ele>
        <time>2017-08-14T08:19:27Z</time>
      </trkpt>
      <trkpt lat="45.94016" lon="4.80605">
        <ele>223</ele>
        <time>2017-08-14T08:19:30Z</time>
      </trkpt>
      <trkpt lat="45.94017" lon="4.80609">
        <ele>224</ele>
        <time>2017-08-14T08:19:31Z</time>
      </trkpt>
      <trkpt lat="45.94017" lon="4.8062">
        <ele>224</ele>
        <time>2017-08-14T08:19:33Z</time>
      </trkpt>
      <trkpt lat="45.94016" lon="4.80626">
        <ele>224</ele>
        <time>2017-08-14T08:19:34Z</time>
      </trkpt>
      <trkpt lat="45.94017" lon="4.80636">
        <ele>224</ele>
        <time>2017-08-14T08:19:37Z</time>
      </trkpt>
      <trkpt lat="45.94016" lon="4.80641">
        <ele>223</ele>
        <time>2017-08-14T08:19:38Z</time>
      </trkpt>
      <trkpt lat="45.94017" lon="4.80652">
        <ele>222</ele>
        <time>2017-08-14T08:19:40Z</time>
      </trkpt>
      <trkpt lat="45.94018" lon="4.80658">
        <ele>222</ele>
        <time>2017-08-14T08:19:41Z</time>
      </trkpt>
      <trkpt lat="45.94019" lon="4.80668">
        <ele>222</ele>
        <time>2017-08-14T08:19:43Z</time>
      </trkpt>
      <trkpt lat="45.9402" lon="4.80672">
        <ele>222</ele>
        <time>2017-08-14T08:19:44Z</time>
      </trkpt>
      <trkpt lat="45.9402" lon="4.80682">
        <ele>223</ele>
        <time>2017-08-14T08:19:46Z</time>
      </trkpt>
      <trkpt lat="45.94021" lon="4.80686">
        <ele>223</ele>
        <time>2017-08-14T08:19:47Z</time>
      </trkpt>
      <trkpt lat="45.94022" lon="4.80694">
        <ele>224</ele>
        <time>2017-08-14T08:19:49Z</time>
      </trkpt>
      <trkpt lat="45.94023" lon="4.80699">
        <ele>224</ele>
        <time>2017-08-14T08:19:50Z</time>
      </trkpt>
      <trkpt lat="45.94025" lon="4.80711">
        <ele>225</ele>
        <time>2017-08-14T08:19:53Z</time>
      </trkpt>
      <trkpt lat="45.94025" lon="4.80715">
        <ele>225</ele>
        <time>2017-08-14T08:19:54Z</time>
      </trkpt>
      <trkpt lat="45.94027" lon="4.80726">
        <ele>225</ele>
        <time>2017-08-14T08:19:57Z</time>
      </trkpt>
      <trkpt lat="45.94028" lon="4.80729">
        <ele>225</ele>
        <time>2017-08-14T08:19:58Z</time>
      </trkpt>
      <trkpt lat="45.94029" lon="4.80737">
        <ele>225</ele>
        <time>2017-08-14T08:19:59Z</time>
      </trkpt>
      <trkpt lat="45.9403" lon="4.80743">
        <ele>225</ele>
        <time>2017-08-14T08:20:00Z</time>
      </trkpt>
      <trkpt lat="45.94031" lon="4.80754">
        <ele>226</ele>
        <time>2017-08-14T08:20:02Z</time>
      </trkpt>
      <trkpt lat="45.94032" lon="4.80763">
        <ele>226</ele>
        <time>2017-08-14T08:20:03Z</time>
      </trkpt>
      <trkpt lat="45.94033" lon="4.80772">
        <ele>227</ele>
        <time>2017-08-14T08:20:05Z</time>
      </trkpt>
      <trkpt lat="45.94033" lon="4.80776">
        <ele>227</ele>
        <time>2017-08-14T08:20:06Z</time>
      </trkpt>
      <trkpt lat="45.94035" lon="4.80787">
        <ele>227</ele>
        <time>2017-08-14T08:20:09Z</time>
      </trkpt>
      <trkpt lat="45.94035" lon="4.80791">
        <ele>227</ele>
        <time>2017-08-14T08:20:10Z</time>
      </trkpt>
      <trkpt lat="45.94038" lon="4.80801">
        <ele>227</ele>
        <time>2017-08-14T08:20:13Z</time>
      </trkpt>
      <trkpt lat="45.94038" lon="4.80805">
        <ele>228</ele>
        <time>2017-08-14T08:20:14Z</time>
      </trkpt>
      <trkpt lat="45.94041" lon="4.80815">
        <ele>228</ele>
        <time>2017-08-14T08:20:17Z</time>
      </trkpt>
      <trkpt lat="45.94041" lon="4.80818">
        <ele>228</ele>
        <time>2017-08-14T08:20:18Z</time>
      </trkpt>
      <trkpt lat="45.94042" lon="4.80829">
        <ele>228</ele>
        <time>2017-08-14T08:20:21Z</time>
      </trkpt>
      <trkpt lat="45.94043" lon="4.80832">
        <ele>228</ele>
        <time>2017-08-14T08:20:22Z</time>
      </trkpt>
      <trkpt lat="45.94044" lon="4.8084">
        <ele>229</ele>
        <time>2017-08-14T08:20:24Z</time>
      </trkpt>
      <trkpt lat="45.94045" lon="4.80845">
        <ele>229</ele>
        <time>2017-08-14T08:20:25Z</time>
      </trkpt>
      <trkpt lat="45.94047" lon="4.80854">
        <ele>229</ele>
        <time>2017-08-14T08:20:27Z</time>
      </trkpt>
      <trkpt lat="45.94047" lon="4.80858">
        <ele>229</ele>
        <time>2017-08-14T08:20:28Z</time>
      </trkpt>
      <trkpt lat="45.94049" lon="4.80867">
        <ele>230</ele>
        <time>2017-08-14T08:20:30Z</time>
      </trkpt>
      <trkpt lat="45.9405" lon="4.80871">
        <ele>230</ele>
        <time>2017-08-14T08:20:31Z</time>
      </trkpt>
      <trkpt lat="45.94051" lon="4.80879">
        <ele>230</ele>
        <time>2017-08-14T08:20:33Z</time>
      </trkpt>
      <trkpt lat="45.94052" lon="4.80887">
        <ele>230</ele>
        <time>2017-08-14T08:20:34Z</time>
      </trkpt>
      <trkpt lat="45.94053" lon="4.80899">
        <ele>230</ele>
        <time>2017-08-14T08:20:37Z</time>
      </trkpt>
      <trkpt lat="45.94053" lon="4.80902">
        <ele>231</ele>
        <time>2017-08-14T08:20:38Z</time>
      </trkpt>
      <trkpt lat="45.94055" lon="4.80914">
        <ele>231</ele>
        <time>2017-08-14T08:20:41Z</time>
      </trkpt>
      <trkpt lat="45.94056" lon="4.80918">
        <ele>232</ele>
        <time>2017-08-14T08:20:42Z</time>
      </trkpt>
      <trkpt lat="45.94059" lon="4.80929">
        <ele>232</ele>
        <time>2017-08-14T08:20:45Z</time>
      </trkpt>
      <trkpt lat="45.9406" lon="4.80933">
        <ele>232</ele>
        <time>2017-08-14T08:20:46Z</time>
      </trkpt>
      <trkpt lat="45.94062" lon="4.80944">
        <ele>232</ele>
        <time>2017-08-14T08:20:49Z</time>
      </trkpt>
      <trkpt lat="45.94062" lon="4.80948">
        <ele>232</ele>
        <time>2017-08-14T08:20:50Z</time>
      </trkpt>
      <trkpt lat="45.94064" lon="4.80959">
        <ele>232</ele>
        <time>2017-08-14T08:20:53Z</time>
      </trkpt>
      <trkpt lat="45.94064" lon="4.80963">
        <ele>232</ele>
        <time>2017-08-14T08:20:54Z</time>
      </trkpt>
      <trkpt lat="45.94066" lon="4.80974">
        <ele>233</ele>
        <time>2017-08-14T08:20:57Z</time>
      </trkpt>
      <trkpt lat="45.94066" lon="4.80978">
        <ele>233</ele>
        <time>2017-08-14T08:20:58Z</time>
      </trkpt>
      <trkpt lat="45.94067" lon="4.8099">
        <ele>234</ele>
        <time>2017-08-14T08:21:01Z</time>
      </trkpt>
      <trkpt lat="45.94067" lon="4.80994">
        <ele>235</ele>
        <time>2017-08-14T08:21:02Z</time>
      </trkpt>
      <trkpt lat="45.94068" lon="4.81006">
        <ele>235</ele>
        <time>2017-08-14T08:21:05Z</time>
      </trkpt>
      <trkpt lat="45.9407" lon="4.81013">
        <ele>235</ele>
        <time>2017-08-14T08:21:07Z</time>
      </trkpt>
      <trkpt lat="45.94073" lon="4.81023">
        <ele>234</ele>
        <time>2017-08-14T08:21:10Z</time>
      </trkpt>
      <trkpt lat="45.94074" lon="4.81027">
        <ele>234</ele>
        <time>2017-08-14T08:21:11Z</time>
      </trkpt>
      <trkpt lat="45.94076" lon="4.81037">
        <ele>233</ele>
        <time>2017-08-14T08:21:13Z</time>
      </trkpt>
      <trkpt lat="45.94078" lon="4.81042">
        <ele>233</ele>
        <time>2017-08-14T08:21:14Z</time>
      </trkpt>
      <trkpt lat="45.94081" lon="4.8105">
        <ele>233</ele>
        <time>2017-08-14T08:21:16Z</time>
      </trkpt>
      <trkpt lat="45.94083" lon="4.81054">
        <ele>234</ele>
        <time>2017-08-14T08:21:17Z</time>
      </trkpt>
      <trkpt lat="45.94088" lon="4.81064">
        <ele>242</ele>
        <time>2017-08-14T08:21:20Z</time>
      </trkpt>
      <trkpt lat="45.94089" lon="4.81067">
        <ele>242</ele>
        <time>2017-08-14T08:21:21Z</time>
      </trkpt>
      <trkpt lat="45.94094" lon="4.81076">
        <ele>241</ele>
        <time>2017-08-14T08:21:24Z</time>
      </trkpt>
      <trkpt lat="45.94096" lon="4.81079">
        <ele>241</ele>
        <time>2017-08-14T08:21:25Z</time>
      </trkpt>
      <trkpt lat="45.94101" lon="4.81087">
        <ele>241</ele>
        <time>2017-08-14T08:21:28Z</time>
      </trkpt>
      <trkpt lat="45.94104" lon="4.81089">
        <ele>241</ele>
        <time>2017-08-14T08:21:29Z</time>
      </trkpt>
      <trkpt lat="45.94109" lon="4.81098">
        <ele>242</ele>
        <time>2017-08-14T08:21:32Z</time>
      </trkpt>
      <trkpt lat="45.94111" lon="4.81101">
        <ele>242</ele>
        <time>2017-08-14T08:21:33Z</time>
      </trkpt>
      <trkpt lat="45.94113" lon="4.81107">
        <ele>242</ele>
        <time>2017-08-14T08:21:35Z</time>
      </trkpt>
      <trkpt lat="45.94114" lon="4.81113">
        <ele>242</ele>
        <time>2017-08-14T08:21:36Z</time>
      </trkpt>
      <trkpt lat="45.94118" lon="4.81121">
        <ele>243</ele>
        <time>2017-08-14T08:21:38Z</time>
      </trkpt>
      <trkpt lat="45.9412" lon="4.81124">
        <ele>243</ele>
        <time>2017-08-14T08:21:39Z</time>
      </trkpt>
      <trkpt lat="45.94124" lon="4.81132">
        <ele>243</ele>
        <time>2017-08-14T08:21:42Z</time>
      </trkpt>
      <trkpt lat="45.94126" lon="4.81135">
        <ele>243</ele>
        <time>2017-08-14T08:21:43Z</time>
      </trkpt>
      <trkpt lat="45.94129" lon="4.81142">
        <ele>243</ele>
        <time>2017-08-14T08:21:45Z</time>
      </trkpt>
      <trkpt lat="45.94131" lon="4.81147">
        <ele>243</ele>
        <time>2017-08-14T08:21:46Z</time>
      </trkpt>
      <trkpt lat="45.94135" lon="4.81155">
        <ele>244</ele>
        <time>2017-08-14T08:21:48Z</time>
      </trkpt>
      <trkpt lat="45.94137" lon="4.81159">
        <ele>244</ele>
        <time>2017-08-14T08:21:49Z</time>
      </trkpt>
      <trkpt lat="45.94141" lon="4.81169">
        <ele>244</ele>
        <time>2017-08-14T08:21:52Z</time>
      </trkpt>
      <trkpt lat="45.94142" lon="4.81172">
        <ele>244</ele>
        <time>2017-08-14T08:21:53Z</time>
      </trkpt>
      <trkpt lat="45.94146" lon="4.81183">
        <ele>244</ele>
        <time>2017-08-14T08:21:56Z</time>
      </trkpt>
      <trkpt lat="45.94146" lon="4.81187">
        <ele>244</ele>
        <time>2017-08-14T08:21:57Z</time>
      </trkpt>
      <trkpt lat="45.94149" lon="4.81195">
        <ele>244</ele>
        <time>2017-08-14T08:21:59Z</time>
      </trkpt>
      <trkpt lat="45.9415" lon="4.812">
        <ele>244</ele>
        <time>2017-08-14T08:22:00Z</time>
      </trkpt>
      <trkpt lat="45.94152" lon="4.81208">
        <ele>244</ele>
        <time>2017-08-14T08:22:02Z</time>
      </trkpt>
      <trkpt lat="45.94153" lon="4.81212">
        <ele>245</ele>
        <time>2017-08-14T08:22:03Z</time>
      </trkpt>
      <trkpt lat="45.94156" lon="4.81223">
        <ele>245</ele>
        <time>2017-08-14T08:22:06Z</time>
      </trkpt>
      <trkpt lat="45.94157" lon="4.81227">
        <ele>245</ele>
        <time>2017-08-14T08:22:07Z</time>
      </trkpt>
      <trkpt lat="45.94158" lon="4.81236">
        <ele>246</ele>
        <time>2017-08-14T08:22:09Z</time>
      </trkpt>
      <trkpt lat="45.94159" lon="4.81239">
        <ele>247</ele>
        <time>2017-08-14T08:22:10Z</time>
      </trkpt>
      <trkpt lat="45.94161" lon="4.81251">
        <ele>249</ele>
        <time>2017-08-14T08:22:13Z</time>
      </trkpt>
      <trkpt lat="45.94162" lon="4.81255">
        <ele>249</ele>
        <time>2017-08-14T08:22:14Z</time>
      </trkpt>
      <trkpt lat="45.94164" lon="4.81264">
        <ele>248</ele>
        <time>2017-08-14T08:22:16Z</time>
      </trkpt>
      <trkpt lat="45.94164" lon="4.81269">
        <ele>248</ele>
        <time>2017-08-14T08:22:17Z</time>
      </trkpt>
      <trkpt lat="45.94165" lon="4.81281">
        <ele>247</ele>
        <time>2017-08-14T08:22:20Z</time>
      </trkpt>
      <trkpt lat="45.94165" lon="4.81285">
        <ele>247</ele>
        <time>2017-08-14T08:22:21Z</time>
      </trkpt>
      <trkpt lat="45.94164" lon="4.81296">
        <ele>247</ele>
        <time>2017-08-14T08:22:24Z</time>
      </trkpt>
      <trkpt lat="45.94164" lon="4.813">
        <ele>247</ele>
        <time>2017-08-14T08:22:25Z</time>
      </trkpt>
      <trkpt lat="45.94163" lon="4.81312">
        <ele>248</ele>
        <time>2017-08-14T08:22:28Z</time>
      </trkpt>
      <trkpt lat="45.94162" lon="4.81316">
        <ele>249</ele>
        <time>2017-08-14T08:22:29Z</time>
      </trkpt>
      <trkpt lat="45.94161" lon="4.81325">
        <ele>250</ele>
        <time>2017-08-14T08:22:32Z</time>
      </trkpt>
      <trkpt lat="45.94161" lon="4.81329">
        <ele>250</ele>
        <time>2017-08-14T08:22:33Z</time>
      </trkpt>
      <trkpt lat="45.94159" lon="4.81341">
        <ele>251</ele>
        <time>2017-08-14T08:22:36Z</time>
      </trkpt>
      <trkpt lat="45.9416" lon="4.81346">
        <ele>251</ele>
        <time>2017-08-14T08:22:37Z</time>
      </trkpt>
      <trkpt lat="45.9416" lon="4.81354">
        <ele>251</ele>
        <time>2017-08-14T08:22:39Z</time>
      </trkpt>
      <trkpt lat="45.9416" lon="4.81359">
        <ele>250</ele>
        <time>2017-08-14T08:22:40Z</time>
      </trkpt>
      <trkpt lat="45.94158" lon="4.8137">
        <ele>251</ele>
        <time>2017-08-14T08:22:43Z</time>
      </trkpt>
      <trkpt lat="45.94157" lon="4.81374">
        <ele>251</ele>
        <time>2017-08-14T08:22:44Z</time>
      </trkpt>
      <trkpt lat="45.94155" lon="4.81385">
        <ele>251</ele>
        <time>2017-08-14T08:22:47Z</time>
      </trkpt>
      <trkpt lat="45.94154" lon="4.8139">
        <ele>251</ele>
        <time>2017-08-14T08:22:48Z</time>
      </trkpt>
      <trkpt lat="45.94153" lon="4.81399">
        <ele>252</ele>
        <time>2017-08-14T08:22:50Z</time>
      </trkpt>
      <trkpt lat="45.94152" lon="4.81403">
        <ele>252</ele>
        <time>2017-08-14T08:22:51Z</time>
      </trkpt>
      <trkpt lat="45.94148" lon="4.81414">
        <ele>252</ele>
        <time>2017-08-14T08:22:54Z</time>
      </trkpt>
      <trkpt lat="45.94147" lon="4.81419">
        <ele>256</ele>
        <time>2017-08-14T08:22:55Z</time>
      </trkpt>
      <trkpt lat="45.94147" lon="4.81428">
        <ele>256</ele>
        <time>2017-08-14T08:22:57Z</time>
      </trkpt>
      <trkpt lat="45.94147" lon="4.81432">
        <ele>256</ele>
        <time>2017-08-14T08:22:58Z</time>
      </trkpt>
      <trkpt lat="45.94145" lon="4.81444">
        <ele>256</ele>
        <time>2017-08-14T08:23:01Z</time>
      </trkpt>
      <trkpt lat="45.94145" lon="4.81448">
        <ele>256</ele>
        <time>2017-08-14T08:23:02Z</time>
      </trkpt>
      <trkpt lat="45.94143" lon="4.81461">
        <ele>257</ele>
        <time>2017-08-14T08:23:05Z</time>
      </trkpt>
      <trkpt lat="45.94143" lon="4.81465">
        <ele>257</ele>
        <time>2017-08-14T08:23:06Z</time>
      </trkpt>
      <trkpt lat="45.94142" lon="4.81473">
        <ele>258</ele>
        <time>2017-08-14T08:23:08Z</time>
      </trkpt>
      <trkpt lat="45.94142" lon="4.81478">
        <ele>258</ele>
        <time>2017-08-14T08:23:09Z</time>
      </trkpt>
      <trkpt lat="45.94141" lon="4.81491">
        <ele>259</ele>
        <time>2017-08-14T08:23:12Z</time>
      </trkpt>
      <trkpt lat="45.94141" lon="4.81495">
        <ele>259</ele>
        <time>2017-08-14T08:23:13Z</time>
      </trkpt>
      <trkpt lat="45.94139" lon="4.81505">
        <ele>263</ele>
        <time>2017-08-14T08:23:16Z</time>
      </trkpt>
      <trkpt lat="45.94139" lon="4.81508">
        <ele>263</ele>
        <time>2017-08-14T08:23:17Z</time>
      </trkpt>
      <trkpt lat="45.94139" lon="4.81519">
        <ele>263</ele>
        <time>2017-08-14T08:23:20Z</time>
      </trkpt>
      <trkpt lat="45.9414" lon="4.81523">
        <ele>263</ele>
        <time>2017-08-14T08:23:21Z</time>
      </trkpt>
      <trkpt lat="45.94142" lon="4.81534">
        <ele>264</ele>
        <time>2017-08-14T08:23:23Z</time>
      </trkpt>
      <trkpt lat="45.94143" lon="4.8154">
        <ele>264</ele>
        <time>2017-08-14T08:23:24Z</time>
      </trkpt>
      <trkpt lat="45.94144" lon="4.81552">
        <ele>264</ele>
        <time>2017-08-14T08:23:26Z</time>
      </trkpt>
      <trkpt lat="45.94145" lon="4.81558">
        <ele>264</ele>
        <time>2017-08-14T08:23:27Z</time>
      </trkpt>
      <trkpt lat="45.94147" lon="4.81569">
        <ele>265</ele>
        <time>2017-08-14T08:23:29Z</time>
      </trkpt>
      <trkpt lat="45.94148" lon="4.81574">
        <ele>265</ele>
        <time>2017-08-14T08:23:30Z</time>
      </trkpt>
      <trkpt lat="45.9415" lon="4.81584">
        <ele>267</ele>
        <time>2017-08-14T08:23:32Z</time>
      </trkpt>
      <trkpt lat="45.9415" lon="4.81589">
        <ele>267</ele>
        <time>2017-08-14T08:23:33Z</time>
      </trkpt>
      <trkpt lat="45.94151" lon="4.81597">
        <ele>267</ele>
        <time>2017-08-14T08:23:35Z</time>
      </trkpt>
      <trkpt lat="45.94151" lon="4.81602">
        <ele>267</ele>
        <time>2017-08-14T08:23:36Z</time>
      </trkpt>
      <trkpt lat="45.94153" lon="4.81611">
        <ele>267</ele>
        <time>2017-08-14T08:23:38Z</time>
      </trkpt>
      <trkpt lat="45.94153" lon="4.81615">
        <ele>267</ele>
        <time>2017-08-14T08:23:39Z</time>
      </trkpt>
      <trkpt lat="45.94155" lon="4.81625">
        <ele>268</ele>
        <time>2017-08-14T08:23:41Z</time>
      </trkpt>
      <trkpt lat="45.94155" lon="4.8163">
        <ele>268</ele>
        <time>2017-08-14T08:23:42Z</time>
      </trkpt>
      <trkpt lat="45.94157" lon="4.8164">
        <ele>268</ele>
        <time>2017-08-14T08:23:44Z</time>
      </trkpt>
      <trkpt lat="45.94158" lon="4.81645">
        <ele>268</ele>
        <time>2017-08-14T08:23:45Z</time>
      </trkpt>
      <trkpt lat="45.9416" lon="4.81654">
        <ele>268</ele>
        <time>2017-08-14T08:23:47Z</time>
      </trkpt>
      <trkpt lat="45.94162" lon="4.8166">
        <ele>269</ele>
        <time>2017-08-14T08:23:48Z</time>
      </trkpt>
      <trkpt lat="45.94163" lon="4.8167">
        <ele>269</ele>
        <time>2017-08-14T08:23:50Z</time>
      </trkpt>
      <trkpt lat="45.94165" lon="4.81675">
        <ele>269</ele>
        <time>2017-08-14T08:23:51Z</time>
      </trkpt>
      <trkpt lat="45.94168" lon="4.81684">
        <ele>268</ele>
        <time>2017-08-14T08:23:53Z</time>
      </trkpt>
      <trkpt lat="45.94169" lon="4.81688">
        <ele>268</ele>
        <time>2017-08-14T08:23:54Z</time>
      </trkpt>
      <trkpt lat="45.94172" lon="4.817">
        <ele>267</ele>
        <time>2017-08-14T08:23:57Z</time>
      </trkpt>
      <trkpt lat="45.94173" lon="4.81704">
        <ele>267</ele>
        <time>2017-08-14T08:23:58Z</time>
      </trkpt>
      <trkpt lat="45.94173" lon="4.81715">
        <ele>267</ele>
        <time>2017-08-14T08:24:00Z</time>
      </trkpt>
      <trkpt lat="45.94173" lon="4.8172">
        <ele>267</ele>
        <time>2017-08-14T08:24:01Z</time>
      </trkpt>
      <trkpt lat="45.94173" lon="4.8173">
        <ele>267</ele>
        <time>2017-08-14T08:24:03Z</time>
      </trkpt>
      <trkpt lat="45.94174" lon="4.81734">
        <ele>267</ele>
        <time>2017-08-14T08:24:04Z</time>
      </trkpt>
      <trkpt lat="45.94177" lon="4.81743">
        <ele>267</ele>
        <time>2017-08-14T08:24:06Z</time>
      </trkpt>
      <trkpt lat="45.94179" lon="4.81747">
        <ele>267</ele>
        <time>2017-08-14T08:24:07Z</time>
      </trkpt>
      <trkpt lat="45.94182" lon="4.81755">
        <ele>267</ele>
        <time>2017-08-14T08:24:09Z</time>
      </trkpt>
      <trkpt lat="45.94183" lon="4.81761">
        <ele>267</ele>
        <time>2017-08-14T08:24:10Z</time>
      </trkpt>
      <trkpt lat="45.94184" lon="4.8177">
        <ele>266</ele>
        <time>2017-08-14T08:24:11Z</time>
      </trkpt>
      <trkpt lat="45.94184" lon="4.81775">
        <ele>266</ele>
        <time>2017-08-14T08:24:12Z</time>
      </trkpt>
      <trkpt lat="45.94184" lon="4.81787">
        <ele>266</ele>
        <time>2017-08-14T08:24:15Z</time>
      </trkpt>
      <trkpt lat="45.94185" lon="4.81793">
        <ele>266</ele>
        <time>2017-08-14T08:24:16Z</time>
      </trkpt>
      <trkpt lat="45.94186" lon="4.81803">
        <ele>266</ele>
        <time>2017-08-14T08:24:18Z</time>
      </trkpt>
      <trkpt lat="45.94187" lon="4.81809">
        <ele>266</ele>
        <time>2017-08-14T08:24:19Z</time>
      </trkpt>
      <trkpt lat="45.94189" lon="4.81821">
        <ele>267</ele>
        <time>2017-08-14T08:24:21Z</time>
      </trkpt>
      <trkpt lat="45.9419" lon="4.81826">
        <ele>267</ele>
        <time>2017-08-14T08:24:22Z</time>
      </trkpt>
      <trkpt lat="45.94193" lon="4.81835">
        <ele>266</ele>
        <time>2017-08-14T08:24:24Z</time>
      </trkpt>
      <trkpt lat="45.94193" lon="4.8184">
        <ele>266</ele>
        <time>2017-08-14T08:24:25Z</time>
      </trkpt>
      <trkpt lat="45.94196" lon="4.81849">
        <ele>266</ele>
        <time>2017-08-14T08:24:27Z</time>
      </trkpt>
      <trkpt lat="45.94198" lon="4.81854">
        <ele>266</ele>
        <time>2017-08-14T08:24:28Z</time>
      </trkpt>
      <trkpt lat="45.942" lon="4.81864">
        <ele>266</ele>
        <time>2017-08-14T08:24:30Z</time>
      </trkpt>
      <trkpt lat="45.94201" lon="4.81869">
        <ele>266</ele>
        <time>2017-08-14T08:24:31Z</time>
      </trkpt>
      <trkpt lat="45.94204" lon="4.81878">
        <ele>265</ele>
        <time>2017-08-14T08:24:33Z</time>
      </trkpt>
      <trkpt lat="45.94204" lon="4.81882">
        <ele>265</ele>
        <time>2017-08-14T08:24:34Z</time>
      </trkpt>
      <trkpt lat="45.94206" lon="4.81892">
        <ele>265</ele>
        <time>2017-08-14T08:24:36Z</time>
      </trkpt>
      <trkpt lat="45.94207" lon="4.81897">
        <ele>265</ele>
        <time>2017-08-14T08:24:37Z</time>
      </trkpt>
      <trkpt lat="45.9421" lon="4.81906">
        <ele>265</ele>
        <time>2017-08-14T08:24:39Z</time>
      </trkpt>
      <trkpt lat="45.94211" lon="4.8191">
        <ele>265</ele>
        <time>2017-08-14T08:24:40Z</time>
      </trkpt>
      <trkpt lat="45.94214" lon="4.8192">
        <ele>264</ele>
        <time>2017-08-14T08:24:43Z</time>
      </trkpt>
      <trkpt lat="45.94214" lon="4.81925">
        <ele>264</ele>
        <time>2017-08-14T08:24:44Z</time>
      </trkpt>
      <trkpt lat="45.94217" lon="4.81934">
        <ele>264</ele>
        <time>2017-08-14T08:24:46Z</time>
      </trkpt>
      <trkpt lat="45.94219" lon="4.81939">
        <ele>264</ele>
        <time>2017-08-14T08:24:47Z</time>
      </trkpt>
      <trkpt lat="45.94222" lon="4.81951">
        <ele>264</ele>
        <time>2017-08-14T08:24:49Z</time>
      </trkpt>
      <trkpt lat="45.94223" lon="4.81956">
        <ele>264</ele>
        <time>2017-08-14T08:24:50Z</time>
      </trkpt>
      <trkpt lat="45.94224" lon="4.81967">
        <ele>264</ele>
        <time>2017-08-14T08:24:52Z</time>
      </trkpt>
      <trkpt lat="45.94225" lon="4.81972">
        <ele>264</ele>
        <time>2017-08-14T08:24:53Z</time>
      </trkpt>
      <trkpt lat="45.94228" lon="4.81982">
        <ele>264</ele>
        <time>2017-08-14T08:24:55Z</time>
      </trkpt>
      <trkpt lat="45.94229" lon="4.81987">
        <ele>263</ele>
        <time>2017-08-14T08:24:56Z</time>
      </trkpt>
      <trkpt lat="45.94231" lon="4.81996">
        <ele>263</ele>
        <time>2017-08-14T08:24:58Z</time>
      </trkpt>
      <trkpt lat="45.94232" lon="4.82002">
        <ele>263</ele>
        <time>2017-08-14T08:24:59Z</time>
      </trkpt>
      <trkpt lat="45.94235" lon="4.82013">
        <ele>263</ele>
        <time>2017-08-14T08:25:01Z</time>
      </trkpt>
      <trkpt lat="45.94236" lon="4.82019">
        <ele>263</ele>
        <time>2017-08-14T08:25:02Z</time>
      </trkpt>
      <trkpt lat="45.94237" lon="4.8203">
        <ele>263</ele>
        <time>2017-08-14T08:25:04Z</time>
      </trkpt>
      <trkpt lat="45.94237" lon="4.82035">
        <ele>263</ele>
        <time>2017-08-14T08:25:05Z</time>
      </trkpt>
      <trkpt lat="45.94239" lon="4.82046">
        <ele>263</ele>
        <time>2017-08-14T08:25:07Z</time>
      </trkpt>
      <trkpt lat="45.9424" lon="4.8205">
        <ele>263</ele>
        <time>2017-08-14T08:25:08Z</time>
      </trkpt>
      <trkpt lat="45.94241" lon="4.8206">
        <ele>263</ele>
        <time>2017-08-14T08:25:10Z</time>
      </trkpt>
      <trkpt lat="45.94243" lon="4.82066">
        <ele>263</ele>
        <time>2017-08-14T08:25:11Z</time>
      </trkpt>
      <trkpt lat="45.94244" lon="4.82073">
        <ele>263</ele>
        <time>2017-08-14T08:25:12Z</time>
      </trkpt>
      <trkpt lat="45.94245" lon="4.82083">
        <ele>262</ele>
        <time>2017-08-14T08:25:13Z</time>
      </trkpt>
      <trkpt lat="45.94246" lon="4.8209">
        <ele>263</ele>
        <time>2017-08-14T08:25:14Z</time>
      </trkpt>
      <trkpt lat="45.94248" lon="4.82097">
        <ele>263</ele>
        <time>2017-08-14T08:25:15Z</time>
      </trkpt>
      <trkpt lat="45.94249" lon="4.82103">
        <ele>263</ele>
        <time>2017-08-14T08:25:16Z</time>
      </trkpt>
      <trkpt lat="45.9425" lon="4.8211">
        <ele>263</ele>
        <time>2017-08-14T08:25:17Z</time>
      </trkpt>
      <trkpt lat="45.94252" lon="4.82117">
        <ele>263</ele>
        <time>2017-08-14T08:25:18Z</time>
      </trkpt>
      <trkpt lat="45.94253" lon="4.82124">
        <ele>263</ele>
        <time>2017-08-14T08:25:19Z</time>
      </trkpt>
      <trkpt lat="45.94255" lon="4.8213">
        <ele>263</ele>
        <time>2017-08-14T08:25:20Z</time>
      </trkpt>
      <trkpt lat="45.94256" lon="4.82136">
        <ele>263</ele>
        <time>2017-08-14T08:25:21Z</time>
      </trkpt>
      <trkpt lat="45.94258" lon="4.82143">
        <ele>263</ele>
        <time>2017-08-14T08:25:22Z</time>
      </trkpt>
      <trkpt lat="45.9426" lon="4.82149">
        <ele>263</ele>
        <time>2017-08-14T08:25:23Z</time>
      </trkpt>
      <trkpt lat="45.94262" lon="4.82156">
        <ele>263</ele>
        <time>2017-08-14T08:25:24Z</time>
      </trkpt>
      <trkpt lat="45.94264" lon="4.82162">
        <ele>263</ele>
        <time>2017-08-14T08:25:25Z</time>
      </trkpt>
      <trkpt lat="45.94265" lon="4.82169">
        <ele>263</ele>
        <time>2017-08-14T08:25:26Z</time>
      </trkpt>
      <trkpt lat="45.94267" lon="4.82176">
        <ele>264</ele>
        <time>2017-08-14T08:25:27Z</time>
      </trkpt>
      <trkpt lat="45.94269" lon="4.82183">
        <ele>264</ele>
        <time>2017-08-14T08:25:28Z</time>
      </trkpt>
      <trkpt lat="45.94271" lon="4.82192">
        <ele>264</ele>
        <time>2017-08-14T08:25:29Z</time>
      </trkpt>
      <trkpt lat="45.94272" lon="4.822">
        <ele>264</ele>
        <time>2017-08-14T08:25:30Z</time>
      </trkpt>
      <trkpt lat="45.94273" lon="4.82208">
        <ele>264</ele>
        <time>2017-08-14T08:25:31Z</time>
      </trkpt>
      <trkpt lat="45.94273" lon="4.82216">
        <ele>264</ele>
        <time>2017-08-14T08:25:32Z</time>
      </trkpt>
      <trkpt lat="45.94274" lon="4.82224">
        <ele>264</ele>
        <time>2017-08-14T08:25:33Z</time>
      </trkpt>
      <trkpt lat="45.94274" lon="4.82231">
        <ele>264</ele>
        <time>2017-08-14T08:25:34Z</time>
      </trkpt>
      <trkpt lat="45.94275" lon="4.82238">
        <ele>264</ele>
        <time>2017-08-14T08:25:35Z</time>
      </trkpt>
      <trkpt lat="45.94275" lon="4.82245">
        <ele>264</ele>
        <time>2017-08-14T08:25:36Z</time>
      </trkpt>
      <trkpt lat="45.94276" lon="4.82251">
        <ele>265</ele>
        <time>2017-08-14T08:25:37Z</time>
      </trkpt>
      <trkpt lat="45.94276" lon="4.82258">
        <ele>265</ele>
        <time>2017-08-14T08:25:38Z</time>
      </trkpt>
      <trkpt lat="45.94276" lon="4.82264">
        <ele>265</ele>
        <time>2017-08-14T08:25:39Z</time>
      </trkpt>
      <trkpt lat="45.94277" lon="4.82271">
        <ele>265</ele>
        <time>2017-08-14T08:25:40Z</time>
      </trkpt>
      <trkpt lat="45.94278" lon="4.82278">
        <ele>265</ele>
        <time>2017-08-14T08:25:41Z</time>
      </trkpt>
      <trkpt lat="45.94278" lon="4.82286">
        <ele>265</ele>
        <time>2017-08-14T08:25:42Z</time>
      </trkpt>
      <trkpt lat="45.94279" lon="4.82294">
        <ele>265</ele>
        <time>2017-08-14T08:25:43Z</time>
      </trkpt>
      <trkpt lat="45.9428" lon="4.82303">
        <ele>265</ele>
        <time>2017-08-14T08:25:44Z</time>
      </trkpt>
      <trkpt lat="45.94281" lon="4.82311">
        <ele>265</ele>
        <time>2017-08-14T08:25:45Z</time>
      </trkpt>
      <trkpt lat="45.94281" lon="4.82319">
        <ele>265</ele>
        <time>2017-08-14T08:25:46Z</time>
      </trkpt>
      <trkpt lat="45.94281" lon="4.82326">
        <ele>265</ele>
        <time>2017-08-14T08:25:47Z</time>
      </trkpt>
      <trkpt lat="45.94282" lon="4.82332">
        <ele>265</ele>
        <time>2017-08-14T08:25:48Z</time>
      </trkpt>
      <trkpt lat="45.94282" lon="4.82338">
        <ele>264</ele>
        <time>2017-08-14T08:25:49Z</time>
      </trkpt>
      <trkpt lat="45.94283" lon="4.8235">
        <ele>264</ele>
        <time>2017-08-14T08:25:51Z</time>
      </trkpt>
      <trkpt lat="45.94283" lon="4.82356">
        <ele>264</ele>
        <time>2017-08-14T08:25:52Z</time>
      </trkpt>
      <trkpt lat="45.94283" lon="4.82368">
        <ele>264</ele>
        <time>2017-08-14T08:25:54Z</time>
      </trkpt>
      <trkpt lat="45.94283" lon="4.82375">
        <ele>264</ele>
        <time>2017-08-14T08:25:55Z</time>
      </trkpt>
      <trkpt lat="45.94283" lon="4.82382">
        <ele>264</ele>
        <time>2017-08-14T08:25:56Z</time>
      </trkpt>
      <trkpt lat="45.94284" lon="4.82388">
        <ele>264</ele>
        <time>2017-08-14T08:25:57Z</time>
      </trkpt>
      <trkpt lat="45.94284" lon="4.82395">
        <ele>264</ele>
        <time>2017-08-14T08:25:58Z</time>
      </trkpt>
      <trkpt lat="45.94285" lon="4.82403">
        <ele>264</ele>
        <time>2017-08-14T08:25:59Z</time>
      </trkpt>
      <trkpt lat="45.94285" lon="4.8241">
        <ele>264</ele>
        <time>2017-08-14T08:26:00Z</time>
      </trkpt>
      <trkpt lat="45.94286" lon="4.82418">
        <ele>264</ele>
        <time>2017-08-14T08:26:01Z</time>
      </trkpt>
      <trkpt lat="45.94286" lon="4.82425">
        <ele>264</ele>
        <time>2017-08-14T08:26:02Z</time>
      </trkpt>
      <trkpt lat="45.94286" lon="4.82433">
        <ele>264</ele>
        <time>2017-08-14T08:26:03Z</time>
      </trkpt>
      <trkpt lat="45.94288" lon="4.82445">
        <ele>264</ele>
        <time>2017-08-14T08:26:05Z</time>
      </trkpt>
      <trkpt lat="45.94288" lon="4.82451">
        <ele>264</ele>
        <time>2017-08-14T08:26:06Z</time>
      </trkpt>
      <trkpt lat="45.94288" lon="4.82462">
        <ele>264</ele>
        <time>2017-08-14T08:26:08Z</time>
      </trkpt>
      <trkpt lat="45.94288" lon="4.82467">
        <ele>264</ele>
        <time>2017-08-14T08:26:09Z</time>
      </trkpt>
      <trkpt lat="45.94289" lon="4.82474">
        <ele>264</ele>
        <time>2017-08-14T08:26:10Z</time>
      </trkpt>
      <trkpt lat="45.94289" lon="4.82481">
        <ele>264</ele>
        <time>2017-08-14T08:26:11Z</time>
      </trkpt>
      <trkpt lat="45.94289" lon="4.82488">
        <ele>264</ele>
        <time>2017-08-14T08:26:12Z</time>
      </trkpt>
      <trkpt lat="45.94289" lon="4.82495">
        <ele>264</ele>
        <time>2017-08-14T08:26:13Z</time>
      </trkpt>
      <trkpt lat="45.94289" lon="4.82503">
        <ele>264</ele>
        <time>2017-08-14T08:26:14Z</time>
      </trkpt>
      <trkpt lat="45.94289" lon="4.8251">
        <ele>264</ele>
        <time>2017-08-14T08:26:15Z</time>
      </trkpt>
      <trkpt lat="45.94289" lon="4.82518">
        <ele>264</ele>
        <time>2017-08-14T08:26:16Z</time>
      </trkpt>
      <trkpt lat="45.9429" lon="4.82525">
        <ele>264</ele>
        <time>2017-08-14T08:26:17Z</time>
      </trkpt>
      <trkpt lat="45.94289" lon="4.82532">
        <ele>264</ele>
        <time>2017-08-14T08:26:18Z</time>
      </trkpt>
      <trkpt lat="45.94289" lon="4.82538">
        <ele>264</ele>
        <time>2017-08-14T08:26:19Z</time>
      </trkpt>
      <trkpt lat="45.94289" lon="4.8255">
        <ele>264</ele>
        <time>2017-08-14T08:26:21Z</time>
      </trkpt>
      <trkpt lat="45.94289" lon="4.82556">
        <ele>264</ele>
        <time>2017-08-14T08:26:22Z</time>
      </trkpt>
      <trkpt lat="45.94288" lon="4.82567">
        <ele>265</ele>
        <time>2017-08-14T08:26:24Z</time>
      </trkpt>
      <trkpt lat="45.94288" lon="4.82574">
        <ele>265</ele>
        <time>2017-08-14T08:26:25Z</time>
      </trkpt>
      <trkpt lat="45.94288" lon="4.8258">
        <ele>265</ele>
        <time>2017-08-14T08:26:26Z</time>
      </trkpt>
      <trkpt lat="45.94288" lon="4.82587">
        <ele>265</ele>
        <time>2017-08-14T08:26:27Z</time>
      </trkpt>
      <trkpt lat="45.94288" lon="4.82595">
        <ele>265</ele>
        <time>2017-08-14T08:26:28Z</time>
      </trkpt>
      <trkpt lat="45.94288" lon="4.82602">
        <ele>265</ele>
        <time>2017-08-14T08:26:29Z</time>
      </trkpt>
      <trkpt lat="45.94288" lon="4.82609">
        <ele>265</ele>
        <time>2017-08-14T08:26:30Z</time>
      </trkpt>
      <trkpt lat="45.94288" lon="4.82615">
        <ele>265</ele>
        <time>2017-08-14T08:26:31Z</time>
      </trkpt>
      <trkpt lat="45.94288" lon="4.82628">
        <ele>265</ele>
        <time>2017-08-14T08:26:33Z</time>
      </trkpt>
      <trkpt lat="45.94288" lon="4.82634">
        <ele>265</ele>
        <time>2017-08-14T08:26:34Z</time>
      </trkpt>
      <trkpt lat="45.94288" lon="4.82646">
        <ele>265</ele>
        <time>2017-08-14T08:26:36Z</time>
      </trkpt>
      <trkpt lat="45.94288" lon="4.82652">
        <ele>265</ele>
        <time>2017-08-14T08:26:37Z</time>
      </trkpt>
      <trkpt lat="45.94289" lon="4.82663">
        <ele>265</ele>
        <time>2017-08-14T08:26:39Z</time>
      </trkpt>
      <trkpt lat="45.94289" lon="4.8267">
        <ele>265</ele>
        <time>2017-08-14T08:26:40Z</time>
      </trkpt>
      <trkpt lat="45.94289" lon="4.82676">
        <ele>265</ele>
        <time>2017-08-14T08:26:41Z</time>
      </trkpt>
      <trkpt lat="45.94289" lon="4.82683">
        <ele>265</ele>
        <time>2017-08-14T08:26:42Z</time>
      </trkpt>
      <trkpt lat="45.94288" lon="4.82689">
        <ele>265</ele>
        <time>2017-08-14T08:26:43Z</time>
      </trkpt>
      <trkpt lat="45.94288" lon="4.82696">
        <ele>265</ele>
        <time>2017-08-14T08:26:44Z</time>
      </trkpt>
      <trkpt lat="45.94288" lon="4.82708">
        <ele>265</ele>
        <time>2017-08-14T08:26:46Z</time>
      </trkpt>
      <trkpt lat="45.94288" lon="4.82714">
        <ele>265</ele>
        <time>2017-08-14T08:26:47Z</time>
      </trkpt>
      <trkpt lat="45.94288" lon="4.82727">
        <ele>265</ele>
        <time>2017-08-14T08:26:49Z</time>
      </trkpt>
      <trkpt lat="45.94288" lon="4.82733">
        <ele>265</ele>
        <time>2017-08-14T08:26:50Z</time>
      </trkpt>
      <trkpt lat="45.94289" lon="4.8274">
        <ele>265</ele>
        <time>2017-08-14T08:26:51Z</time>
      </trkpt>
      <trkpt lat="45.94289" lon="4.82747">
        <ele>265</ele>
        <time>2017-08-14T08:26:52Z</time>
      </trkpt>
      <trkpt lat="45.94289" lon="4.82754">
        <ele>265</ele>
        <time>2017-08-14T08:26:53Z</time>
      </trkpt>
      <trkpt lat="45.94289" lon="4.82761">
        <ele>265</ele>
        <time>2017-08-14T08:26:54Z</time>
      </trkpt>
      <trkpt lat="45.94289" lon="4.82773">
        <ele>265</ele>
        <time>2017-08-14T08:26:56Z</time>
      </trkpt>
      <trkpt lat="45.94289" lon="4.82778">
        <ele>265</ele>
        <time>2017-08-14T08:26:57Z</time>
      </trkpt>
      <trkpt lat="45.94289" lon="4.8279">
        <ele>265</ele>
        <time>2017-08-14T08:26:59Z</time>
      </trkpt>
      <trkpt lat="45.94288" lon="4.82796">
        <ele>265</ele>
        <time>2017-08-14T08:27:00Z</time>
      </trkpt>
      <trkpt lat="45.94288" lon="4.82803">
        <ele>265</ele>
        <time>2017-08-14T08:27:01Z</time>
      </trkpt>
      <trkpt lat="45.94287" lon="4.8281">
        <ele>265</ele>
        <time>2017-08-14T08:27:02Z</time>
      </trkpt>
      <trkpt lat="45.94287" lon="4.82818">
        <ele>265</ele>
        <time>2017-08-14T08:27:03Z</time>
      </trkpt>
      <trkpt lat="45.94287" lon="4.82825">
        <ele>265</ele>
        <time>2017-08-14T08:27:04Z</time>
      </trkpt>
      <trkpt lat="45.94286" lon="4.82833">
        <ele>265</ele>
        <time>2017-08-14T08:27:05Z</time>
      </trkpt>
      <trkpt lat="45.94286" lon="4.82841">
        <ele>265</ele>
        <time>2017-08-14T08:27:06Z</time>
      </trkpt>
      <trkpt lat="45.94286" lon="4.82849">
        <ele>265</ele>
        <time>2017-08-14T08:27:07Z</time>
      </trkpt>
      <trkpt lat="45.94286" lon="4.82855">
        <ele>265</ele>
        <time>2017-08-14T08:27:08Z</time>
      </trkpt>
      <trkpt lat="45.94285" lon="4.82862">
        <ele>265</ele>
        <time>2017-08-14T08:27:09Z</time>
      </trkpt>
      <trkpt lat="45.94285" lon="4.82869">
        <ele>265</ele>
        <time>2017-08-14T08:27:10Z</time>
      </trkpt>
      <trkpt lat="45.94285" lon="4.82881">
        <ele>265</ele>
        <time>2017-08-14T08:27:12Z</time>
      </trkpt>
      <trkpt lat="45.94284" lon="4.82887">
        <ele>265</ele>
        <time>2017-08-14T08:27:13Z</time>
      </trkpt>
      <trkpt lat="45.94284" lon="4.82894">
        <ele>265</ele>
        <time>2017-08-14T08:27:14Z</time>
      </trkpt>
      <trkpt lat="45.94283" lon="4.82901">
        <ele>265</ele>
        <time>2017-08-14T08:27:15Z</time>
      </trkpt>
      <trkpt lat="45.94282" lon="4.82908">
        <ele>265</ele>
        <time>2017-08-14T08:27:16Z</time>
      </trkpt>
      <trkpt lat="45.94282" lon="4.82916">
        <ele>265</ele>
        <time>2017-08-14T08:27:17Z</time>
      </trkpt>
      <trkpt lat="45.94281" lon="4.82923">
        <ele>265</ele>
        <time>2017-08-14T08:27:18Z</time>
      </trkpt>
      <trkpt lat="45.94279" lon="4.82929">
        <ele>265</ele>
        <time>2017-08-14T08:27:19Z</time>
      </trkpt>
      <trkpt lat="45.94277" lon="4.82936">
        <ele>265</ele>
        <time>2017-08-14T08:27:20Z</time>
      </trkpt>
      <trkpt lat="45.94275" lon="4.82943">
        <ele>265</ele>
        <time>2017-08-14T08:27:21Z</time>
      </trkpt>
      <trkpt lat="45.94275" lon="4.82951">
        <ele>265</ele>
        <time>2017-08-14T08:27:22Z</time>
      </trkpt>
      <trkpt lat="45.94276" lon="4.82958">
        <ele>265</ele>
        <time>2017-08-14T08:27:23Z</time>
      </trkpt>
      <trkpt lat="45.94278" lon="4.82965">
        <ele>265</ele>
        <time>2017-08-14T08:27:24Z</time>
      </trkpt>
      <trkpt lat="45.94281" lon="4.8297">
        <ele>265</ele>
        <time>2017-08-14T08:27:25Z</time>
      </trkpt>
      <trkpt lat="45.94284" lon="4.82976">
        <ele>265</ele>
        <time>2017-08-14T08:27:26Z</time>
      </trkpt>
      <trkpt lat="45.94286" lon="4.82982">
        <ele>265</ele>
        <time>2017-08-14T08:27:27Z</time>
      </trkpt>
      <trkpt lat="45.94288" lon="4.82989">
        <ele>265</ele>
        <time>2017-08-14T08:27:28Z</time>
      </trkpt>
      <trkpt lat="45.9429" lon="4.82995">
        <ele>265</ele>
        <time>2017-08-14T08:27:29Z</time>
      </trkpt>
      <trkpt lat="45.94291" lon="4.83002">
        <ele>266</ele>
        <time>2017-08-14T08:27:30Z</time>
      </trkpt>
      <trkpt lat="45.94293" lon="4.83009">
        <ele>266</ele>
        <time>2017-08-14T08:27:31Z</time>
      </trkpt>
      <trkpt lat="45.94294" lon="4.83015">
        <ele>266</ele>
        <time>2017-08-14T08:27:32Z</time>
      </trkpt>
      <trkpt lat="45.94296" lon="4.83021">
        <ele>266</ele>
        <time>2017-08-14T08:27:33Z</time>
      </trkpt>
      <trkpt lat="45.94297" lon="4.83028">
        <ele>266</ele>
        <time>2017-08-14T08:27:34Z</time>
      </trkpt>
      <trkpt lat="45.94298" lon="4.83035">
        <ele>266</ele>
        <time>2017-08-14T08:27:35Z</time>
      </trkpt>
      <trkpt lat="45.943" lon="4.83042">
        <ele>266</ele>
        <time>2017-08-14T08:27:36Z</time>
      </trkpt>
      <trkpt lat="45.94301" lon="4.83048">
        <ele>266</ele>
        <time>2017-08-14T08:27:37Z</time>
      </trkpt>
      <trkpt lat="45.94302" lon="4.83054">
        <ele>266</ele>
        <time>2017-08-14T08:27:38Z</time>
      </trkpt>
      <trkpt lat="45.94304" lon="4.8306">
        <ele>266</ele>
        <time>2017-08-14T08:27:39Z</time>
      </trkpt>
      <trkpt lat="45.94307" lon="4.83072">
        <ele>266</ele>
        <time>2017-08-14T08:27:41Z</time>
      </trkpt>
      <trkpt lat="45.94308" lon="4.83078">
        <ele>266</ele>
        <time>2017-08-14T08:27:42Z</time>
      </trkpt>
      <trkpt lat="45.94311" lon="4.83088">
        <ele>266</ele>
        <time>2017-08-14T08:27:44Z</time>
      </trkpt>
      <trkpt lat="45.94313" lon="4.83094">
        <ele>266</ele>
        <time>2017-08-14T08:27:45Z</time>
      </trkpt>
      <trkpt lat="45.94315" lon="4.831">
        <ele>266</ele>
        <time>2017-08-14T08:27:46Z</time>
      </trkpt>
      <trkpt lat="45.94317" lon="4.83106">
        <ele>266</ele>
        <time>2017-08-14T08:27:47Z</time>
      </trkpt>
      <trkpt lat="45.94318" lon="4.83113">
        <ele>266</ele>
        <time>2017-08-14T08:27:48Z</time>
      </trkpt>
      <trkpt lat="45.94319" lon="4.83119">
        <ele>266</ele>
        <time>2017-08-14T08:27:49Z</time>
      </trkpt>
      <trkpt lat="45.94321" lon="4.83125">
        <ele>266</ele>
        <time>2017-08-14T08:27:50Z</time>
      </trkpt>
      <trkpt lat="45.94324" lon="4.83131">
        <ele>266</ele>
        <time>2017-08-14T08:27:51Z</time>
      </trkpt>
      <trkpt lat="45.94326" lon="4.83138">
        <ele>266</ele>
        <time>2017-08-14T08:27:52Z</time>
      </trkpt>
      <trkpt lat="45.94328" lon="4.83143">
        <ele>266</ele>
        <time>2017-08-14T08:27:53Z</time>
      </trkpt>
      <trkpt lat="45.94332" lon="4.83154">
        <ele>266</ele>
        <time>2017-08-14T08:27:55Z</time>
      </trkpt>
      <trkpt lat="45.94334" lon="4.83159">
        <ele>266</ele>
        <time>2017-08-14T08:27:56Z</time>
      </trkpt>
      <trkpt lat="45.94336" lon="4.83164">
        <ele>266</ele>
        <time>2017-08-14T08:27:57Z</time>
      </trkpt>
      <trkpt lat="45.94338" lon="4.8317">
        <ele>266</ele>
        <time>2017-08-14T08:27:58Z</time>
      </trkpt>
      <trkpt lat="45.94341" lon="4.83177">
        <ele>266</ele>
        <time>2017-08-14T08:27:59Z</time>
      </trkpt>
      <trkpt lat="45.94343" lon="4.83184">
        <ele>266</ele>
        <time>2017-08-14T08:28:00Z</time>
      </trkpt>
      <trkpt lat="45.94346" lon="4.83191">
        <ele>266</ele>
        <time>2017-08-14T08:28:01Z</time>
      </trkpt>
      <trkpt lat="45.94349" lon="4.83198">
        <ele>266</ele>
        <time>2017-08-14T08:28:02Z</time>
      </trkpt>
      <trkpt lat="45.94352" lon="4.83205">
        <ele>266</ele>
        <time>2017-08-14T08:28:03Z</time>
      </trkpt>
      <trkpt lat="45.94354" lon="4.83213">
        <ele>266</ele>
        <time>2017-08-14T08:28:04Z</time>
      </trkpt>
      <trkpt lat="45.94357" lon="4.8322">
        <ele>266</ele>
        <time>2017-08-14T08:28:05Z</time>
      </trkpt>
      <trkpt lat="45.94359" lon="4.83227">
        <ele>266</ele>
        <time>2017-08-14T08:28:06Z</time>
      </trkpt>
      <trkpt lat="45.94361" lon="4.83235">
        <ele>265</ele>
        <time>2017-08-14T08:28:07Z</time>
      </trkpt>
      <trkpt lat="45.94363" lon="4.83242">
        <ele>265</ele>
        <time>2017-08-14T08:28:08Z</time>
      </trkpt>
      <trkpt lat="45.94366" lon="4.83249">
        <ele>265</ele>
        <time>2017-08-14T08:28:09Z</time>
      </trkpt>
      <trkpt lat="45.94368" lon="4.83257">
        <ele>265</ele>
        <time>2017-08-14T08:28:10Z</time>
      </trkpt>
      <trkpt lat="45.9437" lon="4.83264">
        <ele>264</ele>
        <time>2017-08-14T08:28:11Z</time>
      </trkpt>
      <trkpt lat="45.94372" lon="4.83271">
        <ele>264</ele>
        <time>2017-08-14T08:28:12Z</time>
      </trkpt>
      <trkpt lat="45.94375" lon="4.83278">
        <ele>264</ele>
        <time>2017-08-14T08:28:13Z</time>
      </trkpt>
      <trkpt lat="45.94378" lon="4.83285">
        <ele>264</ele>
        <time>2017-08-14T08:28:14Z</time>
      </trkpt>
      <trkpt lat="45.9438" lon="4.83292">
        <ele>264</ele>
        <time>2017-08-14T08:28:15Z</time>
      </trkpt>
      <trkpt lat="45.94383" lon="4.83299">
        <ele>264</ele>
        <time>2017-08-14T08:28:16Z</time>
      </trkpt>
      <trkpt lat="45.94385" lon="4.83305">
        <ele>264</ele>
        <time>2017-08-14T08:28:17Z</time>
      </trkpt>
      <trkpt lat="45.94388" lon="4.83312">
        <ele>264</ele>
        <time>2017-08-14T08:28:18Z</time>
      </trkpt>
      <trkpt lat="45.94391" lon="4.83319">
        <ele>264</ele>
        <time>2017-08-14T08:28:19Z</time>
      </trkpt>
      <trkpt lat="45.94393" lon="4.83325">
        <ele>264</ele>
        <time>2017-08-14T08:28:20Z</time>
      </trkpt>
      <trkpt lat="45.94395" lon="4.83331">
        <ele>264</ele>
        <time>2017-08-14T08:28:21Z</time>
      </trkpt>
      <trkpt lat="45.94397" lon="4.83337">
        <ele>263</ele>
        <time>2017-08-14T08:28:22Z</time>
      </trkpt>
      <trkpt lat="45.944" lon="4.83343">
        <ele>263</ele>
        <time>2017-08-14T08:28:23Z</time>
      </trkpt>
      <trkpt lat="45.94402" lon="4.83349">
        <ele>263</ele>
        <time>2017-08-14T08:28:24Z</time>
      </trkpt>
      <trkpt lat="45.94405" lon="4.83355">
        <ele>263</ele>
        <time>2017-08-14T08:28:25Z</time>
      </trkpt>
      <trkpt lat="45.94407" lon="4.8336">
        <ele>264</ele>
        <time>2017-08-14T08:28:26Z</time>
      </trkpt>
      <trkpt lat="45.9441" lon="4.83366">
        <ele>264</ele>
        <time>2017-08-14T08:28:27Z</time>
      </trkpt>
      <trkpt lat="45.94414" lon="4.83373">
        <ele>264</ele>
        <time>2017-08-14T08:28:28Z</time>
      </trkpt>
      <trkpt lat="45.94416" lon="4.83379">
        <ele>264</ele>
        <time>2017-08-14T08:28:29Z</time>
      </trkpt>
      <trkpt lat="45.94419" lon="4.83386">
        <ele>264</ele>
        <time>2017-08-14T08:28:30Z</time>
      </trkpt>
      <trkpt lat="45.94422" lon="4.83391">
        <ele>264</ele>
        <time>2017-08-14T08:28:31Z</time>
      </trkpt>
      <trkpt lat="45.94426" lon="4.83397">
        <ele>264</ele>
        <time>2017-08-14T08:28:32Z</time>
      </trkpt>
      <trkpt lat="45.94428" lon="4.83403">
        <ele>264</ele>
        <time>2017-08-14T08:28:33Z</time>
      </trkpt>
      <trkpt lat="45.94431" lon="4.83409">
        <ele>264</ele>
        <time>2017-08-14T08:28:34Z</time>
      </trkpt>
      <trkpt lat="45.94434" lon="4.83415">
        <ele>264</ele>
        <time>2017-08-14T08:28:35Z</time>
      </trkpt>
      <trkpt lat="45.94437" lon="4.8342">
        <ele>264</ele>
        <time>2017-08-14T08:28:36Z</time>
      </trkpt>
      <trkpt lat="45.9444" lon="4.83426">
        <ele>264</ele>
        <time>2017-08-14T08:28:37Z</time>
      </trkpt>
      <trkpt lat="45.94443" lon="4.83431">
        <ele>263</ele>
        <time>2017-08-14T08:28:38Z</time>
      </trkpt>
      <trkpt lat="45.94445" lon="4.83436">
        <ele>263</ele>
        <time>2017-08-14T08:28:39Z</time>
      </trkpt>
      <trkpt lat="45.94448" lon="4.83442">
        <ele>263</ele>
        <time>2017-08-14T08:28:40Z</time>
      </trkpt>
      <trkpt lat="45.94451" lon="4.83447">
        <ele>263</ele>
        <time>2017-08-14T08:28:41Z</time>
      </trkpt>
      <trkpt lat="45.94454" lon="4.83454">
        <ele>263</ele>
        <time>2017-08-14T08:28:42Z</time>
      </trkpt>
      <trkpt lat="45.94458" lon="4.8346">
        <ele>263</ele>
        <time>2017-08-14T08:28:43Z</time>
      </trkpt>
      <trkpt lat="45.94462" lon="4.83466">
        <ele>263</ele>
        <time>2017-08-14T08:28:44Z</time>
      </trkpt>
      <trkpt lat="45.94465" lon="4.83473">
        <ele>263</ele>
        <time>2017-08-14T08:28:45Z</time>
      </trkpt>
      <trkpt lat="45.94469" lon="4.8348">
        <ele>263</ele>
        <time>2017-08-14T08:28:46Z</time>
      </trkpt>
      <trkpt lat="45.94473" lon="4.83486">
        <ele>263</ele>
        <time>2017-08-14T08:28:47Z</time>
      </trkpt>
      <trkpt lat="45.94477" lon="4.83493">
        <ele>263</ele>
        <time>2017-08-14T08:28:48Z</time>
      </trkpt>
      <trkpt lat="45.94481" lon="4.83499">
        <ele>263</ele>
        <time>2017-08-14T08:28:49Z</time>
      </trkpt>
      <trkpt lat="45.94485" lon="4.83504">
        <ele>262</ele>
        <time>2017-08-14T08:28:50Z</time>
      </trkpt>
      <trkpt lat="45.94489" lon="4.8351">
        <ele>262</ele>
        <time>2017-08-14T08:28:51Z</time>
      </trkpt>
      <trkpt lat="45.94493" lon="4.83516">
        <ele>262</ele>
        <time>2017-08-14T08:28:52Z</time>
      </trkpt>
      <trkpt lat="45.94497" lon="4.83521">
        <ele>262</ele>
        <time>2017-08-14T08:28:53Z</time>
      </trkpt>
      <trkpt lat="45.945" lon="4.83527">
        <ele>262</ele>
        <time>2017-08-14T08:28:54Z</time>
      </trkpt>
      <trkpt lat="45.94504" lon="4.83532">
        <ele>262</ele>
        <time>2017-08-14T08:28:55Z</time>
      </trkpt>
      <trkpt lat="45.94507" lon="4.83537">
        <ele>262</ele>
        <time>2017-08-14T08:28:56Z</time>
      </trkpt>
      <trkpt lat="45.94511" lon="4.83543">
        <ele>261</ele>
        <time>2017-08-14T08:28:57Z</time>
      </trkpt>
      <trkpt lat="45.94515" lon="4.83549">
        <ele>261</ele>
        <time>2017-08-14T08:28:58Z</time>
      </trkpt>
      <trkpt lat="45.94519" lon="4.83554">
        <ele>261</ele>
        <time>2017-08-14T08:28:59Z</time>
      </trkpt>
      <trkpt lat="45.94522" lon="4.83559">
        <ele>261</ele>
        <time>2017-08-14T08:29:00Z</time>
      </trkpt>
      <trkpt lat="45.94525" lon="4.83564">
        <ele>261</ele>
        <time>2017-08-14T08:29:01Z</time>
      </trkpt>
      <trkpt lat="45.94529" lon="4.83569">
        <ele>261</ele>
        <time>2017-08-14T08:29:02Z</time>
      </trkpt>
      <trkpt lat="45.94532" lon="4.83574">
        <ele>261</ele>
        <time>2017-08-14T08:29:03Z</time>
      </trkpt>
      <trkpt lat="45.94536" lon="4.8358">
        <ele>261</ele>
        <time>2017-08-14T08:29:04Z</time>
      </trkpt>
      <trkpt lat="45.9454" lon="4.83585">
        <ele>261</ele>
        <time>2017-08-14T08:29:05Z</time>
      </trkpt>
      <trkpt lat="45.94544" lon="4.83591">
        <ele>261</ele>
        <time>2017-08-14T08:29:06Z</time>
      </trkpt>
      <trkpt lat="45.94548" lon="4.83597">
        <ele>261</ele>
        <time>2017-08-14T08:29:07Z</time>
      </trkpt>
      <trkpt lat="45.94553" lon="4.83602">
        <ele>261</ele>
        <time>2017-08-14T08:29:08Z</time>
      </trkpt>
      <trkpt lat="45.94558" lon="4.83607">
        <ele>261</ele>
        <time>2017-08-14T08:29:09Z</time>
      </trkpt>
      <trkpt lat="45.94562" lon="4.83613">
        <ele>261</ele>
        <time>2017-08-14T08:29:10Z</time>
      </trkpt>
      <trkpt lat="45.94566" lon="4.83618">
        <ele>261</ele>
        <time>2017-08-14T08:29:11Z</time>
      </trkpt>
      <trkpt lat="45.94571" lon="4.83623">
        <ele>261</ele>
        <time>2017-08-14T08:29:12Z</time>
      </trkpt>
      <trkpt lat="45.94575" lon="4.83628">
        <ele>261</ele>
        <time>2017-08-14T08:29:13Z</time>
      </trkpt>
      <trkpt lat="45.9458" lon="4.83632">
        <ele>261</ele>
        <time>2017-08-14T08:29:14Z</time>
      </trkpt>
      <trkpt lat="45.94585" lon="4.83637">
        <ele>260</ele>
        <time>2017-08-14T08:29:15Z</time>
      </trkpt>
      <trkpt lat="45.9459" lon="4.83641">
        <ele>260</ele>
        <time>2017-08-14T08:29:16Z</time>
      </trkpt>
      <trkpt lat="45.94595" lon="4.83645">
        <ele>260</ele>
        <time>2017-08-14T08:29:17Z</time>
      </trkpt>
      <trkpt lat="45.94599" lon="4.83649">
        <ele>260</ele>
        <time>2017-08-14T08:29:18Z</time>
      </trkpt>
      <trkpt lat="45.94604" lon="4.83654">
        <ele>260</ele>
        <time>2017-08-14T08:29:19Z</time>
      </trkpt>
      <trkpt lat="45.94608" lon="4.83658">
        <ele>260</ele>
        <time>2017-08-14T08:29:20Z</time>
      </trkpt>
      <trkpt lat="45.94612" lon="4.83662">
        <ele>260</ele>
        <time>2017-08-14T08:29:21Z</time>
      </trkpt>
      <trkpt lat="45.94617" lon="4.83666">
        <ele>260</ele>
        <time>2017-08-14T08:29:22Z</time>
      </trkpt>
      <trkpt lat="45.94621" lon="4.8367">
        <ele>261</ele>
        <time>2017-08-14T08:29:23Z</time>
      </trkpt>
      <trkpt lat="45.94625" lon="4.83673">
        <ele>261</ele>
        <time>2017-08-14T08:29:24Z</time>
      </trkpt>
      <trkpt lat="45.94629" lon="4.83677">
        <ele>261</ele>
        <time>2017-08-14T08:29:25Z</time>
      </trkpt>
      <trkpt lat="45.94633" lon="4.83681">
        <ele>261</ele>
        <time>2017-08-14T08:29:26Z</time>
      </trkpt>
      <trkpt lat="45.94638" lon="4.83685">
        <ele>261</ele>
        <time>2017-08-14T08:29:27Z</time>
      </trkpt>
      <trkpt lat="45.94643" lon="4.83689">
        <ele>261</ele>
        <time>2017-08-14T08:29:28Z</time>
      </trkpt>
      <trkpt lat="45.94647" lon="4.83693">
        <ele>261</ele>
        <time>2017-08-14T08:29:29Z</time>
      </trkpt>
      <trkpt lat="45.94653" lon="4.83698">
        <ele>261</ele>
        <time>2017-08-14T08:29:30Z</time>
      </trkpt>
      <trkpt lat="45.94658" lon="4.83703">
        <ele>261</ele>
        <time>2017-08-14T08:29:31Z</time>
      </trkpt>
      <trkpt lat="45.94663" lon="4.83707">
        <ele>261</ele>
        <time>2017-08-14T08:29:32Z</time>
      </trkpt>
      <trkpt lat="45.94667" lon="4.83713">
        <ele>261</ele>
        <time>2017-08-14T08:29:33Z</time>
      </trkpt>
      <trkpt lat="45.94671" lon="4.83718">
        <ele>261</ele>
        <time>2017-08-14T08:29:34Z</time>
      </trkpt>
      <trkpt lat="45.94676" lon="4.83722">
        <ele>261</ele>
        <time>2017-08-14T08:29:35Z</time>
      </trkpt>
      <trkpt lat="45.9468" lon="4.83727">
        <ele>261</ele>
        <time>2017-08-14T08:29:36Z</time>
      </trkpt>
      <trkpt lat="45.94684" lon="4.83731">
        <ele>261</ele>
        <time>2017-08-14T08:29:37Z</time>
      </trkpt>
      <trkpt lat="45.94688" lon="4.83735">
        <ele>262</ele>
        <time>2017-08-14T08:29:38Z</time>
      </trkpt>
      <trkpt lat="45.94692" lon="4.8374">
        <ele>262</ele>
        <time>2017-08-14T08:29:39Z</time>
      </trkpt>
      <trkpt lat="45.94696" lon="4.83744">
        <ele>262</ele>
        <time>2017-08-14T08:29:40Z</time>
      </trkpt>
      <trkpt lat="45.947" lon="4.83749">
        <ele>262</ele>
        <time>2017-08-14T08:29:41Z</time>
      </trkpt>
      <trkpt lat="45.94704" lon="4.83754">
        <ele>263</ele>
        <time>2017-08-14T08:29:42Z</time>
      </trkpt>
      <trkpt lat="45.94708" lon="4.83759">
        <ele>263</ele>
        <time>2017-08-14T08:29:43Z</time>
      </trkpt>
      <trkpt lat="45.94712" lon="4.83764">
        <ele>263</ele>
        <time>2017-08-14T08:29:44Z</time>
      </trkpt>
      <trkpt lat="45.94716" lon="4.8377">
        <ele>263</ele>
        <time>2017-08-14T08:29:45Z</time>
      </trkpt>
      <trkpt lat="45.9472" lon="4.83775">
        <ele>263</ele>
        <time>2017-08-14T08:29:46Z</time>
      </trkpt>
      <trkpt lat="45.94724" lon="4.83781">
        <ele>263</ele>
        <time>2017-08-14T08:29:47Z</time>
      </trkpt>
      <trkpt lat="45.94728" lon="4.83786">
        <ele>263</ele>
        <time>2017-08-14T08:29:48Z</time>
      </trkpt>
      <trkpt lat="45.94732" lon="4.83791">
        <ele>263</ele>
        <time>2017-08-14T08:29:49Z</time>
      </trkpt>
      <trkpt lat="45.94735" lon="4.83797">
        <ele>264</ele>
        <time>2017-08-14T08:29:50Z</time>
      </trkpt>
      <trkpt lat="45.94739" lon="4.83802">
        <ele>264</ele>
        <time>2017-08-14T08:29:51Z</time>
      </trkpt>
      <trkpt lat="45.94743" lon="4.83809">
        <ele>264</ele>
        <time>2017-08-14T08:29:52Z</time>
      </trkpt>
      <trkpt lat="45.94747" lon="4.83814">
        <ele>264</ele>
        <time>2017-08-14T08:29:53Z</time>
      </trkpt>
      <trkpt lat="45.94751" lon="4.83819">
        <ele>264</ele>
        <time>2017-08-14T08:29:54Z</time>
      </trkpt>
      <trkpt lat="45.94756" lon="4.83824">
        <ele>264</ele>
        <time>2017-08-14T08:29:55Z</time>
      </trkpt>
      <trkpt lat="45.94761" lon="4.8383">
        <ele>264</ele>
        <time>2017-08-14T08:29:56Z</time>
      </trkpt>
      <trkpt lat="45.94765" lon="4.83836">
        <ele>265</ele>
        <time>2017-08-14T08:29:57Z</time>
      </trkpt>
      <trkpt lat="45.94769" lon="4.83841">
        <ele>265</ele>
        <time>2017-08-14T08:29:58Z</time>
      </trkpt>
      <trkpt lat="45.94772" lon="4.83846">
        <ele>265</ele>
        <time>2017-08-14T08:29:59Z</time>
      </trkpt>
      <trkpt lat="45.94775" lon="4.83851">
        <ele>265</ele>
        <time>2017-08-14T08:30:00Z</time>
      </trkpt>
      <trkpt lat="45.94779" lon="4.83856">
        <ele>265</ele>
        <time>2017-08-14T08:30:01Z</time>
      </trkpt>
      <trkpt lat="45.94782" lon="4.83861">
        <ele>265</ele>
        <time>2017-08-14T08:30:02Z</time>
      </trkpt>
      <trkpt lat="45.94786" lon="4.83867">
        <ele>265</ele>
        <time>2017-08-14T08:30:03Z</time>
      </trkpt>
      <trkpt lat="45.9479" lon="4.83873">
        <ele>266</ele>
        <time>2017-08-14T08:30:04Z</time>
      </trkpt>
      <trkpt lat="45.94793" lon="4.83879">
        <ele>266</ele>
        <time>2017-08-14T08:30:05Z</time>
      </trkpt>
      <trkpt lat="45.94797" lon="4.83886">
        <ele>266</ele>
        <time>2017-08-14T08:30:06Z</time>
      </trkpt>
      <trkpt lat="45.948" lon="4.83893">
        <ele>266</ele>
        <time>2017-08-14T08:30:07Z</time>
      </trkpt>
      <trkpt lat="45.94804" lon="4.839">
        <ele>265</ele>
        <time>2017-08-14T08:30:08Z</time>
      </trkpt>
      <trkpt lat="45.94807" lon="4.83907">
        <ele>265</ele>
        <time>2017-08-14T08:30:09Z</time>
      </trkpt>
      <trkpt lat="45.9481" lon="4.83914">
        <ele>265</ele>
        <time>2017-08-14T08:30:10Z</time>
      </trkpt>
      <trkpt lat="45.94814" lon="4.8392">
        <ele>266</ele>
        <time>2017-08-14T08:30:11Z</time>
      </trkpt>
      <trkpt lat="45.94817" lon="4.83926">
        <ele>266</ele>
        <time>2017-08-14T08:30:12Z</time>
      </trkpt>
      <trkpt lat="45.9482" lon="4.83932">
        <ele>266</ele>
        <time>2017-08-14T08:30:13Z</time>
      </trkpt>
      <trkpt lat="45.94823" lon="4.83938">
        <ele>266</ele>
        <time>2017-08-14T08:30:14Z</time>
      </trkpt>
      <trkpt lat="45.94826" lon="4.83944">
        <ele>266</ele>
        <time>2017-08-14T08:30:15Z</time>
      </trkpt>
      <trkpt lat="45.94829" lon="4.83949">
        <ele>266</ele>
        <time>2017-08-14T08:30:16Z</time>
      </trkpt>
      <trkpt lat="45.94832" lon="4.83955">
        <ele>266</ele>
        <time>2017-08-14T08:30:17Z</time>
      </trkpt>
      <trkpt lat="45.94835" lon="4.8396">
        <ele>265</ele>
        <time>2017-08-14T08:30:18Z</time>
      </trkpt>
      <trkpt lat="45.94839" lon="4.83966">
        <ele>265</ele>
        <time>2017-08-14T08:30:19Z</time>
      </trkpt>
      <trkpt lat="45.94842" lon="4.83973">
        <ele>265</ele>
        <time>2017-08-14T08:30:20Z</time>
      </trkpt>
      <trkpt lat="45.94845" lon="4.8398">
        <ele>265</ele>
        <time>2017-08-14T08:30:21Z</time>
      </trkpt>
      <trkpt lat="45.94847" lon="4.83987">
        <ele>265</ele>
        <time>2017-08-14T08:30:22Z</time>
      </trkpt>
      <trkpt lat="45.9485" lon="4.83994">
        <ele>265</ele>
        <time>2017-08-14T08:30:23Z</time>
      </trkpt>
      <trkpt lat="45.94853" lon="4.84002">
        <ele>266</ele>
        <time>2017-08-14T08:30:24Z</time>
      </trkpt>
      <trkpt lat="45.94856" lon="4.8401">
        <ele>266</ele>
        <time>2017-08-14T08:30:25Z</time>
      </trkpt>
      <trkpt lat="45.94858" lon="4.84017">
        <ele>266</ele>
        <time>2017-08-14T08:30:26Z</time>
      </trkpt>
      <trkpt lat="45.9486" lon="4.84024">
        <ele>266</ele>
        <time>2017-08-14T08:30:27Z</time>
      </trkpt>
      <trkpt lat="45.94863" lon="4.84031">
        <ele>266</ele>
        <time>2017-08-14T08:30:28Z</time>
      </trkpt>
      <trkpt lat="45.94866" lon="4.84037">
        <ele>266</ele>
        <time>2017-08-14T08:30:29Z</time>
      </trkpt>
      <trkpt lat="45.94868" lon="4.84044">
        <ele>266</ele>
        <time>2017-08-14T08:30:30Z</time>
      </trkpt>
      <trkpt lat="45.9487" lon="4.8405">
        <ele>267</ele>
        <time>2017-08-14T08:30:31Z</time>
      </trkpt>
      <trkpt lat="45.94873" lon="4.84057">
        <ele>267</ele>
        <time>2017-08-14T08:30:32Z</time>
      </trkpt>
      <trkpt lat="45.94876" lon="4.84063">
        <ele>267</ele>
        <time>2017-08-14T08:30:33Z</time>
      </trkpt>
      <trkpt lat="45.94878" lon="4.8407">
        <ele>267</ele>
        <time>2017-08-14T08:30:34Z</time>
      </trkpt>
      <trkpt lat="45.94881" lon="4.84077">
        <ele>267</ele>
        <time>2017-08-14T08:30:35Z</time>
      </trkpt>
      <trkpt lat="45.94884" lon="4.84083">
        <ele>267</ele>
        <time>2017-08-14T08:30:36Z</time>
      </trkpt>
      <trkpt lat="45.94886" lon="4.84089">
        <ele>267</ele>
        <time>2017-08-14T08:30:37Z</time>
      </trkpt>
      <trkpt lat="45.94888" lon="4.84095">
        <ele>267</ele>
        <time>2017-08-14T08:30:38Z</time>
      </trkpt>
      <trkpt lat="45.94893" lon="4.84106">
        <ele>267</ele>
        <time>2017-08-14T08:30:40Z</time>
      </trkpt>
      <trkpt lat="45.94895" lon="4.84112">
        <ele>267</ele>
        <time>2017-08-14T08:30:41Z</time>
      </trkpt>
      <trkpt lat="45.94897" lon="4.84117">
        <ele>267</ele>
        <time>2017-08-14T08:30:42Z</time>
      </trkpt>
      <trkpt lat="45.949" lon="4.84123">
        <ele>267</ele>
        <time>2017-08-14T08:30:43Z</time>
      </trkpt>
      <trkpt lat="45.94904" lon="4.84128">
        <ele>267</ele>
        <time>2017-08-14T08:30:44Z</time>
      </trkpt>
      <trkpt lat="45.94907" lon="4.84134">
        <ele>268</ele>
        <time>2017-08-14T08:30:45Z</time>
      </trkpt>
      <trkpt lat="45.9491" lon="4.84141">
        <ele>268</ele>
        <time>2017-08-14T08:30:46Z</time>
      </trkpt>
      <trkpt lat="45.94914" lon="4.84147">
        <ele>268</ele>
        <time>2017-08-14T08:30:47Z</time>
      </trkpt>
      <trkpt lat="45.94918" lon="4.84153">
        <ele>268</ele>
        <time>2017-08-14T08:30:48Z</time>
      </trkpt>
      <trkpt lat="45.94922" lon="4.8416">
        <ele>268</ele>
        <time>2017-08-14T08:30:49Z</time>
      </trkpt>
      <trkpt lat="45.94926" lon="4.84165">
        <ele>268</ele>
        <time>2017-08-14T08:30:50Z</time>
      </trkpt>
      <trkpt lat="45.94929" lon="4.84171">
        <ele>268</ele>
        <time>2017-08-14T08:30:51Z</time>
      </trkpt>
      <trkpt lat="45.94932" lon="4.84177">
        <ele>267</ele>
        <time>2017-08-14T08:30:52Z</time>
      </trkpt>
      <trkpt lat="45.94936" lon="4.84182">
        <ele>267</ele>
        <time>2017-08-14T08:30:53Z</time>
      </trkpt>
      <trkpt lat="45.94939" lon="4.84187">
        <ele>267</ele>
        <time>2017-08-14T08:30:54Z</time>
      </trkpt>
      <trkpt lat="45.94943" lon="4.84192">
        <ele>267</ele>
        <time>2017-08-14T08:30:55Z</time>
      </trkpt>
      <trkpt lat="45.94946" lon="4.84197">
        <ele>267</ele>
        <time>2017-08-14T08:30:56Z</time>
      </trkpt>
      <trkpt lat="45.9495" lon="4.84202">
        <ele>267</ele>
        <time>2017-08-14T08:30:57Z</time>
      </trkpt>
      <trkpt lat="45.94953" lon="4.84208">
        <ele>267</ele>
        <time>2017-08-14T08:30:58Z</time>
      </trkpt>
      <trkpt lat="45.94957" lon="4.84213">
        <ele>267</ele>
        <time>2017-08-14T08:30:59Z</time>
      </trkpt>
      <trkpt lat="45.9496" lon="4.84219">
        <ele>267</ele>
        <time>2017-08-14T08:31:00Z</time>
      </trkpt>
      <trkpt lat="45.94964" lon="4.84224">
        <ele>267</ele>
        <time>2017-08-14T08:31:01Z</time>
      </trkpt>
      <trkpt lat="45.94968" lon="4.8423">
        <ele>267</ele>
        <time>2017-08-14T08:31:02Z</time>
      </trkpt>
      <trkpt lat="45.94971" lon="4.84236">
        <ele>267</ele>
        <time>2017-08-14T08:31:03Z</time>
      </trkpt>
      <trkpt lat="45.94975" lon="4.84241">
        <ele>267</ele>
        <time>2017-08-14T08:31:04Z</time>
      </trkpt>
      <trkpt lat="45.94979" lon="4.84247">
        <ele>267</ele>
        <time>2017-08-14T08:31:05Z</time>
      </trkpt>
      <trkpt lat="45.94982" lon="4.84252">
        <ele>267</ele>
        <time>2017-08-14T08:31:06Z</time>
      </trkpt>
      <trkpt lat="45.94985" lon="4.84258">
        <ele>267</ele>
        <time>2017-08-14T08:31:07Z</time>
      </trkpt>
      <trkpt lat="45.94988" lon="4.84263">
        <ele>267</ele>
        <time>2017-08-14T08:31:08Z</time>
      </trkpt>
      <trkpt lat="45.94992" lon="4.84268">
        <ele>267</ele>
        <time>2017-08-14T08:31:09Z</time>
      </trkpt>
      <trkpt lat="45.94995" lon="4.84272">
        <ele>267</ele>
        <time>2017-08-14T08:31:10Z</time>
      </trkpt>
      <trkpt lat="45.94998" lon="4.84277">
        <ele>267</ele>
        <time>2017-08-14T08:31:11Z</time>
      </trkpt>
      <trkpt lat="45.95002" lon="4.84283">
        <ele>267</ele>
        <time>2017-08-14T08:31:12Z</time>
      </trkpt>
      <trkpt lat="45.95005" lon="4.84289">
        <ele>267</ele>
        <time>2017-08-14T08:31:13Z</time>
      </trkpt>
      <trkpt lat="45.95009" lon="4.84295">
        <ele>267</ele>
        <time>2017-08-14T08:31:14Z</time>
      </trkpt>
      <trkpt lat="45.95013" lon="4.84302">
        <ele>267</ele>
        <time>2017-08-14T08:31:15Z</time>
      </trkpt>
      <trkpt lat="45.95016" lon="4.84308">
        <ele>267</ele>
        <time>2017-08-14T08:31:16Z</time>
      </trkpt>
      <trkpt lat="45.9502" lon="4.84314">
        <ele>267</ele>
        <time>2017-08-14T08:31:17Z</time>
      </trkpt>
      <trkpt lat="45.95023" lon="4.8432">
        <ele>267</ele>
        <time>2017-08-14T08:31:18Z</time>
      </trkpt>
      <trkpt lat="45.95027" lon="4.84326">
        <ele>267</ele>
        <time>2017-08-14T08:31:19Z</time>
      </trkpt>
      <trkpt lat="45.9503" lon="4.84332">
        <ele>267</ele>
        <time>2017-08-14T08:31:20Z</time>
      </trkpt>
      <trkpt lat="45.95033" lon="4.84337">
        <ele>267</ele>
        <time>2017-08-14T08:31:21Z</time>
      </trkpt>
      <trkpt lat="45.95037" lon="4.84342">
        <ele>267</ele>
        <time>2017-08-14T08:31:22Z</time>
      </trkpt>
      <trkpt lat="45.9504" lon="4.84347">
        <ele>267</ele>
        <time>2017-08-14T08:31:23Z</time>
      </trkpt>
      <trkpt lat="45.95044" lon="4.84353">
        <ele>267</ele>
        <time>2017-08-14T08:31:24Z</time>
      </trkpt>
      <trkpt lat="45.95047" lon="4.84359">
        <ele>267</ele>
        <time>2017-08-14T08:31:25Z</time>
      </trkpt>
      <trkpt lat="45.95051" lon="4.84365">
        <ele>267</ele>
        <time>2017-08-14T08:31:26Z</time>
      </trkpt>
      <trkpt lat="45.95054" lon="4.8437">
        <ele>267</ele>
        <time>2017-08-14T08:31:27Z</time>
      </trkpt>
      <trkpt lat="45.95057" lon="4.84375">
        <ele>267</ele>
        <time>2017-08-14T08:31:28Z</time>
      </trkpt>
      <trkpt lat="45.95061" lon="4.8438">
        <ele>267</ele>
        <time>2017-08-14T08:31:29Z</time>
      </trkpt>
      <trkpt lat="45.95065" lon="4.84384">
        <ele>267</ele>
        <time>2017-08-14T08:31:30Z</time>
      </trkpt>
      <trkpt lat="45.95069" lon="4.84389">
        <ele>267</ele>
        <time>2017-08-14T08:31:31Z</time>
      </trkpt>
      <trkpt lat="45.95074" lon="4.84394">
        <ele>267</ele>
        <time>2017-08-14T08:31:32Z</time>
      </trkpt>
      <trkpt lat="45.95078" lon="4.84399">
        <ele>267</ele>
        <time>2017-08-14T08:31:33Z</time>
      </trkpt>
      <trkpt lat="45.95083" lon="4.84405">
        <ele>267</ele>
        <time>2017-08-14T08:31:34Z</time>
      </trkpt>
      <trkpt lat="45.95088" lon="4.8441">
        <ele>267</ele>
        <time>2017-08-14T08:31:35Z</time>
      </trkpt>
      <trkpt lat="45.95092" lon="4.84414">
        <ele>267</ele>
        <time>2017-08-14T08:31:36Z</time>
      </trkpt>
      <trkpt lat="45.95097" lon="4.84418">
        <ele>267</ele>
        <time>2017-08-14T08:31:37Z</time>
      </trkpt>
      <trkpt lat="45.95102" lon="4.84422">
        <ele>267</ele>
        <time>2017-08-14T08:31:38Z</time>
      </trkpt>
      <trkpt lat="45.95106" lon="4.84427">
        <ele>267</ele>
        <time>2017-08-14T08:31:39Z</time>
      </trkpt>
      <trkpt lat="45.95111" lon="4.84431">
        <ele>267</ele>
        <time>2017-08-14T08:31:40Z</time>
      </trkpt>
      <trkpt lat="45.95115" lon="4.84436">
        <ele>267</ele>
        <time>2017-08-14T08:31:41Z</time>
      </trkpt>
      <trkpt lat="45.9512" lon="4.8444">
        <ele>267</ele>
        <time>2017-08-14T08:31:42Z</time>
      </trkpt>
      <trkpt lat="45.95124" lon="4.84444">
        <ele>267</ele>
        <time>2017-08-14T08:31:43Z</time>
      </trkpt>
      <trkpt lat="45.95129" lon="4.84449">
        <ele>267</ele>
        <time>2017-08-14T08:31:44Z</time>
      </trkpt>
      <trkpt lat="45.95133" lon="4.84453">
        <ele>267</ele>
        <time>2017-08-14T08:31:45Z</time>
      </trkpt>
      <trkpt lat="45.95138" lon="4.84458">
        <ele>267</ele>
        <time>2017-08-14T08:31:46Z</time>
      </trkpt>
      <trkpt lat="45.95143" lon="4.84463">
        <ele>266</ele>
        <time>2017-08-14T08:31:47Z</time>
      </trkpt>
      <trkpt lat="45.95147" lon="4.84468">
        <ele>266</ele>
        <time>2017-08-14T08:31:48Z</time>
      </trkpt>
      <trkpt lat="45.95152" lon="4.84473">
        <ele>266</ele>
        <time>2017-08-14T08:31:49Z</time>
      </trkpt>
      <trkpt lat="45.95156" lon="4.84479">
        <ele>266</ele>
        <time>2017-08-14T08:31:50Z</time>
      </trkpt>
      <trkpt lat="45.95161" lon="4.84484">
        <ele>266</ele>
        <time>2017-08-14T08:31:51Z</time>
      </trkpt>
      <trkpt lat="45.95166" lon="4.8449">
        <ele>266</ele>
        <time>2017-08-14T08:31:52Z</time>
      </trkpt>
      <trkpt lat="45.9517" lon="4.84495">
        <ele>266</ele>
        <time>2017-08-14T08:31:53Z</time>
      </trkpt>
      <trkpt lat="45.95175" lon="4.845">
        <ele>266</ele>
        <time>2017-08-14T08:31:54Z</time>
      </trkpt>
      <trkpt lat="45.95179" lon="4.84506">
        <ele>265</ele>
        <time>2017-08-14T08:31:55Z</time>
      </trkpt>
      <trkpt lat="45.95184" lon="4.84513">
        <ele>265</ele>
        <time>2017-08-14T08:31:56Z</time>
      </trkpt>
      <trkpt lat="45.95188" lon="4.84519">
        <ele>265</ele>
        <time>2017-08-14T08:31:57Z</time>
      </trkpt>
      <trkpt lat="45.95193" lon="4.84524">
        <ele>265</ele>
        <time>2017-08-14T08:31:58Z</time>
      </trkpt>
      <trkpt lat="45.95197" lon="4.8453">
        <ele>265</ele>
        <time>2017-08-14T08:31:59Z</time>
      </trkpt>
      <trkpt lat="45.95201" lon="4.84535">
        <ele>265</ele>
        <time>2017-08-14T08:32:00Z</time>
      </trkpt>
      <trkpt lat="45.95206" lon="4.84541">
        <ele>265</ele>
        <time>2017-08-14T08:32:01Z</time>
      </trkpt>
      <trkpt lat="45.9521" lon="4.84546">
        <ele>264</ele>
        <time>2017-08-14T08:32:02Z</time>
      </trkpt>
      <trkpt lat="45.95214" lon="4.84551">
        <ele>264</ele>
        <time>2017-08-14T08:32:03Z</time>
      </trkpt>
      <trkpt lat="45.95218" lon="4.84556">
        <ele>264</ele>
        <time>2017-08-14T08:32:04Z</time>
      </trkpt>
      <trkpt lat="45.95222" lon="4.84561">
        <ele>264</ele>
        <time>2017-08-14T08:32:05Z</time>
      </trkpt>
      <trkpt lat="45.95226" lon="4.84565">
        <ele>264</ele>
        <time>2017-08-14T08:32:06Z</time>
      </trkpt>
      <trkpt lat="45.9523" lon="4.8457">
        <ele>264</ele>
        <time>2017-08-14T08:32:07Z</time>
      </trkpt>
      <trkpt lat="45.95235" lon="4.84576">
        <ele>264</ele>
        <time>2017-08-14T08:32:08Z</time>
      </trkpt>
      <trkpt lat="45.9524" lon="4.84581">
        <ele>264</ele>
        <time>2017-08-14T08:32:09Z</time>
      </trkpt>
      <trkpt lat="45.95245" lon="4.84586">
        <ele>264</ele>
        <time>2017-08-14T08:32:10Z</time>
      </trkpt>
      <trkpt lat="45.95249" lon="4.84592">
        <ele>264</ele>
        <time>2017-08-14T08:32:11Z</time>
      </trkpt>
      <trkpt lat="45.95254" lon="4.84598">
        <ele>264</ele>
        <time>2017-08-14T08:32:12Z</time>
      </trkpt>
      <trkpt lat="45.95258" lon="4.84603">
        <ele>264</ele>
        <time>2017-08-14T08:32:13Z</time>
      </trkpt>
      <trkpt lat="45.95262" lon="4.84608">
        <ele>264</ele>
        <time>2017-08-14T08:32:14Z</time>
      </trkpt>
      <trkpt lat="45.95266" lon="4.84614">
        <ele>264</ele>
        <time>2017-08-14T08:32:15Z</time>
      </trkpt>
      <trkpt lat="45.9527" lon="4.84619">
        <ele>264</ele>
        <time>2017-08-14T08:32:16Z</time>
      </trkpt>
      <trkpt lat="45.95274" lon="4.84623">
        <ele>264</ele>
        <time>2017-08-14T08:32:17Z</time>
      </trkpt>
      <trkpt lat="45.95278" lon="4.84628">
        <ele>264</ele>
        <time>2017-08-14T08:32:18Z</time>
      </trkpt>
      <trkpt lat="45.95281" lon="4.84632">
        <ele>264</ele>
        <time>2017-08-14T08:32:19Z</time>
      </trkpt>
      <trkpt lat="45.95285" lon="4.84637">
        <ele>264</ele>
        <time>2017-08-14T08:32:20Z</time>
      </trkpt>
      <trkpt lat="45.95289" lon="4.84641">
        <ele>264</ele>
        <time>2017-08-14T08:32:21Z</time>
      </trkpt>
      <trkpt lat="45.95293" lon="4.84645">
        <ele>264</ele>
        <time>2017-08-14T08:32:22Z</time>
      </trkpt>
      <trkpt lat="45.95298" lon="4.84649">
        <ele>264</ele>
        <time>2017-08-14T08:32:23Z</time>
      </trkpt>
      <trkpt lat="45.95302" lon="4.84654">
        <ele>264</ele>
        <time>2017-08-14T08:32:24Z</time>
      </trkpt>
      <trkpt lat="45.95307" lon="4.84658">
        <ele>265</ele>
        <time>2017-08-14T08:32:25Z</time>
      </trkpt>
      <trkpt lat="45.95312" lon="4.84662">
        <ele>265</ele>
        <time>2017-08-14T08:32:26Z</time>
      </trkpt>
      <trkpt lat="45.95317" lon="4.84666">
        <ele>265</ele>
        <time>2017-08-14T08:32:27Z</time>
      </trkpt>
      <trkpt lat="45.95322" lon="4.84669">
        <ele>265</ele>
        <time>2017-08-14T08:32:28Z</time>
      </trkpt>
      <trkpt lat="45.95326" lon="4.84673">
        <ele>265</ele>
        <time>2017-08-14T08:32:29Z</time>
      </trkpt>
      <trkpt lat="45.95333" lon="4.8468">
        <ele>265</ele>
        <time>2017-08-14T08:32:31Z</time>
      </trkpt>
      <trkpt lat="45.95337" lon="4.84683">
        <ele>265</ele>
        <time>2017-08-14T08:32:32Z</time>
      </trkpt>
      <trkpt lat="45.95341" lon="4.84687">
        <ele>266</ele>
        <time>2017-08-14T08:32:33Z</time>
      </trkpt>
      <trkpt lat="45.95345" lon="4.8469">
        <ele>266</ele>
        <time>2017-08-14T08:32:34Z</time>
      </trkpt>
      <trkpt lat="45.9535" lon="4.84693">
        <ele>266</ele>
        <time>2017-08-14T08:32:35Z</time>
      </trkpt>
      <trkpt lat="45.95354" lon="4.84697">
        <ele>266</ele>
        <time>2017-08-14T08:32:36Z</time>
      </trkpt>
      <trkpt lat="45.95359" lon="4.847">
        <ele>266</ele>
        <time>2017-08-14T08:32:37Z</time>
      </trkpt>
      <trkpt lat="45.95363" lon="4.84704">
        <ele>266</ele>
        <time>2017-08-14T08:32:38Z</time>
      </trkpt>
      <trkpt lat="45.95368" lon="4.84708">
        <ele>266</ele>
        <time>2017-08-14T08:32:39Z</time>
      </trkpt>
      <trkpt lat="45.95373" lon="4.84712">
        <ele>266</ele>
        <time>2017-08-14T08:32:40Z</time>
      </trkpt>
      <trkpt lat="45.95377" lon="4.84715">
        <ele>266</ele>
        <time>2017-08-14T08:32:41Z</time>
      </trkpt>
      <trkpt lat="45.95381" lon="4.84719">
        <ele>266</ele>
        <time>2017-08-14T08:32:42Z</time>
      </trkpt>
      <trkpt lat="45.95386" lon="4.84722">
        <ele>266</ele>
        <time>2017-08-14T08:32:43Z</time>
      </trkpt>
      <trkpt lat="45.9539" lon="4.84726">
        <ele>266</ele>
        <time>2017-08-14T08:32:44Z</time>
      </trkpt>
      <trkpt lat="45.95395" lon="4.8473">
        <ele>266</ele>
        <time>2017-08-14T08:32:45Z</time>
      </trkpt>
      <trkpt lat="45.95399" lon="4.84733">
        <ele>266</ele>
        <time>2017-08-14T08:32:46Z</time>
      </trkpt>
      <trkpt lat="45.95404" lon="4.84737">
        <ele>266</ele>
        <time>2017-08-14T08:32:47Z</time>
      </trkpt>
      <trkpt lat="45.95409" lon="4.84741">
        <ele>267</ele>
        <time>2017-08-14T08:32:48Z</time>
      </trkpt>
      <trkpt lat="45.95413" lon="4.84746">
        <ele>267</ele>
        <time>2017-08-14T08:32:49Z</time>
      </trkpt>
      <trkpt lat="45.95418" lon="4.8475">
        <ele>267</ele>
        <time>2017-08-14T08:32:50Z</time>
      </trkpt>
      <trkpt lat="45.95422" lon="4.84755">
        <ele>267</ele>
        <time>2017-08-14T08:32:51Z</time>
      </trkpt>
      <trkpt lat="45.95425" lon="4.8476">
        <ele>267</ele>
        <time>2017-08-14T08:32:52Z</time>
      </trkpt>
      <trkpt lat="45.95432" lon="4.84767">
        <ele>267</ele>
        <time>2017-08-14T08:32:54Z</time>
      </trkpt>
      <trkpt lat="45.95436" lon="4.84771">
        <ele>267</ele>
        <time>2017-08-14T08:32:55Z</time>
      </trkpt>
      <trkpt lat="45.95439" lon="4.84776">
        <ele>267</ele>
        <time>2017-08-14T08:32:56Z</time>
      </trkpt>
      <trkpt lat="45.95443" lon="4.8478">
        <ele>267</ele>
        <time>2017-08-14T08:32:57Z</time>
      </trkpt>
      <trkpt lat="45.95447" lon="4.84784">
        <ele>267</ele>
        <time>2017-08-14T08:32:58Z</time>
      </trkpt>
      <trkpt lat="45.95451" lon="4.84787">
        <ele>267</ele>
        <time>2017-08-14T08:32:59Z</time>
      </trkpt>
      <trkpt lat="45.95455" lon="4.84792">
        <ele>267</ele>
        <time>2017-08-14T08:33:00Z</time>
      </trkpt>
      <trkpt lat="45.95458" lon="4.84796">
        <ele>267</ele>
        <time>2017-08-14T08:33:01Z</time>
      </trkpt>
      <trkpt lat="45.95462" lon="4.848">
        <ele>267</ele>
        <time>2017-08-14T08:33:02Z</time>
      </trkpt>
      <trkpt lat="45.95466" lon="4.84804">
        <ele>267</ele>
        <time>2017-08-14T08:33:03Z</time>
      </trkpt>
      <trkpt lat="45.95469" lon="4.84808">
        <ele>267</ele>
        <time>2017-08-14T08:33:04Z</time>
      </trkpt>
      <trkpt lat="45.95472" lon="4.84813">
        <ele>267</ele>
        <time>2017-08-14T08:33:05Z</time>
      </trkpt>
      <trkpt lat="45.95476" lon="4.84818">
        <ele>267</ele>
        <time>2017-08-14T08:33:06Z</time>
      </trkpt>
      <trkpt lat="45.9548" lon="4.84822">
        <ele>267</ele>
        <time>2017-08-14T08:33:07Z</time>
      </trkpt>
      <trkpt lat="45.95484" lon="4.84827">
        <ele>267</ele>
        <time>2017-08-14T08:33:08Z</time>
      </trkpt>
      <trkpt lat="45.95489" lon="4.84832">
        <ele>267</ele>
        <time>2017-08-14T08:33:09Z</time>
      </trkpt>
      <trkpt lat="45.95494" lon="4.84838">
        <ele>267</ele>
        <time>2017-08-14T08:33:10Z</time>
      </trkpt>
      <trkpt lat="45.95498" lon="4.84843">
        <ele>267</ele>
        <time>2017-08-14T08:33:11Z</time>
      </trkpt>
      <trkpt lat="45.95502" lon="4.84848">
        <ele>267</ele>
        <time>2017-08-14T08:33:12Z</time>
      </trkpt>
      <trkpt lat="45.95506" lon="4.84853">
        <ele>268</ele>
        <time>2017-08-14T08:33:13Z</time>
      </trkpt>
      <trkpt lat="45.9551" lon="4.84858">
        <ele>268</ele>
        <time>2017-08-14T08:33:14Z</time>
      </trkpt>
      <trkpt lat="45.95513" lon="4.84862">
        <ele>268</ele>
        <time>2017-08-14T08:33:15Z</time>
      </trkpt>
      <trkpt lat="45.9552" lon="4.8487">
        <ele>268</ele>
        <time>2017-08-14T08:33:17Z</time>
      </trkpt>
      <trkpt lat="45.95524" lon="4.84873">
        <ele>268</ele>
        <time>2017-08-14T08:33:18Z</time>
      </trkpt>
      <trkpt lat="45.95531" lon="4.8488">
        <ele>268</ele>
        <time>2017-08-14T08:33:20Z</time>
      </trkpt>
      <trkpt lat="45.95535" lon="4.84884">
        <ele>268</ele>
        <time>2017-08-14T08:33:21Z</time>
      </trkpt>
      <trkpt lat="45.95539" lon="4.84887">
        <ele>268</ele>
        <time>2017-08-14T08:33:22Z</time>
      </trkpt>
      <trkpt lat="45.95543" lon="4.84889">
        <ele>268</ele>
        <time>2017-08-14T08:33:23Z</time>
      </trkpt>
      <trkpt lat="45.95548" lon="4.84892">
        <ele>268</ele>
        <time>2017-08-14T08:33:24Z</time>
      </trkpt>
      <trkpt lat="45.95552" lon="4.84896">
        <ele>268</ele>
        <time>2017-08-14T08:33:25Z</time>
      </trkpt>
      <trkpt lat="45.95557" lon="4.84899">
        <ele>268</ele>
        <time>2017-08-14T08:33:26Z</time>
      </trkpt>
      <trkpt lat="45.95561" lon="4.84902">
        <ele>268</ele>
        <time>2017-08-14T08:33:27Z</time>
      </trkpt>
      <trkpt lat="45.95568" lon="4.84909">
        <ele>269</ele>
        <time>2017-08-14T08:33:29Z</time>
      </trkpt>
      <trkpt lat="45.95572" lon="4.84911">
        <ele>269</ele>
        <time>2017-08-14T08:33:30Z</time>
      </trkpt>
      <trkpt lat="45.95579" lon="4.84916">
        <ele>269</ele>
        <time>2017-08-14T08:33:32Z</time>
      </trkpt>
      <trkpt lat="45.95583" lon="4.84918">
        <ele>269</ele>
        <time>2017-08-14T08:33:33Z</time>
      </trkpt>
      <trkpt lat="45.95587" lon="4.84921">
        <ele>269</ele>
        <time>2017-08-14T08:33:34Z</time>
      </trkpt>
      <trkpt lat="45.95591" lon="4.84923">
        <ele>270</ele>
        <time>2017-08-14T08:33:35Z</time>
      </trkpt>
      <trkpt lat="45.95596" lon="4.84926">
        <ele>270</ele>
        <time>2017-08-14T08:33:36Z</time>
      </trkpt>
      <trkpt lat="45.956" lon="4.84929">
        <ele>270</ele>
        <time>2017-08-14T08:33:37Z</time>
      </trkpt>
      <trkpt lat="45.95604" lon="4.84932">
        <ele>270</ele>
        <time>2017-08-14T08:33:38Z</time>
      </trkpt>
      <trkpt lat="45.95608" lon="4.84935">
        <ele>270</ele>
        <time>2017-08-14T08:33:39Z</time>
      </trkpt>
      <trkpt lat="45.95612" lon="4.84938">
        <ele>270</ele>
        <time>2017-08-14T08:33:40Z</time>
      </trkpt>
      <trkpt lat="45.95616" lon="4.84941">
        <ele>270</ele>
        <time>2017-08-14T08:33:41Z</time>
      </trkpt>
      <trkpt lat="45.95621" lon="4.84944">
        <ele>271</ele>
        <time>2017-08-14T08:33:42Z</time>
      </trkpt>
      <trkpt lat="45.95625" lon="4.84947">
        <ele>271</ele>
        <time>2017-08-14T08:33:43Z</time>
      </trkpt>
      <trkpt lat="45.9563" lon="4.84951">
        <ele>271</ele>
        <time>2017-08-14T08:33:44Z</time>
      </trkpt>
      <trkpt lat="45.95634" lon="4.84955">
        <ele>271</ele>
        <time>2017-08-14T08:33:45Z</time>
      </trkpt>
      <trkpt lat="45.95638" lon="4.84959">
        <ele>271</ele>
        <time>2017-08-14T08:33:46Z</time>
      </trkpt>
      <trkpt lat="45.95642" lon="4.84963">
        <ele>271</ele>
        <time>2017-08-14T08:33:47Z</time>
      </trkpt>
      <trkpt lat="45.95646" lon="4.84967">
        <ele>271</ele>
        <time>2017-08-14T08:33:48Z</time>
      </trkpt>
      <trkpt lat="45.95649" lon="4.84973">
        <ele>271</ele>
        <time>2017-08-14T08:33:49Z</time>
      </trkpt>
      <trkpt lat="45.95653" lon="4.84977">
        <ele>271</ele>
        <time>2017-08-14T08:33:50Z</time>
      </trkpt>
      <trkpt lat="45.95657" lon="4.84981">
        <ele>272</ele>
        <time>2017-08-14T08:33:51Z</time>
      </trkpt>
      <trkpt lat="45.95661" lon="4.84986">
        <ele>272</ele>
        <time>2017-08-14T08:33:52Z</time>
      </trkpt>
      <trkpt lat="45.95664" lon="4.84991">
        <ele>272</ele>
        <time>2017-08-14T08:33:53Z</time>
      </trkpt>
      <trkpt lat="45.95668" lon="4.84995">
        <ele>273</ele>
        <time>2017-08-14T08:33:54Z</time>
      </trkpt>
      <trkpt lat="45.95671" lon="4.85">
        <ele>274</ele>
        <time>2017-08-14T08:33:55Z</time>
      </trkpt>
      <trkpt lat="45.95675" lon="4.85005">
        <ele>274</ele>
        <time>2017-08-14T08:33:56Z</time>
      </trkpt>
      <trkpt lat="45.95678" lon="4.8501">
        <ele>275</ele>
        <time>2017-08-14T08:33:57Z</time>
      </trkpt>
      <trkpt lat="45.95681" lon="4.85016">
        <ele>275</ele>
        <time>2017-08-14T08:33:58Z</time>
      </trkpt>
      <trkpt lat="45.95684" lon="4.85021">
        <ele>275</ele>
        <time>2017-08-14T08:33:59Z</time>
      </trkpt>
      <trkpt lat="45.95688" lon="4.85031">
        <ele>276</ele>
        <time>2017-08-14T08:34:01Z</time>
      </trkpt>
      <trkpt lat="45.9569" lon="4.85035">
        <ele>276</ele>
        <time>2017-08-14T08:34:02Z</time>
      </trkpt>
      <trkpt lat="45.95695" lon="4.85043">
        <ele>276</ele>
        <time>2017-08-14T08:34:04Z</time>
      </trkpt>
      <trkpt lat="45.95698" lon="4.85047">
        <ele>276</ele>
        <time>2017-08-14T08:34:05Z</time>
      </trkpt>
      <trkpt lat="45.95701" lon="4.85052">
        <ele>276</ele>
        <time>2017-08-14T08:34:06Z</time>
      </trkpt>
      <trkpt lat="45.95703" lon="4.85058">
        <ele>276</ele>
        <time>2017-08-14T08:34:07Z</time>
      </trkpt>
      <trkpt lat="45.95706" lon="4.85063">
        <ele>277</ele>
        <time>2017-08-14T08:34:08Z</time>
      </trkpt>
      <trkpt lat="45.95709" lon="4.85069">
        <ele>277</ele>
        <time>2017-08-14T08:34:09Z</time>
      </trkpt>
      <trkpt lat="45.95712" lon="4.85074">
        <ele>277</ele>
        <time>2017-08-14T08:34:10Z</time>
      </trkpt>
      <trkpt lat="45.95715" lon="4.8508">
        <ele>277</ele>
        <time>2017-08-14T08:34:11Z</time>
      </trkpt>
      <trkpt lat="45.95717" lon="4.85085">
        <ele>279</ele>
        <time>2017-08-14T08:34:12Z</time>
      </trkpt>
      <trkpt lat="45.9572" lon="4.8509">
        <ele>279</ele>
        <time>2017-08-14T08:34:13Z</time>
      </trkpt>
      <trkpt lat="45.95723" lon="4.85096">
        <ele>279</ele>
        <time>2017-08-14T08:34:14Z</time>
      </trkpt>
      <trkpt lat="45.95726" lon="4.85101">
        <ele>279</ele>
        <time>2017-08-14T08:34:15Z</time>
      </trkpt>
      <trkpt lat="45.95729" lon="4.85106">
        <ele>279</ele>
        <time>2017-08-14T08:34:16Z</time>
      </trkpt>
      <trkpt lat="45.95732" lon="4.85111">
        <ele>279</ele>
        <time>2017-08-14T08:34:17Z</time>
      </trkpt>
      <trkpt lat="45.95735" lon="4.85116">
        <ele>279</ele>
        <time>2017-08-14T08:34:18Z</time>
      </trkpt>
      <trkpt lat="45.95737" lon="4.85121">
        <ele>279</ele>
        <time>2017-08-14T08:34:19Z</time>
      </trkpt>
      <trkpt lat="45.95741" lon="4.85126">
        <ele>279</ele>
        <time>2017-08-14T08:34:20Z</time>
      </trkpt>
      <trkpt lat="45.95744" lon="4.85131">
        <ele>279</ele>
        <time>2017-08-14T08:34:21Z</time>
      </trkpt>
      <trkpt lat="45.95748" lon="4.85135">
        <ele>279</ele>
        <time>2017-08-14T08:34:22Z</time>
      </trkpt>
      <trkpt lat="45.95752" lon="4.8514">
        <ele>276</ele>
        <time>2017-08-14T08:34:23Z</time>
      </trkpt>
      <trkpt lat="45.95758" lon="4.85149">
        <ele>277</ele>
        <time>2017-08-14T08:34:25Z</time>
      </trkpt>
      <trkpt lat="45.95762" lon="4.85152">
        <ele>277</ele>
        <time>2017-08-14T08:34:26Z</time>
      </trkpt>
      <trkpt lat="45.95769" lon="4.8516">
        <ele>277</ele>
        <time>2017-08-14T08:34:28Z</time>
      </trkpt>
      <trkpt lat="45.95772" lon="4.85165">
        <ele>276</ele>
        <time>2017-08-14T08:34:29Z</time>
      </trkpt>
      <trkpt lat="45.95777" lon="4.8517">
        <ele>277</ele>
        <time>2017-08-14T08:34:30Z</time>
      </trkpt>
      <trkpt lat="45.9578" lon="4.85174">
        <ele>277</ele>
        <time>2017-08-14T08:34:31Z</time>
      </trkpt>
      <trkpt lat="45.95783" lon="4.85177">
        <ele>276</ele>
        <time>2017-08-14T08:34:32Z</time>
      </trkpt>
      <trkpt lat="45.95789" lon="4.8518">
        <ele>276</ele>
        <time>2017-08-14T08:34:33Z</time>
      </trkpt>
      <trkpt lat="45.95795" lon="4.85185">
        <ele>276</ele>
        <time>2017-08-14T08:34:34Z</time>
      </trkpt>
      <trkpt lat="45.95803" lon="4.85192">
        <ele>275</ele>
        <time>2017-08-14T08:34:35Z</time>
      </trkpt>
      <trkpt lat="45.95806" lon="4.85198">
        <ele>275</ele>
        <time>2017-08-14T08:34:36Z</time>
      </trkpt>
      <trkpt lat="45.95812" lon="4.85206">
        <ele>275</ele>
        <time>2017-08-14T08:34:37Z</time>
      </trkpt>
      <trkpt lat="45.95818" lon="4.85213">
        <ele>275</ele>
        <time>2017-08-14T08:34:38Z</time>
      </trkpt>
      <trkpt lat="45.95823" lon="4.8522">
        <ele>275</ele>
        <time>2017-08-14T08:34:39Z</time>
      </trkpt>
      <trkpt lat="45.95826" lon="4.85225">
        <ele>274</ele>
        <time>2017-08-14T08:34:40Z</time>
      </trkpt>
      <trkpt lat="45.9583" lon="4.85232">
        <ele>274</ele>
        <time>2017-08-14T08:34:41Z</time>
      </trkpt>
      <trkpt lat="45.95833" lon="4.85238">
        <ele>274</ele>
        <time>2017-08-14T08:34:42Z</time>
      </trkpt>
      <trkpt lat="45.95836" lon="4.85245">
        <ele>271</ele>
        <time>2017-08-14T08:34:43Z</time>
      </trkpt>
      <trkpt lat="45.95839" lon="4.85251">
        <ele>271</ele>
        <time>2017-08-14T08:34:44Z</time>
      </trkpt>
      <trkpt lat="45.95843" lon="4.85258">
        <ele>271</ele>
        <time>2017-08-14T08:34:45Z</time>
      </trkpt>
      <trkpt lat="45.95846" lon="4.85265">
        <ele>271</ele>
        <time>2017-08-14T08:34:46Z</time>
      </trkpt>
      <trkpt lat="45.9585" lon="4.85272">
        <ele>270</ele>
        <time>2017-08-14T08:34:47Z</time>
      </trkpt>
      <trkpt lat="45.95853" lon="4.85279">
        <ele>270</ele>
        <time>2017-08-14T08:34:48Z</time>
      </trkpt>
      <trkpt lat="45.95857" lon="4.85286">
        <ele>270</ele>
        <time>2017-08-14T08:34:49Z</time>
      </trkpt>
      <trkpt lat="45.9586" lon="4.85293">
        <ele>270</ele>
        <time>2017-08-14T08:34:50Z</time>
      </trkpt>
      <trkpt lat="45.95864" lon="4.853">
        <ele>270</ele>
        <time>2017-08-14T08:34:51Z</time>
      </trkpt>
      <trkpt lat="45.95869" lon="4.85306">
        <ele>269</ele>
        <time>2017-08-14T08:34:52Z</time>
      </trkpt>
      <trkpt lat="45.95873" lon="4.85313">
        <ele>269</ele>
        <time>2017-08-14T08:34:53Z</time>
      </trkpt>
      <trkpt lat="45.95878" lon="4.85318">
        <ele>269</ele>
        <time>2017-08-14T08:34:54Z</time>
      </trkpt>
      <trkpt lat="45.95883" lon="4.85324">
        <ele>269</ele>
        <time>2017-08-14T08:34:55Z</time>
      </trkpt>
      <trkpt lat="45.95889" lon="4.85328">
        <ele>269</ele>
        <time>2017-08-14T08:34:56Z</time>
      </trkpt>
      <trkpt lat="45.95894" lon="4.85333">
        <ele>268</ele>
        <time>2017-08-14T08:34:57Z</time>
      </trkpt>
      <trkpt lat="45.959" lon="4.85336">
        <ele>267</ele>
        <time>2017-08-14T08:34:58Z</time>
      </trkpt>
      <trkpt lat="45.95906" lon="4.8534">
        <ele>267</ele>
        <time>2017-08-14T08:34:59Z</time>
      </trkpt>
      <trkpt lat="45.95912" lon="4.85342">
        <ele>267</ele>
        <time>2017-08-14T08:35:00Z</time>
      </trkpt>
      <trkpt lat="45.95918" lon="4.85344">
        <ele>266</ele>
        <time>2017-08-14T08:35:01Z</time>
      </trkpt>
      <trkpt lat="45.95925" lon="4.85347">
        <ele>266</ele>
        <time>2017-08-14T08:35:02Z</time>
      </trkpt>
      <trkpt lat="45.95931" lon="4.85348">
        <ele>266</ele>
        <time>2017-08-14T08:35:03Z</time>
      </trkpt>
      <trkpt lat="45.95938" lon="4.85349">
        <ele>266</ele>
        <time>2017-08-14T08:35:04Z</time>
      </trkpt>
      <trkpt lat="45.95944" lon="4.8535">
        <ele>266</ele>
        <time>2017-08-14T08:35:05Z</time>
      </trkpt>
      <trkpt lat="45.9595" lon="4.8535">
        <ele>266</ele>
        <time>2017-08-14T08:35:06Z</time>
      </trkpt>
      <trkpt lat="45.95957" lon="4.85351">
        <ele>265</ele>
        <time>2017-08-14T08:35:07Z</time>
      </trkpt>
      <trkpt lat="45.95964" lon="4.85351">
        <ele>265</ele>
        <time>2017-08-14T08:35:08Z</time>
      </trkpt>
      <trkpt lat="45.95971" lon="4.85351">
        <ele>265</ele>
        <time>2017-08-14T08:35:09Z</time>
      </trkpt>
      <trkpt lat="45.95978" lon="4.85352">
        <ele>265</ele>
        <time>2017-08-14T08:35:10Z</time>
      </trkpt>
      <trkpt lat="45.95986" lon="4.85352">
        <ele>265</ele>
        <time>2017-08-14T08:35:11Z</time>
      </trkpt>
      <trkpt lat="45.95993" lon="4.85352">
        <ele>265</ele>
        <time>2017-08-14T08:35:12Z</time>
      </trkpt>
      <trkpt lat="45.96001" lon="4.85351">
        <ele>264</ele>
        <time>2017-08-14T08:35:13Z</time>
      </trkpt>
      <trkpt lat="45.96009" lon="4.85352">
        <ele>264</ele>
        <time>2017-08-14T08:35:14Z</time>
      </trkpt>
      <trkpt lat="45.96017" lon="4.85352">
        <ele>263</ele>
        <time>2017-08-14T08:35:15Z</time>
      </trkpt>
      <trkpt lat="45.96026" lon="4.85351">
        <ele>263</ele>
        <time>2017-08-14T08:35:16Z</time>
      </trkpt>
      <trkpt lat="45.96034" lon="4.85351">
        <ele>263</ele>
        <time>2017-08-14T08:35:17Z</time>
      </trkpt>
      <trkpt lat="45.96043" lon="4.85351">
        <ele>262</ele>
        <time>2017-08-14T08:35:18Z</time>
      </trkpt>
      <trkpt lat="45.96051" lon="4.85352">
        <ele>262</ele>
        <time>2017-08-14T08:35:19Z</time>
      </trkpt>
      <trkpt lat="45.9606" lon="4.85353">
        <ele>262</ele>
        <time>2017-08-14T08:35:20Z</time>
      </trkpt>
      <trkpt lat="45.9607" lon="4.85353">
        <ele>262</ele>
        <time>2017-08-14T08:35:21Z</time>
      </trkpt>
      <trkpt lat="45.96079" lon="4.85356">
        <ele>262</ele>
        <time>2017-08-14T08:35:22Z</time>
      </trkpt>
      <trkpt lat="45.96088" lon="4.85359">
        <ele>259</ele>
        <time>2017-08-14T08:35:23Z</time>
      </trkpt>
      <trkpt lat="45.96097" lon="4.85362">
        <ele>259</ele>
        <time>2017-08-14T08:35:24Z</time>
      </trkpt>
      <trkpt lat="45.96106" lon="4.85366">
        <ele>259</ele>
        <time>2017-08-14T08:35:25Z</time>
      </trkpt>
      <trkpt lat="45.96116" lon="4.85371">
        <ele>258</ele>
        <time>2017-08-14T08:35:26Z</time>
      </trkpt>
      <trkpt lat="45.96125" lon="4.85374">
        <ele>258</ele>
        <time>2017-08-14T08:35:27Z</time>
      </trkpt>
      <trkpt lat="45.96134" lon="4.85378">
        <ele>258</ele>
        <time>2017-08-14T08:35:28Z</time>
      </trkpt>
      <trkpt lat="45.96142" lon="4.85382">
        <ele>258</ele>
        <time>2017-08-14T08:35:29Z</time>
      </trkpt>
      <trkpt lat="45.96151" lon="4.85385">
        <ele>258</ele>
        <time>2017-08-14T08:35:30Z</time>
      </trkpt>
      <trkpt lat="45.96159" lon="4.8539">
        <ele>258</ele>
        <time>2017-08-14T08:35:31Z</time>
      </trkpt>
      <trkpt lat="45.96166" lon="4.85394">
        <ele>258</ele>
        <time>2017-08-14T08:35:32Z</time>
      </trkpt>
      <trkpt lat="45.96173" lon="4.85399">
        <ele>258</ele>
        <time>2017-08-14T08:35:33Z</time>
      </trkpt>
      <trkpt lat="45.96179" lon="4.85405">
        <ele>258</ele>
        <time>2017-08-14T08:35:34Z</time>
      </trkpt>
      <trkpt lat="45.96185" lon="4.8541">
        <ele>258</ele>
        <time>2017-08-14T08:35:35Z</time>
      </trkpt>
      <trkpt lat="45.9619" lon="4.85415">
        <ele>258</ele>
        <time>2017-08-14T08:35:36Z</time>
      </trkpt>
      <trkpt lat="45.96195" lon="4.85419">
        <ele>260</ele>
        <time>2017-08-14T08:35:37Z</time>
      </trkpt>
      <trkpt lat="45.962" lon="4.85423">
        <ele>260</ele>
        <time>2017-08-14T08:35:38Z</time>
      </trkpt>
      <trkpt lat="45.96204" lon="4.85426">
        <ele>260</ele>
        <time>2017-08-14T08:35:39Z</time>
      </trkpt>
      <trkpt lat="45.96208" lon="4.8543">
        <ele>261</ele>
        <time>2017-08-14T08:35:40Z</time>
      </trkpt>
      <trkpt lat="45.96213" lon="4.85432">
        <ele>261</ele>
        <time>2017-08-14T08:35:41Z</time>
      </trkpt>
      <trkpt lat="45.96217" lon="4.85434">
        <ele>261</ele>
        <time>2017-08-14T08:35:42Z</time>
      </trkpt>
      <trkpt lat="45.96222" lon="4.85436">
        <ele>261</ele>
        <time>2017-08-14T08:35:43Z</time>
      </trkpt>
      <trkpt lat="45.96226" lon="4.85438">
        <ele>261</ele>
        <time>2017-08-14T08:35:44Z</time>
      </trkpt>
      <trkpt lat="45.96231" lon="4.8544">
        <ele>261</ele>
        <time>2017-08-14T08:35:45Z</time>
      </trkpt>
      <trkpt lat="45.96235" lon="4.85442">
        <ele>261</ele>
        <time>2017-08-14T08:35:46Z</time>
      </trkpt>
      <trkpt lat="45.9624" lon="4.85443">
        <ele>261</ele>
        <time>2017-08-14T08:35:47Z</time>
      </trkpt>
      <trkpt lat="45.96245" lon="4.85446">
        <ele>261</ele>
        <time>2017-08-14T08:35:48Z</time>
      </trkpt>
      <trkpt lat="45.9625" lon="4.85447">
        <ele>261</ele>
        <time>2017-08-14T08:35:49Z</time>
      </trkpt>
      <trkpt lat="45.96254" lon="4.85449">
        <ele>264</ele>
        <time>2017-08-14T08:35:50Z</time>
      </trkpt>
      <trkpt lat="45.96259" lon="4.85451">
        <ele>264</ele>
        <time>2017-08-14T08:35:51Z</time>
      </trkpt>
      <trkpt lat="45.96263" lon="4.85452">
        <ele>264</ele>
        <time>2017-08-14T08:35:52Z</time>
      </trkpt>
      <trkpt lat="45.96272" lon="4.85455">
        <ele>264</ele>
        <time>2017-08-14T08:35:54Z</time>
      </trkpt>
      <trkpt lat="45.96276" lon="4.85456">
        <ele>264</ele>
        <time>2017-08-14T08:35:55Z</time>
      </trkpt>
      <trkpt lat="45.96281" lon="4.85457">
        <ele>265</ele>
        <time>2017-08-14T08:35:56Z</time>
      </trkpt>
      <trkpt lat="45.96285" lon="4.85458">
        <ele>265</ele>
        <time>2017-08-14T08:35:57Z</time>
      </trkpt>
      <trkpt lat="45.9629" lon="4.85459">
        <ele>265</ele>
        <time>2017-08-14T08:35:58Z</time>
      </trkpt>
      <trkpt lat="45.96295" lon="4.8546">
        <ele>265</ele>
        <time>2017-08-14T08:35:59Z</time>
      </trkpt>
      <trkpt lat="45.963" lon="4.85461">
        <ele>265</ele>
        <time>2017-08-14T08:36:00Z</time>
      </trkpt>
      <trkpt lat="45.96305" lon="4.85461">
        <ele>265</ele>
        <time>2017-08-14T08:36:01Z</time>
      </trkpt>
      <trkpt lat="45.9631" lon="4.85462">
        <ele>265</ele>
        <time>2017-08-14T08:36:02Z</time>
      </trkpt>
      <trkpt lat="45.96315" lon="4.85462">
        <ele>265</ele>
        <time>2017-08-14T08:36:03Z</time>
      </trkpt>
      <trkpt lat="45.9632" lon="4.85463">
        <ele>265</ele>
        <time>2017-08-14T08:36:04Z</time>
      </trkpt>
      <trkpt lat="45.96325" lon="4.85464">
        <ele>265</ele>
        <time>2017-08-14T08:36:05Z</time>
      </trkpt>
      <trkpt lat="45.96333" lon="4.85465">
        <ele>265</ele>
        <time>2017-08-14T08:36:07Z</time>
      </trkpt>
      <trkpt lat="45.96337" lon="4.85465">
        <ele>268</ele>
        <time>2017-08-14T08:36:08Z</time>
      </trkpt>
      <trkpt lat="45.96345" lon="4.85466">
        <ele>268</ele>
        <time>2017-08-14T08:36:10Z</time>
      </trkpt>
      <trkpt lat="45.96349" lon="4.85466">
        <ele>268</ele>
        <time>2017-08-14T08:36:11Z</time>
      </trkpt>
      <trkpt lat="45.96357" lon="4.85466">
        <ele>268</ele>
        <time>2017-08-14T08:36:13Z</time>
      </trkpt>
      <trkpt lat="45.96361" lon="4.85466">
        <ele>268</ele>
        <time>2017-08-14T08:36:14Z</time>
      </trkpt>
      <trkpt lat="45.96369" lon="4.85466">
        <ele>268</ele>
        <time>2017-08-14T08:36:16Z</time>
      </trkpt>
      <trkpt lat="45.96373" lon="4.85466">
        <ele>268</ele>
        <time>2017-08-14T08:36:17Z</time>
      </trkpt>
      <trkpt lat="45.9638" lon="4.85468">
        <ele>268</ele>
        <time>2017-08-14T08:36:19Z</time>
      </trkpt>
      <trkpt lat="45.96384" lon="4.85468">
        <ele>268</ele>
        <time>2017-08-14T08:36:20Z</time>
      </trkpt>
      <trkpt lat="45.96391" lon="4.85469">
        <ele>269</ele>
        <time>2017-08-14T08:36:22Z</time>
      </trkpt>
      <trkpt lat="45.96395" lon="4.85469">
        <ele>269</ele>
        <time>2017-08-14T08:36:23Z</time>
      </trkpt>
      <trkpt lat="45.96401" lon="4.85469">
        <ele>269</ele>
        <time>2017-08-14T08:36:25Z</time>
      </trkpt>
      <trkpt lat="45.96404" lon="4.85469">
        <ele>269</ele>
        <time>2017-08-14T08:36:26Z</time>
      </trkpt>
      <trkpt lat="45.96411" lon="4.8547">
        <ele>269</ele>
        <time>2017-08-14T08:36:28Z</time>
      </trkpt>
      <trkpt lat="45.96414" lon="4.85471">
        <ele>269</ele>
        <time>2017-08-14T08:36:29Z</time>
      </trkpt>
      <trkpt lat="45.9642" lon="4.85472">
        <ele>271</ele>
        <time>2017-08-14T08:36:31Z</time>
      </trkpt>
      <trkpt lat="45.96423" lon="4.85472">
        <ele>271</ele>
        <time>2017-08-14T08:36:32Z</time>
      </trkpt>
      <trkpt lat="45.9643" lon="4.85474">
        <ele>271</ele>
        <time>2017-08-14T08:36:34Z</time>
      </trkpt>
      <trkpt lat="45.96433" lon="4.85474">
        <ele>271</ele>
        <time>2017-08-14T08:36:35Z</time>
      </trkpt>
      <trkpt lat="45.9644" lon="4.85477">
        <ele>271</ele>
        <time>2017-08-14T08:36:37Z</time>
      </trkpt>
      <trkpt lat="45.96443" lon="4.85478">
        <ele>272</ele>
        <time>2017-08-14T08:36:38Z</time>
      </trkpt>
      <trkpt lat="45.96446" lon="4.8548">
        <ele>272</ele>
        <time>2017-08-14T08:36:39Z</time>
      </trkpt>
      <trkpt lat="45.96453" lon="4.8548">
        <ele>272</ele>
        <time>2017-08-14T08:36:40Z</time>
      </trkpt>
      <trkpt lat="45.9646" lon="4.85481">
        <ele>272</ele>
        <time>2017-08-14T08:36:42Z</time>
      </trkpt>
      <trkpt lat="45.96463" lon="4.85481">
        <ele>272</ele>
        <time>2017-08-14T08:36:43Z</time>
      </trkpt>
      <trkpt lat="45.96471" lon="4.85481">
        <ele>272</ele>
        <time>2017-08-14T08:36:46Z</time>
      </trkpt>
      <trkpt lat="45.96473" lon="4.8548">
        <ele>272</ele>
        <time>2017-08-14T08:36:47Z</time>
      </trkpt>
      <trkpt lat="45.9648" lon="4.85478">
        <ele>273</ele>
        <time>2017-08-14T08:36:49Z</time>
      </trkpt>
      <trkpt lat="45.96484" lon="4.85478">
        <ele>273</ele>
        <time>2017-08-14T08:36:50Z</time>
      </trkpt>
      <trkpt lat="45.9649" lon="4.85477">
        <ele>273</ele>
        <time>2017-08-14T08:36:52Z</time>
      </trkpt>
      <trkpt lat="45.96494" lon="4.85476">
        <ele>273</ele>
        <time>2017-08-14T08:36:53Z</time>
      </trkpt>
      <trkpt lat="45.96501" lon="4.85474">
        <ele>275</ele>
        <time>2017-08-14T08:36:55Z</time>
      </trkpt>
      <trkpt lat="45.96505" lon="4.85473">
        <ele>275</ele>
        <time>2017-08-14T08:36:56Z</time>
      </trkpt>
      <trkpt lat="45.96512" lon="4.85471">
        <ele>275</ele>
        <time>2017-08-14T08:36:58Z</time>
      </trkpt>
      <trkpt lat="45.96516" lon="4.8547">
        <ele>275</ele>
        <time>2017-08-14T08:36:59Z</time>
      </trkpt>
      <trkpt lat="45.96522" lon="4.85467">
        <ele>275</ele>
        <time>2017-08-14T08:37:01Z</time>
      </trkpt>
      <trkpt lat="45.96526" lon="4.85466">
        <ele>275</ele>
        <time>2017-08-14T08:37:02Z</time>
      </trkpt>
      <trkpt lat="45.96534" lon="4.85463">
        <ele>275</ele>
        <time>2017-08-14T08:37:04Z</time>
      </trkpt>
      <trkpt lat="45.96537" lon="4.8546">
        <ele>275</ele>
        <time>2017-08-14T08:37:05Z</time>
      </trkpt>
      <trkpt lat="45.96545" lon="4.85459">
        <ele>275</ele>
        <time>2017-08-14T08:37:07Z</time>
      </trkpt>
      <trkpt lat="45.96548" lon="4.85458">
        <ele>275</ele>
        <time>2017-08-14T08:37:08Z</time>
      </trkpt>
      <trkpt lat="45.96556" lon="4.85457">
        <ele>275</ele>
        <time>2017-08-14T08:37:10Z</time>
      </trkpt>
      <trkpt lat="45.9656" lon="4.85455">
        <ele>275</ele>
        <time>2017-08-14T08:37:11Z</time>
      </trkpt>
      <trkpt lat="45.96567" lon="4.85454">
        <ele>275</ele>
        <time>2017-08-14T08:37:13Z</time>
      </trkpt>
      <trkpt lat="45.96571" lon="4.85454">
        <ele>275</ele>
        <time>2017-08-14T08:37:14Z</time>
      </trkpt>
      <trkpt lat="45.96578" lon="4.85453">
        <ele>275</ele>
        <time>2017-08-14T08:37:16Z</time>
      </trkpt>
      <trkpt lat="45.96582" lon="4.85452">
        <ele>275</ele>
        <time>2017-08-14T08:37:17Z</time>
      </trkpt>
      <trkpt lat="45.96589" lon="4.8545">
        <ele>276</ele>
        <time>2017-08-14T08:37:19Z</time>
      </trkpt>
      <trkpt lat="45.96592" lon="4.8545">
        <ele>276</ele>
        <time>2017-08-14T08:37:20Z</time>
      </trkpt>
      <trkpt lat="45.96599" lon="4.85447">
        <ele>276</ele>
        <time>2017-08-14T08:37:22Z</time>
      </trkpt>
      <trkpt lat="45.96602" lon="4.85446">
        <ele>276</ele>
        <time>2017-08-14T08:37:23Z</time>
      </trkpt>
      <trkpt lat="45.9661" lon="4.85445">
        <ele>276</ele>
        <time>2017-08-14T08:37:25Z</time>
      </trkpt>
      <trkpt lat="45.96614" lon="4.85444">
        <ele>276</ele>
        <time>2017-08-14T08:37:26Z</time>
      </trkpt>
      <trkpt lat="45.96621" lon="4.85442">
        <ele>276</ele>
        <time>2017-08-14T08:37:28Z</time>
      </trkpt>
      <trkpt lat="45.96625" lon="4.85441">
        <ele>276</ele>
        <time>2017-08-14T08:37:29Z</time>
      </trkpt>
      <trkpt lat="45.96632" lon="4.85439">
        <ele>276</ele>
        <time>2017-08-14T08:37:31Z</time>
      </trkpt>
      <trkpt lat="45.96636" lon="4.85438">
        <ele>276</ele>
        <time>2017-08-14T08:37:32Z</time>
      </trkpt>
      <trkpt lat="45.96643" lon="4.85435">
        <ele>276</ele>
        <time>2017-08-14T08:37:34Z</time>
      </trkpt>
      <trkpt lat="45.96647" lon="4.85435">
        <ele>276</ele>
        <time>2017-08-14T08:37:35Z</time>
      </trkpt>
      <trkpt lat="45.96655" lon="4.85432">
        <ele>276</ele>
        <time>2017-08-14T08:37:37Z</time>
      </trkpt>
      <trkpt lat="45.96659" lon="4.8543">
        <ele>276</ele>
        <time>2017-08-14T08:37:38Z</time>
      </trkpt>
      <trkpt lat="45.96667" lon="4.8543">
        <ele>276</ele>
        <time>2017-08-14T08:37:40Z</time>
      </trkpt>
      <trkpt lat="45.96671" lon="4.8543">
        <ele>276</ele>
        <time>2017-08-14T08:37:41Z</time>
      </trkpt>
      <trkpt lat="45.96677" lon="4.85428">
        <ele>276</ele>
        <time>2017-08-14T08:37:43Z</time>
      </trkpt>
      <trkpt lat="45.96681" lon="4.85428">
        <ele>276</ele>
        <time>2017-08-14T08:37:44Z</time>
      </trkpt>
      <trkpt lat="45.96689" lon="4.85425">
        <ele>276</ele>
        <time>2017-08-14T08:37:47Z</time>
      </trkpt>
      <trkpt lat="45.96691" lon="4.85424">
        <ele>276</ele>
        <time>2017-08-14T08:37:48Z</time>
      </trkpt>
      <trkpt lat="45.96699" lon="4.8542">
        <ele>276</ele>
        <time>2017-08-14T08:37:51Z</time>
      </trkpt>
      <trkpt lat="45.96702" lon="4.85419">
        <ele>276</ele>
        <time>2017-08-14T08:37:52Z</time>
      </trkpt>
      <trkpt lat="45.96708" lon="4.85415">
        <ele>276</ele>
        <time>2017-08-14T08:37:54Z</time>
      </trkpt>
      <trkpt lat="45.96711" lon="4.85412">
        <ele>276</ele>
        <time>2017-08-14T08:37:55Z</time>
      </trkpt>
      <trkpt lat="45.96718" lon="4.85408">
        <ele>276</ele>
        <time>2017-08-14T08:37:57Z</time>
      </trkpt>
      <trkpt lat="45.96722" lon="4.85405">
        <ele>276</ele>
        <time>2017-08-14T08:37:58Z</time>
      </trkpt>
      <trkpt lat="45.96729" lon="4.85399">
        <ele>277</ele>
        <time>2017-08-14T08:38:00Z</time>
      </trkpt>
      <trkpt lat="45.96732" lon="4.85397">
        <ele>277</ele>
        <time>2017-08-14T08:38:01Z</time>
      </trkpt>
      <trkpt lat="45.96739" lon="4.85392">
        <ele>277</ele>
        <time>2017-08-14T08:38:03Z</time>
      </trkpt>
      <trkpt lat="45.96742" lon="4.85389">
        <ele>277</ele>
        <time>2017-08-14T08:38:04Z</time>
      </trkpt>
      <trkpt lat="45.96749" lon="4.85383">
        <ele>277</ele>
        <time>2017-08-14T08:38:06Z</time>
      </trkpt>
      <trkpt lat="45.96752" lon="4.85379">
        <ele>278</ele>
        <time>2017-08-14T08:38:07Z</time>
      </trkpt>
      <trkpt lat="45.96759" lon="4.85373">
        <ele>278</ele>
        <time>2017-08-14T08:38:09Z</time>
      </trkpt>
      <trkpt lat="45.96763" lon="4.85369">
        <ele>278</ele>
        <time>2017-08-14T08:38:10Z</time>
      </trkpt>
      <trkpt lat="45.9677" lon="4.85363">
        <ele>278</ele>
        <time>2017-08-14T08:38:12Z</time>
      </trkpt>
      <trkpt lat="45.96773" lon="4.85359">
        <ele>278</ele>
        <time>2017-08-14T08:38:13Z</time>
      </trkpt>
      <trkpt lat="45.9678" lon="4.85353">
        <ele>278</ele>
        <time>2017-08-14T08:38:15Z</time>
      </trkpt>
      <trkpt lat="45.96784" lon="4.85352">
        <ele>278</ele>
        <time>2017-08-14T08:38:16Z</time>
      </trkpt>
      <trkpt lat="45.96791" lon="4.85347">
        <ele>278</ele>
        <time>2017-08-14T08:38:18Z</time>
      </trkpt>
      <trkpt lat="45.96795" lon="4.85345">
        <ele>279</ele>
        <time>2017-08-14T08:38:19Z</time>
      </trkpt>
      <trkpt lat="45.96802" lon="4.85341">
        <ele>279</ele>
        <time>2017-08-14T08:38:21Z</time>
      </trkpt>
      <trkpt lat="45.96806" lon="4.85339">
        <ele>279</ele>
        <time>2017-08-14T08:38:22Z</time>
      </trkpt>
      <trkpt lat="45.96813" lon="4.85334">
        <ele>279</ele>
        <time>2017-08-14T08:38:24Z</time>
      </trkpt>
      <trkpt lat="45.96817" lon="4.85333">
        <ele>279</ele>
        <time>2017-08-14T08:38:25Z</time>
      </trkpt>
      <trkpt lat="45.96824" lon="4.85329">
        <ele>279</ele>
        <time>2017-08-14T08:38:27Z</time>
      </trkpt>
      <trkpt lat="45.96828" lon="4.85327">
        <ele>279</ele>
        <time>2017-08-14T08:38:28Z</time>
      </trkpt>
      <trkpt lat="45.96836" lon="4.85323">
        <ele>281</ele>
        <time>2017-08-14T08:38:30Z</time>
      </trkpt>
      <trkpt lat="45.9684" lon="4.85322">
        <ele>281</ele>
        <time>2017-08-14T08:38:31Z</time>
      </trkpt>
      <trkpt lat="45.96848" lon="4.85319">
        <ele>282</ele>
        <time>2017-08-14T08:38:33Z</time>
      </trkpt>
      <trkpt lat="45.96852" lon="4.85318">
        <ele>282</ele>
        <time>2017-08-14T08:38:34Z</time>
      </trkpt>
      <trkpt lat="45.9686" lon="4.85316">
        <ele>282</ele>
        <time>2017-08-14T08:38:36Z</time>
      </trkpt>
      <trkpt lat="45.96863" lon="4.85314">
        <ele>282</ele>
        <time>2017-08-14T08:38:37Z</time>
      </trkpt>
      <trkpt lat="45.9687" lon="4.85311">
        <ele>283</ele>
        <time>2017-08-14T08:38:39Z</time>
      </trkpt>
      <trkpt lat="45.96874" lon="4.85311">
        <ele>283</ele>
        <time>2017-08-14T08:38:40Z</time>
      </trkpt>
      <trkpt lat="45.96881" lon="4.85307">
        <ele>283</ele>
        <time>2017-08-14T08:38:42Z</time>
      </trkpt>
      <trkpt lat="45.96884" lon="4.85306">
        <ele>283</ele>
        <time>2017-08-14T08:38:43Z</time>
      </trkpt>
      <trkpt lat="45.96891" lon="4.85305">
        <ele>283</ele>
        <time>2017-08-14T08:38:45Z</time>
      </trkpt>
      <trkpt lat="45.96894" lon="4.85304">
        <ele>283</ele>
        <time>2017-08-14T08:38:46Z</time>
      </trkpt>
      <trkpt lat="45.96901" lon="4.85303">
        <ele>284</ele>
        <time>2017-08-14T08:38:48Z</time>
      </trkpt>
      <trkpt lat="45.96905" lon="4.85302">
        <ele>284</ele>
        <time>2017-08-14T08:38:49Z</time>
      </trkpt>
      <trkpt lat="45.96911" lon="4.85299">
        <ele>284</ele>
        <time>2017-08-14T08:38:51Z</time>
      </trkpt>
      <trkpt lat="45.96915" lon="4.85298">
        <ele>284</ele>
        <time>2017-08-14T08:38:52Z</time>
      </trkpt>
      <trkpt lat="45.96922" lon="4.85296">
        <ele>285</ele>
        <time>2017-08-14T08:38:54Z</time>
      </trkpt>
      <trkpt lat="45.96925" lon="4.85295">
        <ele>284</ele>
        <time>2017-08-14T08:38:55Z</time>
      </trkpt>
      <trkpt lat="45.96932" lon="4.85293">
        <ele>284</ele>
        <time>2017-08-14T08:38:57Z</time>
      </trkpt>
      <trkpt lat="45.96935" lon="4.85293">
        <ele>284</ele>
        <time>2017-08-14T08:38:58Z</time>
      </trkpt>
      <trkpt lat="45.96942" lon="4.85293">
        <ele>284</ele>
        <time>2017-08-14T08:39:00Z</time>
      </trkpt>
      <trkpt lat="45.96946" lon="4.85292">
        <ele>284</ele>
        <time>2017-08-14T08:39:01Z</time>
      </trkpt>
      <trkpt lat="45.96953" lon="4.85289">
        <ele>284</ele>
        <time>2017-08-14T08:39:03Z</time>
      </trkpt>
      <trkpt lat="45.96956" lon="4.85288">
        <ele>284</ele>
        <time>2017-08-14T08:39:04Z</time>
      </trkpt>
      <trkpt lat="45.96964" lon="4.85288">
        <ele>284</ele>
        <time>2017-08-14T08:39:06Z</time>
      </trkpt>
      <trkpt lat="45.96968" lon="4.85287">
        <ele>284</ele>
        <time>2017-08-14T08:39:07Z</time>
      </trkpt>
      <trkpt lat="45.96975" lon="4.85285">
        <ele>284</ele>
        <time>2017-08-14T08:39:09Z</time>
      </trkpt>
      <trkpt lat="45.96979" lon="4.85284">
        <ele>284</ele>
        <time>2017-08-14T08:39:10Z</time>
      </trkpt>
      <trkpt lat="45.96988" lon="4.85281">
        <ele>284</ele>
        <time>2017-08-14T08:39:12Z</time>
      </trkpt>
      <trkpt lat="45.96993" lon="4.8528">
        <ele>284</ele>
        <time>2017-08-14T08:39:13Z</time>
      </trkpt>
      <trkpt lat="45.96998" lon="4.8528">
        <ele>283</ele>
        <time>2017-08-14T08:39:14Z</time>
      </trkpt>
      <trkpt lat="45.97003" lon="4.8528">
        <ele>282</ele>
        <time>2017-08-14T08:39:15Z</time>
      </trkpt>
      <trkpt lat="45.97008" lon="4.8528">
        <ele>282</ele>
        <time>2017-08-14T08:39:16Z</time>
      </trkpt>
      <trkpt lat="45.97014" lon="4.85279">
        <ele>282</ele>
        <time>2017-08-14T08:39:17Z</time>
      </trkpt>
      <trkpt lat="45.9702" lon="4.85278">
        <ele>282</ele>
        <time>2017-08-14T08:39:18Z</time>
      </trkpt>
      <trkpt lat="45.97026" lon="4.85278">
        <ele>282</ele>
        <time>2017-08-14T08:39:19Z</time>
      </trkpt>
      <trkpt lat="45.97032" lon="4.85278">
        <ele>282</ele>
        <time>2017-08-14T08:39:20Z</time>
      </trkpt>
      <trkpt lat="45.97038" lon="4.85277">
        <ele>282</ele>
        <time>2017-08-14T08:39:21Z</time>
      </trkpt>
      <trkpt lat="45.97045" lon="4.85277">
        <ele>282</ele>
        <time>2017-08-14T08:39:22Z</time>
      </trkpt>
      <trkpt lat="45.97051" lon="4.85276">
        <ele>282</ele>
        <time>2017-08-14T08:39:23Z</time>
      </trkpt>
      <trkpt lat="45.97058" lon="4.85275">
        <ele>282</ele>
        <time>2017-08-14T08:39:24Z</time>
      </trkpt>
      <trkpt lat="45.97065" lon="4.85275">
        <ele>282</ele>
        <time>2017-08-14T08:39:25Z</time>
      </trkpt>
      <trkpt lat="45.97072" lon="4.85274">
        <ele>281</ele>
        <time>2017-08-14T08:39:26Z</time>
      </trkpt>
      <trkpt lat="45.97079" lon="4.85274">
        <ele>281</ele>
        <time>2017-08-14T08:39:27Z</time>
      </trkpt>
      <trkpt lat="45.97086" lon="4.85273">
        <ele>280</ele>
        <time>2017-08-14T08:39:28Z</time>
      </trkpt>
      <trkpt lat="45.97093" lon="4.85273">
        <ele>280</ele>
        <time>2017-08-14T08:39:29Z</time>
      </trkpt>
      <trkpt lat="45.971" lon="4.85272">
        <ele>280</ele>
        <time>2017-08-14T08:39:30Z</time>
      </trkpt>
      <trkpt lat="45.97105" lon="4.85272">
        <ele>280</ele>
        <time>2017-08-14T08:39:31Z</time>
      </trkpt>
      <trkpt lat="45.9711" lon="4.85272">
        <ele>280</ele>
        <time>2017-08-14T08:39:32Z</time>
      </trkpt>
      <trkpt lat="45.97114" lon="4.85272">
        <ele>280</ele>
        <time>2017-08-14T08:39:33Z</time>
      </trkpt>
      <trkpt lat="45.97123" lon="4.85272">
        <ele>280</ele>
        <time>2017-08-14T08:39:35Z</time>
      </trkpt>
      <trkpt lat="45.97128" lon="4.85272">
        <ele>279</ele>
        <time>2017-08-14T08:39:36Z</time>
      </trkpt>
      <trkpt lat="45.97133" lon="4.85274">
        <ele>279</ele>
        <time>2017-08-14T08:39:37Z</time>
      </trkpt>
      <trkpt lat="45.97138" lon="4.85273">
        <ele>279</ele>
        <time>2017-08-14T08:39:38Z</time>
      </trkpt>
      <trkpt lat="45.97143" lon="4.85273">
        <ele>279</ele>
        <time>2017-08-14T08:39:39Z</time>
      </trkpt>
      <trkpt lat="45.97148" lon="4.85274">
        <ele>279</ele>
        <time>2017-08-14T08:39:40Z</time>
      </trkpt>
      <trkpt lat="45.97154" lon="4.85276">
        <ele>279</ele>
        <time>2017-08-14T08:39:41Z</time>
      </trkpt>
      <trkpt lat="45.9716" lon="4.85276">
        <ele>279</ele>
        <time>2017-08-14T08:39:42Z</time>
      </trkpt>
      <trkpt lat="45.97165" lon="4.85276">
        <ele>279</ele>
        <time>2017-08-14T08:39:43Z</time>
      </trkpt>
      <trkpt lat="45.97171" lon="4.85277">
        <ele>279</ele>
        <time>2017-08-14T08:39:44Z</time>
      </trkpt>
      <trkpt lat="45.97176" lon="4.85276">
        <ele>279</ele>
        <time>2017-08-14T08:39:45Z</time>
      </trkpt>
      <trkpt lat="45.97182" lon="4.85276">
        <ele>279</ele>
        <time>2017-08-14T08:39:46Z</time>
      </trkpt>
      <trkpt lat="45.97187" lon="4.85275">
        <ele>279</ele>
        <time>2017-08-14T08:39:47Z</time>
      </trkpt>
      <trkpt lat="45.97192" lon="4.85275">
        <ele>279</ele>
        <time>2017-08-14T08:39:48Z</time>
      </trkpt>
      <trkpt lat="45.97198" lon="4.85275">
        <ele>279</ele>
        <time>2017-08-14T08:39:49Z</time>
      </trkpt>
      <trkpt lat="45.97203" lon="4.85275">
        <ele>279</ele>
        <time>2017-08-14T08:39:50Z</time>
      </trkpt>
      <trkpt lat="45.97208" lon="4.85274">
        <ele>279</ele>
        <time>2017-08-14T08:39:51Z</time>
      </trkpt>
      <trkpt lat="45.97213" lon="4.85273">
        <ele>279</ele>
        <time>2017-08-14T08:39:52Z</time>
      </trkpt>
      <trkpt lat="45.97218" lon="4.85273">
        <ele>279</ele>
        <time>2017-08-14T08:39:53Z</time>
      </trkpt>
      <trkpt lat="45.97224" lon="4.85273">
        <ele>279</ele>
        <time>2017-08-14T08:39:54Z</time>
      </trkpt>
      <trkpt lat="45.97229" lon="4.85273">
        <ele>279</ele>
        <time>2017-08-14T08:39:55Z</time>
      </trkpt>
      <trkpt lat="45.97234" lon="4.85273">
        <ele>279</ele>
        <time>2017-08-14T08:39:56Z</time>
      </trkpt>
      <trkpt lat="45.97239" lon="4.85273">
        <ele>279</ele>
        <time>2017-08-14T08:39:57Z</time>
      </trkpt>
      <trkpt lat="45.97244" lon="4.85273">
        <ele>279</ele>
        <time>2017-08-14T08:39:58Z</time>
      </trkpt>
      <trkpt lat="45.97249" lon="4.85272">
        <ele>279</ele>
        <time>2017-08-14T08:39:59Z</time>
      </trkpt>
      <trkpt lat="45.97255" lon="4.85272">
        <ele>281</ele>
        <time>2017-08-14T08:40:00Z</time>
      </trkpt>
      <trkpt lat="45.9726" lon="4.85272">
        <ele>281</ele>
        <time>2017-08-14T08:40:01Z</time>
      </trkpt>
      <trkpt lat="45.97265" lon="4.85272">
        <ele>281</ele>
        <time>2017-08-14T08:40:02Z</time>
      </trkpt>
      <trkpt lat="45.97271" lon="4.85272">
        <ele>281</ele>
        <time>2017-08-14T08:40:03Z</time>
      </trkpt>
      <trkpt lat="45.97276" lon="4.85273">
        <ele>281</ele>
        <time>2017-08-14T08:40:04Z</time>
      </trkpt>
      <trkpt lat="45.97281" lon="4.85273">
        <ele>281</ele>
        <time>2017-08-14T08:40:05Z</time>
      </trkpt>
      <trkpt lat="45.97285" lon="4.85273">
        <ele>281</ele>
        <time>2017-08-14T08:40:06Z</time>
      </trkpt>
      <trkpt lat="45.9729" lon="4.85272">
        <ele>282</ele>
        <time>2017-08-14T08:40:07Z</time>
      </trkpt>
      <trkpt lat="45.97295" lon="4.85273">
        <ele>282</ele>
        <time>2017-08-14T08:40:08Z</time>
      </trkpt>
      <trkpt lat="45.97299" lon="4.85272">
        <ele>282</ele>
        <time>2017-08-14T08:40:09Z</time>
      </trkpt>
      <trkpt lat="45.97304" lon="4.85272">
        <ele>282</ele>
        <time>2017-08-14T08:40:10Z</time>
      </trkpt>
      <trkpt lat="45.97309" lon="4.85273">
        <ele>282</ele>
        <time>2017-08-14T08:40:11Z</time>
      </trkpt>
      <trkpt lat="45.97314" lon="4.85273">
        <ele>282</ele>
        <time>2017-08-14T08:40:12Z</time>
      </trkpt>
      <trkpt lat="45.97319" lon="4.85273">
        <ele>282</ele>
        <time>2017-08-14T08:40:13Z</time>
      </trkpt>
      <trkpt lat="45.97324" lon="4.85273">
        <ele>282</ele>
        <time>2017-08-14T08:40:14Z</time>
      </trkpt>
      <trkpt lat="45.97332" lon="4.85273">
        <ele>282</ele>
        <time>2017-08-14T08:40:16Z</time>
      </trkpt>
      <trkpt lat="45.97337" lon="4.85274">
        <ele>284</ele>
        <time>2017-08-14T08:40:17Z</time>
      </trkpt>
      <trkpt lat="45.97342" lon="4.85274">
        <ele>284</ele>
        <time>2017-08-14T08:40:18Z</time>
      </trkpt>
      <trkpt lat="45.97347" lon="4.85273">
        <ele>284</ele>
        <time>2017-08-14T08:40:19Z</time>
      </trkpt>
      <trkpt lat="45.97352" lon="4.85273">
        <ele>284</ele>
        <time>2017-08-14T08:40:20Z</time>
      </trkpt>
      <trkpt lat="45.97356" lon="4.85273">
        <ele>284</ele>
        <time>2017-08-14T08:40:21Z</time>
      </trkpt>
      <trkpt lat="45.97364" lon="4.85272">
        <ele>285</ele>
        <time>2017-08-14T08:40:23Z</time>
      </trkpt>
      <trkpt lat="45.97367" lon="4.85272">
        <ele>285</ele>
        <time>2017-08-14T08:40:24Z</time>
      </trkpt>
      <trkpt lat="45.97375" lon="4.85273">
        <ele>285</ele>
        <time>2017-08-14T08:40:26Z</time>
      </trkpt>
      <trkpt lat="45.9738" lon="4.85273">
        <ele>285</ele>
        <time>2017-08-14T08:40:27Z</time>
      </trkpt>
      <trkpt lat="45.97384" lon="4.85274">
        <ele>285</ele>
        <time>2017-08-14T08:40:28Z</time>
      </trkpt>
      <trkpt lat="45.97389" lon="4.85274">
        <ele>285</ele>
        <time>2017-08-14T08:40:29Z</time>
      </trkpt>
      <trkpt lat="45.97394" lon="4.85273">
        <ele>286</ele>
        <time>2017-08-14T08:40:30Z</time>
      </trkpt>
      <trkpt lat="45.97398" lon="4.85274">
        <ele>286</ele>
        <time>2017-08-14T08:40:31Z</time>
      </trkpt>
      <trkpt lat="45.97403" lon="4.85275">
        <ele>286</ele>
        <time>2017-08-14T08:40:32Z</time>
      </trkpt>
      <trkpt lat="45.97409" lon="4.85275">
        <ele>286</ele>
        <time>2017-08-14T08:40:33Z</time>
      </trkpt>
      <trkpt lat="45.97413" lon="4.85275">
        <ele>286</ele>
        <time>2017-08-14T08:40:34Z</time>
      </trkpt>
      <trkpt lat="45.97418" lon="4.85276">
        <ele>285</ele>
        <time>2017-08-14T08:40:35Z</time>
      </trkpt>
      <trkpt lat="45.97423" lon="4.85275">
        <ele>285</ele>
        <time>2017-08-14T08:40:36Z</time>
      </trkpt>
      <trkpt lat="45.97427" lon="4.85274">
        <ele>285</ele>
        <time>2017-08-14T08:40:37Z</time>
      </trkpt>
      <trkpt lat="45.97432" lon="4.85274">
        <ele>285</ele>
        <time>2017-08-14T08:40:38Z</time>
      </trkpt>
      <trkpt lat="45.97437" lon="4.85275">
        <ele>285</ele>
        <time>2017-08-14T08:40:39Z</time>
      </trkpt>
      <trkpt lat="45.97442" lon="4.85276">
        <ele>285</ele>
        <time>2017-08-14T08:40:40Z</time>
      </trkpt>
      <trkpt lat="45.97448" lon="4.85275">
        <ele>285</ele>
        <time>2017-08-14T08:40:41Z</time>
      </trkpt>
      <trkpt lat="45.97453" lon="4.85275">
        <ele>284</ele>
        <time>2017-08-14T08:40:42Z</time>
      </trkpt>
      <trkpt lat="45.97459" lon="4.85276">
        <ele>284</ele>
        <time>2017-08-14T08:40:43Z</time>
      </trkpt>
      <trkpt lat="45.97465" lon="4.85276">
        <ele>284</ele>
        <time>2017-08-14T08:40:44Z</time>
      </trkpt>
      <trkpt lat="45.97471" lon="4.85277">
        <ele>284</ele>
        <time>2017-08-14T08:40:45Z</time>
      </trkpt>
      <trkpt lat="45.97476" lon="4.85275">
        <ele>284</ele>
        <time>2017-08-14T08:40:46Z</time>
      </trkpt>
      <trkpt lat="45.97483" lon="4.85274">
        <ele>284</ele>
        <time>2017-08-14T08:40:47Z</time>
      </trkpt>
      <trkpt lat="45.9749" lon="4.85276">
        <ele>283</ele>
        <time>2017-08-14T08:40:48Z</time>
      </trkpt>
      <trkpt lat="45.97497" lon="4.85275">
        <ele>283</ele>
        <time>2017-08-14T08:40:49Z</time>
      </trkpt>
      <trkpt lat="45.97504" lon="4.85275">
        <ele>281</ele>
        <time>2017-08-14T08:40:50Z</time>
      </trkpt>
      <trkpt lat="45.9751" lon="4.85275">
        <ele>281</ele>
        <time>2017-08-14T08:40:51Z</time>
      </trkpt>
      <trkpt lat="45.97516" lon="4.85274">
        <ele>281</ele>
        <time>2017-08-14T08:40:52Z</time>
      </trkpt>
      <trkpt lat="45.97522" lon="4.85274">
        <ele>281</ele>
        <time>2017-08-14T08:40:53Z</time>
      </trkpt>
      <trkpt lat="45.97528" lon="4.85273">
        <ele>281</ele>
        <time>2017-08-14T08:40:54Z</time>
      </trkpt>
      <trkpt lat="45.97534" lon="4.85272">
        <ele>281</ele>
        <time>2017-08-14T08:40:55Z</time>
      </trkpt>
      <trkpt lat="45.9754" lon="4.85271">
        <ele>281</ele>
        <time>2017-08-14T08:40:56Z</time>
      </trkpt>
      <trkpt lat="45.97546" lon="4.85269">
        <ele>281</ele>
        <time>2017-08-14T08:40:57Z</time>
      </trkpt>
      <trkpt lat="45.97551" lon="4.85269">
        <ele>281</ele>
        <time>2017-08-14T08:40:58Z</time>
      </trkpt>
      <trkpt lat="45.97557" lon="4.85268">
        <ele>281</ele>
        <time>2017-08-14T08:40:59Z</time>
      </trkpt>
      <trkpt lat="45.97563" lon="4.85267">
        <ele>281</ele>
        <time>2017-08-14T08:41:00Z</time>
      </trkpt>
      <trkpt lat="45.97568" lon="4.85266">
        <ele>281</ele>
        <time>2017-08-14T08:41:01Z</time>
      </trkpt>
      <trkpt lat="45.97574" lon="4.85265">
        <ele>281</ele>
        <time>2017-08-14T08:41:02Z</time>
      </trkpt>
      <trkpt lat="45.9758" lon="4.85264">
        <ele>281</ele>
        <time>2017-08-14T08:41:03Z</time>
      </trkpt>
      <trkpt lat="45.97586" lon="4.85264">
        <ele>280</ele>
        <time>2017-08-14T08:41:04Z</time>
      </trkpt>
      <trkpt lat="45.97592" lon="4.85263">
        <ele>280</ele>
        <time>2017-08-14T08:41:05Z</time>
      </trkpt>
      <trkpt lat="45.97598" lon="4.85261">
        <ele>280</ele>
        <time>2017-08-14T08:41:06Z</time>
      </trkpt>
      <trkpt lat="45.97604" lon="4.8526">
        <ele>279</ele>
        <time>2017-08-14T08:41:07Z</time>
      </trkpt>
      <trkpt lat="45.97611" lon="4.85259">
        <ele>279</ele>
        <time>2017-08-14T08:41:08Z</time>
      </trkpt>
      <trkpt lat="45.97617" lon="4.85258">
        <ele>279</ele>
        <time>2017-08-14T08:41:09Z</time>
      </trkpt>
      <trkpt lat="45.97623" lon="4.85257">
        <ele>278</ele>
        <time>2017-08-14T08:41:10Z</time>
      </trkpt>
      <trkpt lat="45.9763" lon="4.85255">
        <ele>278</ele>
        <time>2017-08-14T08:41:11Z</time>
      </trkpt>
      <trkpt lat="45.97636" lon="4.85254">
        <ele>278</ele>
        <time>2017-08-14T08:41:12Z</time>
      </trkpt>
      <trkpt lat="45.97642" lon="4.85253">
        <ele>278</ele>
        <time>2017-08-14T08:41:13Z</time>
      </trkpt>
      <trkpt lat="45.97648" lon="4.85251">
        <ele>277</ele>
        <time>2017-08-14T08:41:14Z</time>
      </trkpt>
      <trkpt lat="45.97654" lon="4.8525">
        <ele>277</ele>
        <time>2017-08-14T08:41:15Z</time>
      </trkpt>
      <trkpt lat="45.9766" lon="4.85249">
        <ele>277</ele>
        <time>2017-08-14T08:41:16Z</time>
      </trkpt>
      <trkpt lat="45.97666" lon="4.85249">
        <ele>276</ele>
        <time>2017-08-14T08:41:17Z</time>
      </trkpt>
      <trkpt lat="45.97672" lon="4.85248">
        <ele>276</ele>
        <time>2017-08-14T08:41:18Z</time>
      </trkpt>
      <trkpt lat="45.97677" lon="4.85248">
        <ele>276</ele>
        <time>2017-08-14T08:41:19Z</time>
      </trkpt>
      <trkpt lat="45.97683" lon="4.85248">
        <ele>276</ele>
        <time>2017-08-14T08:41:20Z</time>
      </trkpt>
      <trkpt lat="45.97689" lon="4.85247">
        <ele>276</ele>
        <time>2017-08-14T08:41:21Z</time>
      </trkpt>
      <trkpt lat="45.97694" lon="4.85247">
        <ele>275</ele>
        <time>2017-08-14T08:41:22Z</time>
      </trkpt>
      <trkpt lat="45.977" lon="4.85247">
        <ele>275</ele>
        <time>2017-08-14T08:41:23Z</time>
      </trkpt>
      <trkpt lat="45.97705" lon="4.85246">
        <ele>275</ele>
        <time>2017-08-14T08:41:24Z</time>
      </trkpt>
      <trkpt lat="45.97711" lon="4.85246">
        <ele>275</ele>
        <time>2017-08-14T08:41:25Z</time>
      </trkpt>
      <trkpt lat="45.97716" lon="4.85246">
        <ele>275</ele>
        <time>2017-08-14T08:41:26Z</time>
      </trkpt>
      <trkpt lat="45.97723" lon="4.85244">
        <ele>275</ele>
        <time>2017-08-14T08:41:27Z</time>
      </trkpt>
      <trkpt lat="45.97729" lon="4.85243">
        <ele>275</ele>
        <time>2017-08-14T08:41:28Z</time>
      </trkpt>
      <trkpt lat="45.97735" lon="4.85242">
        <ele>275</ele>
        <time>2017-08-14T08:41:29Z</time>
      </trkpt>
      <trkpt lat="45.97742" lon="4.8524">
        <ele>274</ele>
        <time>2017-08-14T08:41:30Z</time>
      </trkpt>
      <trkpt lat="45.97748" lon="4.85239">
        <ele>274</ele>
        <time>2017-08-14T08:41:31Z</time>
      </trkpt>
      <trkpt lat="45.97754" lon="4.85239">
        <ele>274</ele>
        <time>2017-08-14T08:41:32Z</time>
      </trkpt>
      <trkpt lat="45.9776" lon="4.85239">
        <ele>274</ele>
        <time>2017-08-14T08:41:33Z</time>
      </trkpt>
      <trkpt lat="45.97765" lon="4.85238">
        <ele>274</ele>
        <time>2017-08-14T08:41:34Z</time>
      </trkpt>
      <trkpt lat="45.97771" lon="4.85239">
        <ele>274</ele>
        <time>2017-08-14T08:41:35Z</time>
      </trkpt>
      <trkpt lat="45.97776" lon="4.85239">
        <ele>274</ele>
        <time>2017-08-14T08:41:36Z</time>
      </trkpt>
      <trkpt lat="45.97781" lon="4.85239">
        <ele>274</ele>
        <time>2017-08-14T08:41:37Z</time>
      </trkpt>
      <trkpt lat="45.97786" lon="4.85238">
        <ele>274</ele>
        <time>2017-08-14T08:41:38Z</time>
      </trkpt>
      <trkpt lat="45.97791" lon="4.85236">
        <ele>274</ele>
        <time>2017-08-14T08:41:39Z</time>
      </trkpt>
      <trkpt lat="45.97796" lon="4.85235">
        <ele>274</ele>
        <time>2017-08-14T08:41:40Z</time>
      </trkpt>
      <trkpt lat="45.97801" lon="4.85235">
        <ele>274</ele>
        <time>2017-08-14T08:41:41Z</time>
      </trkpt>
      <trkpt lat="45.97806" lon="4.85235">
        <ele>274</ele>
        <time>2017-08-14T08:41:42Z</time>
      </trkpt>
      <trkpt lat="45.97812" lon="4.85235">
        <ele>274</ele>
        <time>2017-08-14T08:41:43Z</time>
      </trkpt>
      <trkpt lat="45.97818" lon="4.85234">
        <ele>275</ele>
        <time>2017-08-14T08:41:44Z</time>
      </trkpt>
      <trkpt lat="45.97824" lon="4.85234">
        <ele>275</ele>
        <time>2017-08-14T08:41:45Z</time>
      </trkpt>
      <trkpt lat="45.9783" lon="4.85234">
        <ele>275</ele>
        <time>2017-08-14T08:41:46Z</time>
      </trkpt>
      <trkpt lat="45.97837" lon="4.85233">
        <ele>275</ele>
        <time>2017-08-14T08:41:47Z</time>
      </trkpt>
      <trkpt lat="45.97844" lon="4.85232">
        <ele>275</ele>
        <time>2017-08-14T08:41:48Z</time>
      </trkpt>
      <trkpt lat="45.97851" lon="4.85231">
        <ele>275</ele>
        <time>2017-08-14T08:41:49Z</time>
      </trkpt>
      <trkpt lat="45.97858" lon="4.8523">
        <ele>275</ele>
        <time>2017-08-14T08:41:50Z</time>
      </trkpt>
      <trkpt lat="45.97864" lon="4.85231">
        <ele>275</ele>
        <time>2017-08-14T08:41:51Z</time>
      </trkpt>
      <trkpt lat="45.97871" lon="4.8523">
        <ele>275</ele>
        <time>2017-08-14T08:41:52Z</time>
      </trkpt>
      <trkpt lat="45.97877" lon="4.85229">
        <ele>275</ele>
        <time>2017-08-14T08:41:53Z</time>
      </trkpt>
      <trkpt lat="45.97883" lon="4.85228">
        <ele>275</ele>
        <time>2017-08-14T08:41:54Z</time>
      </trkpt>
      <trkpt lat="45.97889" lon="4.85228">
        <ele>275</ele>
        <time>2017-08-14T08:41:55Z</time>
      </trkpt>
      <trkpt lat="45.97895" lon="4.85227">
        <ele>275</ele>
        <time>2017-08-14T08:41:56Z</time>
      </trkpt>
      <trkpt lat="45.97901" lon="4.85227">
        <ele>275</ele>
        <time>2017-08-14T08:41:57Z</time>
      </trkpt>
      <trkpt lat="45.97907" lon="4.85226">
        <ele>275</ele>
        <time>2017-08-14T08:41:58Z</time>
      </trkpt>
      <trkpt lat="45.97913" lon="4.85226">
        <ele>275</ele>
        <time>2017-08-14T08:41:59Z</time>
      </trkpt>
      <trkpt lat="45.97918" lon="4.85225">
        <ele>276</ele>
        <time>2017-08-14T08:42:00Z</time>
      </trkpt>
      <trkpt lat="45.97924" lon="4.85225">
        <ele>276</ele>
        <time>2017-08-14T08:42:01Z</time>
      </trkpt>
      <trkpt lat="45.9793" lon="4.85225">
        <ele>276</ele>
        <time>2017-08-14T08:42:02Z</time>
      </trkpt>
      <trkpt lat="45.97935" lon="4.85224">
        <ele>276</ele>
        <time>2017-08-14T08:42:03Z</time>
      </trkpt>
      <trkpt lat="45.97941" lon="4.85224">
        <ele>276</ele>
        <time>2017-08-14T08:42:04Z</time>
      </trkpt>
      <trkpt lat="45.97946" lon="4.85223">
        <ele>276</ele>
        <time>2017-08-14T08:42:05Z</time>
      </trkpt>
      <trkpt lat="45.97952" lon="4.85222">
        <ele>276</ele>
        <time>2017-08-14T08:42:06Z</time>
      </trkpt>
      <trkpt lat="45.97958" lon="4.85221">
        <ele>276</ele>
        <time>2017-08-14T08:42:07Z</time>
      </trkpt>
      <trkpt lat="45.97964" lon="4.85221">
        <ele>276</ele>
        <time>2017-08-14T08:42:08Z</time>
      </trkpt>
      <trkpt lat="45.97971" lon="4.8522">
        <ele>276</ele>
        <time>2017-08-14T08:42:09Z</time>
      </trkpt>
      <trkpt lat="45.97977" lon="4.8522">
        <ele>276</ele>
        <time>2017-08-14T08:42:10Z</time>
      </trkpt>
      <trkpt lat="45.97983" lon="4.85219">
        <ele>276</ele>
        <time>2017-08-14T08:42:11Z</time>
      </trkpt>
      <trkpt lat="45.97989" lon="4.85218">
        <ele>276</ele>
        <time>2017-08-14T08:42:12Z</time>
      </trkpt>
      <trkpt lat="45.97995" lon="4.85218">
        <ele>276</ele>
        <time>2017-08-14T08:42:13Z</time>
      </trkpt>
      <trkpt lat="45.98001" lon="4.85217">
        <ele>276</ele>
        <time>2017-08-14T08:42:14Z</time>
      </trkpt>
      <trkpt lat="45.98006" lon="4.85217">
        <ele>276</ele>
        <time>2017-08-14T08:42:15Z</time>
      </trkpt>
      <trkpt lat="45.98012" lon="4.85216">
        <ele>276</ele>
        <time>2017-08-14T08:42:16Z</time>
      </trkpt>
      <trkpt lat="45.98017" lon="4.85216">
        <ele>276</ele>
        <time>2017-08-14T08:42:17Z</time>
      </trkpt>
      <trkpt lat="45.98022" lon="4.85216">
        <ele>276</ele>
        <time>2017-08-14T08:42:18Z</time>
      </trkpt>
      <trkpt lat="45.98028" lon="4.85215">
        <ele>276</ele>
        <time>2017-08-14T08:42:19Z</time>
      </trkpt>
      <trkpt lat="45.98033" lon="4.85214">
        <ele>276</ele>
        <time>2017-08-14T08:42:20Z</time>
      </trkpt>
      <trkpt lat="45.98039" lon="4.85213">
        <ele>276</ele>
        <time>2017-08-14T08:42:21Z</time>
      </trkpt>
      <trkpt lat="45.98045" lon="4.85213">
        <ele>276</ele>
        <time>2017-08-14T08:42:22Z</time>
      </trkpt>
      <trkpt lat="45.98051" lon="4.85213">
        <ele>276</ele>
        <time>2017-08-14T08:42:23Z</time>
      </trkpt>
      <trkpt lat="45.98057" lon="4.85213">
        <ele>276</ele>
        <time>2017-08-14T08:42:24Z</time>
      </trkpt>
      <trkpt lat="45.98062" lon="4.85212">
        <ele>276</ele>
        <time>2017-08-14T08:42:25Z</time>
      </trkpt>
      <trkpt lat="45.98067" lon="4.85212">
        <ele>276</ele>
        <time>2017-08-14T08:42:26Z</time>
      </trkpt>
      <trkpt lat="45.98073" lon="4.85212">
        <ele>276</ele>
        <time>2017-08-14T08:42:27Z</time>
      </trkpt>
      <trkpt lat="45.98078" lon="4.85211">
        <ele>276</ele>
        <time>2017-08-14T08:42:28Z</time>
      </trkpt>
      <trkpt lat="45.98083" lon="4.8521">
        <ele>276</ele>
        <time>2017-08-14T08:42:29Z</time>
      </trkpt>
      <trkpt lat="45.98088" lon="4.8521">
        <ele>275</ele>
        <time>2017-08-14T08:42:30Z</time>
      </trkpt>
      <trkpt lat="45.98093" lon="4.85209">
        <ele>275</ele>
        <time>2017-08-14T08:42:31Z</time>
      </trkpt>
      <trkpt lat="45.98099" lon="4.85209">
        <ele>275</ele>
        <time>2017-08-14T08:42:32Z</time>
      </trkpt>
      <trkpt lat="45.98105" lon="4.85208">
        <ele>275</ele>
        <time>2017-08-14T08:42:33Z</time>
      </trkpt>
      <trkpt lat="45.98111" lon="4.85207">
        <ele>275</ele>
        <time>2017-08-14T08:42:34Z</time>
      </trkpt>
      <trkpt lat="45.98117" lon="4.85207">
        <ele>275</ele>
        <time>2017-08-14T08:42:35Z</time>
      </trkpt>
      <trkpt lat="45.98123" lon="4.85206">
        <ele>275</ele>
        <time>2017-08-14T08:42:36Z</time>
      </trkpt>
      <trkpt lat="45.98129" lon="4.85206">
        <ele>275</ele>
        <time>2017-08-14T08:42:37Z</time>
      </trkpt>
      <trkpt lat="45.98135" lon="4.85205">
        <ele>275</ele>
        <time>2017-08-14T08:42:38Z</time>
      </trkpt>
      <trkpt lat="45.98141" lon="4.85205">
        <ele>275</ele>
        <time>2017-08-14T08:42:39Z</time>
      </trkpt>
      <trkpt lat="45.98147" lon="4.85204">
        <ele>275</ele>
        <time>2017-08-14T08:42:40Z</time>
      </trkpt>
      <trkpt lat="45.98152" lon="4.85203">
        <ele>275</ele>
        <time>2017-08-14T08:42:41Z</time>
      </trkpt>
      <trkpt lat="45.98158" lon="4.85203">
        <ele>274</ele>
        <time>2017-08-14T08:42:42Z</time>
      </trkpt>
      <trkpt lat="45.98164" lon="4.85203">
        <ele>274</ele>
        <time>2017-08-14T08:42:43Z</time>
      </trkpt>
      <trkpt lat="45.9817" lon="4.85202">
        <ele>274</ele>
        <time>2017-08-14T08:42:44Z</time>
      </trkpt>
      <trkpt lat="45.98177" lon="4.85202">
        <ele>274</ele>
        <time>2017-08-14T08:42:45Z</time>
      </trkpt>
      <trkpt lat="45.98183" lon="4.85201">
        <ele>274</ele>
        <time>2017-08-14T08:42:46Z</time>
      </trkpt>
      <trkpt lat="45.98189" lon="4.852">
        <ele>274</ele>
        <time>2017-08-14T08:42:47Z</time>
      </trkpt>
      <trkpt lat="45.98195" lon="4.852">
        <ele>274</ele>
        <time>2017-08-14T08:42:48Z</time>
      </trkpt>
      <trkpt lat="45.98202" lon="4.85199">
        <ele>274</ele>
        <time>2017-08-14T08:42:49Z</time>
      </trkpt>
      <trkpt lat="45.98208" lon="4.85199">
        <ele>274</ele>
        <time>2017-08-14T08:42:50Z</time>
      </trkpt>
      <trkpt lat="45.98213" lon="4.85198">
        <ele>274</ele>
        <time>2017-08-14T08:42:51Z</time>
      </trkpt>
      <trkpt lat="45.98219" lon="4.85197">
        <ele>274</ele>
        <time>2017-08-14T08:42:52Z</time>
      </trkpt>
      <trkpt lat="45.98225" lon="4.85196">
        <ele>274</ele>
        <time>2017-08-14T08:42:53Z</time>
      </trkpt>
      <trkpt lat="45.98231" lon="4.85195">
        <ele>274</ele>
        <time>2017-08-14T08:42:54Z</time>
      </trkpt>
      <trkpt lat="45.98236" lon="4.85194">
        <ele>274</ele>
        <time>2017-08-14T08:42:55Z</time>
      </trkpt>
      <trkpt lat="45.98242" lon="4.85194">
        <ele>274</ele>
        <time>2017-08-14T08:42:56Z</time>
      </trkpt>
      <trkpt lat="45.98248" lon="4.85193">
        <ele>274</ele>
        <time>2017-08-14T08:42:57Z</time>
      </trkpt>
      <trkpt lat="45.98254" lon="4.85193">
        <ele>274</ele>
        <time>2017-08-14T08:42:58Z</time>
      </trkpt>
      <trkpt lat="45.98259" lon="4.85192">
        <ele>274</ele>
        <time>2017-08-14T08:42:59Z</time>
      </trkpt>
      <trkpt lat="45.98265" lon="4.85192">
        <ele>274</ele>
        <time>2017-08-14T08:43:00Z</time>
      </trkpt>
      <trkpt lat="45.9827" lon="4.85191">
        <ele>274</ele>
        <time>2017-08-14T08:43:01Z</time>
      </trkpt>
      <trkpt lat="45.98275" lon="4.85191">
        <ele>274</ele>
        <time>2017-08-14T08:43:02Z</time>
      </trkpt>
      <trkpt lat="45.98281" lon="4.85191">
        <ele>274</ele>
        <time>2017-08-14T08:43:03Z</time>
      </trkpt>
      <trkpt lat="45.98287" lon="4.85191">
        <ele>274</ele>
        <time>2017-08-14T08:43:04Z</time>
      </trkpt>
      <trkpt lat="45.98293" lon="4.8519">
        <ele>274</ele>
        <time>2017-08-14T08:43:05Z</time>
      </trkpt>
      <trkpt lat="45.98299" lon="4.85189">
        <ele>274</ele>
        <time>2017-08-14T08:43:06Z</time>
      </trkpt>
      <trkpt lat="45.98305" lon="4.85188">
        <ele>274</ele>
        <time>2017-08-14T08:43:07Z</time>
      </trkpt>
      <trkpt lat="45.98311" lon="4.85187">
        <ele>274</ele>
        <time>2017-08-14T08:43:08Z</time>
      </trkpt>
      <trkpt lat="45.98317" lon="4.85187">
        <ele>274</ele>
        <time>2017-08-14T08:43:09Z</time>
      </trkpt>
      <trkpt lat="45.98323" lon="4.85186">
        <ele>274</ele>
        <time>2017-08-14T08:43:10Z</time>
      </trkpt>
      <trkpt lat="45.98329" lon="4.85186">
        <ele>274</ele>
        <time>2017-08-14T08:43:11Z</time>
      </trkpt>
      <trkpt lat="45.98334" lon="4.85186">
        <ele>275</ele>
        <time>2017-08-14T08:43:12Z</time>
      </trkpt>
      <trkpt lat="45.9834" lon="4.85185">
        <ele>275</ele>
        <time>2017-08-14T08:43:13Z</time>
      </trkpt>
      <trkpt lat="45.98346" lon="4.85184">
        <ele>275</ele>
        <time>2017-08-14T08:43:14Z</time>
      </trkpt>
      <trkpt lat="45.98351" lon="4.85183">
        <ele>275</ele>
        <time>2017-08-14T08:43:15Z</time>
      </trkpt>
      <trkpt lat="45.98357" lon="4.85182">
        <ele>275</ele>
        <time>2017-08-14T08:43:16Z</time>
      </trkpt>
      <trkpt lat="45.98362" lon="4.85181">
        <ele>275</ele>
        <time>2017-08-14T08:43:17Z</time>
      </trkpt>
      <trkpt lat="45.98368" lon="4.85181">
        <ele>275</ele>
        <time>2017-08-14T08:43:18Z</time>
      </trkpt>
      <trkpt lat="45.98374" lon="4.8518">
        <ele>275</ele>
        <time>2017-08-14T08:43:19Z</time>
      </trkpt>
      <trkpt lat="45.9838" lon="4.8518">
        <ele>275</ele>
        <time>2017-08-14T08:43:20Z</time>
      </trkpt>
      <trkpt lat="45.98386" lon="4.85179">
        <ele>275</ele>
        <time>2017-08-14T08:43:21Z</time>
      </trkpt>
      <trkpt lat="45.98394" lon="4.85179">
        <ele>275</ele>
        <time>2017-08-14T08:43:22Z</time>
      </trkpt>
      <trkpt lat="45.98401" lon="4.85178">
        <ele>275</ele>
        <time>2017-08-14T08:43:23Z</time>
      </trkpt>
      <trkpt lat="45.98408" lon="4.85178">
        <ele>276</ele>
        <time>2017-08-14T08:43:24Z</time>
      </trkpt>
      <trkpt lat="45.98415" lon="4.85177">
        <ele>276</ele>
        <time>2017-08-14T08:43:25Z</time>
      </trkpt>
      <trkpt lat="45.98422" lon="4.85177">
        <ele>275</ele>
        <time>2017-08-14T08:43:26Z</time>
      </trkpt>
      <trkpt lat="45.98429" lon="4.85177">
        <ele>275</ele>
        <time>2017-08-14T08:43:27Z</time>
      </trkpt>
      <trkpt lat="45.98436" lon="4.85176">
        <ele>275</ele>
        <time>2017-08-14T08:43:28Z</time>
      </trkpt>
      <trkpt lat="45.98443" lon="4.85176">
        <ele>275</ele>
        <time>2017-08-14T08:43:29Z</time>
      </trkpt>
      <trkpt lat="45.9845" lon="4.85176">
        <ele>275</ele>
        <time>2017-08-14T08:43:30Z</time>
      </trkpt>
      <trkpt lat="45.98456" lon="4.85175">
        <ele>275</ele>
        <time>2017-08-14T08:43:31Z</time>
      </trkpt>
      <trkpt lat="45.98462" lon="4.85175">
        <ele>275</ele>
        <time>2017-08-14T08:43:32Z</time>
      </trkpt>
      <trkpt lat="45.98468" lon="4.85174">
        <ele>275</ele>
        <time>2017-08-14T08:43:33Z</time>
      </trkpt>
      <trkpt lat="45.98474" lon="4.85174">
        <ele>275</ele>
        <time>2017-08-14T08:43:34Z</time>
      </trkpt>
      <trkpt lat="45.9848" lon="4.85173">
        <ele>275</ele>
        <time>2017-08-14T08:43:35Z</time>
      </trkpt>
      <trkpt lat="45.98486" lon="4.85172">
        <ele>275</ele>
        <time>2017-08-14T08:43:36Z</time>
      </trkpt>
      <trkpt lat="45.98492" lon="4.8517">
        <ele>275</ele>
        <time>2017-08-14T08:43:37Z</time>
      </trkpt>
      <trkpt lat="45.98497" lon="4.85169">
        <ele>275</ele>
        <time>2017-08-14T08:43:38Z</time>
      </trkpt>
      <trkpt lat="45.98503" lon="4.85167">
        <ele>275</ele>
        <time>2017-08-14T08:43:39Z</time>
      </trkpt>
      <trkpt lat="45.98509" lon="4.85167">
        <ele>275</ele>
        <time>2017-08-14T08:43:40Z</time>
      </trkpt>
      <trkpt lat="45.98514" lon="4.85166">
        <ele>275</ele>
        <time>2017-08-14T08:43:41Z</time>
      </trkpt>
      <trkpt lat="45.98519" lon="4.85165">
        <ele>275</ele>
        <time>2017-08-14T08:43:42Z</time>
      </trkpt>
      <trkpt lat="45.98524" lon="4.85165">
        <ele>275</ele>
        <time>2017-08-14T08:43:43Z</time>
      </trkpt>
      <trkpt lat="45.9853" lon="4.85163">
        <ele>274</ele>
        <time>2017-08-14T08:43:44Z</time>
      </trkpt>
      <trkpt lat="45.98535" lon="4.85162">
        <ele>274</ele>
        <time>2017-08-14T08:43:45Z</time>
      </trkpt>
      <trkpt lat="45.9854" lon="4.8516">
        <ele>274</ele>
        <time>2017-08-14T08:43:46Z</time>
      </trkpt>
      <trkpt lat="45.98545" lon="4.85158">
        <ele>274</ele>
        <time>2017-08-14T08:43:47Z</time>
      </trkpt>
      <trkpt lat="45.9855" lon="4.85156">
        <ele>274</ele>
        <time>2017-08-14T08:43:48Z</time>
      </trkpt>
      <trkpt lat="45.98555" lon="4.85154">
        <ele>274</ele>
        <time>2017-08-14T08:43:49Z</time>
      </trkpt>
      <trkpt lat="45.9856" lon="4.85153">
        <ele>274</ele>
        <time>2017-08-14T08:43:50Z</time>
      </trkpt>
      <trkpt lat="45.98565" lon="4.8515">
        <ele>274</ele>
        <time>2017-08-14T08:43:51Z</time>
      </trkpt>
      <trkpt lat="45.9857" lon="4.85147">
        <ele>274</ele>
        <time>2017-08-14T08:43:52Z</time>
      </trkpt>
      <trkpt lat="45.98575" lon="4.85145">
        <ele>273</ele>
        <time>2017-08-14T08:43:53Z</time>
      </trkpt>
      <trkpt lat="45.9858" lon="4.85142">
        <ele>274</ele>
        <time>2017-08-14T08:43:54Z</time>
      </trkpt>
      <trkpt lat="45.98585" lon="4.8514">
        <ele>272</ele>
        <time>2017-08-14T08:43:55Z</time>
      </trkpt>
      <trkpt lat="45.9859" lon="4.85137">
        <ele>272</ele>
        <time>2017-08-14T08:43:56Z</time>
      </trkpt>
      <trkpt lat="45.98595" lon="4.85134">
        <ele>272</ele>
        <time>2017-08-14T08:43:57Z</time>
      </trkpt>
      <trkpt lat="45.986" lon="4.85133">
        <ele>272</ele>
        <time>2017-08-14T08:43:58Z</time>
      </trkpt>
      <trkpt lat="45.98605" lon="4.85131">
        <ele>272</ele>
        <time>2017-08-14T08:43:59Z</time>
      </trkpt>
      <trkpt lat="45.9861" lon="4.85129">
        <ele>272</ele>
        <time>2017-08-14T08:44:00Z</time>
      </trkpt>
      <trkpt lat="45.98616" lon="4.85126">
        <ele>272</ele>
        <time>2017-08-14T08:44:01Z</time>
      </trkpt>
      <trkpt lat="45.98621" lon="4.85123">
        <ele>272</ele>
        <time>2017-08-14T08:44:02Z</time>
      </trkpt>
      <trkpt lat="45.98626" lon="4.85121">
        <ele>272</ele>
        <time>2017-08-14T08:44:03Z</time>
      </trkpt>
      <trkpt lat="45.98632" lon="4.85118">
        <ele>272</ele>
        <time>2017-08-14T08:44:04Z</time>
      </trkpt>
      <trkpt lat="45.98638" lon="4.85116">
        <ele>272</ele>
        <time>2017-08-14T08:44:05Z</time>
      </trkpt>
      <trkpt lat="45.98644" lon="4.85113">
        <ele>272</ele>
        <time>2017-08-14T08:44:06Z</time>
      </trkpt>
      <trkpt lat="45.98651" lon="4.8511">
        <ele>271</ele>
        <time>2017-08-14T08:44:07Z</time>
      </trkpt>
      <trkpt lat="45.98657" lon="4.85108">
        <ele>271</ele>
        <time>2017-08-14T08:44:08Z</time>
      </trkpt>
      <trkpt lat="45.98663" lon="4.85104">
        <ele>271</ele>
        <time>2017-08-14T08:44:09Z</time>
      </trkpt>
      <trkpt lat="45.9867" lon="4.85102">
        <ele>270</ele>
        <time>2017-08-14T08:44:10Z</time>
      </trkpt>
      <trkpt lat="45.98676" lon="4.85099">
        <ele>270</ele>
        <time>2017-08-14T08:44:11Z</time>
      </trkpt>
      <trkpt lat="45.98682" lon="4.85095">
        <ele>270</ele>
        <time>2017-08-14T08:44:12Z</time>
      </trkpt>
      <trkpt lat="45.98689" lon="4.85092">
        <ele>270</ele>
        <time>2017-08-14T08:44:13Z</time>
      </trkpt>
      <trkpt lat="45.98695" lon="4.85088">
        <ele>270</ele>
        <time>2017-08-14T08:44:14Z</time>
      </trkpt>
      <trkpt lat="45.98702" lon="4.85084">
        <ele>270</ele>
        <time>2017-08-14T08:44:15Z</time>
      </trkpt>
      <trkpt lat="45.98709" lon="4.85082">
        <ele>270</ele>
        <time>2017-08-14T08:44:16Z</time>
      </trkpt>
      <trkpt lat="45.98715" lon="4.85079">
        <ele>270</ele>
        <time>2017-08-14T08:44:17Z</time>
      </trkpt>
      <trkpt lat="45.98722" lon="4.85075">
        <ele>270</ele>
        <time>2017-08-14T08:44:18Z</time>
      </trkpt>
      <trkpt lat="45.98729" lon="4.85072">
        <ele>269</ele>
        <time>2017-08-14T08:44:19Z</time>
      </trkpt>
      <trkpt lat="45.98735" lon="4.85068">
        <ele>269</ele>
        <time>2017-08-14T08:44:20Z</time>
      </trkpt>
      <trkpt lat="45.98741" lon="4.85066">
        <ele>269</ele>
        <time>2017-08-14T08:44:21Z</time>
      </trkpt>
      <trkpt lat="45.98748" lon="4.85064">
        <ele>269</ele>
        <time>2017-08-14T08:44:22Z</time>
      </trkpt>
      <trkpt lat="45.98754" lon="4.8506">
        <ele>268</ele>
        <time>2017-08-14T08:44:23Z</time>
      </trkpt>
      <trkpt lat="45.9876" lon="4.85057">
        <ele>268</ele>
        <time>2017-08-14T08:44:24Z</time>
      </trkpt>
      <trkpt lat="45.98766" lon="4.85053">
        <ele>268</ele>
        <time>2017-08-14T08:44:25Z</time>
      </trkpt>
      <trkpt lat="45.98772" lon="4.85049">
        <ele>268</ele>
        <time>2017-08-14T08:44:26Z</time>
      </trkpt>
      <trkpt lat="45.98778" lon="4.85046">
        <ele>267</ele>
        <time>2017-08-14T08:44:27Z</time>
      </trkpt>
      <trkpt lat="45.98784" lon="4.85043">
        <ele>267</ele>
        <time>2017-08-14T08:44:28Z</time>
      </trkpt>
      <trkpt lat="45.9879" lon="4.8504">
        <ele>267</ele>
        <time>2017-08-14T08:44:29Z</time>
      </trkpt>
      <trkpt lat="45.98796" lon="4.85036">
        <ele>267</ele>
        <time>2017-08-14T08:44:30Z</time>
      </trkpt>
      <trkpt lat="45.98802" lon="4.85033">
        <ele>267</ele>
        <time>2017-08-14T08:44:31Z</time>
      </trkpt>
      <trkpt lat="45.98808" lon="4.85029">
        <ele>267</ele>
        <time>2017-08-14T08:44:32Z</time>
      </trkpt>
      <trkpt lat="45.98814" lon="4.85026">
        <ele>267</ele>
        <time>2017-08-14T08:44:33Z</time>
      </trkpt>
      <trkpt lat="45.98821" lon="4.85022">
        <ele>267</ele>
        <time>2017-08-14T08:44:34Z</time>
      </trkpt>
      <trkpt lat="45.98827" lon="4.85019">
        <ele>267</ele>
        <time>2017-08-14T08:44:35Z</time>
      </trkpt>
      <trkpt lat="45.98833" lon="4.85016">
        <ele>267</ele>
        <time>2017-08-14T08:44:36Z</time>
      </trkpt>
      <trkpt lat="45.98839" lon="4.85013">
        <ele>267</ele>
        <time>2017-08-14T08:44:37Z</time>
      </trkpt>
      <trkpt lat="45.98845" lon="4.8501">
        <ele>267</ele>
        <time>2017-08-14T08:44:38Z</time>
      </trkpt>
      <trkpt lat="45.98851" lon="4.85007">
        <ele>267</ele>
        <time>2017-08-14T08:44:39Z</time>
      </trkpt>
      <trkpt lat="45.98857" lon="4.85005">
        <ele>267</ele>
        <time>2017-08-14T08:44:40Z</time>
      </trkpt>
      <trkpt lat="45.98863" lon="4.85001">
        <ele>267</ele>
        <time>2017-08-14T08:44:41Z</time>
      </trkpt>
      <trkpt lat="45.98869" lon="4.84998">
        <ele>267</ele>
        <time>2017-08-14T08:44:42Z</time>
      </trkpt>
      <trkpt lat="45.98876" lon="4.84994">
        <ele>267</ele>
        <time>2017-08-14T08:44:43Z</time>
      </trkpt>
      <trkpt lat="45.98883" lon="4.84989">
        <ele>267</ele>
        <time>2017-08-14T08:44:44Z</time>
      </trkpt>
      <trkpt lat="45.9889" lon="4.84986">
        <ele>267</ele>
        <time>2017-08-14T08:44:45Z</time>
      </trkpt>
      <trkpt lat="45.98898" lon="4.84982">
        <ele>267</ele>
        <time>2017-08-14T08:44:46Z</time>
      </trkpt>
      <trkpt lat="45.98906" lon="4.84979">
        <ele>267</ele>
        <time>2017-08-14T08:44:47Z</time>
      </trkpt>
      <trkpt lat="45.98913" lon="4.84975">
        <ele>267</ele>
        <time>2017-08-14T08:44:48Z</time>
      </trkpt>
      <trkpt lat="45.9892" lon="4.84971">
        <ele>267</ele>
        <time>2017-08-14T08:44:49Z</time>
      </trkpt>
      <trkpt lat="45.98927" lon="4.84968">
        <ele>266</ele>
        <time>2017-08-14T08:44:50Z</time>
      </trkpt>
      <trkpt lat="45.98935" lon="4.84965">
        <ele>266</ele>
        <time>2017-08-14T08:44:51Z</time>
      </trkpt>
      <trkpt lat="45.98942" lon="4.84962">
        <ele>266</ele>
        <time>2017-08-14T08:44:52Z</time>
      </trkpt>
      <trkpt lat="45.98948" lon="4.84958">
        <ele>266</ele>
        <time>2017-08-14T08:44:53Z</time>
      </trkpt>
      <trkpt lat="45.98955" lon="4.84954">
        <ele>266</ele>
        <time>2017-08-14T08:44:54Z</time>
      </trkpt>
      <trkpt lat="45.98962" lon="4.84951">
        <ele>266</ele>
        <time>2017-08-14T08:44:55Z</time>
      </trkpt>
      <trkpt lat="45.98969" lon="4.84947">
        <ele>266</ele>
        <time>2017-08-14T08:44:56Z</time>
      </trkpt>
      <trkpt lat="45.98976" lon="4.84943">
        <ele>266</ele>
        <time>2017-08-14T08:44:57Z</time>
      </trkpt>
      <trkpt lat="45.98982" lon="4.8494">
        <ele>266</ele>
        <time>2017-08-14T08:44:58Z</time>
      </trkpt>
      <trkpt lat="45.98989" lon="4.84937">
        <ele>266</ele>
        <time>2017-08-14T08:44:59Z</time>
      </trkpt>
      <trkpt lat="45.98995" lon="4.84934">
        <ele>266</ele>
        <time>2017-08-14T08:45:00Z</time>
      </trkpt>
      <trkpt lat="45.99002" lon="4.84929">
        <ele>265</ele>
        <time>2017-08-14T08:45:01Z</time>
      </trkpt>
      <trkpt lat="45.99008" lon="4.84925">
        <ele>265</ele>
        <time>2017-08-14T08:45:02Z</time>
      </trkpt>
      <trkpt lat="45.99015" lon="4.84922">
        <ele>265</ele>
        <time>2017-08-14T08:45:03Z</time>
      </trkpt>
      <trkpt lat="45.99021" lon="4.84919">
        <ele>265</ele>
        <time>2017-08-14T08:45:04Z</time>
      </trkpt>
      <trkpt lat="45.99028" lon="4.84916">
        <ele>264</ele>
        <time>2017-08-14T08:45:05Z</time>
      </trkpt>
      <trkpt lat="45.99035" lon="4.84913">
        <ele>264</ele>
        <time>2017-08-14T08:45:06Z</time>
      </trkpt>
      <trkpt lat="45.99041" lon="4.84909">
        <ele>264</ele>
        <time>2017-08-14T08:45:07Z</time>
      </trkpt>
      <trkpt lat="45.99048" lon="4.84906">
        <ele>264</ele>
        <time>2017-08-14T08:45:08Z</time>
      </trkpt>
      <trkpt lat="45.99055" lon="4.84902">
        <ele>263</ele>
        <time>2017-08-14T08:45:09Z</time>
      </trkpt>
      <trkpt lat="45.99062" lon="4.84898">
        <ele>263</ele>
        <time>2017-08-14T08:45:10Z</time>
      </trkpt>
      <trkpt lat="45.99069" lon="4.84894">
        <ele>263</ele>
        <time>2017-08-14T08:45:11Z</time>
      </trkpt>
      <trkpt lat="45.99076" lon="4.8489">
        <ele>263</ele>
        <time>2017-08-14T08:45:12Z</time>
      </trkpt>
      <trkpt lat="45.99083" lon="4.84887">
        <ele>263</ele>
        <time>2017-08-14T08:45:13Z</time>
      </trkpt>
      <trkpt lat="45.9909" lon="4.84883">
        <ele>261</ele>
        <time>2017-08-14T08:45:14Z</time>
      </trkpt>
      <trkpt lat="45.99097" lon="4.8488">
        <ele>261</ele>
        <time>2017-08-14T08:45:15Z</time>
      </trkpt>
      <trkpt lat="45.99104" lon="4.84876">
        <ele>261</ele>
        <time>2017-08-14T08:45:16Z</time>
      </trkpt>
      <trkpt lat="45.99111" lon="4.84872">
        <ele>260</ele>
        <time>2017-08-14T08:45:17Z</time>
      </trkpt>
      <trkpt lat="45.99118" lon="4.84868">
        <ele>260</ele>
        <time>2017-08-14T08:45:18Z</time>
      </trkpt>
      <trkpt lat="45.99126" lon="4.84864">
        <ele>260</ele>
        <time>2017-08-14T08:45:19Z</time>
      </trkpt>
      <trkpt lat="45.99133" lon="4.8486">
        <ele>260</ele>
        <time>2017-08-14T08:45:20Z</time>
      </trkpt>
      <trkpt lat="45.9914" lon="4.84855">
        <ele>260</ele>
        <time>2017-08-14T08:45:21Z</time>
      </trkpt>
      <trkpt lat="45.99148" lon="4.84851">
        <ele>260</ele>
        <time>2017-08-14T08:45:22Z</time>
      </trkpt>
      <trkpt lat="45.99155" lon="4.84846">
        <ele>259</ele>
        <time>2017-08-14T08:45:23Z</time>
      </trkpt>
      <trkpt lat="45.99162" lon="4.84842">
        <ele>259</ele>
        <time>2017-08-14T08:45:24Z</time>
      </trkpt>
      <trkpt lat="45.9917" lon="4.84838">
        <ele>258</ele>
        <time>2017-08-14T08:45:25Z</time>
      </trkpt>
      <trkpt lat="45.99179" lon="4.84834">
        <ele>258</ele>
        <time>2017-08-14T08:45:26Z</time>
      </trkpt>
      <trkpt lat="45.99187" lon="4.8483">
        <ele>258</ele>
        <time>2017-08-14T08:45:27Z</time>
      </trkpt>
      <trkpt lat="45.99195" lon="4.84826">
        <ele>258</ele>
        <time>2017-08-14T08:45:28Z</time>
      </trkpt>
      <trkpt lat="45.99203" lon="4.84822">
        <ele>257</ele>
        <time>2017-08-14T08:45:29Z</time>
      </trkpt>
      <trkpt lat="45.99211" lon="4.84818">
        <ele>257</ele>
        <time>2017-08-14T08:45:30Z</time>
      </trkpt>
      <trkpt lat="45.9922" lon="4.84813">
        <ele>257</ele>
        <time>2017-08-14T08:45:31Z</time>
      </trkpt>
      <trkpt lat="45.99229" lon="4.84809">
        <ele>257</ele>
        <time>2017-08-14T08:45:32Z</time>
      </trkpt>
      <trkpt lat="45.99237" lon="4.84806">
        <ele>256</ele>
        <time>2017-08-14T08:45:33Z</time>
      </trkpt>
      <trkpt lat="45.99246" lon="4.84802">
        <ele>256</ele>
        <time>2017-08-14T08:45:34Z</time>
      </trkpt>
      <trkpt lat="45.99254" lon="4.84797">
        <ele>254</ele>
        <time>2017-08-14T08:45:35Z</time>
      </trkpt>
      <trkpt lat="45.99263" lon="4.84793">
        <ele>253</ele>
        <time>2017-08-14T08:45:36Z</time>
      </trkpt>
      <trkpt lat="45.99272" lon="4.84788">
        <ele>253</ele>
        <time>2017-08-14T08:45:37Z</time>
      </trkpt>
      <trkpt lat="45.99281" lon="4.84783">
        <ele>253</ele>
        <time>2017-08-14T08:45:38Z</time>
      </trkpt>
      <trkpt lat="45.9929" lon="4.84779">
        <ele>253</ele>
        <time>2017-08-14T08:45:39Z</time>
      </trkpt>
      <trkpt lat="45.99298" lon="4.84774">
        <ele>253</ele>
        <time>2017-08-14T08:45:40Z</time>
      </trkpt>
      <trkpt lat="45.99307" lon="4.84769">
        <ele>253</ele>
        <time>2017-08-14T08:45:41Z</time>
      </trkpt>
      <trkpt lat="45.99316" lon="4.84765">
        <ele>252</ele>
        <time>2017-08-14T08:45:42Z</time>
      </trkpt>
      <trkpt lat="45.99325" lon="4.8476">
        <ele>252</ele>
        <time>2017-08-14T08:45:43Z</time>
      </trkpt>
      <trkpt lat="45.99334" lon="4.84756">
        <ele>251</ele>
        <time>2017-08-14T08:45:44Z</time>
      </trkpt>
      <trkpt lat="45.99343" lon="4.84751">
        <ele>251</ele>
        <time>2017-08-14T08:45:45Z</time>
      </trkpt>
      <trkpt lat="45.99351" lon="4.84746">
        <ele>250</ele>
        <time>2017-08-14T08:45:46Z</time>
      </trkpt>
      <trkpt lat="45.9936" lon="4.84741">
        <ele>250</ele>
        <time>2017-08-14T08:45:47Z</time>
      </trkpt>
      <trkpt lat="45.99368" lon="4.84737">
        <ele>250</ele>
        <time>2017-08-14T08:45:48Z</time>
      </trkpt>
      <trkpt lat="45.99377" lon="4.84732">
        <ele>250</ele>
        <time>2017-08-14T08:45:49Z</time>
      </trkpt>
      <trkpt lat="45.99385" lon="4.84727">
        <ele>249</ele>
        <time>2017-08-14T08:45:50Z</time>
      </trkpt>
      <trkpt lat="45.99394" lon="4.84722">
        <ele>249</ele>
        <time>2017-08-14T08:45:51Z</time>
      </trkpt>
      <trkpt lat="45.99402" lon="4.84718">
        <ele>249</ele>
        <time>2017-08-14T08:45:52Z</time>
      </trkpt>
      <trkpt lat="45.99411" lon="4.84714">
        <ele>249</ele>
        <time>2017-08-14T08:45:53Z</time>
      </trkpt>
      <trkpt lat="45.99419" lon="4.8471">
        <ele>249</ele>
        <time>2017-08-14T08:45:54Z</time>
      </trkpt>
      <trkpt lat="45.99427" lon="4.84705">
        <ele>249</ele>
        <time>2017-08-14T08:45:55Z</time>
      </trkpt>
      <trkpt lat="45.99435" lon="4.84701">
        <ele>249</ele>
        <time>2017-08-14T08:45:56Z</time>
      </trkpt>
      <trkpt lat="45.99443" lon="4.84695">
        <ele>249</ele>
        <time>2017-08-14T08:45:57Z</time>
      </trkpt>
      <trkpt lat="45.9945" lon="4.8469">
        <ele>250</ele>
        <time>2017-08-14T08:45:58Z</time>
      </trkpt>
      <trkpt lat="45.99457" lon="4.84686">
        <ele>250</ele>
        <time>2017-08-14T08:45:59Z</time>
      </trkpt>
      <trkpt lat="45.99465" lon="4.84683">
        <ele>250</ele>
        <time>2017-08-14T08:46:00Z</time>
      </trkpt>
      <trkpt lat="45.9947" lon="4.84683">
        <ele>250</ele>
        <time>2017-08-14T08:46:01Z</time>
      </trkpt>
      <trkpt lat="45.99477" lon="4.8468">
        <ele>250</ele>
        <time>2017-08-14T08:46:02Z</time>
      </trkpt>
      <trkpt lat="45.99483" lon="4.84678">
        <ele>250</ele>
        <time>2017-08-14T08:46:03Z</time>
      </trkpt>
      <trkpt lat="45.9949" lon="4.84676">
        <ele>250</ele>
        <time>2017-08-14T08:46:04Z</time>
      </trkpt>
      <trkpt lat="45.99496" lon="4.84674">
        <ele>251</ele>
        <time>2017-08-14T08:46:05Z</time>
      </trkpt>
      <trkpt lat="45.99502" lon="4.84673">
        <ele>251</ele>
        <time>2017-08-14T08:46:06Z</time>
      </trkpt>
      <trkpt lat="45.99508" lon="4.84671">
        <ele>251</ele>
        <time>2017-08-14T08:46:07Z</time>
      </trkpt>
      <trkpt lat="45.99513" lon="4.8467">
        <ele>251</ele>
        <time>2017-08-14T08:46:08Z</time>
      </trkpt>
      <trkpt lat="45.99519" lon="4.84669">
        <ele>251</ele>
        <time>2017-08-14T08:46:09Z</time>
      </trkpt>
      <trkpt lat="45.99525" lon="4.84669">
        <ele>251</ele>
        <time>2017-08-14T08:46:10Z</time>
      </trkpt>
      <trkpt lat="45.9953" lon="4.84669">
        <ele>251</ele>
        <time>2017-08-14T08:46:11Z</time>
      </trkpt>
      <trkpt lat="45.99535" lon="4.84667">
        <ele>251</ele>
        <time>2017-08-14T08:46:12Z</time>
      </trkpt>
      <trkpt lat="45.9954" lon="4.84666">
        <ele>250</ele>
        <time>2017-08-14T08:46:13Z</time>
      </trkpt>
      <trkpt lat="45.99545" lon="4.84664">
        <ele>250</ele>
        <time>2017-08-14T08:46:14Z</time>
      </trkpt>
      <trkpt lat="45.99551" lon="4.84663">
        <ele>250</ele>
        <time>2017-08-14T08:46:15Z</time>
      </trkpt>
      <trkpt lat="45.99556" lon="4.84662">
        <ele>250</ele>
        <time>2017-08-14T08:46:16Z</time>
      </trkpt>
      <trkpt lat="45.99562" lon="4.84661">
        <ele>250</ele>
        <time>2017-08-14T08:46:17Z</time>
      </trkpt>
      <trkpt lat="45.99567" lon="4.8466">
        <ele>250</ele>
        <time>2017-08-14T08:46:18Z</time>
      </trkpt>
      <trkpt lat="45.99573" lon="4.84658">
        <ele>250</ele>
        <time>2017-08-14T08:46:19Z</time>
      </trkpt>
      <trkpt lat="45.9958" lon="4.84657">
        <ele>250</ele>
        <time>2017-08-14T08:46:20Z</time>
      </trkpt>
      <trkpt lat="45.99586" lon="4.84656">
        <ele>250</ele>
        <time>2017-08-14T08:46:21Z</time>
      </trkpt>
      <trkpt lat="45.99592" lon="4.84656">
        <ele>250</ele>
        <time>2017-08-14T08:46:22Z</time>
      </trkpt>
      <trkpt lat="45.99598" lon="4.84655">
        <ele>250</ele>
        <time>2017-08-14T08:46:23Z</time>
      </trkpt>
      <trkpt lat="45.99604" lon="4.84654">
        <ele>250</ele>
        <time>2017-08-14T08:46:24Z</time>
      </trkpt>
      <trkpt lat="45.9961" lon="4.84653">
        <ele>250</ele>
        <time>2017-08-14T08:46:25Z</time>
      </trkpt>
      <trkpt lat="45.99616" lon="4.84652">
        <ele>250</ele>
        <time>2017-08-14T08:46:26Z</time>
      </trkpt>
      <trkpt lat="45.99621" lon="4.84651">
        <ele>250</ele>
        <time>2017-08-14T08:46:27Z</time>
      </trkpt>
      <trkpt lat="45.99627" lon="4.8465">
        <ele>250</ele>
        <time>2017-08-14T08:46:28Z</time>
      </trkpt>
      <trkpt lat="45.99632" lon="4.84649">
        <ele>250</ele>
        <time>2017-08-14T08:46:29Z</time>
      </trkpt>
      <trkpt lat="45.99637" lon="4.84648">
        <ele>250</ele>
        <time>2017-08-14T08:46:30Z</time>
      </trkpt>
      <trkpt lat="45.99642" lon="4.84647">
        <ele>250</ele>
        <time>2017-08-14T08:46:31Z</time>
      </trkpt>
      <trkpt lat="45.99648" lon="4.84646">
        <ele>250</ele>
        <time>2017-08-14T08:46:32Z</time>
      </trkpt>
      <trkpt lat="45.99653" lon="4.84645">
        <ele>250</ele>
        <time>2017-08-14T08:46:33Z</time>
      </trkpt>
      <trkpt lat="45.9966" lon="4.84644">
        <ele>250</ele>
        <time>2017-08-14T08:46:34Z</time>
      </trkpt>
      <trkpt lat="45.99666" lon="4.84643">
        <ele>250</ele>
        <time>2017-08-14T08:46:35Z</time>
      </trkpt>
      <trkpt lat="45.99672" lon="4.84641">
        <ele>251</ele>
        <time>2017-08-14T08:46:36Z</time>
      </trkpt>
      <trkpt lat="45.99678" lon="4.8464">
        <ele>252</ele>
        <time>2017-08-14T08:46:37Z</time>
      </trkpt>
      <trkpt lat="45.99684" lon="4.84639">
        <ele>252</ele>
        <time>2017-08-14T08:46:38Z</time>
      </trkpt>
      <trkpt lat="45.9969" lon="4.84637">
        <ele>252</ele>
        <time>2017-08-14T08:46:39Z</time>
      </trkpt>
      <trkpt lat="45.99697" lon="4.84636">
        <ele>252</ele>
        <time>2017-08-14T08:46:40Z</time>
      </trkpt>
      <trkpt lat="45.99703" lon="4.84634">
        <ele>252</ele>
        <time>2017-08-14T08:46:41Z</time>
      </trkpt>
      <trkpt lat="45.99709" lon="4.84633">
        <ele>252</ele>
        <time>2017-08-14T08:46:42Z</time>
      </trkpt>
      <trkpt lat="45.99715" lon="4.84631">
        <ele>252</ele>
        <time>2017-08-14T08:46:43Z</time>
      </trkpt>
      <trkpt lat="45.99721" lon="4.8463">
        <ele>252</ele>
        <time>2017-08-14T08:46:44Z</time>
      </trkpt>
      <trkpt lat="45.99728" lon="4.84629">
        <ele>252</ele>
        <time>2017-08-14T08:46:45Z</time>
      </trkpt>
      <trkpt lat="45.99734" lon="4.84628">
        <ele>252</ele>
        <time>2017-08-14T08:46:46Z</time>
      </trkpt>
      <trkpt lat="45.9974" lon="4.84627">
        <ele>252</ele>
        <time>2017-08-14T08:46:47Z</time>
      </trkpt>
      <trkpt lat="45.99746" lon="4.84627">
        <ele>253</ele>
        <time>2017-08-14T08:46:48Z</time>
      </trkpt>
      <trkpt lat="45.99753" lon="4.84627">
        <ele>254</ele>
        <time>2017-08-14T08:46:49Z</time>
      </trkpt>
      <trkpt lat="45.99759" lon="4.84626">
        <ele>254</ele>
        <time>2017-08-14T08:46:50Z</time>
      </trkpt>
      <trkpt lat="45.99764" lon="4.84626">
        <ele>254</ele>
        <time>2017-08-14T08:46:51Z</time>
      </trkpt>
      <trkpt lat="45.9977" lon="4.84626">
        <ele>254</ele>
        <time>2017-08-14T08:46:52Z</time>
      </trkpt>
      <trkpt lat="45.99776" lon="4.84628">
        <ele>254</ele>
        <time>2017-08-14T08:46:53Z</time>
      </trkpt>
      <trkpt lat="45.99781" lon="4.84629">
        <ele>254</ele>
        <time>2017-08-14T08:46:54Z</time>
      </trkpt>
      <trkpt lat="45.99787" lon="4.8463">
        <ele>254</ele>
        <time>2017-08-14T08:46:55Z</time>
      </trkpt>
      <trkpt lat="45.99792" lon="4.84631">
        <ele>254</ele>
        <time>2017-08-14T08:46:56Z</time>
      </trkpt>
      <trkpt lat="45.99796" lon="4.84631">
        <ele>254</ele>
        <time>2017-08-14T08:46:57Z</time>
      </trkpt>
      <trkpt lat="45.99801" lon="4.84632">
        <ele>254</ele>
        <time>2017-08-14T08:46:58Z</time>
      </trkpt>
      <trkpt lat="45.99806" lon="4.84633">
        <ele>254</ele>
        <time>2017-08-14T08:46:59Z</time>
      </trkpt>
      <trkpt lat="45.9981" lon="4.84634">
        <ele>254</ele>
        <time>2017-08-14T08:47:00Z</time>
      </trkpt>
      <trkpt lat="45.99815" lon="4.84635">
        <ele>254</ele>
        <time>2017-08-14T08:47:01Z</time>
      </trkpt>
      <trkpt lat="45.9982" lon="4.84636">
        <ele>254</ele>
        <time>2017-08-14T08:47:02Z</time>
      </trkpt>
      <trkpt lat="45.99824" lon="4.84638">
        <ele>254</ele>
        <time>2017-08-14T08:47:03Z</time>
      </trkpt>
      <trkpt lat="45.99829" lon="4.84639">
        <ele>254</ele>
        <time>2017-08-14T08:47:04Z</time>
      </trkpt>
      <trkpt lat="45.99834" lon="4.84641">
        <ele>254</ele>
        <time>2017-08-14T08:47:05Z</time>
      </trkpt>
      <trkpt lat="45.99839" lon="4.84642">
        <ele>254</ele>
        <time>2017-08-14T08:47:06Z</time>
      </trkpt>
      <trkpt lat="45.99844" lon="4.84643">
        <ele>254</ele>
        <time>2017-08-14T08:47:07Z</time>
      </trkpt>
      <trkpt lat="45.99849" lon="4.84643">
        <ele>254</ele>
        <time>2017-08-14T08:47:08Z</time>
      </trkpt>
      <trkpt lat="45.99855" lon="4.84645">
        <ele>254</ele>
        <time>2017-08-14T08:47:09Z</time>
      </trkpt>
      <trkpt lat="45.9986" lon="4.84646">
        <ele>254</ele>
        <time>2017-08-14T08:47:10Z</time>
      </trkpt>
      <trkpt lat="45.99865" lon="4.84648">
        <ele>254</ele>
        <time>2017-08-14T08:47:11Z</time>
      </trkpt>
      <trkpt lat="45.9987" lon="4.84649">
        <ele>254</ele>
        <time>2017-08-14T08:47:12Z</time>
      </trkpt>
      <trkpt lat="45.99875" lon="4.8465">
        <ele>254</ele>
        <time>2017-08-14T08:47:13Z</time>
      </trkpt>
      <trkpt lat="45.9988" lon="4.84652">
        <ele>254</ele>
        <time>2017-08-14T08:47:14Z</time>
      </trkpt>
      <trkpt lat="45.99884" lon="4.84653">
        <ele>254</ele>
        <time>2017-08-14T08:47:15Z</time>
      </trkpt>
      <trkpt lat="45.99889" lon="4.84654">
        <ele>254</ele>
        <time>2017-08-14T08:47:16Z</time>
      </trkpt>
      <trkpt lat="45.99894" lon="4.84655">
        <ele>254</ele>
        <time>2017-08-14T08:47:17Z</time>
      </trkpt>
      <trkpt lat="45.999" lon="4.84657">
        <ele>254</ele>
        <time>2017-08-14T08:47:18Z</time>
      </trkpt>
      <trkpt lat="45.99905" lon="4.84659">
        <ele>254</ele>
        <time>2017-08-14T08:47:19Z</time>
      </trkpt>
      <trkpt lat="45.99911" lon="4.8466">
        <ele>254</ele>
        <time>2017-08-14T08:47:20Z</time>
      </trkpt>
      <trkpt lat="45.99916" lon="4.84662">
        <ele>254</ele>
        <time>2017-08-14T08:47:21Z</time>
      </trkpt>
      <trkpt lat="45.99921" lon="4.84664">
        <ele>254</ele>
        <time>2017-08-14T08:47:22Z</time>
      </trkpt>
      <trkpt lat="45.99926" lon="4.84666">
        <ele>254</ele>
        <time>2017-08-14T08:47:23Z</time>
      </trkpt>
      <trkpt lat="45.99931" lon="4.84667">
        <ele>255</ele>
        <time>2017-08-14T08:47:24Z</time>
      </trkpt>
      <trkpt lat="45.99936" lon="4.84668">
        <ele>255</ele>
        <time>2017-08-14T08:47:25Z</time>
      </trkpt>
      <trkpt lat="45.99941" lon="4.84669">
        <ele>255</ele>
        <time>2017-08-14T08:47:26Z</time>
      </trkpt>
      <trkpt lat="45.99945" lon="4.8467">
        <ele>255</ele>
        <time>2017-08-14T08:47:27Z</time>
      </trkpt>
      <trkpt lat="45.99954" lon="4.84672">
        <ele>255</ele>
        <time>2017-08-14T08:47:29Z</time>
      </trkpt>
      <trkpt lat="45.99958" lon="4.84674">
        <ele>255</ele>
        <time>2017-08-14T08:47:30Z</time>
      </trkpt>
      <trkpt lat="45.99962" lon="4.84675">
        <ele>255</ele>
        <time>2017-08-14T08:47:31Z</time>
      </trkpt>
      <trkpt lat="45.99967" lon="4.84677">
        <ele>255</ele>
        <time>2017-08-14T08:47:32Z</time>
      </trkpt>
      <trkpt lat="45.99972" lon="4.8468">
        <ele>255</ele>
        <time>2017-08-14T08:47:33Z</time>
      </trkpt>
      <trkpt lat="45.99976" lon="4.84684">
        <ele>255</ele>
        <time>2017-08-14T08:47:34Z</time>
      </trkpt>
      <trkpt lat="45.99981" lon="4.84686">
        <ele>255</ele>
        <time>2017-08-14T08:47:35Z</time>
      </trkpt>
      <trkpt lat="45.99986" lon="4.84689">
        <ele>256</ele>
        <time>2017-08-14T08:47:36Z</time>
      </trkpt>
      <trkpt lat="45.99991" lon="4.84689">
        <ele>255</ele>
        <time>2017-08-14T08:47:37Z</time>
      </trkpt>
      <trkpt lat="45.99997" lon="4.8469">
        <ele>256</ele>
        <time>2017-08-14T08:47:38Z</time>
      </trkpt>
      <trkpt lat="46.00003" lon="4.8469">
        <ele>256</ele>
        <time>2017-08-14T08:47:39Z</time>
      </trkpt>
      <trkpt lat="46.00008" lon="4.84691">
        <ele>256</ele>
        <time>2017-08-14T08:47:40Z</time>
      </trkpt>
      <trkpt lat="46.00012" lon="4.84691">
        <ele>256</ele>
        <time>2017-08-14T08:47:41Z</time>
      </trkpt>
      <trkpt lat="46.00017" lon="4.84692">
        <ele>256</ele>
        <time>2017-08-14T08:47:42Z</time>
      </trkpt>
      <trkpt lat="46.00026" lon="4.84694">
        <ele>256</ele>
        <time>2017-08-14T08:47:44Z</time>
      </trkpt>
      <trkpt lat="46.0003" lon="4.84694">
        <ele>256</ele>
        <time>2017-08-14T08:47:45Z</time>
      </trkpt>
      <trkpt lat="46.00039" lon="4.84695">
        <ele>256</ele>
        <time>2017-08-14T08:47:47Z</time>
      </trkpt>
      <trkpt lat="46.00042" lon="4.84696">
        <ele>256</ele>
        <time>2017-08-14T08:47:48Z</time>
      </trkpt>
      <trkpt lat="46.00051" lon="4.84697">
        <ele>256</ele>
        <time>2017-08-14T08:47:50Z</time>
      </trkpt>
      <trkpt lat="46.00055" lon="4.84698">
        <ele>256</ele>
        <time>2017-08-14T08:47:51Z</time>
      </trkpt>
      <trkpt lat="46.00063" lon="4.84699">
        <ele>256</ele>
        <time>2017-08-14T08:47:53Z</time>
      </trkpt>
      <trkpt lat="46.00067" lon="4.84699">
        <ele>256</ele>
        <time>2017-08-14T08:47:54Z</time>
      </trkpt>
      <trkpt lat="46.00074" lon="4.84699">
        <ele>257</ele>
        <time>2017-08-14T08:47:56Z</time>
      </trkpt>
      <trkpt lat="46.00076" lon="4.84699">
        <ele>257</ele>
        <time>2017-08-14T08:47:57Z</time>
      </trkpt>
      <trkpt lat="46.00084" lon="4.84693">
        <ele>257</ele>
        <time>2017-08-14T08:48:01Z</time>
      </trkpt>
      <trkpt lat="46.00085" lon="4.84689">
        <ele>257</ele>
        <time>2017-08-14T08:48:02Z</time>
      </trkpt>
      <trkpt lat="46.00086" lon="4.84679">
        <ele>257</ele>
        <time>2017-08-14T08:48:04Z</time>
      </trkpt>
      <trkpt lat="46.00086" lon="4.84673">
        <ele>256</ele>
        <time>2017-08-14T08:48:05Z</time>
      </trkpt>
      <trkpt lat="46.00087" lon="4.8466">
        <ele>256</ele>
        <time>2017-08-14T08:48:07Z</time>
      </trkpt>
      <trkpt lat="46.00087" lon="4.84653">
        <ele>257</ele>
        <time>2017-08-14T08:48:08Z</time>
      </trkpt>
      <trkpt lat="46.00087" lon="4.84646">
        <ele>257</ele>
        <time>2017-08-14T08:48:09Z</time>
      </trkpt>
      <trkpt lat="46.00086" lon="4.8464">
        <ele>257</ele>
        <time>2017-08-14T08:48:10Z</time>
      </trkpt>
      <trkpt lat="46.00086" lon="4.84633">
        <ele>257</ele>
        <time>2017-08-14T08:48:11Z</time>
      </trkpt>
      <trkpt lat="46.00086" lon="4.84627">
        <ele>257</ele>
        <time>2017-08-14T08:48:12Z</time>
      </trkpt>
      <trkpt lat="46.00085" lon="4.84615">
        <ele>257</ele>
        <time>2017-08-14T08:48:14Z</time>
      </trkpt>
      <trkpt lat="46.00085" lon="4.84609">
        <ele>257</ele>
        <time>2017-08-14T08:48:15Z</time>
      </trkpt>
      <trkpt lat="46.00085" lon="4.84598">
        <ele>257</ele>
        <time>2017-08-14T08:48:17Z</time>
      </trkpt>
      <trkpt lat="46.00084" lon="4.84593">
        <ele>257</ele>
        <time>2017-08-14T08:48:18Z</time>
      </trkpt>
      <trkpt lat="46.00083" lon="4.8458">
        <ele>257</ele>
        <time>2017-08-14T08:48:20Z</time>
      </trkpt>
      <trkpt lat="46.00083" lon="4.84574">
        <ele>257</ele>
        <time>2017-08-14T08:48:21Z</time>
      </trkpt>
      <trkpt lat="46.00082" lon="4.84561">
        <ele>257</ele>
        <time>2017-08-14T08:48:23Z</time>
      </trkpt>
      <trkpt lat="46.00082" lon="4.84555">
        <ele>257</ele>
        <time>2017-08-14T08:48:24Z</time>
      </trkpt>
      <trkpt lat="46.00081" lon="4.84545">
        <ele>257</ele>
        <time>2017-08-14T08:48:26Z</time>
      </trkpt>
      <trkpt lat="46.0008" lon="4.8454">
        <ele>257</ele>
        <time>2017-08-14T08:48:27Z</time>
      </trkpt>
      <trkpt lat="46.00079" lon="4.84528">
        <ele>258</ele>
        <time>2017-08-14T08:48:30Z</time>
      </trkpt>
      <trkpt lat="46.00079" lon="4.84524">
        <ele>258</ele>
        <time>2017-08-14T08:48:31Z</time>
      </trkpt>
      <trkpt lat="46.00078" lon="4.84512">
        <ele>258</ele>
        <time>2017-08-14T08:48:34Z</time>
      </trkpt>
      <trkpt lat="46.00078" lon="4.84509">
        <ele>258</ele>
        <time>2017-08-14T08:48:35Z</time>
      </trkpt>
      <trkpt lat="46.00079" lon="4.84508">
        <ele>258</ele>
        <time>2017-08-14T08:48:36Z</time>
      </trkpt>
      <trkpt lat="46.00078" lon="4.84505">
        <ele>258</ele>
        <time>2017-08-14T08:48:45Z</time>
      </trkpt>
      <trkpt lat="46.00078" lon="4.84505">
        <ele>258</ele>
        <time>2017-08-14T08:48:46Z</time>
      </trkpt>
      <trkpt lat="46.00079" lon="4.84492">
        <ele>259</ele>
        <time>2017-08-14T08:52:33Z</time>
      </trkpt>
      <trkpt lat="46.00079" lon="4.84491">
        <ele>259</ele>
        <time>2017-08-14T08:52:34Z</time>
      </trkpt>
      <trkpt lat="46.00073" lon="4.84483">
        <ele>258</ele>
        <time>2017-08-14T08:53:25Z</time>
      </trkpt>
      <trkpt lat="46.00072" lon="4.84482">
        <ele>258</ele>
        <time>2017-08-14T08:53:26Z</time>
      </trkpt>
      <trkpt lat="46.0007" lon="4.84471">
        <ele>258</ele>
        <time>2017-08-14T08:53:31Z</time>
      </trkpt>
      <trkpt lat="46.0007" lon="4.84468">
        <ele>258</ele>
        <time>2017-08-14T08:53:32Z</time>
      </trkpt>
      <trkpt lat="46.00068" lon="4.84456">
        <ele>258</ele>
        <time>2017-08-14T08:53:36Z</time>
      </trkpt>
      <trkpt lat="46.00068" lon="4.84453">
        <ele>258</ele>
        <time>2017-08-14T08:53:37Z</time>
      </trkpt>
      <trkpt lat="46.00066" lon="4.84441">
        <ele>258</ele>
        <time>2017-08-14T08:53:42Z</time>
      </trkpt>
      <trkpt lat="46.00065" lon="4.84439">
        <ele>258</ele>
        <time>2017-08-14T08:53:43Z</time>
      </trkpt>
      <trkpt lat="46.00063" lon="4.84429">
        <ele>258</ele>
        <time>2017-08-14T08:53:47Z</time>
      </trkpt>
      <trkpt lat="46.00063" lon="4.84426">
        <ele>258</ele>
        <time>2017-08-14T08:53:48Z</time>
      </trkpt>
      <trkpt lat="46.0006" lon="4.84417">
        <ele>259</ele>
        <time>2017-08-14T08:53:51Z</time>
      </trkpt>
      <trkpt lat="46.0006" lon="4.84414">
        <ele>259</ele>
        <time>2017-08-14T08:53:52Z</time>
      </trkpt>
      <trkpt lat="46.00057" lon="4.84404">
        <ele>259</ele>
        <time>2017-08-14T08:53:56Z</time>
      </trkpt>
      <trkpt lat="46.00056" lon="4.84401">
        <ele>259</ele>
        <time>2017-08-14T08:53:57Z</time>
      </trkpt>
      <trkpt lat="46.00055" lon="4.84389">
        <ele>259</ele>
        <time>2017-08-14T08:54:00Z</time>
      </trkpt>
      <trkpt lat="46.00054" lon="4.84384">
        <ele>259</ele>
        <time>2017-08-14T08:54:01Z</time>
      </trkpt>
      <trkpt lat="46.00052" lon="4.84373">
        <ele>259</ele>
        <time>2017-08-14T08:54:03Z</time>
      </trkpt>
      <trkpt lat="46.00051" lon="4.84368">
        <ele>259</ele>
        <time>2017-08-14T08:54:04Z</time>
      </trkpt>
      <trkpt lat="46.00048" lon="4.84356">
        <ele>259</ele>
        <time>2017-08-14T08:54:06Z</time>
      </trkpt>
      <trkpt lat="46.00047" lon="4.84349">
        <ele>259</ele>
        <time>2017-08-14T08:54:07Z</time>
      </trkpt>
      <trkpt lat="46.00046" lon="4.84343">
        <ele>259</ele>
        <time>2017-08-14T08:54:08Z</time>
      </trkpt>
      <trkpt lat="46.00044" lon="4.84336">
        <ele>259</ele>
        <time>2017-08-14T08:54:09Z</time>
      </trkpt>
      <trkpt lat="46.00043" lon="4.84329">
        <ele>260</ele>
        <time>2017-08-14T08:54:10Z</time>
      </trkpt>
      <trkpt lat="46.00041" lon="4.84322">
        <ele>259</ele>
        <time>2017-08-14T08:54:11Z</time>
      </trkpt>
      <trkpt lat="46.00039" lon="4.84315">
        <ele>259</ele>
        <time>2017-08-14T08:54:12Z</time>
      </trkpt>
      <trkpt lat="46.00037" lon="4.84309">
        <ele>259</ele>
        <time>2017-08-14T08:54:13Z</time>
      </trkpt>
      <trkpt lat="46.00035" lon="4.84302">
        <ele>259</ele>
        <time>2017-08-14T08:54:14Z</time>
      </trkpt>
      <trkpt lat="46.00033" lon="4.84296">
        <ele>259</ele>
        <time>2017-08-14T08:54:15Z</time>
      </trkpt>
      <trkpt lat="46.00031" lon="4.8429">
        <ele>260</ele>
        <time>2017-08-14T08:54:16Z</time>
      </trkpt>
      <trkpt lat="46.00029" lon="4.84284">
        <ele>260</ele>
        <time>2017-08-14T08:54:17Z</time>
      </trkpt>
      <trkpt lat="46.00028" lon="4.84278">
        <ele>260</ele>
        <time>2017-08-14T08:54:18Z</time>
      </trkpt>
      <trkpt lat="46.00026" lon="4.84272">
        <ele>260</ele>
        <time>2017-08-14T08:54:19Z</time>
      </trkpt>
      <trkpt lat="46.00024" lon="4.84266">
        <ele>260</ele>
        <time>2017-08-14T08:54:20Z</time>
      </trkpt>
      <trkpt lat="46.00023" lon="4.84259">
        <ele>260</ele>
        <time>2017-08-14T08:54:21Z</time>
      </trkpt>
      <trkpt lat="46.00021" lon="4.84253">
        <ele>260</ele>
        <time>2017-08-14T08:54:22Z</time>
      </trkpt>
      <trkpt lat="46.00019" lon="4.84247">
        <ele>259</ele>
        <time>2017-08-14T08:54:23Z</time>
      </trkpt>
      <trkpt lat="46.00017" lon="4.8424">
        <ele>259</ele>
        <time>2017-08-14T08:54:24Z</time>
      </trkpt>
      <trkpt lat="46.00015" lon="4.84234">
        <ele>259</ele>
        <time>2017-08-14T08:54:25Z</time>
      </trkpt>
      <trkpt lat="46.00013" lon="4.84227">
        <ele>259</ele>
        <time>2017-08-14T08:54:26Z</time>
      </trkpt>
      <trkpt lat="46.00012" lon="4.84219">
        <ele>259</ele>
        <time>2017-08-14T08:54:27Z</time>
      </trkpt>
      <trkpt lat="46.00009" lon="4.84212">
        <ele>259</ele>
        <time>2017-08-14T08:54:28Z</time>
      </trkpt>
      <trkpt lat="46.00007" lon="4.84203">
        <ele>259</ele>
        <time>2017-08-14T08:54:29Z</time>
      </trkpt>
      <trkpt lat="46.00005" lon="4.84195">
        <ele>258</ele>
        <time>2017-08-14T08:54:30Z</time>
      </trkpt>
      <trkpt lat="46.00003" lon="4.84187">
        <ele>258</ele>
        <time>2017-08-14T08:54:31Z</time>
      </trkpt>
      <trkpt lat="46" lon="4.84178">
        <ele>258</ele>
        <time>2017-08-14T08:54:32Z</time>
      </trkpt>
      <trkpt lat="45.99998" lon="4.84169">
        <ele>257</ele>
        <time>2017-08-14T08:54:33Z</time>
      </trkpt>
      <trkpt lat="45.99996" lon="4.8416">
        <ele>257</ele>
        <time>2017-08-14T08:54:34Z</time>
      </trkpt>
      <trkpt lat="45.99993" lon="4.84151">
        <ele>257</ele>
        <time>2017-08-14T08:54:35Z</time>
      </trkpt>
      <trkpt lat="45.99991" lon="4.84142">
        <ele>257</ele>
        <time>2017-08-14T08:54:36Z</time>
      </trkpt>
      <trkpt lat="45.99988" lon="4.84133">
        <ele>257</ele>
        <time>2017-08-14T08:54:37Z</time>
      </trkpt>
      <trkpt lat="45.99986" lon="4.84124">
        <ele>257</ele>
        <time>2017-08-14T08:54:38Z</time>
      </trkpt>
      <trkpt lat="45.99983" lon="4.84115">
        <ele>258</ele>
        <time>2017-08-14T08:54:39Z</time>
      </trkpt>
      <trkpt lat="45.99981" lon="4.84107">
        <ele>258</ele>
        <time>2017-08-14T08:54:40Z</time>
      </trkpt>
      <trkpt lat="45.99979" lon="4.84099">
        <ele>258</ele>
        <time>2017-08-14T08:54:41Z</time>
      </trkpt>
      <trkpt lat="45.99976" lon="4.84091">
        <ele>258</ele>
        <time>2017-08-14T08:54:42Z</time>
      </trkpt>
      <trkpt lat="45.99974" lon="4.84083">
        <ele>259</ele>
        <time>2017-08-14T08:54:43Z</time>
      </trkpt>
      <trkpt lat="45.99972" lon="4.84075">
        <ele>259</ele>
        <time>2017-08-14T08:54:44Z</time>
      </trkpt>
      <trkpt lat="45.99969" lon="4.84068">
        <ele>259</ele>
        <time>2017-08-14T08:54:45Z</time>
      </trkpt>
      <trkpt lat="45.99967" lon="4.84061">
        <ele>259</ele>
        <time>2017-08-14T08:54:46Z</time>
      </trkpt>
      <trkpt lat="45.99965" lon="4.84054">
        <ele>259</ele>
        <time>2017-08-14T08:54:47Z</time>
      </trkpt>
      <trkpt lat="45.99964" lon="4.84048">
        <ele>259</ele>
        <time>2017-08-14T08:54:48Z</time>
      </trkpt>
      <trkpt lat="45.99962" lon="4.84041">
        <ele>259</ele>
        <time>2017-08-14T08:54:49Z</time>
      </trkpt>
      <trkpt lat="45.9996" lon="4.84035">
        <ele>259</ele>
        <time>2017-08-14T08:54:50Z</time>
      </trkpt>
      <trkpt lat="45.99959" lon="4.84028">
        <ele>259</ele>
        <time>2017-08-14T08:54:51Z</time>
      </trkpt>
      <trkpt lat="45.99957" lon="4.84021">
        <ele>259</ele>
        <time>2017-08-14T08:54:52Z</time>
      </trkpt>
      <trkpt lat="45.99955" lon="4.84014">
        <ele>259</ele>
        <time>2017-08-14T08:54:53Z</time>
      </trkpt>
      <trkpt lat="45.99953" lon="4.84007">
        <ele>259</ele>
        <time>2017-08-14T08:54:54Z</time>
      </trkpt>
      <trkpt lat="45.9995" lon="4.84">
        <ele>259</ele>
        <time>2017-08-14T08:54:55Z</time>
      </trkpt>
      <trkpt lat="45.99948" lon="4.83993">
        <ele>259</ele>
        <time>2017-08-14T08:54:56Z</time>
      </trkpt>
      <trkpt lat="45.99946" lon="4.83985">
        <ele>259</ele>
        <time>2017-08-14T08:54:57Z</time>
      </trkpt>
      <trkpt lat="45.99944" lon="4.83978">
        <ele>259</ele>
        <time>2017-08-14T08:54:58Z</time>
      </trkpt>
      <trkpt lat="45.99941" lon="4.8397">
        <ele>259</ele>
        <time>2017-08-14T08:54:59Z</time>
      </trkpt>
      <trkpt lat="45.99938" lon="4.83962">
        <ele>259</ele>
        <time>2017-08-14T08:55:00Z</time>
      </trkpt>
      <trkpt lat="45.99936" lon="4.83954">
        <ele>259</ele>
        <time>2017-08-14T08:55:01Z</time>
      </trkpt>
      <trkpt lat="45.99934" lon="4.83945">
        <ele>259</ele>
        <time>2017-08-14T08:55:02Z</time>
      </trkpt>
      <trkpt lat="45.99931" lon="4.83937">
        <ele>259</ele>
        <time>2017-08-14T08:55:03Z</time>
      </trkpt>
      <trkpt lat="45.99929" lon="4.83928">
        <ele>259</ele>
        <time>2017-08-14T08:55:04Z</time>
      </trkpt>
      <trkpt lat="45.99926" lon="4.83919">
        <ele>259</ele>
        <time>2017-08-14T08:55:05Z</time>
      </trkpt>
      <trkpt lat="45.99924" lon="4.83911">
        <ele>259</ele>
        <time>2017-08-14T08:55:06Z</time>
      </trkpt>
      <trkpt lat="45.99922" lon="4.83902">
        <ele>259</ele>
        <time>2017-08-14T08:55:07Z</time>
      </trkpt>
      <trkpt lat="45.99919" lon="4.83894">
        <ele>259</ele>
        <time>2017-08-14T08:55:08Z</time>
      </trkpt>
      <trkpt lat="45.99916" lon="4.83886">
        <ele>258</ele>
        <time>2017-08-14T08:55:09Z</time>
      </trkpt>
      <trkpt lat="45.99914" lon="4.83878">
        <ele>258</ele>
        <time>2017-08-14T08:55:10Z</time>
      </trkpt>
      <trkpt lat="45.99912" lon="4.8387">
        <ele>258</ele>
        <time>2017-08-14T08:55:11Z</time>
      </trkpt>
      <trkpt lat="45.99909" lon="4.83862">
        <ele>258</ele>
        <time>2017-08-14T08:55:12Z</time>
      </trkpt>
      <trkpt lat="45.99907" lon="4.83855">
        <ele>258</ele>
        <time>2017-08-14T08:55:13Z</time>
      </trkpt>
      <trkpt lat="45.99905" lon="4.83847">
        <ele>258</ele>
        <time>2017-08-14T08:55:14Z</time>
      </trkpt>
      <trkpt lat="45.99903" lon="4.83839">
        <ele>258</ele>
        <time>2017-08-14T08:55:15Z</time>
      </trkpt>
      <trkpt lat="45.999" lon="4.83832">
        <ele>257</ele>
        <time>2017-08-14T08:55:16Z</time>
      </trkpt>
      <trkpt lat="45.99898" lon="4.83824">
        <ele>257</ele>
        <time>2017-08-14T08:55:17Z</time>
      </trkpt>
      <trkpt lat="45.99896" lon="4.83816">
        <ele>257</ele>
        <time>2017-08-14T08:55:18Z</time>
      </trkpt>
      <trkpt lat="45.99894" lon="4.83809">
        <ele>257</ele>
        <time>2017-08-14T08:55:19Z</time>
      </trkpt>
      <trkpt lat="45.99892" lon="4.83801">
        <ele>257</ele>
        <time>2017-08-14T08:55:20Z</time>
      </trkpt>
      <trkpt lat="45.9989" lon="4.83793">
        <ele>257</ele>
        <time>2017-08-14T08:55:21Z</time>
      </trkpt>
      <trkpt lat="45.99887" lon="4.83784">
        <ele>257</ele>
        <time>2017-08-14T08:55:22Z</time>
      </trkpt>
      <trkpt lat="45.99885" lon="4.83775">
        <ele>257</ele>
        <time>2017-08-14T08:55:23Z</time>
      </trkpt>
      <trkpt lat="45.99882" lon="4.83766">
        <ele>256</ele>
        <time>2017-08-14T08:55:24Z</time>
      </trkpt>
      <trkpt lat="45.9988" lon="4.83757">
        <ele>256</ele>
        <time>2017-08-14T08:55:25Z</time>
      </trkpt>
      <trkpt lat="45.99877" lon="4.83748">
        <ele>256</ele>
        <time>2017-08-14T08:55:26Z</time>
      </trkpt>
      <trkpt lat="45.99875" lon="4.8374">
        <ele>256</ele>
        <time>2017-08-14T08:55:27Z</time>
      </trkpt>
      <trkpt lat="45.99872" lon="4.83731">
        <ele>256</ele>
        <time>2017-08-14T08:55:28Z</time>
      </trkpt>
      <trkpt lat="45.9987" lon="4.83723">
        <ele>256</ele>
        <time>2017-08-14T08:55:29Z</time>
      </trkpt>
      <trkpt lat="45.99867" lon="4.83714">
        <ele>256</ele>
        <time>2017-08-14T08:55:30Z</time>
      </trkpt>
      <trkpt lat="45.99865" lon="4.83707">
        <ele>256</ele>
        <time>2017-08-14T08:55:31Z</time>
      </trkpt>
      <trkpt lat="45.99863" lon="4.83699">
        <ele>256</ele>
        <time>2017-08-14T08:55:32Z</time>
      </trkpt>
      <trkpt lat="45.99861" lon="4.83691">
        <ele>256</ele>
        <time>2017-08-14T08:55:33Z</time>
      </trkpt>
      <trkpt lat="45.99859" lon="4.83684">
        <ele>256</ele>
        <time>2017-08-14T08:55:34Z</time>
      </trkpt>
      <trkpt lat="45.99857" lon="4.83676">
        <ele>256</ele>
        <time>2017-08-14T08:55:35Z</time>
      </trkpt>
      <trkpt lat="45.99855" lon="4.83669">
        <ele>256</ele>
        <time>2017-08-14T08:55:36Z</time>
      </trkpt>
      <trkpt lat="45.99854" lon="4.83661">
        <ele>257</ele>
        <time>2017-08-14T08:55:37Z</time>
      </trkpt>
      <trkpt lat="45.99852" lon="4.83653">
        <ele>257</ele>
        <time>2017-08-14T08:55:38Z</time>
      </trkpt>
      <trkpt lat="45.9985" lon="4.83646">
        <ele>257</ele>
        <time>2017-08-14T08:55:39Z</time>
      </trkpt>
      <trkpt lat="45.99848" lon="4.83638">
        <ele>257</ele>
        <time>2017-08-14T08:55:40Z</time>
      </trkpt>
      <trkpt lat="45.99846" lon="4.8363">
        <ele>257</ele>
        <time>2017-08-14T08:55:41Z</time>
      </trkpt>
      <trkpt lat="45.99845" lon="4.83622">
        <ele>257</ele>
        <time>2017-08-14T08:55:42Z</time>
      </trkpt>
      <trkpt lat="45.99843" lon="4.83614">
        <ele>257</ele>
        <time>2017-08-14T08:55:43Z</time>
      </trkpt>
      <trkpt lat="45.99841" lon="4.83606">
        <ele>257</ele>
        <time>2017-08-14T08:55:44Z</time>
      </trkpt>
      <trkpt lat="45.99839" lon="4.83598">
        <ele>257</ele>
        <time>2017-08-14T08:55:45Z</time>
      </trkpt>
      <trkpt lat="45.99837" lon="4.8359">
        <ele>257</ele>
        <time>2017-08-14T08:55:46Z</time>
      </trkpt>
      <trkpt lat="45.99835" lon="4.83582">
        <ele>257</ele>
        <time>2017-08-14T08:55:47Z</time>
      </trkpt>
      <trkpt lat="45.99833" lon="4.83574">
        <ele>258</ele>
        <time>2017-08-14T08:55:48Z</time>
      </trkpt>
      <trkpt lat="45.99831" lon="4.83566">
        <ele>258</ele>
        <time>2017-08-14T08:55:49Z</time>
      </trkpt>
      <trkpt lat="45.99829" lon="4.83558">
        <ele>258</ele>
        <time>2017-08-14T08:55:50Z</time>
      </trkpt>
      <trkpt lat="45.99827" lon="4.8355">
        <ele>258</ele>
        <time>2017-08-14T08:55:51Z</time>
      </trkpt>
      <trkpt lat="45.99825" lon="4.83542">
        <ele>259</ele>
        <time>2017-08-14T08:55:52Z</time>
      </trkpt>
      <trkpt lat="45.99823" lon="4.83534">
        <ele>259</ele>
        <time>2017-08-14T08:55:53Z</time>
      </trkpt>
      <trkpt lat="45.99821" lon="4.83526">
        <ele>259</ele>
        <time>2017-08-14T08:55:54Z</time>
      </trkpt>
      <trkpt lat="45.99819" lon="4.83519">
        <ele>259</ele>
        <time>2017-08-14T08:55:55Z</time>
      </trkpt>
      <trkpt lat="45.99817" lon="4.83511">
        <ele>259</ele>
        <time>2017-08-14T08:55:56Z</time>
      </trkpt>
      <trkpt lat="45.99816" lon="4.83503">
        <ele>259</ele>
        <time>2017-08-14T08:55:57Z</time>
      </trkpt>
      <trkpt lat="45.99814" lon="4.83494">
        <ele>260</ele>
        <time>2017-08-14T08:55:58Z</time>
      </trkpt>
      <trkpt lat="45.99812" lon="4.83487">
        <ele>260</ele>
        <time>2017-08-14T08:55:59Z</time>
      </trkpt>
      <trkpt lat="45.99811" lon="4.83479">
        <ele>260</ele>
        <time>2017-08-14T08:56:00Z</time>
      </trkpt>
      <trkpt lat="45.99809" lon="4.83472">
        <ele>260</ele>
        <time>2017-08-14T08:56:01Z</time>
      </trkpt>
      <trkpt lat="45.99807" lon="4.83464">
        <ele>261</ele>
        <time>2017-08-14T08:56:02Z</time>
      </trkpt>
      <trkpt lat="45.99805" lon="4.83457">
        <ele>261</ele>
        <time>2017-08-14T08:56:03Z</time>
      </trkpt>
      <trkpt lat="45.99803" lon="4.83449">
        <ele>261</ele>
        <time>2017-08-14T08:56:04Z</time>
      </trkpt>
      <trkpt lat="45.99801" lon="4.83442">
        <ele>261</ele>
        <time>2017-08-14T08:56:05Z</time>
      </trkpt>
      <trkpt lat="45.998" lon="4.83434">
        <ele>261</ele>
        <time>2017-08-14T08:56:06Z</time>
      </trkpt>
      <trkpt lat="45.99798" lon="4.83427">
        <ele>261</ele>
        <time>2017-08-14T08:56:07Z</time>
      </trkpt>
      <trkpt lat="45.99797" lon="4.8342">
        <ele>261</ele>
        <time>2017-08-14T08:56:08Z</time>
      </trkpt>
      <trkpt lat="45.99795" lon="4.83413">
        <ele>262</ele>
        <time>2017-08-14T08:56:09Z</time>
      </trkpt>
      <trkpt lat="45.99794" lon="4.83405">
        <ele>262</ele>
        <time>2017-08-14T08:56:10Z</time>
      </trkpt>
      <trkpt lat="45.99792" lon="4.83398">
        <ele>262</ele>
        <time>2017-08-14T08:56:11Z</time>
      </trkpt>
      <trkpt lat="45.9979" lon="4.83391">
        <ele>262</ele>
        <time>2017-08-14T08:56:12Z</time>
      </trkpt>
      <trkpt lat="45.99789" lon="4.83384">
        <ele>262</ele>
        <time>2017-08-14T08:56:13Z</time>
      </trkpt>
      <trkpt lat="45.99788" lon="4.83377">
        <ele>262</ele>
        <time>2017-08-14T08:56:14Z</time>
      </trkpt>
      <trkpt lat="45.99786" lon="4.8337">
        <ele>262</ele>
        <time>2017-08-14T08:56:15Z</time>
      </trkpt>
      <trkpt lat="45.99785" lon="4.83363">
        <ele>262</ele>
        <time>2017-08-14T08:56:16Z</time>
      </trkpt>
      <trkpt lat="45.99783" lon="4.83356">
        <ele>262</ele>
        <time>2017-08-14T08:56:17Z</time>
      </trkpt>
      <trkpt lat="45.99782" lon="4.83349">
        <ele>262</ele>
        <time>2017-08-14T08:56:18Z</time>
      </trkpt>
      <trkpt lat="45.99781" lon="4.83342">
        <ele>263</ele>
        <time>2017-08-14T08:56:19Z</time>
      </trkpt>
      <trkpt lat="45.9978" lon="4.83335">
        <ele>263</ele>
        <time>2017-08-14T08:56:20Z</time>
      </trkpt>
      <trkpt lat="45.99779" lon="4.83328">
        <ele>264</ele>
        <time>2017-08-14T08:56:21Z</time>
      </trkpt>
      <trkpt lat="45.99778" lon="4.83321">
        <ele>264</ele>
        <time>2017-08-14T08:56:22Z</time>
      </trkpt>
      <trkpt lat="45.99778" lon="4.83314">
        <ele>264</ele>
        <time>2017-08-14T08:56:23Z</time>
      </trkpt>
      <trkpt lat="45.99777" lon="4.83307">
        <ele>264</ele>
        <time>2017-08-14T08:56:24Z</time>
      </trkpt>
      <trkpt lat="45.99776" lon="4.833">
        <ele>264</ele>
        <time>2017-08-14T08:56:25Z</time>
      </trkpt>
      <trkpt lat="45.99775" lon="4.83293">
        <ele>264</ele>
        <time>2017-08-14T08:56:26Z</time>
      </trkpt>
      <trkpt lat="45.99774" lon="4.83286">
        <ele>264</ele>
        <time>2017-08-14T08:56:27Z</time>
      </trkpt>
      <trkpt lat="45.99774" lon="4.83279">
        <ele>265</ele>
        <time>2017-08-14T08:56:28Z</time>
      </trkpt>
      <trkpt lat="45.99774" lon="4.83271">
        <ele>265</ele>
        <time>2017-08-14T08:56:29Z</time>
      </trkpt>
      <trkpt lat="45.99773" lon="4.83264">
        <ele>265</ele>
        <time>2017-08-14T08:56:30Z</time>
      </trkpt>
      <trkpt lat="45.99772" lon="4.83257">
        <ele>265</ele>
        <time>2017-08-14T08:56:31Z</time>
      </trkpt>
      <trkpt lat="45.99771" lon="4.8325">
        <ele>267</ele>
        <time>2017-08-14T08:56:32Z</time>
      </trkpt>
      <trkpt lat="45.99771" lon="4.83242">
        <ele>267</ele>
        <time>2017-08-14T08:56:33Z</time>
      </trkpt>
      <trkpt lat="45.99771" lon="4.83235">
        <ele>267</ele>
        <time>2017-08-14T08:56:34Z</time>
      </trkpt>
      <trkpt lat="45.9977" lon="4.83229">
        <ele>267</ele>
        <time>2017-08-14T08:56:35Z</time>
      </trkpt>
      <trkpt lat="45.9977" lon="4.83222">
        <ele>268</ele>
        <time>2017-08-14T08:56:36Z</time>
      </trkpt>
      <trkpt lat="45.99769" lon="4.83216">
        <ele>268</ele>
        <time>2017-08-14T08:56:37Z</time>
      </trkpt>
      <trkpt lat="45.99769" lon="4.83204">
        <ele>268</ele>
        <time>2017-08-14T08:56:39Z</time>
      </trkpt>
      <trkpt lat="45.99769" lon="4.83198">
        <ele>268</ele>
        <time>2017-08-14T08:56:40Z</time>
      </trkpt>
      <trkpt lat="45.99768" lon="4.83191">
        <ele>269</ele>
        <time>2017-08-14T08:56:41Z</time>
      </trkpt>
      <trkpt lat="45.99767" lon="4.83185">
        <ele>269</ele>
        <time>2017-08-14T08:56:42Z</time>
      </trkpt>
      <trkpt lat="45.99767" lon="4.83178">
        <ele>269</ele>
        <time>2017-08-14T08:56:43Z</time>
      </trkpt>
      <trkpt lat="45.99766" lon="4.83171">
        <ele>269</ele>
        <time>2017-08-14T08:56:44Z</time>
      </trkpt>
      <trkpt lat="45.99765" lon="4.83164">
        <ele>271</ele>
        <time>2017-08-14T08:56:45Z</time>
      </trkpt>
      <trkpt lat="45.99765" lon="4.83157">
        <ele>271</ele>
        <time>2017-08-14T08:56:46Z</time>
      </trkpt>
      <trkpt lat="45.99764" lon="4.8315">
        <ele>271</ele>
        <time>2017-08-14T08:56:47Z</time>
      </trkpt>
      <trkpt lat="45.99763" lon="4.83143">
        <ele>271</ele>
        <time>2017-08-14T08:56:48Z</time>
      </trkpt>
      <trkpt lat="45.99762" lon="4.83137">
        <ele>271</ele>
        <time>2017-08-14T08:56:49Z</time>
      </trkpt>
      <trkpt lat="45.99762" lon="4.8313">
        <ele>271</ele>
        <time>2017-08-14T08:56:50Z</time>
      </trkpt>
      <trkpt lat="45.9976" lon="4.83118">
        <ele>271</ele>
        <time>2017-08-14T08:56:52Z</time>
      </trkpt>
      <trkpt lat="45.9976" lon="4.83111">
        <ele>271</ele>
        <time>2017-08-14T08:56:53Z</time>
      </trkpt>
      <trkpt lat="45.99759" lon="4.83099">
        <ele>272</ele>
        <time>2017-08-14T08:56:55Z</time>
      </trkpt>
      <trkpt lat="45.99758" lon="4.83093">
        <ele>272</ele>
        <time>2017-08-14T08:56:56Z</time>
      </trkpt>
      <trkpt lat="45.99756" lon="4.83081">
        <ele>272</ele>
        <time>2017-08-14T08:56:58Z</time>
      </trkpt>
      <trkpt lat="45.99756" lon="4.83075">
        <ele>272</ele>
        <time>2017-08-14T08:56:59Z</time>
      </trkpt>
      <trkpt lat="45.99753" lon="4.83063">
        <ele>272</ele>
        <time>2017-08-14T08:57:01Z</time>
      </trkpt>
      <trkpt lat="45.99752" lon="4.83057">
        <ele>272</ele>
        <time>2017-08-14T08:57:02Z</time>
      </trkpt>
      <trkpt lat="45.9975" lon="4.83045">
        <ele>271</ele>
        <time>2017-08-14T08:57:04Z</time>
      </trkpt>
      <trkpt lat="45.99748" lon="4.83039">
        <ele>271</ele>
        <time>2017-08-14T08:57:05Z</time>
      </trkpt>
      <trkpt lat="45.99746" lon="4.83033">
        <ele>271</ele>
        <time>2017-08-14T08:57:06Z</time>
      </trkpt>
      <trkpt lat="45.99744" lon="4.83026">
        <ele>271</ele>
        <time>2017-08-14T08:57:07Z</time>
      </trkpt>
      <trkpt lat="45.9974" lon="4.83014">
        <ele>271</ele>
        <time>2017-08-14T08:57:09Z</time>
      </trkpt>
      <trkpt lat="45.99739" lon="4.83009">
        <ele>271</ele>
        <time>2017-08-14T08:57:10Z</time>
      </trkpt>
      <trkpt lat="45.99735" lon="4.82997">
        <ele>271</ele>
        <time>2017-08-14T08:57:12Z</time>
      </trkpt>
      <trkpt lat="45.99733" lon="4.82991">
        <ele>271</ele>
        <time>2017-08-14T08:57:13Z</time>
      </trkpt>
      <trkpt lat="45.9973" lon="4.8298">
        <ele>271</ele>
        <time>2017-08-14T08:57:15Z</time>
      </trkpt>
      <trkpt lat="45.99728" lon="4.82974">
        <ele>271</ele>
        <time>2017-08-14T08:57:16Z</time>
      </trkpt>
      <trkpt lat="45.99725" lon="4.82964">
        <ele>271</ele>
        <time>2017-08-14T08:57:18Z</time>
      </trkpt>
      <trkpt lat="45.99724" lon="4.82959">
        <ele>271</ele>
        <time>2017-08-14T08:57:19Z</time>
      </trkpt>
      <trkpt lat="45.9972" lon="4.82949">
        <ele>271</ele>
        <time>2017-08-14T08:57:21Z</time>
      </trkpt>
      <trkpt lat="45.99718" lon="4.82944">
        <ele>271</ele>
        <time>2017-08-14T08:57:22Z</time>
      </trkpt>
      <trkpt lat="45.99715" lon="4.82933">
        <ele>271</ele>
        <time>2017-08-14T08:57:24Z</time>
      </trkpt>
      <trkpt lat="45.99713" lon="4.82927">
        <ele>271</ele>
        <time>2017-08-14T08:57:25Z</time>
      </trkpt>
      <trkpt lat="45.99709" lon="4.82916">
        <ele>271</ele>
        <time>2017-08-14T08:57:27Z</time>
      </trkpt>
      <trkpt lat="45.99707" lon="4.8291">
        <ele>271</ele>
        <time>2017-08-14T08:57:28Z</time>
      </trkpt>
      <trkpt lat="45.99704" lon="4.82898">
        <ele>271</ele>
        <time>2017-08-14T08:57:30Z</time>
      </trkpt>
      <trkpt lat="45.99702" lon="4.82892">
        <ele>271</ele>
        <time>2017-08-14T08:57:31Z</time>
      </trkpt>
      <trkpt lat="45.997" lon="4.82886">
        <ele>271</ele>
        <time>2017-08-14T08:57:32Z</time>
      </trkpt>
      <trkpt lat="45.99698" lon="4.8288">
        <ele>271</ele>
        <time>2017-08-14T08:57:33Z</time>
      </trkpt>
      <trkpt lat="45.99697" lon="4.82874">
        <ele>270</ele>
        <time>2017-08-14T08:57:34Z</time>
      </trkpt>
      <trkpt lat="45.99695" lon="4.82867">
        <ele>270</ele>
        <time>2017-08-14T08:57:35Z</time>
      </trkpt>
      <trkpt lat="45.99693" lon="4.8286">
        <ele>270</ele>
        <time>2017-08-14T08:57:36Z</time>
      </trkpt>
      <trkpt lat="45.99691" lon="4.82854">
        <ele>270</ele>
        <time>2017-08-14T08:57:37Z</time>
      </trkpt>
      <trkpt lat="45.99688" lon="4.82848">
        <ele>270</ele>
        <time>2017-08-14T08:57:38Z</time>
      </trkpt>
      <trkpt lat="45.99686" lon="4.82841">
        <ele>270</ele>
        <time>2017-08-14T08:57:39Z</time>
      </trkpt>
      <trkpt lat="45.99684" lon="4.82835">
        <ele>270</ele>
        <time>2017-08-14T08:57:40Z</time>
      </trkpt>
      <trkpt lat="45.99683" lon="4.82828">
        <ele>270</ele>
        <time>2017-08-14T08:57:41Z</time>
      </trkpt>
      <trkpt lat="45.99681" lon="4.82822">
        <ele>270</ele>
        <time>2017-08-14T08:57:42Z</time>
      </trkpt>
      <trkpt lat="45.99679" lon="4.82815">
        <ele>270</ele>
        <time>2017-08-14T08:57:43Z</time>
      </trkpt>
      <trkpt lat="45.99678" lon="4.82808">
        <ele>270</ele>
        <time>2017-08-14T08:57:44Z</time>
      </trkpt>
      <trkpt lat="45.99676" lon="4.82801">
        <ele>270</ele>
        <time>2017-08-14T08:57:45Z</time>
      </trkpt>
      <trkpt lat="45.99674" lon="4.82793">
        <ele>270</ele>
        <time>2017-08-14T08:57:46Z</time>
      </trkpt>
      <trkpt lat="45.99672" lon="4.82785">
        <ele>269</ele>
        <time>2017-08-14T08:57:47Z</time>
      </trkpt>
      <trkpt lat="45.99671" lon="4.82777">
        <ele>269</ele>
        <time>2017-08-14T08:57:48Z</time>
      </trkpt>
      <trkpt lat="45.99669" lon="4.82769">
        <ele>269</ele>
        <time>2017-08-14T08:57:49Z</time>
      </trkpt>
      <trkpt lat="45.99668" lon="4.8276">
        <ele>269</ele>
        <time>2017-08-14T08:57:50Z</time>
      </trkpt>
      <trkpt lat="45.99667" lon="4.82751">
        <ele>269</ele>
        <time>2017-08-14T08:57:51Z</time>
      </trkpt>
      <trkpt lat="45.99666" lon="4.82742">
        <ele>269</ele>
        <time>2017-08-14T08:57:52Z</time>
      </trkpt>
      <trkpt lat="45.99665" lon="4.82733">
        <ele>268</ele>
        <time>2017-08-14T08:57:53Z</time>
      </trkpt>
      <trkpt lat="45.99664" lon="4.82725">
        <ele>268</ele>
        <time>2017-08-14T08:57:54Z</time>
      </trkpt>
      <trkpt lat="45.99662" lon="4.82715">
        <ele>268</ele>
        <time>2017-08-14T08:57:55Z</time>
      </trkpt>
      <trkpt lat="45.99662" lon="4.82706">
        <ele>268</ele>
        <time>2017-08-14T08:57:56Z</time>
      </trkpt>
      <trkpt lat="45.99661" lon="4.82697">
        <ele>268</ele>
        <time>2017-08-14T08:57:57Z</time>
      </trkpt>
      <trkpt lat="45.9966" lon="4.82688">
        <ele>268</ele>
        <time>2017-08-14T08:57:58Z</time>
      </trkpt>
      <trkpt lat="45.99658" lon="4.82679">
        <ele>268</ele>
        <time>2017-08-14T08:57:59Z</time>
      </trkpt>
      <trkpt lat="45.99657" lon="4.8267">
        <ele>268</ele>
        <time>2017-08-14T08:58:00Z</time>
      </trkpt>
      <trkpt lat="45.99656" lon="4.8266">
        <ele>268</ele>
        <time>2017-08-14T08:58:01Z</time>
      </trkpt>
      <trkpt lat="45.99654" lon="4.82651">
        <ele>267</ele>
        <time>2017-08-14T08:58:02Z</time>
      </trkpt>
      <trkpt lat="45.99653" lon="4.82643">
        <ele>267</ele>
        <time>2017-08-14T08:58:03Z</time>
      </trkpt>
      <trkpt lat="45.99652" lon="4.82634">
        <ele>267</ele>
        <time>2017-08-14T08:58:04Z</time>
      </trkpt>
      <trkpt lat="45.99651" lon="4.82626">
        <ele>267</ele>
        <time>2017-08-14T08:58:05Z</time>
      </trkpt>
      <trkpt lat="45.9965" lon="4.82618">
        <ele>267</ele>
        <time>2017-08-14T08:58:06Z</time>
      </trkpt>
      <trkpt lat="45.99648" lon="4.8261">
        <ele>267</ele>
        <time>2017-08-14T08:58:07Z</time>
      </trkpt>
      <trkpt lat="45.99647" lon="4.82602">
        <ele>267</ele>
        <time>2017-08-14T08:58:08Z</time>
      </trkpt>
      <trkpt lat="45.99645" lon="4.82594">
        <ele>267</ele>
        <time>2017-08-14T08:58:09Z</time>
      </trkpt>
      <trkpt lat="45.99643" lon="4.82586">
        <ele>267</ele>
        <time>2017-08-14T08:58:10Z</time>
      </trkpt>
      <trkpt lat="45.99642" lon="4.82578">
        <ele>266</ele>
        <time>2017-08-14T08:58:11Z</time>
      </trkpt>
      <trkpt lat="45.9964" lon="4.8257">
        <ele>266</ele>
        <time>2017-08-14T08:58:12Z</time>
      </trkpt>
      <trkpt lat="45.99638" lon="4.82562">
        <ele>266</ele>
        <time>2017-08-14T08:58:13Z</time>
      </trkpt>
      <trkpt lat="45.99637" lon="4.82554">
        <ele>266</ele>
        <time>2017-08-14T08:58:14Z</time>
      </trkpt>
      <trkpt lat="45.99634" lon="4.82546">
        <ele>266</ele>
        <time>2017-08-14T08:58:15Z</time>
      </trkpt>
      <trkpt lat="45.99632" lon="4.82538">
        <ele>266</ele>
        <time>2017-08-14T08:58:16Z</time>
      </trkpt>
      <trkpt lat="45.9963" lon="4.8253">
        <ele>266</ele>
        <time>2017-08-14T08:58:17Z</time>
      </trkpt>
      <trkpt lat="45.99628" lon="4.82521">
        <ele>265</ele>
        <time>2017-08-14T08:58:18Z</time>
      </trkpt>
      <trkpt lat="45.99625" lon="4.82513">
        <ele>265</ele>
        <time>2017-08-14T08:58:19Z</time>
      </trkpt>
      <trkpt lat="45.99623" lon="4.82504">
        <ele>265</ele>
        <time>2017-08-14T08:58:20Z</time>
      </trkpt>
      <trkpt lat="45.9962" lon="4.82495">
        <ele>265</ele>
        <time>2017-08-14T08:58:21Z</time>
      </trkpt>
      <trkpt lat="45.99618" lon="4.82487">
        <ele>265</ele>
        <time>2017-08-14T08:58:22Z</time>
      </trkpt>
      <trkpt lat="45.99615" lon="4.82478">
        <ele>265</ele>
        <time>2017-08-14T08:58:23Z</time>
      </trkpt>
      <trkpt lat="45.99612" lon="4.8247">
        <ele>265</ele>
        <time>2017-08-14T08:58:24Z</time>
      </trkpt>
      <trkpt lat="45.99609" lon="4.82462">
        <ele>265</ele>
        <time>2017-08-14T08:58:25Z</time>
      </trkpt>
      <trkpt lat="45.99605" lon="4.82453">
        <ele>264</ele>
        <time>2017-08-14T08:58:26Z</time>
      </trkpt>
      <trkpt lat="45.99602" lon="4.82445">
        <ele>264</ele>
        <time>2017-08-14T08:58:27Z</time>
      </trkpt>
      <trkpt lat="45.99598" lon="4.82436">
        <ele>264</ele>
        <time>2017-08-14T08:58:28Z</time>
      </trkpt>
      <trkpt lat="45.99595" lon="4.82428">
        <ele>263</ele>
        <time>2017-08-14T08:58:29Z</time>
      </trkpt>
      <trkpt lat="45.99592" lon="4.82418">
        <ele>263</ele>
        <time>2017-08-14T08:58:30Z</time>
      </trkpt>
      <trkpt lat="45.99589" lon="4.82409">
        <ele>263</ele>
        <time>2017-08-14T08:58:31Z</time>
      </trkpt>
      <trkpt lat="45.99587" lon="4.82399">
        <ele>264</ele>
        <time>2017-08-14T08:58:32Z</time>
      </trkpt>
      <trkpt lat="45.99585" lon="4.82388">
        <ele>264</ele>
        <time>2017-08-14T08:58:33Z</time>
      </trkpt>
      <trkpt lat="45.99583" lon="4.82378">
        <ele>261</ele>
        <time>2017-08-14T08:58:34Z</time>
      </trkpt>
      <trkpt lat="45.99582" lon="4.82366">
        <ele>261</ele>
        <time>2017-08-14T08:58:35Z</time>
      </trkpt>
      <trkpt lat="45.9958" lon="4.82355">
        <ele>261</ele>
        <time>2017-08-14T08:58:36Z</time>
      </trkpt>
      <trkpt lat="45.99578" lon="4.82344">
        <ele>262</ele>
        <time>2017-08-14T08:58:37Z</time>
      </trkpt>
      <trkpt lat="45.99577" lon="4.82333">
        <ele>263</ele>
        <time>2017-08-14T08:58:38Z</time>
      </trkpt>
      <trkpt lat="45.99575" lon="4.82321">
        <ele>262</ele>
        <time>2017-08-14T08:58:39Z</time>
      </trkpt>
      <trkpt lat="45.99572" lon="4.8231">
        <ele>262</ele>
        <time>2017-08-14T08:58:40Z</time>
      </trkpt>
      <trkpt lat="45.9957" lon="4.82299">
        <ele>262</ele>
        <time>2017-08-14T08:58:41Z</time>
      </trkpt>
      <trkpt lat="45.99567" lon="4.82288">
        <ele>262</ele>
        <time>2017-08-14T08:58:42Z</time>
      </trkpt>
      <trkpt lat="45.99564" lon="4.82278">
        <ele>262</ele>
        <time>2017-08-14T08:58:43Z</time>
      </trkpt>
      <trkpt lat="45.99562" lon="4.82268">
        <ele>262</ele>
        <time>2017-08-14T08:58:44Z</time>
      </trkpt>
      <trkpt lat="45.9956" lon="4.82258">
        <ele>262</ele>
        <time>2017-08-14T08:58:45Z</time>
      </trkpt>
      <trkpt lat="45.99557" lon="4.82249">
        <ele>262</ele>
        <time>2017-08-14T08:58:46Z</time>
      </trkpt>
      <trkpt lat="45.99555" lon="4.82241">
        <ele>262</ele>
        <time>2017-08-14T08:58:47Z</time>
      </trkpt>
      <trkpt lat="45.99553" lon="4.82233">
        <ele>262</ele>
        <time>2017-08-14T08:58:48Z</time>
      </trkpt>
      <trkpt lat="45.99551" lon="4.82225">
        <ele>262</ele>
        <time>2017-08-14T08:58:49Z</time>
      </trkpt>
      <trkpt lat="45.99548" lon="4.82218">
        <ele>262</ele>
        <time>2017-08-14T08:58:50Z</time>
      </trkpt>
      <trkpt lat="45.99546" lon="4.82211">
        <ele>262</ele>
        <time>2017-08-14T08:58:51Z</time>
      </trkpt>
      <trkpt lat="45.99544" lon="4.82204">
        <ele>262</ele>
        <time>2017-08-14T08:58:52Z</time>
      </trkpt>
      <trkpt lat="45.99543" lon="4.82197">
        <ele>262</ele>
        <time>2017-08-14T08:58:53Z</time>
      </trkpt>
      <trkpt lat="45.99541" lon="4.82191">
        <ele>262</ele>
        <time>2017-08-14T08:58:54Z</time>
      </trkpt>
      <trkpt lat="45.9954" lon="4.82184">
        <ele>262</ele>
        <time>2017-08-14T08:58:55Z</time>
      </trkpt>
      <trkpt lat="45.99538" lon="4.82177">
        <ele>262</ele>
        <time>2017-08-14T08:58:56Z</time>
      </trkpt>
      <trkpt lat="45.99537" lon="4.82169">
        <ele>262</ele>
        <time>2017-08-14T08:58:57Z</time>
      </trkpt>
      <trkpt lat="45.99536" lon="4.82161">
        <ele>263</ele>
        <time>2017-08-14T08:58:58Z</time>
      </trkpt>
      <trkpt lat="45.99534" lon="4.82153">
        <ele>263</ele>
        <time>2017-08-14T08:58:59Z</time>
      </trkpt>
      <trkpt lat="45.99533" lon="4.82145">
        <ele>263</ele>
        <time>2017-08-14T08:59:00Z</time>
      </trkpt>
      <trkpt lat="45.99531" lon="4.82137">
        <ele>263</ele>
        <time>2017-08-14T08:59:01Z</time>
      </trkpt>
      <trkpt lat="45.99529" lon="4.82128">
        <ele>263</ele>
        <time>2017-08-14T08:59:02Z</time>
      </trkpt>
      <trkpt lat="45.99528" lon="4.82119">
        <ele>263</ele>
        <time>2017-08-14T08:59:03Z</time>
      </trkpt>
      <trkpt lat="45.99526" lon="4.82109">
        <ele>262</ele>
        <time>2017-08-14T08:59:04Z</time>
      </trkpt>
      <trkpt lat="45.99526" lon="4.821">
        <ele>262</ele>
        <time>2017-08-14T08:59:05Z</time>
      </trkpt>
      <trkpt lat="45.99526" lon="4.82091">
        <ele>262</ele>
        <time>2017-08-14T08:59:06Z</time>
      </trkpt>
      <trkpt lat="45.99526" lon="4.82082">
        <ele>262</ele>
        <time>2017-08-14T08:59:07Z</time>
      </trkpt>
      <trkpt lat="45.99525" lon="4.82073">
        <ele>262</ele>
        <time>2017-08-14T08:59:08Z</time>
      </trkpt>
      <trkpt lat="45.99525" lon="4.82063">
        <ele>262</ele>
        <time>2017-08-14T08:59:09Z</time>
      </trkpt>
      <trkpt lat="45.99523" lon="4.82054">
        <ele>262</ele>
        <time>2017-08-14T08:59:10Z</time>
      </trkpt>
      <trkpt lat="45.99522" lon="4.82046">
        <ele>262</ele>
        <time>2017-08-14T08:59:11Z</time>
      </trkpt>
      <trkpt lat="45.99521" lon="4.82038">
        <ele>262</ele>
        <time>2017-08-14T08:59:12Z</time>
      </trkpt>
      <trkpt lat="45.99519" lon="4.8203">
        <ele>261</ele>
        <time>2017-08-14T08:59:13Z</time>
      </trkpt>
      <trkpt lat="45.99518" lon="4.82024">
        <ele>261</ele>
        <time>2017-08-14T08:59:14Z</time>
      </trkpt>
      <trkpt lat="45.99517" lon="4.82017">
        <ele>261</ele>
        <time>2017-08-14T08:59:15Z</time>
      </trkpt>
      <trkpt lat="45.99516" lon="4.82009">
        <ele>261</ele>
        <time>2017-08-14T08:59:16Z</time>
      </trkpt>
      <trkpt lat="45.99515" lon="4.82002">
        <ele>260</ele>
        <time>2017-08-14T08:59:17Z</time>
      </trkpt>
      <trkpt lat="45.99514" lon="4.81994">
        <ele>260</ele>
        <time>2017-08-14T08:59:18Z</time>
      </trkpt>
      <trkpt lat="45.99513" lon="4.81987">
        <ele>260</ele>
        <time>2017-08-14T08:59:19Z</time>
      </trkpt>
      <trkpt lat="45.99512" lon="4.81979">
        <ele>260</ele>
        <time>2017-08-14T08:59:20Z</time>
      </trkpt>
      <trkpt lat="45.99512" lon="4.81971">
        <ele>261</ele>
        <time>2017-08-14T08:59:21Z</time>
      </trkpt>
      <trkpt lat="45.99511" lon="4.81963">
        <ele>261</ele>
        <time>2017-08-14T08:59:22Z</time>
      </trkpt>
      <trkpt lat="45.9951" lon="4.81954">
        <ele>261</ele>
        <time>2017-08-14T08:59:23Z</time>
      </trkpt>
      <trkpt lat="45.9951" lon="4.81946">
        <ele>261</ele>
        <time>2017-08-14T08:59:24Z</time>
      </trkpt>
      <trkpt lat="45.99509" lon="4.81938">
        <ele>260</ele>
        <time>2017-08-14T08:59:25Z</time>
      </trkpt>
      <trkpt lat="45.99508" lon="4.8193">
        <ele>260</ele>
        <time>2017-08-14T08:59:26Z</time>
      </trkpt>
      <trkpt lat="45.99507" lon="4.81922">
        <ele>260</ele>
        <time>2017-08-14T08:59:27Z</time>
      </trkpt>
      <trkpt lat="45.99506" lon="4.81914">
        <ele>260</ele>
        <time>2017-08-14T08:59:28Z</time>
      </trkpt>
      <trkpt lat="45.99505" lon="4.81906">
        <ele>260</ele>
        <time>2017-08-14T08:59:29Z</time>
      </trkpt>
      <trkpt lat="45.99504" lon="4.81898">
        <ele>261</ele>
        <time>2017-08-14T08:59:30Z</time>
      </trkpt>
      <trkpt lat="45.99503" lon="4.8189">
        <ele>261</ele>
        <time>2017-08-14T08:59:31Z</time>
      </trkpt>
      <trkpt lat="45.99502" lon="4.81882">
        <ele>261</ele>
        <time>2017-08-14T08:59:32Z</time>
      </trkpt>
      <trkpt lat="45.99501" lon="4.81873">
        <ele>261</ele>
        <time>2017-08-14T08:59:33Z</time>
      </trkpt>
      <trkpt lat="45.995" lon="4.81864">
        <ele>260</ele>
        <time>2017-08-14T08:59:34Z</time>
      </trkpt>
      <trkpt lat="45.99499" lon="4.81854">
        <ele>261</ele>
        <time>2017-08-14T08:59:35Z</time>
      </trkpt>
      <trkpt lat="45.99498" lon="4.81844">
        <ele>261</ele>
        <time>2017-08-14T08:59:36Z</time>
      </trkpt>
      <trkpt lat="45.99497" lon="4.81834">
        <ele>262</ele>
        <time>2017-08-14T08:59:37Z</time>
      </trkpt>
      <trkpt lat="45.99495" lon="4.81824">
        <ele>262</ele>
        <time>2017-08-14T08:59:38Z</time>
      </trkpt>
      <trkpt lat="45.99494" lon="4.81814">
        <ele>262</ele>
        <time>2017-08-14T08:59:39Z</time>
      </trkpt>
      <trkpt lat="45.99493" lon="4.81803">
        <ele>262</ele>
        <time>2017-08-14T08:59:40Z</time>
      </trkpt>
      <trkpt lat="45.99492" lon="4.81793">
        <ele>262</ele>
        <time>2017-08-14T08:59:41Z</time>
      </trkpt>
      <trkpt lat="45.9949" lon="4.81783">
        <ele>262</ele>
        <time>2017-08-14T08:59:42Z</time>
      </trkpt>
      <trkpt lat="45.99489" lon="4.81774">
        <ele>262</ele>
        <time>2017-08-14T08:59:43Z</time>
      </trkpt>
      <trkpt lat="45.99487" lon="4.81764">
        <ele>262</ele>
        <time>2017-08-14T08:59:44Z</time>
      </trkpt>
      <trkpt lat="45.99486" lon="4.81755">
        <ele>262</ele>
        <time>2017-08-14T08:59:45Z</time>
      </trkpt>
      <trkpt lat="45.99484" lon="4.81746">
        <ele>262</ele>
        <time>2017-08-14T08:59:46Z</time>
      </trkpt>
      <trkpt lat="45.99483" lon="4.81737">
        <ele>261</ele>
        <time>2017-08-14T08:59:47Z</time>
      </trkpt>
      <trkpt lat="45.99481" lon="4.81727">
        <ele>261</ele>
        <time>2017-08-14T08:59:48Z</time>
      </trkpt>
      <trkpt lat="45.9948" lon="4.81717">
        <ele>261</ele>
        <time>2017-08-14T08:59:49Z</time>
      </trkpt>
      <trkpt lat="45.99479" lon="4.81708">
        <ele>261</ele>
        <time>2017-08-14T08:59:50Z</time>
      </trkpt>
      <trkpt lat="45.99478" lon="4.81698">
        <ele>261</ele>
        <time>2017-08-14T08:59:51Z</time>
      </trkpt>
      <trkpt lat="45.99477" lon="4.81689">
        <ele>261</ele>
        <time>2017-08-14T08:59:52Z</time>
      </trkpt>
      <trkpt lat="45.99475" lon="4.8168">
        <ele>261</ele>
        <time>2017-08-14T08:59:53Z</time>
      </trkpt>
      <trkpt lat="45.99474" lon="4.81671">
        <ele>261</ele>
        <time>2017-08-14T08:59:54Z</time>
      </trkpt>
      <trkpt lat="45.99473" lon="4.81662">
        <ele>259</ele>
        <time>2017-08-14T08:59:55Z</time>
      </trkpt>
      <trkpt lat="45.99472" lon="4.81652">
        <ele>259</ele>
        <time>2017-08-14T08:59:56Z</time>
      </trkpt>
      <trkpt lat="45.99471" lon="4.81643">
        <ele>258</ele>
        <time>2017-08-14T08:59:57Z</time>
      </trkpt>
      <trkpt lat="45.9947" lon="4.81633">
        <ele>258</ele>
        <time>2017-08-14T08:59:58Z</time>
      </trkpt>
      <trkpt lat="45.99468" lon="4.81624">
        <ele>258</ele>
        <time>2017-08-14T08:59:59Z</time>
      </trkpt>
      <trkpt lat="45.99467" lon="4.81615">
        <ele>258</ele>
        <time>2017-08-14T09:00:00Z</time>
      </trkpt>
      <trkpt lat="45.99466" lon="4.81606">
        <ele>258</ele>
        <time>2017-08-14T09:00:01Z</time>
      </trkpt>
      <trkpt lat="45.99464" lon="4.81597">
        <ele>257</ele>
        <time>2017-08-14T09:00:02Z</time>
      </trkpt>
      <trkpt lat="45.99463" lon="4.81588">
        <ele>257</ele>
        <time>2017-08-14T09:00:03Z</time>
      </trkpt>
      <trkpt lat="45.99461" lon="4.81579">
        <ele>255</ele>
        <time>2017-08-14T09:00:04Z</time>
      </trkpt>
      <trkpt lat="45.9946" lon="4.81569">
        <ele>255</ele>
        <time>2017-08-14T09:00:05Z</time>
      </trkpt>
      <trkpt lat="45.99458" lon="4.8156">
        <ele>255</ele>
        <time>2017-08-14T09:00:06Z</time>
      </trkpt>
      <trkpt lat="45.99457" lon="4.81551">
        <ele>255</ele>
        <time>2017-08-14T09:00:07Z</time>
      </trkpt>
      <trkpt lat="45.99455" lon="4.81541">
        <ele>255</ele>
        <time>2017-08-14T09:00:08Z</time>
      </trkpt>
      <trkpt lat="45.99454" lon="4.81532">
        <ele>255</ele>
        <time>2017-08-14T09:00:09Z</time>
      </trkpt>
      <trkpt lat="45.99453" lon="4.81523">
        <ele>255</ele>
        <time>2017-08-14T09:00:10Z</time>
      </trkpt>
      <trkpt lat="45.99451" lon="4.81514">
        <ele>255</ele>
        <time>2017-08-14T09:00:11Z</time>
      </trkpt>
      <trkpt lat="45.9945" lon="4.81505">
        <ele>255</ele>
        <time>2017-08-14T09:00:12Z</time>
      </trkpt>
      <trkpt lat="45.99449" lon="4.81496">
        <ele>254</ele>
        <time>2017-08-14T09:00:13Z</time>
      </trkpt>
      <trkpt lat="45.99447" lon="4.81487">
        <ele>254</ele>
        <time>2017-08-14T09:00:14Z</time>
      </trkpt>
      <trkpt lat="45.99446" lon="4.81478">
        <ele>254</ele>
        <time>2017-08-14T09:00:15Z</time>
      </trkpt>
      <trkpt lat="45.99445" lon="4.81469">
        <ele>254</ele>
        <time>2017-08-14T09:00:16Z</time>
      </trkpt>
      <trkpt lat="45.99443" lon="4.81461">
        <ele>254</ele>
        <time>2017-08-14T09:00:17Z</time>
      </trkpt>
      <trkpt lat="45.99442" lon="4.81452">
        <ele>254</ele>
        <time>2017-08-14T09:00:18Z</time>
      </trkpt>
      <trkpt lat="45.99441" lon="4.81444">
        <ele>254</ele>
        <time>2017-08-14T09:00:19Z</time>
      </trkpt>
      <trkpt lat="45.9944" lon="4.81435">
        <ele>254</ele>
        <time>2017-08-14T09:00:20Z</time>
      </trkpt>
      <trkpt lat="45.99439" lon="4.81427">
        <ele>254</ele>
        <time>2017-08-14T09:00:21Z</time>
      </trkpt>
      <trkpt lat="45.99438" lon="4.81417">
        <ele>254</ele>
        <time>2017-08-14T09:00:22Z</time>
      </trkpt>
      <trkpt lat="45.99436" lon="4.81407">
        <ele>254</ele>
        <time>2017-08-14T09:00:23Z</time>
      </trkpt>
      <trkpt lat="45.99435" lon="4.81397">
        <ele>254</ele>
        <time>2017-08-14T09:00:24Z</time>
      </trkpt>
      <trkpt lat="45.99434" lon="4.81387">
        <ele>254</ele>
        <time>2017-08-14T09:00:25Z</time>
      </trkpt>
      <trkpt lat="45.99433" lon="4.81377">
        <ele>254</ele>
        <time>2017-08-14T09:00:26Z</time>
      </trkpt>
      <trkpt lat="45.99432" lon="4.81367">
        <ele>254</ele>
        <time>2017-08-14T09:00:27Z</time>
      </trkpt>
      <trkpt lat="45.99431" lon="4.81358">
        <ele>254</ele>
        <time>2017-08-14T09:00:28Z</time>
      </trkpt>
      <trkpt lat="45.99431" lon="4.81349">
        <ele>254</ele>
        <time>2017-08-14T09:00:29Z</time>
      </trkpt>
      <trkpt lat="45.99429" lon="4.81339">
        <ele>254</ele>
        <time>2017-08-14T09:00:30Z</time>
      </trkpt>
      <trkpt lat="45.99428" lon="4.81329">
        <ele>254</ele>
        <time>2017-08-14T09:00:31Z</time>
      </trkpt>
      <trkpt lat="45.99426" lon="4.8132">
        <ele>254</ele>
        <time>2017-08-14T09:00:32Z</time>
      </trkpt>
      <trkpt lat="45.99425" lon="4.81311">
        <ele>254</ele>
        <time>2017-08-14T09:00:33Z</time>
      </trkpt>
      <trkpt lat="45.99423" lon="4.81301">
        <ele>253</ele>
        <time>2017-08-14T09:00:34Z</time>
      </trkpt>
      <trkpt lat="45.99422" lon="4.81291">
        <ele>253</ele>
        <time>2017-08-14T09:00:35Z</time>
      </trkpt>
      <trkpt lat="45.99421" lon="4.81282">
        <ele>253</ele>
        <time>2017-08-14T09:00:36Z</time>
      </trkpt>
      <trkpt lat="45.9942" lon="4.81273">
        <ele>253</ele>
        <time>2017-08-14T09:00:37Z</time>
      </trkpt>
      <trkpt lat="45.99418" lon="4.81264">
        <ele>252</ele>
        <time>2017-08-14T09:00:38Z</time>
      </trkpt>
      <trkpt lat="45.99416" lon="4.81256">
        <ele>252</ele>
        <time>2017-08-14T09:00:39Z</time>
      </trkpt>
      <trkpt lat="45.99415" lon="4.81248">
        <ele>252</ele>
        <time>2017-08-14T09:00:40Z</time>
      </trkpt>
      <trkpt lat="45.99414" lon="4.8124">
        <ele>252</ele>
        <time>2017-08-14T09:00:41Z</time>
      </trkpt>
      <trkpt lat="45.99413" lon="4.81232">
        <ele>252</ele>
        <time>2017-08-14T09:00:42Z</time>
      </trkpt>
      <trkpt lat="45.99412" lon="4.81224">
        <ele>252</ele>
        <time>2017-08-14T09:00:43Z</time>
      </trkpt>
      <trkpt lat="45.99411" lon="4.81216">
        <ele>252</ele>
        <time>2017-08-14T09:00:44Z</time>
      </trkpt>
      <trkpt lat="45.9941" lon="4.81208">
        <ele>252</ele>
        <time>2017-08-14T09:00:45Z</time>
      </trkpt>
      <trkpt lat="45.99409" lon="4.81199">
        <ele>252</ele>
        <time>2017-08-14T09:00:46Z</time>
      </trkpt>
      <trkpt lat="45.99407" lon="4.8119">
        <ele>251</ele>
        <time>2017-08-14T09:00:47Z</time>
      </trkpt>
      <trkpt lat="45.99405" lon="4.8118">
        <ele>251</ele>
        <time>2017-08-14T09:00:48Z</time>
      </trkpt>
      <trkpt lat="45.99404" lon="4.8117">
        <ele>251</ele>
        <time>2017-08-14T09:00:49Z</time>
      </trkpt>
      <trkpt lat="45.99403" lon="4.81161">
        <ele>251</ele>
        <time>2017-08-14T09:00:50Z</time>
      </trkpt>
      <trkpt lat="45.99401" lon="4.81151">
        <ele>251</ele>
        <time>2017-08-14T09:00:51Z</time>
      </trkpt>
      <trkpt lat="45.994" lon="4.81142">
        <ele>251</ele>
        <time>2017-08-14T09:00:52Z</time>
      </trkpt>
      <trkpt lat="45.99399" lon="4.81133">
        <ele>251</ele>
        <time>2017-08-14T09:00:53Z</time>
      </trkpt>
      <trkpt lat="45.99398" lon="4.81124">
        <ele>251</ele>
        <time>2017-08-14T09:00:54Z</time>
      </trkpt>
      <trkpt lat="45.99397" lon="4.81115">
        <ele>251</ele>
        <time>2017-08-14T09:00:55Z</time>
      </trkpt>
      <trkpt lat="45.99396" lon="4.81107">
        <ele>251</ele>
        <time>2017-08-14T09:00:56Z</time>
      </trkpt>
      <trkpt lat="45.99395" lon="4.81098">
        <ele>251</ele>
        <time>2017-08-14T09:00:57Z</time>
      </trkpt>
      <trkpt lat="45.99393" lon="4.8109">
        <ele>251</ele>
        <time>2017-08-14T09:00:58Z</time>
      </trkpt>
      <trkpt lat="45.99392" lon="4.81082">
        <ele>251</ele>
        <time>2017-08-14T09:00:59Z</time>
      </trkpt>
      <trkpt lat="45.99391" lon="4.81074">
        <ele>251</ele>
        <time>2017-08-14T09:01:00Z</time>
      </trkpt>
      <trkpt lat="45.9939" lon="4.81066">
        <ele>251</ele>
        <time>2017-08-14T09:01:01Z</time>
      </trkpt>
      <trkpt lat="45.99388" lon="4.81057">
        <ele>251</ele>
        <time>2017-08-14T09:01:02Z</time>
      </trkpt>
      <trkpt lat="45.99387" lon="4.81049">
        <ele>251</ele>
        <time>2017-08-14T09:01:03Z</time>
      </trkpt>
      <trkpt lat="45.99386" lon="4.8104">
        <ele>251</ele>
        <time>2017-08-14T09:01:04Z</time>
      </trkpt>
      <trkpt lat="45.99385" lon="4.81031">
        <ele>251</ele>
        <time>2017-08-14T09:01:05Z</time>
      </trkpt>
      <trkpt lat="45.99383" lon="4.81022">
        <ele>251</ele>
        <time>2017-08-14T09:01:06Z</time>
      </trkpt>
      <trkpt lat="45.99382" lon="4.81013">
        <ele>251</ele>
        <time>2017-08-14T09:01:07Z</time>
      </trkpt>
      <trkpt lat="45.99381" lon="4.81004">
        <ele>251</ele>
        <time>2017-08-14T09:01:08Z</time>
      </trkpt>
      <trkpt lat="45.9938" lon="4.80995">
        <ele>250</ele>
        <time>2017-08-14T09:01:09Z</time>
      </trkpt>
      <trkpt lat="45.99378" lon="4.80987">
        <ele>250</ele>
        <time>2017-08-14T09:01:10Z</time>
      </trkpt>
      <trkpt lat="45.99377" lon="4.80979">
        <ele>250</ele>
        <time>2017-08-14T09:01:11Z</time>
      </trkpt>
      <trkpt lat="45.99376" lon="4.80971">
        <ele>250</ele>
        <time>2017-08-14T09:01:12Z</time>
      </trkpt>
      <trkpt lat="45.99376" lon="4.80962">
        <ele>250</ele>
        <time>2017-08-14T09:01:13Z</time>
      </trkpt>
      <trkpt lat="45.99375" lon="4.80954">
        <ele>250</ele>
        <time>2017-08-14T09:01:14Z</time>
      </trkpt>
      <trkpt lat="45.99374" lon="4.80946">
        <ele>250</ele>
        <time>2017-08-14T09:01:15Z</time>
      </trkpt>
      <trkpt lat="45.99372" lon="4.80938">
        <ele>250</ele>
        <time>2017-08-14T09:01:16Z</time>
      </trkpt>
      <trkpt lat="45.99371" lon="4.80931">
        <ele>250</ele>
        <time>2017-08-14T09:01:17Z</time>
      </trkpt>
      <trkpt lat="45.9937" lon="4.80923">
        <ele>250</ele>
        <time>2017-08-14T09:01:18Z</time>
      </trkpt>
      <trkpt lat="45.99369" lon="4.80915">
        <ele>248</ele>
        <time>2017-08-14T09:01:19Z</time>
      </trkpt>
      <trkpt lat="45.99368" lon="4.80907">
        <ele>248</ele>
        <time>2017-08-14T09:01:20Z</time>
      </trkpt>
      <trkpt lat="45.99367" lon="4.80899">
        <ele>248</ele>
        <time>2017-08-14T09:01:21Z</time>
      </trkpt>
      <trkpt lat="45.99366" lon="4.8089">
        <ele>248</ele>
        <time>2017-08-14T09:01:22Z</time>
      </trkpt>
      <trkpt lat="45.99365" lon="4.80881">
        <ele>248</ele>
        <time>2017-08-14T09:01:23Z</time>
      </trkpt>
      <trkpt lat="45.99364" lon="4.80873">
        <ele>248</ele>
        <time>2017-08-14T09:01:24Z</time>
      </trkpt>
      <trkpt lat="45.99362" lon="4.80864">
        <ele>248</ele>
        <time>2017-08-14T09:01:25Z</time>
      </trkpt>
      <trkpt lat="45.99361" lon="4.80854">
        <ele>248</ele>
        <time>2017-08-14T09:01:26Z</time>
      </trkpt>
      <trkpt lat="45.9936" lon="4.80844">
        <ele>247</ele>
        <time>2017-08-14T09:01:27Z</time>
      </trkpt>
      <trkpt lat="45.99358" lon="4.80835">
        <ele>247</ele>
        <time>2017-08-14T09:01:28Z</time>
      </trkpt>
      <trkpt lat="45.99357" lon="4.80825">
        <ele>246</ele>
        <time>2017-08-14T09:01:29Z</time>
      </trkpt>
      <trkpt lat="45.99356" lon="4.80815">
        <ele>246</ele>
        <time>2017-08-14T09:01:30Z</time>
      </trkpt>
      <trkpt lat="45.99354" lon="4.80805">
        <ele>246</ele>
        <time>2017-08-14T09:01:31Z</time>
      </trkpt>
      <trkpt lat="45.99353" lon="4.80795">
        <ele>246</ele>
        <time>2017-08-14T09:01:32Z</time>
      </trkpt>
      <trkpt lat="45.99351" lon="4.80785">
        <ele>246</ele>
        <time>2017-08-14T09:01:33Z</time>
      </trkpt>
      <trkpt lat="45.9935" lon="4.80775">
        <ele>245</ele>
        <time>2017-08-14T09:01:34Z</time>
      </trkpt>
      <trkpt lat="45.99349" lon="4.80764">
        <ele>245</ele>
        <time>2017-08-14T09:01:35Z</time>
      </trkpt>
      <trkpt lat="45.99348" lon="4.80754">
        <ele>245</ele>
        <time>2017-08-14T09:01:36Z</time>
      </trkpt>
      <trkpt lat="45.99346" lon="4.80744">
        <ele>245</ele>
        <time>2017-08-14T09:01:37Z</time>
      </trkpt>
      <trkpt lat="45.99345" lon="4.80733">
        <ele>245</ele>
        <time>2017-08-14T09:01:38Z</time>
      </trkpt>
      <trkpt lat="45.99344" lon="4.80723">
        <ele>244</ele>
        <time>2017-08-14T09:01:39Z</time>
      </trkpt>
      <trkpt lat="45.99342" lon="4.80712">
        <ele>244</ele>
        <time>2017-08-14T09:01:40Z</time>
      </trkpt>
      <trkpt lat="45.99341" lon="4.80702">
        <ele>244</ele>
        <time>2017-08-14T09:01:41Z</time>
      </trkpt>
      <trkpt lat="45.9934" lon="4.80691">
        <ele>244</ele>
        <time>2017-08-14T09:01:42Z</time>
      </trkpt>
      <trkpt lat="45.99339" lon="4.8068">
        <ele>244</ele>
        <time>2017-08-14T09:01:43Z</time>
      </trkpt>
      <trkpt lat="45.99337" lon="4.8067">
        <ele>244</ele>
        <time>2017-08-14T09:01:44Z</time>
      </trkpt>
      <trkpt lat="45.99336" lon="4.80659">
        <ele>244</ele>
        <time>2017-08-14T09:01:45Z</time>
      </trkpt>
      <trkpt lat="45.99334" lon="4.80648">
        <ele>244</ele>
        <time>2017-08-14T09:01:46Z</time>
      </trkpt>
      <trkpt lat="45.99333" lon="4.80638">
        <ele>243</ele>
        <time>2017-08-14T09:01:47Z</time>
      </trkpt>
      <trkpt lat="45.99332" lon="4.80628">
        <ele>243</ele>
        <time>2017-08-14T09:01:48Z</time>
      </trkpt>
      <trkpt lat="45.99331" lon="4.80618">
        <ele>243</ele>
        <time>2017-08-14T09:01:49Z</time>
      </trkpt>
      <trkpt lat="45.99329" lon="4.80608">
        <ele>243</ele>
        <time>2017-08-14T09:01:50Z</time>
      </trkpt>
      <trkpt lat="45.99328" lon="4.80598">
        <ele>242</ele>
        <time>2017-08-14T09:01:51Z</time>
      </trkpt>
      <trkpt lat="45.99327" lon="4.80589">
        <ele>242</ele>
        <time>2017-08-14T09:01:52Z</time>
      </trkpt>
      <trkpt lat="45.99326" lon="4.80579">
        <ele>242</ele>
        <time>2017-08-14T09:01:53Z</time>
      </trkpt>
      <trkpt lat="45.99325" lon="4.8057">
        <ele>242</ele>
        <time>2017-08-14T09:01:54Z</time>
      </trkpt>
      <trkpt lat="45.99324" lon="4.8056">
        <ele>242</ele>
        <time>2017-08-14T09:01:55Z</time>
      </trkpt>
      <trkpt lat="45.99323" lon="4.80551">
        <ele>241</ele>
        <time>2017-08-14T09:01:56Z</time>
      </trkpt>
      <trkpt lat="45.99323" lon="4.80542">
        <ele>241</ele>
        <time>2017-08-14T09:01:57Z</time>
      </trkpt>
      <trkpt lat="45.99321" lon="4.80532">
        <ele>241</ele>
        <time>2017-08-14T09:01:58Z</time>
      </trkpt>
      <trkpt lat="45.9932" lon="4.80523">
        <ele>241</ele>
        <time>2017-08-14T09:01:59Z</time>
      </trkpt>
      <trkpt lat="45.99319" lon="4.80514">
        <ele>241</ele>
        <time>2017-08-14T09:02:00Z</time>
      </trkpt>
      <trkpt lat="45.99317" lon="4.80506">
        <ele>241</ele>
        <time>2017-08-14T09:02:01Z</time>
      </trkpt>
      <trkpt lat="45.99316" lon="4.80496">
        <ele>241</ele>
        <time>2017-08-14T09:02:02Z</time>
      </trkpt>
      <trkpt lat="45.99315" lon="4.80487">
        <ele>241</ele>
        <time>2017-08-14T09:02:03Z</time>
      </trkpt>
      <trkpt lat="45.99314" lon="4.80478">
        <ele>241</ele>
        <time>2017-08-14T09:02:04Z</time>
      </trkpt>
      <trkpt lat="45.99313" lon="4.8047">
        <ele>241</ele>
        <time>2017-08-14T09:02:05Z</time>
      </trkpt>
      <trkpt lat="45.99312" lon="4.80461">
        <ele>241</ele>
        <time>2017-08-14T09:02:06Z</time>
      </trkpt>
      <trkpt lat="45.99312" lon="4.80453">
        <ele>241</ele>
        <time>2017-08-14T09:02:07Z</time>
      </trkpt>
      <trkpt lat="45.99312" lon="4.80444">
        <ele>241</ele>
        <time>2017-08-14T09:02:08Z</time>
      </trkpt>
      <trkpt lat="45.99313" lon="4.80437">
        <ele>241</ele>
        <time>2017-08-14T09:02:09Z</time>
      </trkpt>
      <trkpt lat="45.99315" lon="4.8043">
        <ele>241</ele>
        <time>2017-08-14T09:02:10Z</time>
      </trkpt>
      <trkpt lat="45.99318" lon="4.80423">
        <ele>241</ele>
        <time>2017-08-14T09:02:11Z</time>
      </trkpt>
      <trkpt lat="45.9932" lon="4.80416">
        <ele>242</ele>
        <time>2017-08-14T09:02:12Z</time>
      </trkpt>
      <trkpt lat="45.99321" lon="4.8041">
        <ele>242</ele>
        <time>2017-08-14T09:02:13Z</time>
      </trkpt>
      <trkpt lat="45.99319" lon="4.80398">
        <ele>242</ele>
        <time>2017-08-14T09:02:15Z</time>
      </trkpt>
      <trkpt lat="45.99316" lon="4.80392">
        <ele>242</ele>
        <time>2017-08-14T09:02:16Z</time>
      </trkpt>
      <trkpt lat="45.99313" lon="4.80387">
        <ele>242</ele>
        <time>2017-08-14T09:02:17Z</time>
      </trkpt>
      <trkpt lat="45.99307" lon="4.80384">
        <ele>242</ele>
        <time>2017-08-14T09:02:18Z</time>
      </trkpt>
      <trkpt lat="45.99301" lon="4.80383">
        <ele>242</ele>
        <time>2017-08-14T09:02:19Z</time>
      </trkpt>
      <trkpt lat="45.99294" lon="4.80384">
        <ele>242</ele>
        <time>2017-08-14T09:02:20Z</time>
      </trkpt>
      <trkpt lat="45.99287" lon="4.80384">
        <ele>242</ele>
        <time>2017-08-14T09:02:21Z</time>
      </trkpt>
      <trkpt lat="45.99281" lon="4.80383">
        <ele>242</ele>
        <time>2017-08-14T09:02:22Z</time>
      </trkpt>
      <trkpt lat="45.99274" lon="4.80379">
        <ele>242</ele>
        <time>2017-08-14T09:02:23Z</time>
      </trkpt>
      <trkpt lat="45.99268" lon="4.80375">
        <ele>243</ele>
        <time>2017-08-14T09:02:24Z</time>
      </trkpt>
      <trkpt lat="45.99262" lon="4.80369">
        <ele>243</ele>
        <time>2017-08-14T09:02:25Z</time>
      </trkpt>
      <trkpt lat="45.99256" lon="4.80362">
        <ele>243</ele>
        <time>2017-08-14T09:02:26Z</time>
      </trkpt>
      <trkpt lat="45.9925" lon="4.80353">
        <ele>243</ele>
        <time>2017-08-14T09:02:27Z</time>
      </trkpt>
      <trkpt lat="45.99245" lon="4.80345">
        <ele>242</ele>
        <time>2017-08-14T09:02:28Z</time>
      </trkpt>
      <trkpt lat="45.99241" lon="4.80336">
        <ele>243</ele>
        <time>2017-08-14T09:02:29Z</time>
      </trkpt>
      <trkpt lat="45.99237" lon="4.80328">
        <ele>243</ele>
        <time>2017-08-14T09:02:30Z</time>
      </trkpt>
      <trkpt lat="45.99232" lon="4.80321">
        <ele>243</ele>
        <time>2017-08-14T09:02:31Z</time>
      </trkpt>
      <trkpt lat="45.99227" lon="4.80313">
        <ele>242</ele>
        <time>2017-08-14T09:02:32Z</time>
      </trkpt>
      <trkpt lat="45.99223" lon="4.80306">
        <ele>242</ele>
        <time>2017-08-14T09:02:33Z</time>
      </trkpt>
      <trkpt lat="45.99219" lon="4.80299">
        <ele>242</ele>
        <time>2017-08-14T09:02:34Z</time>
      </trkpt>
      <trkpt lat="45.99215" lon="4.80292">
        <ele>242</ele>
        <time>2017-08-14T09:02:35Z</time>
      </trkpt>
      <trkpt lat="45.9921" lon="4.80286">
        <ele>242</ele>
        <time>2017-08-14T09:02:36Z</time>
      </trkpt>
      <trkpt lat="45.99206" lon="4.8028">
        <ele>242</ele>
        <time>2017-08-14T09:02:37Z</time>
      </trkpt>
      <trkpt lat="45.99202" lon="4.80275">
        <ele>242</ele>
        <time>2017-08-14T09:02:38Z</time>
      </trkpt>
      <trkpt lat="45.99198" lon="4.80269">
        <ele>242</ele>
        <time>2017-08-14T09:02:39Z</time>
      </trkpt>
      <trkpt lat="45.99194" lon="4.80264">
        <ele>242</ele>
        <time>2017-08-14T09:02:40Z</time>
      </trkpt>
      <trkpt lat="45.99189" lon="4.80258">
        <ele>242</ele>
        <time>2017-08-14T09:02:41Z</time>
      </trkpt>
      <trkpt lat="45.99185" lon="4.80252">
        <ele>242</ele>
        <time>2017-08-14T09:02:42Z</time>
      </trkpt>
      <trkpt lat="45.9918" lon="4.80247">
        <ele>242</ele>
        <time>2017-08-14T09:02:43Z</time>
      </trkpt>
      <trkpt lat="45.99176" lon="4.80241">
        <ele>242</ele>
        <time>2017-08-14T09:02:44Z</time>
      </trkpt>
      <trkpt lat="45.9917" lon="4.80235">
        <ele>242</ele>
        <time>2017-08-14T09:02:45Z</time>
      </trkpt>
      <trkpt lat="45.99165" lon="4.80229">
        <ele>241</ele>
        <time>2017-08-14T09:02:46Z</time>
      </trkpt>
      <trkpt lat="45.9916" lon="4.80222">
        <ele>241</ele>
        <time>2017-08-14T09:02:47Z</time>
      </trkpt>
      <trkpt lat="45.99154" lon="4.80216">
        <ele>242</ele>
        <time>2017-08-14T09:02:48Z</time>
      </trkpt>
      <trkpt lat="45.99148" lon="4.8021">
        <ele>242</ele>
        <time>2017-08-14T09:02:49Z</time>
      </trkpt>
      <trkpt lat="45.99143" lon="4.80204">
        <ele>242</ele>
        <time>2017-08-14T09:02:50Z</time>
      </trkpt>
      <trkpt lat="45.99138" lon="4.80199">
        <ele>242</ele>
        <time>2017-08-14T09:02:51Z</time>
      </trkpt>
      <trkpt lat="45.99134" lon="4.80194">
        <ele>242</ele>
        <time>2017-08-14T09:02:52Z</time>
      </trkpt>
      <trkpt lat="45.99129" lon="4.80189">
        <ele>242</ele>
        <time>2017-08-14T09:02:53Z</time>
      </trkpt>
      <trkpt lat="45.99125" lon="4.80183">
        <ele>242</ele>
        <time>2017-08-14T09:02:54Z</time>
      </trkpt>
      <trkpt lat="45.99121" lon="4.80178">
        <ele>242</ele>
        <time>2017-08-14T09:02:55Z</time>
      </trkpt>
      <trkpt lat="45.99116" lon="4.80173">
        <ele>242</ele>
        <time>2017-08-14T09:02:56Z</time>
      </trkpt>
      <trkpt lat="45.99111" lon="4.80168">
        <ele>242</ele>
        <time>2017-08-14T09:02:57Z</time>
      </trkpt>
      <trkpt lat="45.99107" lon="4.80163">
        <ele>243</ele>
        <time>2017-08-14T09:02:58Z</time>
      </trkpt>
      <trkpt lat="45.99102" lon="4.80157">
        <ele>243</ele>
        <time>2017-08-14T09:02:59Z</time>
      </trkpt>
      <trkpt lat="45.99097" lon="4.80151">
        <ele>243</ele>
        <time>2017-08-14T09:03:00Z</time>
      </trkpt>
      <trkpt lat="45.99092" lon="4.80146">
        <ele>243</ele>
        <time>2017-08-14T09:03:01Z</time>
      </trkpt>
      <trkpt lat="45.99087" lon="4.8014">
        <ele>243</ele>
        <time>2017-08-14T09:03:02Z</time>
      </trkpt>
      <trkpt lat="45.99083" lon="4.80135">
        <ele>242</ele>
        <time>2017-08-14T09:03:03Z</time>
      </trkpt>
      <trkpt lat="45.99078" lon="4.80129">
        <ele>242</ele>
        <time>2017-08-14T09:03:04Z</time>
      </trkpt>
      <trkpt lat="45.99074" lon="4.80123">
        <ele>242</ele>
        <time>2017-08-14T09:03:05Z</time>
      </trkpt>
      <trkpt lat="45.99069" lon="4.80117">
        <ele>242</ele>
        <time>2017-08-14T09:03:06Z</time>
      </trkpt>
      <trkpt lat="45.99064" lon="4.80111">
        <ele>242</ele>
        <time>2017-08-14T09:03:07Z</time>
      </trkpt>
      <trkpt lat="45.99059" lon="4.80106">
        <ele>242</ele>
        <time>2017-08-14T09:03:08Z</time>
      </trkpt>
      <trkpt lat="45.99054" lon="4.801">
        <ele>242</ele>
        <time>2017-08-14T09:03:09Z</time>
      </trkpt>
      <trkpt lat="45.99049" lon="4.80094">
        <ele>242</ele>
        <time>2017-08-14T09:03:10Z</time>
      </trkpt>
      <trkpt lat="45.99044" lon="4.80089">
        <ele>242</ele>
        <time>2017-08-14T09:03:11Z</time>
      </trkpt>
      <trkpt lat="45.99039" lon="4.80083">
        <ele>244</ele>
        <time>2017-08-14T09:03:12Z</time>
      </trkpt>
      <trkpt lat="45.99035" lon="4.80077">
        <ele>243</ele>
        <time>2017-08-14T09:03:13Z</time>
      </trkpt>
      <trkpt lat="45.9903" lon="4.80071">
        <ele>243</ele>
        <time>2017-08-14T09:03:14Z</time>
      </trkpt>
      <trkpt lat="45.99025" lon="4.80066">
        <ele>243</ele>
        <time>2017-08-14T09:03:15Z</time>
      </trkpt>
      <trkpt lat="45.9902" lon="4.8006">
        <ele>243</ele>
        <time>2017-08-14T09:03:16Z</time>
      </trkpt>
      <trkpt lat="45.99016" lon="4.80055">
        <ele>243</ele>
        <time>2017-08-14T09:03:17Z</time>
      </trkpt>
      <trkpt lat="45.99012" lon="4.80049">
        <ele>244</ele>
        <time>2017-08-14T09:03:18Z</time>
      </trkpt>
      <trkpt lat="45.99007" lon="4.80044">
        <ele>244</ele>
        <time>2017-08-14T09:03:19Z</time>
      </trkpt>
      <trkpt lat="45.99002" lon="4.80039">
        <ele>244</ele>
        <time>2017-08-14T09:03:20Z</time>
      </trkpt>
      <trkpt lat="45.98998" lon="4.80035">
        <ele>242</ele>
        <time>2017-08-14T09:03:21Z</time>
      </trkpt>
      <trkpt lat="45.98994" lon="4.8003">
        <ele>243</ele>
        <time>2017-08-14T09:03:22Z</time>
      </trkpt>
      <trkpt lat="45.9899" lon="4.80025">
        <ele>243</ele>
        <time>2017-08-14T09:03:23Z</time>
      </trkpt>
      <trkpt lat="45.98986" lon="4.8002">
        <ele>243</ele>
        <time>2017-08-14T09:03:24Z</time>
      </trkpt>
      <trkpt lat="45.98982" lon="4.80016">
        <ele>243</ele>
        <time>2017-08-14T09:03:25Z</time>
      </trkpt>
      <trkpt lat="45.98977" lon="4.80011">
        <ele>243</ele>
        <time>2017-08-14T09:03:26Z</time>
      </trkpt>
      <trkpt lat="45.98973" lon="4.80006">
        <ele>243</ele>
        <time>2017-08-14T09:03:27Z</time>
      </trkpt>
      <trkpt lat="45.98969" lon="4.80001">
        <ele>243</ele>
        <time>2017-08-14T09:03:28Z</time>
      </trkpt>
      <trkpt lat="45.98965" lon="4.79996">
        <ele>245</ele>
        <time>2017-08-14T09:03:29Z</time>
      </trkpt>
      <trkpt lat="45.98961" lon="4.79991">
        <ele>245</ele>
        <time>2017-08-14T09:03:30Z</time>
      </trkpt>
      <trkpt lat="45.98956" lon="4.79986">
        <ele>245</ele>
        <time>2017-08-14T09:03:31Z</time>
      </trkpt>
      <trkpt lat="45.98952" lon="4.79981">
        <ele>245</ele>
        <time>2017-08-14T09:03:32Z</time>
      </trkpt>
      <trkpt lat="45.98947" lon="4.79976">
        <ele>245</ele>
        <time>2017-08-14T09:03:33Z</time>
      </trkpt>
      <trkpt lat="45.98943" lon="4.79971">
        <ele>245</ele>
        <time>2017-08-14T09:03:34Z</time>
      </trkpt>
      <trkpt lat="45.98938" lon="4.79966">
        <ele>245</ele>
        <time>2017-08-14T09:03:35Z</time>
      </trkpt>
      <trkpt lat="45.98934" lon="4.79961">
        <ele>245</ele>
        <time>2017-08-14T09:03:36Z</time>
      </trkpt>
      <trkpt lat="45.9893" lon="4.79956">
        <ele>245</ele>
        <time>2017-08-14T09:03:37Z</time>
      </trkpt>
      <trkpt lat="45.98925" lon="4.79951">
        <ele>245</ele>
        <time>2017-08-14T09:03:38Z</time>
      </trkpt>
      <trkpt lat="45.98922" lon="4.79946">
        <ele>245</ele>
        <time>2017-08-14T09:03:39Z</time>
      </trkpt>
      <trkpt lat="45.98918" lon="4.79942">
        <ele>245</ele>
        <time>2017-08-14T09:03:40Z</time>
      </trkpt>
      <trkpt lat="45.98914" lon="4.79937">
        <ele>244</ele>
        <time>2017-08-14T09:03:41Z</time>
      </trkpt>
      <trkpt lat="45.9891" lon="4.79932">
        <ele>244</ele>
        <time>2017-08-14T09:03:42Z</time>
      </trkpt>
      <trkpt lat="45.98906" lon="4.79927">
        <ele>244</ele>
        <time>2017-08-14T09:03:43Z</time>
      </trkpt>
      <trkpt lat="45.98902" lon="4.79923">
        <ele>244</ele>
        <time>2017-08-14T09:03:44Z</time>
      </trkpt>
      <trkpt lat="45.98899" lon="4.79919">
        <ele>244</ele>
        <time>2017-08-14T09:03:45Z</time>
      </trkpt>
      <trkpt lat="45.98895" lon="4.79914">
        <ele>244</ele>
        <time>2017-08-14T09:03:46Z</time>
      </trkpt>
      <trkpt lat="45.9889" lon="4.79909">
        <ele>244</ele>
        <time>2017-08-14T09:03:47Z</time>
      </trkpt>
      <trkpt lat="45.98886" lon="4.79905">
        <ele>244</ele>
        <time>2017-08-14T09:03:48Z</time>
      </trkpt>
      <trkpt lat="45.98881" lon="4.799">
        <ele>244</ele>
        <time>2017-08-14T09:03:49Z</time>
      </trkpt>
      <trkpt lat="45.98877" lon="4.79895">
        <ele>244</ele>
        <time>2017-08-14T09:03:50Z</time>
      </trkpt>
      <trkpt lat="45.98872" lon="4.7989">
        <ele>244</ele>
        <time>2017-08-14T09:03:51Z</time>
      </trkpt>
      <trkpt lat="45.98868" lon="4.79885">
        <ele>244</ele>
        <time>2017-08-14T09:03:52Z</time>
      </trkpt>
      <trkpt lat="45.98864" lon="4.7988">
        <ele>244</ele>
        <time>2017-08-14T09:03:53Z</time>
      </trkpt>
      <trkpt lat="45.98859" lon="4.79875">
        <ele>244</ele>
        <time>2017-08-14T09:03:54Z</time>
      </trkpt>
      <trkpt lat="45.98854" lon="4.79869">
        <ele>244</ele>
        <time>2017-08-14T09:03:55Z</time>
      </trkpt>
      <trkpt lat="45.98849" lon="4.79864">
        <ele>244</ele>
        <time>2017-08-14T09:03:56Z</time>
      </trkpt>
      <trkpt lat="45.98844" lon="4.79858">
        <ele>244</ele>
        <time>2017-08-14T09:03:57Z</time>
      </trkpt>
      <trkpt lat="45.9884" lon="4.79853">
        <ele>244</ele>
        <time>2017-08-14T09:03:58Z</time>
      </trkpt>
      <trkpt lat="45.98836" lon="4.79848">
        <ele>244</ele>
        <time>2017-08-14T09:03:59Z</time>
      </trkpt>
      <trkpt lat="45.98831" lon="4.79843">
        <ele>244</ele>
        <time>2017-08-14T09:04:00Z</time>
      </trkpt>
      <trkpt lat="45.98828" lon="4.79838">
        <ele>244</ele>
        <time>2017-08-14T09:04:01Z</time>
      </trkpt>
      <trkpt lat="45.98824" lon="4.79834">
        <ele>244</ele>
        <time>2017-08-14T09:04:02Z</time>
      </trkpt>
      <trkpt lat="45.98817" lon="4.79826">
        <ele>245</ele>
        <time>2017-08-14T09:04:04Z</time>
      </trkpt>
      <trkpt lat="45.98813" lon="4.79822">
        <ele>245</ele>
        <time>2017-08-14T09:04:05Z</time>
      </trkpt>
      <trkpt lat="45.98809" lon="4.79817">
        <ele>245</ele>
        <time>2017-08-14T09:04:06Z</time>
      </trkpt>
      <trkpt lat="45.98805" lon="4.79812">
        <ele>245</ele>
        <time>2017-08-14T09:04:07Z</time>
      </trkpt>
      <trkpt lat="45.98801" lon="4.79808">
        <ele>245</ele>
        <time>2017-08-14T09:04:08Z</time>
      </trkpt>
      <trkpt lat="45.98796" lon="4.79803">
        <ele>245</ele>
        <time>2017-08-14T09:04:09Z</time>
      </trkpt>
      <trkpt lat="45.98792" lon="4.79798">
        <ele>245</ele>
        <time>2017-08-14T09:04:10Z</time>
      </trkpt>
      <trkpt lat="45.98788" lon="4.79793">
        <ele>245</ele>
        <time>2017-08-14T09:04:11Z</time>
      </trkpt>
      <trkpt lat="45.98784" lon="4.79789">
        <ele>245</ele>
        <time>2017-08-14T09:04:12Z</time>
      </trkpt>
      <trkpt lat="45.9878" lon="4.79784">
        <ele>245</ele>
        <time>2017-08-14T09:04:13Z</time>
      </trkpt>
      <trkpt lat="45.98776" lon="4.79779">
        <ele>245</ele>
        <time>2017-08-14T09:04:14Z</time>
      </trkpt>
      <trkpt lat="45.98772" lon="4.79775">
        <ele>245</ele>
        <time>2017-08-14T09:04:15Z</time>
      </trkpt>
      <trkpt lat="45.98768" lon="4.79771">
        <ele>245</ele>
        <time>2017-08-14T09:04:16Z</time>
      </trkpt>
      <trkpt lat="45.98764" lon="4.79767">
        <ele>245</ele>
        <time>2017-08-14T09:04:17Z</time>
      </trkpt>
      <trkpt lat="45.9876" lon="4.79764">
        <ele>245</ele>
        <time>2017-08-14T09:04:18Z</time>
      </trkpt>
      <trkpt lat="45.98756" lon="4.7976">
        <ele>245</ele>
        <time>2017-08-14T09:04:19Z</time>
      </trkpt>
      <trkpt lat="45.98752" lon="4.79756">
        <ele>245</ele>
        <time>2017-08-14T09:04:20Z</time>
      </trkpt>
      <trkpt lat="45.98747" lon="4.79752">
        <ele>245</ele>
        <time>2017-08-14T09:04:21Z</time>
      </trkpt>
      <trkpt lat="45.98743" lon="4.79748">
        <ele>245</ele>
        <time>2017-08-14T09:04:22Z</time>
      </trkpt>
      <trkpt lat="45.98739" lon="4.79744">
        <ele>245</ele>
        <time>2017-08-14T09:04:23Z</time>
      </trkpt>
      <trkpt lat="45.98734" lon="4.79741">
        <ele>245</ele>
        <time>2017-08-14T09:04:24Z</time>
      </trkpt>
      <trkpt lat="45.9873" lon="4.79737">
        <ele>245</ele>
        <time>2017-08-14T09:04:25Z</time>
      </trkpt>
      <trkpt lat="45.98725" lon="4.79734">
        <ele>245</ele>
        <time>2017-08-14T09:04:26Z</time>
      </trkpt>
      <trkpt lat="45.98721" lon="4.79732">
        <ele>245</ele>
        <time>2017-08-14T09:04:27Z</time>
      </trkpt>
      <trkpt lat="45.98717" lon="4.79729">
        <ele>245</ele>
        <time>2017-08-14T09:04:28Z</time>
      </trkpt>
      <trkpt lat="45.98712" lon="4.79727">
        <ele>245</ele>
        <time>2017-08-14T09:04:29Z</time>
      </trkpt>
      <trkpt lat="45.98708" lon="4.79725">
        <ele>245</ele>
        <time>2017-08-14T09:04:30Z</time>
      </trkpt>
      <trkpt lat="45.98703" lon="4.79722">
        <ele>245</ele>
        <time>2017-08-14T09:04:31Z</time>
      </trkpt>
      <trkpt lat="45.98695" lon="4.79718">
        <ele>245</ele>
        <time>2017-08-14T09:04:33Z</time>
      </trkpt>
      <trkpt lat="45.98691" lon="4.79716">
        <ele>245</ele>
        <time>2017-08-14T09:04:34Z</time>
      </trkpt>
      <trkpt lat="45.98686" lon="4.79714">
        <ele>245</ele>
        <time>2017-08-14T09:04:35Z</time>
      </trkpt>
      <trkpt lat="45.98682" lon="4.79712">
        <ele>245</ele>
        <time>2017-08-14T09:04:36Z</time>
      </trkpt>
      <trkpt lat="45.98677" lon="4.79709">
        <ele>245</ele>
        <time>2017-08-14T09:04:37Z</time>
      </trkpt>
      <trkpt lat="45.98673" lon="4.79706">
        <ele>245</ele>
        <time>2017-08-14T09:04:38Z</time>
      </trkpt>
      <trkpt lat="45.98668" lon="4.79702">
        <ele>245</ele>
        <time>2017-08-14T09:04:39Z</time>
      </trkpt>
      <trkpt lat="45.98663" lon="4.79698">
        <ele>245</ele>
        <time>2017-08-14T09:04:40Z</time>
      </trkpt>
      <trkpt lat="45.98659" lon="4.79693">
        <ele>245</ele>
        <time>2017-08-14T09:04:41Z</time>
      </trkpt>
      <trkpt lat="45.98654" lon="4.79687">
        <ele>245</ele>
        <time>2017-08-14T09:04:42Z</time>
      </trkpt>
      <trkpt lat="45.9865" lon="4.79681">
        <ele>245</ele>
        <time>2017-08-14T09:04:43Z</time>
      </trkpt>
      <trkpt lat="45.98646" lon="4.79675">
        <ele>245</ele>
        <time>2017-08-14T09:04:44Z</time>
      </trkpt>
      <trkpt lat="45.98643" lon="4.79669">
        <ele>245</ele>
        <time>2017-08-14T09:04:45Z</time>
      </trkpt>
      <trkpt lat="45.9864" lon="4.79663">
        <ele>245</ele>
        <time>2017-08-14T09:04:46Z</time>
      </trkpt>
      <trkpt lat="45.98637" lon="4.79657">
        <ele>245</ele>
        <time>2017-08-14T09:04:47Z</time>
      </trkpt>
      <trkpt lat="45.98634" lon="4.79651">
        <ele>245</ele>
        <time>2017-08-14T09:04:48Z</time>
      </trkpt>
      <trkpt lat="45.98631" lon="4.79644">
        <ele>245</ele>
        <time>2017-08-14T09:04:49Z</time>
      </trkpt>
      <trkpt lat="45.9863" lon="4.79638">
        <ele>245</ele>
        <time>2017-08-14T09:04:50Z</time>
      </trkpt>
      <trkpt lat="45.98627" lon="4.79626">
        <ele>245</ele>
        <time>2017-08-14T09:04:52Z</time>
      </trkpt>
      <trkpt lat="45.98626" lon="4.7962">
        <ele>245</ele>
        <time>2017-08-14T09:04:53Z</time>
      </trkpt>
      <trkpt lat="45.98626" lon="4.79613">
        <ele>245</ele>
        <time>2017-08-14T09:04:54Z</time>
      </trkpt>
      <trkpt lat="45.98626" lon="4.79606">
        <ele>245</ele>
        <time>2017-08-14T09:04:55Z</time>
      </trkpt>
      <trkpt lat="45.98624" lon="4.79599">
        <ele>245</ele>
        <time>2017-08-14T09:04:56Z</time>
      </trkpt>
      <trkpt lat="45.98623" lon="4.79592">
        <ele>245</ele>
        <time>2017-08-14T09:04:57Z</time>
      </trkpt>
      <trkpt lat="45.9862" lon="4.79587">
        <ele>245</ele>
        <time>2017-08-14T09:04:58Z</time>
      </trkpt>
      <trkpt lat="45.98615" lon="4.79583">
        <ele>245</ele>
        <time>2017-08-14T09:04:59Z</time>
      </trkpt>
      <trkpt lat="45.98611" lon="4.79581">
        <ele>245</ele>
        <time>2017-08-14T09:05:00Z</time>
      </trkpt>
      <trkpt lat="45.98606" lon="4.7958">
        <ele>245</ele>
        <time>2017-08-14T09:05:01Z</time>
      </trkpt>
      <trkpt lat="45.98601" lon="4.79581">
        <ele>245</ele>
        <time>2017-08-14T09:05:02Z</time>
      </trkpt>
      <trkpt lat="45.98596" lon="4.79583">
        <ele>245</ele>
        <time>2017-08-14T09:05:03Z</time>
      </trkpt>
      <trkpt lat="45.98591" lon="4.79584">
        <ele>245</ele>
        <time>2017-08-14T09:05:04Z</time>
      </trkpt>
      <trkpt lat="45.98587" lon="4.79585">
        <ele>245</ele>
        <time>2017-08-14T09:05:05Z</time>
      </trkpt>
      <trkpt lat="45.98582" lon="4.79583">
        <ele>245</ele>
        <time>2017-08-14T09:05:06Z</time>
      </trkpt>
      <trkpt lat="45.98577" lon="4.79581">
        <ele>245</ele>
        <time>2017-08-14T09:05:07Z</time>
      </trkpt>
      <trkpt lat="45.98572" lon="4.79579">
        <ele>245</ele>
        <time>2017-08-14T09:05:08Z</time>
      </trkpt>
      <trkpt lat="45.98568" lon="4.79576">
        <ele>245</ele>
        <time>2017-08-14T09:05:09Z</time>
      </trkpt>
      <trkpt lat="45.98564" lon="4.79572">
        <ele>244</ele>
        <time>2017-08-14T09:05:10Z</time>
      </trkpt>
      <trkpt lat="45.9856" lon="4.79567">
        <ele>244</ele>
        <time>2017-08-14T09:05:11Z</time>
      </trkpt>
      <trkpt lat="45.98556" lon="4.79563">
        <ele>244</ele>
        <time>2017-08-14T09:05:12Z</time>
      </trkpt>
      <trkpt lat="45.98552" lon="4.79557">
        <ele>244</ele>
        <time>2017-08-14T09:05:13Z</time>
      </trkpt>
      <trkpt lat="45.98548" lon="4.79552">
        <ele>244</ele>
        <time>2017-08-14T09:05:14Z</time>
      </trkpt>
      <trkpt lat="45.98544" lon="4.79546">
        <ele>244</ele>
        <time>2017-08-14T09:05:15Z</time>
      </trkpt>
      <trkpt lat="45.98541" lon="4.7954">
        <ele>244</ele>
        <time>2017-08-14T09:05:16Z</time>
      </trkpt>
      <trkpt lat="45.98538" lon="4.79533">
        <ele>244</ele>
        <time>2017-08-14T09:05:17Z</time>
      </trkpt>
      <trkpt lat="45.98535" lon="4.79525">
        <ele>244</ele>
        <time>2017-08-14T09:05:18Z</time>
      </trkpt>
      <trkpt lat="45.98532" lon="4.79518">
        <ele>244</ele>
        <time>2017-08-14T09:05:19Z</time>
      </trkpt>
      <trkpt lat="45.9853" lon="4.7951">
        <ele>244</ele>
        <time>2017-08-14T09:05:20Z</time>
      </trkpt>
      <trkpt lat="45.98528" lon="4.79503">
        <ele>244</ele>
        <time>2017-08-14T09:05:21Z</time>
      </trkpt>
      <trkpt lat="45.98527" lon="4.79495">
        <ele>244</ele>
        <time>2017-08-14T09:05:22Z</time>
      </trkpt>
      <trkpt lat="45.98526" lon="4.79488">
        <ele>244</ele>
        <time>2017-08-14T09:05:23Z</time>
      </trkpt>
      <trkpt lat="45.98525" lon="4.79481">
        <ele>244</ele>
        <time>2017-08-14T09:05:24Z</time>
      </trkpt>
      <trkpt lat="45.98525" lon="4.79473">
        <ele>244</ele>
        <time>2017-08-14T09:05:25Z</time>
      </trkpt>
      <trkpt lat="45.98524" lon="4.79466">
        <ele>244</ele>
        <time>2017-08-14T09:05:26Z</time>
      </trkpt>
      <trkpt lat="45.98524" lon="4.79459">
        <ele>244</ele>
        <time>2017-08-14T09:05:27Z</time>
      </trkpt>
      <trkpt lat="45.98524" lon="4.79451">
        <ele>244</ele>
        <time>2017-08-14T09:05:28Z</time>
      </trkpt>
      <trkpt lat="45.98524" lon="4.79443">
        <ele>244</ele>
        <time>2017-08-14T09:05:29Z</time>
      </trkpt>
      <trkpt lat="45.98524" lon="4.79435">
        <ele>244</ele>
        <time>2017-08-14T09:05:30Z</time>
      </trkpt>
      <trkpt lat="45.98523" lon="4.79427">
        <ele>244</ele>
        <time>2017-08-14T09:05:31Z</time>
      </trkpt>
      <trkpt lat="45.98523" lon="4.79418">
        <ele>244</ele>
        <time>2017-08-14T09:05:32Z</time>
      </trkpt>
      <trkpt lat="45.98522" lon="4.79409">
        <ele>244</ele>
        <time>2017-08-14T09:05:33Z</time>
      </trkpt>
      <trkpt lat="45.98521" lon="4.79401">
        <ele>244</ele>
        <time>2017-08-14T09:05:34Z</time>
      </trkpt>
      <trkpt lat="45.9852" lon="4.79392">
        <ele>244</ele>
        <time>2017-08-14T09:05:35Z</time>
      </trkpt>
      <trkpt lat="45.98518" lon="4.79384">
        <ele>244</ele>
        <time>2017-08-14T09:05:36Z</time>
      </trkpt>
      <trkpt lat="45.98517" lon="4.79375">
        <ele>243</ele>
        <time>2017-08-14T09:05:37Z</time>
      </trkpt>
      <trkpt lat="45.98515" lon="4.79366">
        <ele>243</ele>
        <time>2017-08-14T09:05:38Z</time>
      </trkpt>
      <trkpt lat="45.98514" lon="4.79358">
        <ele>243</ele>
        <time>2017-08-14T09:05:39Z</time>
      </trkpt>
      <trkpt lat="45.98512" lon="4.7935">
        <ele>243</ele>
        <time>2017-08-14T09:05:40Z</time>
      </trkpt>
      <trkpt lat="45.9851" lon="4.79342">
        <ele>243</ele>
        <time>2017-08-14T09:05:41Z</time>
      </trkpt>
      <trkpt lat="45.98508" lon="4.79334">
        <ele>243</ele>
        <time>2017-08-14T09:05:42Z</time>
      </trkpt>
      <trkpt lat="45.98506" lon="4.79326">
        <ele>243</ele>
        <time>2017-08-14T09:05:43Z</time>
      </trkpt>
      <trkpt lat="45.98503" lon="4.79318">
        <ele>243</ele>
        <time>2017-08-14T09:05:44Z</time>
      </trkpt>
      <trkpt lat="45.98501" lon="4.7931">
        <ele>243</ele>
        <time>2017-08-14T09:05:45Z</time>
      </trkpt>
      <trkpt lat="45.98498" lon="4.79302">
        <ele>243</ele>
        <time>2017-08-14T09:05:46Z</time>
      </trkpt>
      <trkpt lat="45.98495" lon="4.79294">
        <ele>243</ele>
        <time>2017-08-14T09:05:47Z</time>
      </trkpt>
      <trkpt lat="45.98492" lon="4.79286">
        <ele>243</ele>
        <time>2017-08-14T09:05:48Z</time>
      </trkpt>
      <trkpt lat="45.98488" lon="4.79278">
        <ele>243</ele>
        <time>2017-08-14T09:05:49Z</time>
      </trkpt>
      <trkpt lat="45.98484" lon="4.7927">
        <ele>243</ele>
        <time>2017-08-14T09:05:50Z</time>
      </trkpt>
      <trkpt lat="45.9848" lon="4.79263">
        <ele>243</ele>
        <time>2017-08-14T09:05:51Z</time>
      </trkpt>
      <trkpt lat="45.98476" lon="4.79256">
        <ele>243</ele>
        <time>2017-08-14T09:05:52Z</time>
      </trkpt>
      <trkpt lat="45.98471" lon="4.79248">
        <ele>243</ele>
        <time>2017-08-14T09:05:53Z</time>
      </trkpt>
      <trkpt lat="45.98466" lon="4.79241">
        <ele>243</ele>
        <time>2017-08-14T09:05:54Z</time>
      </trkpt>
      <trkpt lat="45.98462" lon="4.79232">
        <ele>243</ele>
        <time>2017-08-14T09:05:55Z</time>
      </trkpt>
      <trkpt lat="45.98457" lon="4.79224">
        <ele>243</ele>
        <time>2017-08-14T09:05:56Z</time>
      </trkpt>
      <trkpt lat="45.98452" lon="4.79216">
        <ele>242</ele>
        <time>2017-08-14T09:05:57Z</time>
      </trkpt>
      <trkpt lat="45.98448" lon="4.79208">
        <ele>242</ele>
        <time>2017-08-14T09:05:58Z</time>
      </trkpt>
      <trkpt lat="45.98444" lon="4.792">
        <ele>242</ele>
        <time>2017-08-14T09:05:59Z</time>
      </trkpt>
      <trkpt lat="45.98439" lon="4.79192">
        <ele>242</ele>
        <time>2017-08-14T09:06:00Z</time>
      </trkpt>
      <trkpt lat="45.98435" lon="4.79184">
        <ele>242</ele>
        <time>2017-08-14T09:06:01Z</time>
      </trkpt>
      <trkpt lat="45.98431" lon="4.79177">
        <ele>242</ele>
        <time>2017-08-14T09:06:02Z</time>
      </trkpt>
      <trkpt lat="45.98427" lon="4.79169">
        <ele>242</ele>
        <time>2017-08-14T09:06:03Z</time>
      </trkpt>
      <trkpt lat="45.98423" lon="4.79162">
        <ele>242</ele>
        <time>2017-08-14T09:06:04Z</time>
      </trkpt>
      <trkpt lat="45.9842" lon="4.79155">
        <ele>242</ele>
        <time>2017-08-14T09:06:05Z</time>
      </trkpt>
      <trkpt lat="45.98416" lon="4.79148">
        <ele>242</ele>
        <time>2017-08-14T09:06:06Z</time>
      </trkpt>
      <trkpt lat="45.98412" lon="4.79141">
        <ele>242</ele>
        <time>2017-08-14T09:06:07Z</time>
      </trkpt>
      <trkpt lat="45.98409" lon="4.79134">
        <ele>242</ele>
        <time>2017-08-14T09:06:08Z</time>
      </trkpt>
      <trkpt lat="45.98406" lon="4.79127">
        <ele>242</ele>
        <time>2017-08-14T09:06:09Z</time>
      </trkpt>
      <trkpt lat="45.98402" lon="4.7912">
        <ele>242</ele>
        <time>2017-08-14T09:06:10Z</time>
      </trkpt>
      <trkpt lat="45.98399" lon="4.79114">
        <ele>242</ele>
        <time>2017-08-14T09:06:11Z</time>
      </trkpt>
      <trkpt lat="45.98396" lon="4.79108">
        <ele>242</ele>
        <time>2017-08-14T09:06:12Z</time>
      </trkpt>
      <trkpt lat="45.98393" lon="4.79102">
        <ele>242</ele>
        <time>2017-08-14T09:06:13Z</time>
      </trkpt>
      <trkpt lat="45.98389" lon="4.79096">
        <ele>242</ele>
        <time>2017-08-14T09:06:14Z</time>
      </trkpt>
      <trkpt lat="45.98386" lon="4.7909">
        <ele>242</ele>
        <time>2017-08-14T09:06:15Z</time>
      </trkpt>
      <trkpt lat="45.98383" lon="4.79084">
        <ele>242</ele>
        <time>2017-08-14T09:06:16Z</time>
      </trkpt>
      <trkpt lat="45.98379" lon="4.79077">
        <ele>242</ele>
        <time>2017-08-14T09:06:17Z</time>
      </trkpt>
      <trkpt lat="45.98375" lon="4.79071">
        <ele>242</ele>
        <time>2017-08-14T09:06:18Z</time>
      </trkpt>
      <trkpt lat="45.98372" lon="4.79064">
        <ele>242</ele>
        <time>2017-08-14T09:06:19Z</time>
      </trkpt>
      <trkpt lat="45.98368" lon="4.79056">
        <ele>242</ele>
        <time>2017-08-14T09:06:20Z</time>
      </trkpt>
      <trkpt lat="45.98364" lon="4.79049">
        <ele>242</ele>
        <time>2017-08-14T09:06:21Z</time>
      </trkpt>
      <trkpt lat="45.9836" lon="4.79042">
        <ele>242</ele>
        <time>2017-08-14T09:06:22Z</time>
      </trkpt>
      <trkpt lat="45.98356" lon="4.79035">
        <ele>242</ele>
        <time>2017-08-14T09:06:23Z</time>
      </trkpt>
      <trkpt lat="45.9835" lon="4.79028">
        <ele>242</ele>
        <time>2017-08-14T09:06:24Z</time>
      </trkpt>
      <trkpt lat="45.98344" lon="4.79022">
        <ele>242</ele>
        <time>2017-08-14T09:06:25Z</time>
      </trkpt>
      <trkpt lat="45.98339" lon="4.79017">
        <ele>242</ele>
        <time>2017-08-14T09:06:26Z</time>
      </trkpt>
      <trkpt lat="45.98332" lon="4.79011">
        <ele>242</ele>
        <time>2017-08-14T09:06:27Z</time>
      </trkpt>
      <trkpt lat="45.98326" lon="4.79007">
        <ele>242</ele>
        <time>2017-08-14T09:06:28Z</time>
      </trkpt>
      <trkpt lat="45.98319" lon="4.79003">
        <ele>242</ele>
        <time>2017-08-14T09:06:29Z</time>
      </trkpt>
      <trkpt lat="45.98313" lon="4.78999">
        <ele>242</ele>
        <time>2017-08-14T09:06:30Z</time>
      </trkpt>
      <trkpt lat="45.98307" lon="4.78996">
        <ele>241</ele>
        <time>2017-08-14T09:06:31Z</time>
      </trkpt>
      <trkpt lat="45.98301" lon="4.78992">
        <ele>241</ele>
        <time>2017-08-14T09:06:32Z</time>
      </trkpt>
      <trkpt lat="45.98295" lon="4.78989">
        <ele>241</ele>
        <time>2017-08-14T09:06:33Z</time>
      </trkpt>
      <trkpt lat="45.98289" lon="4.78986">
        <ele>241</ele>
        <time>2017-08-14T09:06:34Z</time>
      </trkpt>
      <trkpt lat="45.98283" lon="4.78982">
        <ele>241</ele>
        <time>2017-08-14T09:06:35Z</time>
      </trkpt>
      <trkpt lat="45.98278" lon="4.78979">
        <ele>241</ele>
        <time>2017-08-14T09:06:36Z</time>
      </trkpt>
      <trkpt lat="45.98272" lon="4.78976">
        <ele>241</ele>
        <time>2017-08-14T09:06:37Z</time>
      </trkpt>
      <trkpt lat="45.98267" lon="4.78973">
        <ele>241</ele>
        <time>2017-08-14T09:06:38Z</time>
      </trkpt>
      <trkpt lat="45.98262" lon="4.78969">
        <ele>241</ele>
        <time>2017-08-14T09:06:39Z</time>
      </trkpt>
      <trkpt lat="45.98257" lon="4.78966">
        <ele>241</ele>
        <time>2017-08-14T09:06:40Z</time>
      </trkpt>
      <trkpt lat="45.98252" lon="4.78964">
        <ele>241</ele>
        <time>2017-08-14T09:06:41Z</time>
      </trkpt>
      <trkpt lat="45.98247" lon="4.78961">
        <ele>241</ele>
        <time>2017-08-14T09:06:42Z</time>
      </trkpt>
      <trkpt lat="45.98241" lon="4.78957">
        <ele>241</ele>
        <time>2017-08-14T09:06:43Z</time>
      </trkpt>
      <trkpt lat="45.98236" lon="4.78954">
        <ele>241</ele>
        <time>2017-08-14T09:06:44Z</time>
      </trkpt>
      <trkpt lat="45.9823" lon="4.78951">
        <ele>241</ele>
        <time>2017-08-14T09:06:45Z</time>
      </trkpt>
      <trkpt lat="45.98224" lon="4.78948">
        <ele>241</ele>
        <time>2017-08-14T09:06:46Z</time>
      </trkpt>
      <trkpt lat="45.98218" lon="4.78945">
        <ele>241</ele>
        <time>2017-08-14T09:06:47Z</time>
      </trkpt>
      <trkpt lat="45.98212" lon="4.78941">
        <ele>241</ele>
        <time>2017-08-14T09:06:48Z</time>
      </trkpt>
      <trkpt lat="45.98207" lon="4.78937">
        <ele>241</ele>
        <time>2017-08-14T09:06:49Z</time>
      </trkpt>
      <trkpt lat="45.98201" lon="4.78934">
        <ele>241</ele>
        <time>2017-08-14T09:06:50Z</time>
      </trkpt>
      <trkpt lat="45.98196" lon="4.78931">
        <ele>241</ele>
        <time>2017-08-14T09:06:51Z</time>
      </trkpt>
      <trkpt lat="45.98191" lon="4.78928">
        <ele>241</ele>
        <time>2017-08-14T09:06:52Z</time>
      </trkpt>
      <trkpt lat="45.98186" lon="4.78925">
        <ele>241</ele>
        <time>2017-08-14T09:06:53Z</time>
      </trkpt>
      <trkpt lat="45.98182" lon="4.78922">
        <ele>240</ele>
        <time>2017-08-14T09:06:54Z</time>
      </trkpt>
      <trkpt lat="45.98177" lon="4.7892">
        <ele>240</ele>
        <time>2017-08-14T09:06:55Z</time>
      </trkpt>
      <trkpt lat="45.98172" lon="4.78917">
        <ele>240</ele>
        <time>2017-08-14T09:06:56Z</time>
      </trkpt>
      <trkpt lat="45.98166" lon="4.78914">
        <ele>240</ele>
        <time>2017-08-14T09:06:57Z</time>
      </trkpt>
      <trkpt lat="45.98161" lon="4.78911">
        <ele>240</ele>
        <time>2017-08-14T09:06:58Z</time>
      </trkpt>
      <trkpt lat="45.98156" lon="4.78908">
        <ele>240</ele>
        <time>2017-08-14T09:06:59Z</time>
      </trkpt>
      <trkpt lat="45.98151" lon="4.78906">
        <ele>240</ele>
        <time>2017-08-14T09:07:00Z</time>
      </trkpt>
      <trkpt lat="45.98146" lon="4.78903">
        <ele>240</ele>
        <time>2017-08-14T09:07:01Z</time>
      </trkpt>
      <trkpt lat="45.98141" lon="4.789">
        <ele>240</ele>
        <time>2017-08-14T09:07:02Z</time>
      </trkpt>
      <trkpt lat="45.98136" lon="4.78897">
        <ele>240</ele>
        <time>2017-08-14T09:07:03Z</time>
      </trkpt>
      <trkpt lat="45.98131" lon="4.78894">
        <ele>240</ele>
        <time>2017-08-14T09:07:04Z</time>
      </trkpt>
      <trkpt lat="45.98126" lon="4.78891">
        <ele>240</ele>
        <time>2017-08-14T09:07:05Z</time>
      </trkpt>
      <trkpt lat="45.98121" lon="4.78888">
        <ele>240</ele>
        <time>2017-08-14T09:07:06Z</time>
      </trkpt>
      <trkpt lat="45.98115" lon="4.78885">
        <ele>240</ele>
        <time>2017-08-14T09:07:07Z</time>
      </trkpt>
      <trkpt lat="45.9811" lon="4.78882">
        <ele>240</ele>
        <time>2017-08-14T09:07:08Z</time>
      </trkpt>
      <trkpt lat="45.98105" lon="4.78878">
        <ele>240</ele>
        <time>2017-08-14T09:07:09Z</time>
      </trkpt>
      <trkpt lat="45.98099" lon="4.78875">
        <ele>239</ele>
        <time>2017-08-14T09:07:10Z</time>
      </trkpt>
      <trkpt lat="45.98094" lon="4.78871">
        <ele>239</ele>
        <time>2017-08-14T09:07:11Z</time>
      </trkpt>
      <trkpt lat="45.98088" lon="4.78867">
        <ele>239</ele>
        <time>2017-08-14T09:07:12Z</time>
      </trkpt>
      <trkpt lat="45.98082" lon="4.78863">
        <ele>239</ele>
        <time>2017-08-14T09:07:13Z</time>
      </trkpt>
      <trkpt lat="45.98076" lon="4.78859">
        <ele>239</ele>
        <time>2017-08-14T09:07:14Z</time>
      </trkpt>
      <trkpt lat="45.9807" lon="4.78854">
        <ele>239</ele>
        <time>2017-08-14T09:07:15Z</time>
      </trkpt>
      <trkpt lat="45.98064" lon="4.7885">
        <ele>239</ele>
        <time>2017-08-14T09:07:16Z</time>
      </trkpt>
      <trkpt lat="45.98059" lon="4.78847">
        <ele>239</ele>
        <time>2017-08-14T09:07:17Z</time>
      </trkpt>
      <trkpt lat="45.98054" lon="4.78843">
        <ele>239</ele>
        <time>2017-08-14T09:07:18Z</time>
      </trkpt>
      <trkpt lat="45.98049" lon="4.7884">
        <ele>238</ele>
        <time>2017-08-14T09:07:19Z</time>
      </trkpt>
      <trkpt lat="45.98043" lon="4.78836">
        <ele>238</ele>
        <time>2017-08-14T09:07:20Z</time>
      </trkpt>
      <trkpt lat="45.98039" lon="4.78833">
        <ele>238</ele>
        <time>2017-08-14T09:07:21Z</time>
      </trkpt>
      <trkpt lat="45.98034" lon="4.78829">
        <ele>238</ele>
        <time>2017-08-14T09:07:22Z</time>
      </trkpt>
      <trkpt lat="45.9803" lon="4.78825">
        <ele>238</ele>
        <time>2017-08-14T09:07:23Z</time>
      </trkpt>
      <trkpt lat="45.98025" lon="4.78821">
        <ele>238</ele>
        <time>2017-08-14T09:07:24Z</time>
      </trkpt>
      <trkpt lat="45.98019" lon="4.78817">
        <ele>238</ele>
        <time>2017-08-14T09:07:25Z</time>
      </trkpt>
      <trkpt lat="45.98014" lon="4.78814">
        <ele>238</ele>
        <time>2017-08-14T09:07:26Z</time>
      </trkpt>
      <trkpt lat="45.98009" lon="4.7881">
        <ele>238</ele>
        <time>2017-08-14T09:07:27Z</time>
      </trkpt>
      <trkpt lat="45.98003" lon="4.78806">
        <ele>238</ele>
        <time>2017-08-14T09:07:28Z</time>
      </trkpt>
      <trkpt lat="45.97997" lon="4.78802">
        <ele>238</ele>
        <time>2017-08-14T09:07:29Z</time>
      </trkpt>
      <trkpt lat="45.97992" lon="4.78798">
        <ele>238</ele>
        <time>2017-08-14T09:07:30Z</time>
      </trkpt>
      <trkpt lat="45.97986" lon="4.78794">
        <ele>238</ele>
        <time>2017-08-14T09:07:31Z</time>
      </trkpt>
      <trkpt lat="45.97981" lon="4.7879">
        <ele>238</ele>
        <time>2017-08-14T09:07:32Z</time>
      </trkpt>
      <trkpt lat="45.97975" lon="4.78786">
        <ele>238</ele>
        <time>2017-08-14T09:07:33Z</time>
      </trkpt>
      <trkpt lat="45.97969" lon="4.78782">
        <ele>238</ele>
        <time>2017-08-14T09:07:34Z</time>
      </trkpt>
      <trkpt lat="45.97963" lon="4.78778">
        <ele>238</ele>
        <time>2017-08-14T09:07:35Z</time>
      </trkpt>
      <trkpt lat="45.97958" lon="4.78774">
        <ele>238</ele>
        <time>2017-08-14T09:07:36Z</time>
      </trkpt>
      <trkpt lat="45.97952" lon="4.7877">
        <ele>238</ele>
        <time>2017-08-14T09:07:37Z</time>
      </trkpt>
      <trkpt lat="45.97947" lon="4.78766">
        <ele>238</ele>
        <time>2017-08-14T09:07:38Z</time>
      </trkpt>
      <trkpt lat="45.97942" lon="4.78762">
        <ele>238</ele>
        <time>2017-08-14T09:07:39Z</time>
      </trkpt>
      <trkpt lat="45.97937" lon="4.78758">
        <ele>238</ele>
        <time>2017-08-14T09:07:40Z</time>
      </trkpt>
      <trkpt lat="45.97932" lon="4.78755">
        <ele>238</ele>
        <time>2017-08-14T09:07:41Z</time>
      </trkpt>
      <trkpt lat="45.97927" lon="4.78751">
        <ele>237</ele>
        <time>2017-08-14T09:07:42Z</time>
      </trkpt>
      <trkpt lat="45.97922" lon="4.78748">
        <ele>237</ele>
        <time>2017-08-14T09:07:43Z</time>
      </trkpt>
      <trkpt lat="45.97918" lon="4.78744">
        <ele>237</ele>
        <time>2017-08-14T09:07:44Z</time>
      </trkpt>
      <trkpt lat="45.97913" lon="4.7874">
        <ele>237</ele>
        <time>2017-08-14T09:07:45Z</time>
      </trkpt>
      <trkpt lat="45.97907" lon="4.78737">
        <ele>237</ele>
        <time>2017-08-14T09:07:46Z</time>
      </trkpt>
      <trkpt lat="45.97902" lon="4.78733">
        <ele>237</ele>
        <time>2017-08-14T09:07:47Z</time>
      </trkpt>
      <trkpt lat="45.97897" lon="4.7873">
        <ele>237</ele>
        <time>2017-08-14T09:07:48Z</time>
      </trkpt>
      <trkpt lat="45.97892" lon="4.78726">
        <ele>236</ele>
        <time>2017-08-14T09:07:49Z</time>
      </trkpt>
      <trkpt lat="45.97886" lon="4.78722">
        <ele>236</ele>
        <time>2017-08-14T09:07:50Z</time>
      </trkpt>
      <trkpt lat="45.97881" lon="4.78718">
        <ele>236</ele>
        <time>2017-08-14T09:07:51Z</time>
      </trkpt>
      <trkpt lat="45.97875" lon="4.78714">
        <ele>236</ele>
        <time>2017-08-14T09:07:52Z</time>
      </trkpt>
      <trkpt lat="45.97869" lon="4.7871">
        <ele>236</ele>
        <time>2017-08-14T09:07:53Z</time>
      </trkpt>
      <trkpt lat="45.97864" lon="4.78706">
        <ele>236</ele>
        <time>2017-08-14T09:07:54Z</time>
      </trkpt>
      <trkpt lat="45.97857" lon="4.78703">
        <ele>236</ele>
        <time>2017-08-14T09:07:55Z</time>
      </trkpt>
      <trkpt lat="45.97852" lon="4.78699">
        <ele>236</ele>
        <time>2017-08-14T09:07:56Z</time>
      </trkpt>
      <trkpt lat="45.97847" lon="4.78695">
        <ele>236</ele>
        <time>2017-08-14T09:07:57Z</time>
      </trkpt>
      <trkpt lat="45.97842" lon="4.78691">
        <ele>236</ele>
        <time>2017-08-14T09:07:58Z</time>
      </trkpt>
      <trkpt lat="45.97837" lon="4.78688">
        <ele>236</ele>
        <time>2017-08-14T09:07:59Z</time>
      </trkpt>
      <trkpt lat="45.97832" lon="4.78685">
        <ele>235</ele>
        <time>2017-08-14T09:08:00Z</time>
      </trkpt>
      <trkpt lat="45.97827" lon="4.78683">
        <ele>235</ele>
        <time>2017-08-14T09:08:01Z</time>
      </trkpt>
      <trkpt lat="45.97822" lon="4.7868">
        <ele>235</ele>
        <time>2017-08-14T09:08:02Z</time>
      </trkpt>
      <trkpt lat="45.97817" lon="4.78678">
        <ele>235</ele>
        <time>2017-08-14T09:08:03Z</time>
      </trkpt>
      <trkpt lat="45.97811" lon="4.78676">
        <ele>235</ele>
        <time>2017-08-14T09:08:04Z</time>
      </trkpt>
      <trkpt lat="45.97806" lon="4.78673">
        <ele>235</ele>
        <time>2017-08-14T09:08:05Z</time>
      </trkpt>
      <trkpt lat="45.978" lon="4.78671">
        <ele>235</ele>
        <time>2017-08-14T09:08:06Z</time>
      </trkpt>
      <trkpt lat="45.97794" lon="4.78668">
        <ele>235</ele>
        <time>2017-08-14T09:08:07Z</time>
      </trkpt>
      <trkpt lat="45.97788" lon="4.78666">
        <ele>235</ele>
        <time>2017-08-14T09:08:08Z</time>
      </trkpt>
      <trkpt lat="45.97782" lon="4.78663">
        <ele>235</ele>
        <time>2017-08-14T09:08:09Z</time>
      </trkpt>
      <trkpt lat="45.97776" lon="4.78661">
        <ele>235</ele>
        <time>2017-08-14T09:08:10Z</time>
      </trkpt>
      <trkpt lat="45.9777" lon="4.78658">
        <ele>235</ele>
        <time>2017-08-14T09:08:11Z</time>
      </trkpt>
      <trkpt lat="45.97764" lon="4.78655">
        <ele>235</ele>
        <time>2017-08-14T09:08:12Z</time>
      </trkpt>
      <trkpt lat="45.97758" lon="4.78652">
        <ele>235</ele>
        <time>2017-08-14T09:08:13Z</time>
      </trkpt>
      <trkpt lat="45.97753" lon="4.78649">
        <ele>235</ele>
        <time>2017-08-14T09:08:14Z</time>
      </trkpt>
      <trkpt lat="45.97747" lon="4.78647">
        <ele>234</ele>
        <time>2017-08-14T09:08:15Z</time>
      </trkpt>
      <trkpt lat="45.97742" lon="4.78645">
        <ele>234</ele>
        <time>2017-08-14T09:08:16Z</time>
      </trkpt>
      <trkpt lat="45.97737" lon="4.78643">
        <ele>234</ele>
        <time>2017-08-14T09:08:17Z</time>
      </trkpt>
      <trkpt lat="45.97731" lon="4.78641">
        <ele>234</ele>
        <time>2017-08-14T09:08:18Z</time>
      </trkpt>
      <trkpt lat="45.97726" lon="4.78638">
        <ele>234</ele>
        <time>2017-08-14T09:08:19Z</time>
      </trkpt>
      <trkpt lat="45.97721" lon="4.78636">
        <ele>234</ele>
        <time>2017-08-14T09:08:20Z</time>
      </trkpt>
      <trkpt lat="45.97716" lon="4.78634">
        <ele>234</ele>
        <time>2017-08-14T09:08:21Z</time>
      </trkpt>
      <trkpt lat="45.97711" lon="4.78631">
        <ele>234</ele>
        <time>2017-08-14T09:08:22Z</time>
      </trkpt>
      <trkpt lat="45.97705" lon="4.78629">
        <ele>234</ele>
        <time>2017-08-14T09:08:23Z</time>
      </trkpt>
      <trkpt lat="45.97699" lon="4.78627">
        <ele>234</ele>
        <time>2017-08-14T09:08:24Z</time>
      </trkpt>
      <trkpt lat="45.97694" lon="4.78624">
        <ele>234</ele>
        <time>2017-08-14T09:08:25Z</time>
      </trkpt>
      <trkpt lat="45.97686" lon="4.78622">
        <ele>234</ele>
        <time>2017-08-14T09:08:26Z</time>
      </trkpt>
      <trkpt lat="45.9768" lon="4.78619">
        <ele>234</ele>
        <time>2017-08-14T09:08:27Z</time>
      </trkpt>
      <trkpt lat="45.97675" lon="4.78617">
        <ele>234</ele>
        <time>2017-08-14T09:08:28Z</time>
      </trkpt>
      <trkpt lat="45.97669" lon="4.78615">
        <ele>234</ele>
        <time>2017-08-14T09:08:29Z</time>
      </trkpt>
      <trkpt lat="45.97664" lon="4.78612">
        <ele>233</ele>
        <time>2017-08-14T09:08:30Z</time>
      </trkpt>
      <trkpt lat="45.97658" lon="4.7861">
        <ele>233</ele>
        <time>2017-08-14T09:08:31Z</time>
      </trkpt>
      <trkpt lat="45.97653" lon="4.78608">
        <ele>233</ele>
        <time>2017-08-14T09:08:32Z</time>
      </trkpt>
      <trkpt lat="45.97648" lon="4.78606">
        <ele>233</ele>
        <time>2017-08-14T09:08:33Z</time>
      </trkpt>
      <trkpt lat="45.97643" lon="4.78604">
        <ele>233</ele>
        <time>2017-08-14T09:08:34Z</time>
      </trkpt>
      <trkpt lat="45.97638" lon="4.78602">
        <ele>233</ele>
        <time>2017-08-14T09:08:35Z</time>
      </trkpt>
      <trkpt lat="45.97633" lon="4.786">
        <ele>233</ele>
        <time>2017-08-14T09:08:36Z</time>
      </trkpt>
      <trkpt lat="45.97628" lon="4.78598">
        <ele>233</ele>
        <time>2017-08-14T09:08:37Z</time>
      </trkpt>
      <trkpt lat="45.97622" lon="4.78596">
        <ele>233</ele>
        <time>2017-08-14T09:08:38Z</time>
      </trkpt>
      <trkpt lat="45.97617" lon="4.78594">
        <ele>233</ele>
        <time>2017-08-14T09:08:39Z</time>
      </trkpt>
      <trkpt lat="45.97611" lon="4.78591">
        <ele>233</ele>
        <time>2017-08-14T09:08:40Z</time>
      </trkpt>
      <trkpt lat="45.97606" lon="4.78588">
        <ele>233</ele>
        <time>2017-08-14T09:08:41Z</time>
      </trkpt>
      <trkpt lat="45.976" lon="4.78586">
        <ele>233</ele>
        <time>2017-08-14T09:08:42Z</time>
      </trkpt>
      <trkpt lat="45.97594" lon="4.78583">
        <ele>233</ele>
        <time>2017-08-14T09:08:43Z</time>
      </trkpt>
      <trkpt lat="45.97589" lon="4.78581">
        <ele>233</ele>
        <time>2017-08-14T09:08:44Z</time>
      </trkpt>
      <trkpt lat="45.97583" lon="4.78578">
        <ele>233</ele>
        <time>2017-08-14T09:08:45Z</time>
      </trkpt>
      <trkpt lat="45.97577" lon="4.78575">
        <ele>233</ele>
        <time>2017-08-14T09:08:46Z</time>
      </trkpt>
      <trkpt lat="45.97571" lon="4.78573">
        <ele>233</ele>
        <time>2017-08-14T09:08:47Z</time>
      </trkpt>
      <trkpt lat="45.97566" lon="4.78571">
        <ele>233</ele>
        <time>2017-08-14T09:08:48Z</time>
      </trkpt>
      <trkpt lat="45.97561" lon="4.78569">
        <ele>233</ele>
        <time>2017-08-14T09:08:49Z</time>
      </trkpt>
      <trkpt lat="45.97557" lon="4.78567">
        <ele>234</ele>
        <time>2017-08-14T09:08:50Z</time>
      </trkpt>
      <trkpt lat="45.97552" lon="4.78566">
        <ele>234</ele>
        <time>2017-08-14T09:08:51Z</time>
      </trkpt>
      <trkpt lat="45.97544" lon="4.78563">
        <ele>234</ele>
        <time>2017-08-14T09:08:53Z</time>
      </trkpt>
      <trkpt lat="45.97539" lon="4.78561">
        <ele>234</ele>
        <time>2017-08-14T09:08:54Z</time>
      </trkpt>
      <trkpt lat="45.97535" lon="4.78559">
        <ele>234</ele>
        <time>2017-08-14T09:08:55Z</time>
      </trkpt>
      <trkpt lat="45.9753" lon="4.78558">
        <ele>234</ele>
        <time>2017-08-14T09:08:56Z</time>
      </trkpt>
      <trkpt lat="45.97525" lon="4.78556">
        <ele>234</ele>
        <time>2017-08-14T09:08:57Z</time>
      </trkpt>
      <trkpt lat="45.97521" lon="4.78553">
        <ele>234</ele>
        <time>2017-08-14T09:08:58Z</time>
      </trkpt>
      <trkpt lat="45.97516" lon="4.7855">
        <ele>234</ele>
        <time>2017-08-14T09:08:59Z</time>
      </trkpt>
      <trkpt lat="45.97511" lon="4.78547">
        <ele>234</ele>
        <time>2017-08-14T09:09:00Z</time>
      </trkpt>
      <trkpt lat="45.97506" lon="4.78544">
        <ele>234</ele>
        <time>2017-08-14T09:09:01Z</time>
      </trkpt>
      <trkpt lat="45.97501" lon="4.78541">
        <ele>234</ele>
        <time>2017-08-14T09:09:02Z</time>
      </trkpt>
      <trkpt lat="45.97495" lon="4.78537">
        <ele>233</ele>
        <time>2017-08-14T09:09:03Z</time>
      </trkpt>
      <trkpt lat="45.97491" lon="4.78534">
        <ele>233</ele>
        <time>2017-08-14T09:09:04Z</time>
      </trkpt>
      <trkpt lat="45.97486" lon="4.7853">
        <ele>233</ele>
        <time>2017-08-14T09:09:05Z</time>
      </trkpt>
      <trkpt lat="45.97481" lon="4.78526">
        <ele>233</ele>
        <time>2017-08-14T09:09:06Z</time>
      </trkpt>
      <trkpt lat="45.97477" lon="4.78523">
        <ele>233</ele>
        <time>2017-08-14T09:09:07Z</time>
      </trkpt>
      <trkpt lat="45.97473" lon="4.78519">
        <ele>233</ele>
        <time>2017-08-14T09:09:08Z</time>
      </trkpt>
      <trkpt lat="45.97468" lon="4.78516">
        <ele>233</ele>
        <time>2017-08-14T09:09:09Z</time>
      </trkpt>
      <trkpt lat="45.97463" lon="4.78512">
        <ele>233</ele>
        <time>2017-08-14T09:09:10Z</time>
      </trkpt>
      <trkpt lat="45.97458" lon="4.78508">
        <ele>234</ele>
        <time>2017-08-14T09:09:11Z</time>
      </trkpt>
      <trkpt lat="45.97453" lon="4.78503">
        <ele>234</ele>
        <time>2017-08-14T09:09:12Z</time>
      </trkpt>
      <trkpt lat="45.97448" lon="4.78499">
        <ele>234</ele>
        <time>2017-08-14T09:09:13Z</time>
      </trkpt>
      <trkpt lat="45.97444" lon="4.78496">
        <ele>234</ele>
        <time>2017-08-14T09:09:14Z</time>
      </trkpt>
      <trkpt lat="45.97439" lon="4.78492">
        <ele>234</ele>
        <time>2017-08-14T09:09:15Z</time>
      </trkpt>
      <trkpt lat="45.97435" lon="4.78488">
        <ele>234</ele>
        <time>2017-08-14T09:09:16Z</time>
      </trkpt>
      <trkpt lat="45.9743" lon="4.78484">
        <ele>234</ele>
        <time>2017-08-14T09:09:17Z</time>
      </trkpt>
      <trkpt lat="45.97426" lon="4.78481">
        <ele>234</ele>
        <time>2017-08-14T09:09:18Z</time>
      </trkpt>
      <trkpt lat="45.97422" lon="4.78477">
        <ele>234</ele>
        <time>2017-08-14T09:09:19Z</time>
      </trkpt>
      <trkpt lat="45.97418" lon="4.78474">
        <ele>234</ele>
        <time>2017-08-14T09:09:20Z</time>
      </trkpt>
      <trkpt lat="45.97414" lon="4.78469">
        <ele>233</ele>
        <time>2017-08-14T09:09:21Z</time>
      </trkpt>
      <trkpt lat="45.97409" lon="4.78465">
        <ele>233</ele>
        <time>2017-08-14T09:09:22Z</time>
      </trkpt>
      <trkpt lat="45.97404" lon="4.7846">
        <ele>233</ele>
        <time>2017-08-14T09:09:23Z</time>
      </trkpt>
      <trkpt lat="45.97399" lon="4.78455">
        <ele>233</ele>
        <time>2017-08-14T09:09:24Z</time>
      </trkpt>
      <trkpt lat="45.97394" lon="4.7845">
        <ele>233</ele>
        <time>2017-08-14T09:09:25Z</time>
      </trkpt>
      <trkpt lat="45.97389" lon="4.78445">
        <ele>233</ele>
        <time>2017-08-14T09:09:26Z</time>
      </trkpt>
      <trkpt lat="45.97384" lon="4.7844">
        <ele>233</ele>
        <time>2017-08-14T09:09:27Z</time>
      </trkpt>
      <trkpt lat="45.97379" lon="4.78434">
        <ele>233</ele>
        <time>2017-08-14T09:09:28Z</time>
      </trkpt>
      <trkpt lat="45.97374" lon="4.78428">
        <ele>233</ele>
        <time>2017-08-14T09:09:29Z</time>
      </trkpt>
      <trkpt lat="45.97369" lon="4.78423">
        <ele>233</ele>
        <time>2017-08-14T09:09:30Z</time>
      </trkpt>
      <trkpt lat="45.97365" lon="4.78417">
        <ele>233</ele>
        <time>2017-08-14T09:09:31Z</time>
      </trkpt>
      <trkpt lat="45.9736" lon="4.78412">
        <ele>233</ele>
        <time>2017-08-14T09:09:32Z</time>
      </trkpt>
      <trkpt lat="45.97355" lon="4.78407">
        <ele>232</ele>
        <time>2017-08-14T09:09:33Z</time>
      </trkpt>
      <trkpt lat="45.9735" lon="4.78403">
        <ele>232</ele>
        <time>2017-08-14T09:09:34Z</time>
      </trkpt>
      <trkpt lat="45.97345" lon="4.78399">
        <ele>232</ele>
        <time>2017-08-14T09:09:35Z</time>
      </trkpt>
      <trkpt lat="45.97341" lon="4.78394">
        <ele>232</ele>
        <time>2017-08-14T09:09:36Z</time>
      </trkpt>
      <trkpt lat="45.97337" lon="4.78389">
        <ele>233</ele>
        <time>2017-08-14T09:09:37Z</time>
      </trkpt>
      <trkpt lat="45.97333" lon="4.78384">
        <ele>232</ele>
        <time>2017-08-14T09:09:38Z</time>
      </trkpt>
      <trkpt lat="45.97329" lon="4.7838">
        <ele>232</ele>
        <time>2017-08-14T09:09:39Z</time>
      </trkpt>
      <trkpt lat="45.97326" lon="4.78376">
        <ele>232</ele>
        <time>2017-08-14T09:09:40Z</time>
      </trkpt>
      <trkpt lat="45.97322" lon="4.78371">
        <ele>232</ele>
        <time>2017-08-14T09:09:41Z</time>
      </trkpt>
      <trkpt lat="45.97318" lon="4.78367">
        <ele>232</ele>
        <time>2017-08-14T09:09:42Z</time>
      </trkpt>
      <trkpt lat="45.97315" lon="4.78363">
        <ele>232</ele>
        <time>2017-08-14T09:09:43Z</time>
      </trkpt>
      <trkpt lat="45.97311" lon="4.78359">
        <ele>232</ele>
        <time>2017-08-14T09:09:44Z</time>
      </trkpt>
      <trkpt lat="45.97308" lon="4.78354">
        <ele>232</ele>
        <time>2017-08-14T09:09:45Z</time>
      </trkpt>
      <trkpt lat="45.97304" lon="4.7835">
        <ele>232</ele>
        <time>2017-08-14T09:09:46Z</time>
      </trkpt>
      <trkpt lat="45.97301" lon="4.78345">
        <ele>232</ele>
        <time>2017-08-14T09:09:47Z</time>
      </trkpt>
      <trkpt lat="45.97297" lon="4.7834">
        <ele>232</ele>
        <time>2017-08-14T09:09:48Z</time>
      </trkpt>
      <trkpt lat="45.97293" lon="4.78335">
        <ele>232</ele>
        <time>2017-08-14T09:09:49Z</time>
      </trkpt>
      <trkpt lat="45.97289" lon="4.7833">
        <ele>232</ele>
        <time>2017-08-14T09:09:50Z</time>
      </trkpt>
      <trkpt lat="45.97285" lon="4.78325">
        <ele>232</ele>
        <time>2017-08-14T09:09:51Z</time>
      </trkpt>
      <trkpt lat="45.97281" lon="4.78319">
        <ele>232</ele>
        <time>2017-08-14T09:09:52Z</time>
      </trkpt>
      <trkpt lat="45.97276" lon="4.78313">
        <ele>232</ele>
        <time>2017-08-14T09:09:53Z</time>
      </trkpt>
      <trkpt lat="45.97272" lon="4.78306">
        <ele>232</ele>
        <time>2017-08-14T09:09:54Z</time>
      </trkpt>
      <trkpt lat="45.97267" lon="4.783">
        <ele>232</ele>
        <time>2017-08-14T09:09:55Z</time>
      </trkpt>
      <trkpt lat="45.97263" lon="4.78293">
        <ele>232</ele>
        <time>2017-08-14T09:09:56Z</time>
      </trkpt>
      <trkpt lat="45.97259" lon="4.78287">
        <ele>232</ele>
        <time>2017-08-14T09:09:57Z</time>
      </trkpt>
      <trkpt lat="45.97254" lon="4.7828">
        <ele>232</ele>
        <time>2017-08-14T09:09:58Z</time>
      </trkpt>
      <trkpt lat="45.9725" lon="4.78274">
        <ele>231</ele>
        <time>2017-08-14T09:09:59Z</time>
      </trkpt>
      <trkpt lat="45.97246" lon="4.78267">
        <ele>231</ele>
        <time>2017-08-14T09:10:00Z</time>
      </trkpt>
      <trkpt lat="45.97242" lon="4.78262">
        <ele>231</ele>
        <time>2017-08-14T09:10:01Z</time>
      </trkpt>
      <trkpt lat="45.97239" lon="4.78256">
        <ele>231</ele>
        <time>2017-08-14T09:10:02Z</time>
      </trkpt>
      <trkpt lat="45.97235" lon="4.7825">
        <ele>231</ele>
        <time>2017-08-14T09:10:03Z</time>
      </trkpt>
      <trkpt lat="45.97231" lon="4.78245">
        <ele>231</ele>
        <time>2017-08-14T09:10:04Z</time>
      </trkpt>
      <trkpt lat="45.97228" lon="4.7824">
        <ele>231</ele>
        <time>2017-08-14T09:10:05Z</time>
      </trkpt>
      <trkpt lat="45.97224" lon="4.78234">
        <ele>231</ele>
        <time>2017-08-14T09:10:06Z</time>
      </trkpt>
      <trkpt lat="45.97221" lon="4.78228">
        <ele>231</ele>
        <time>2017-08-14T09:10:07Z</time>
      </trkpt>
      <trkpt lat="45.97218" lon="4.78222">
        <ele>231</ele>
        <time>2017-08-14T09:10:08Z</time>
      </trkpt>
      <trkpt lat="45.97215" lon="4.78216">
        <ele>231</ele>
        <time>2017-08-14T09:10:09Z</time>
      </trkpt>
      <trkpt lat="45.97211" lon="4.7821">
        <ele>231</ele>
        <time>2017-08-14T09:10:10Z</time>
      </trkpt>
      <trkpt lat="45.97207" lon="4.78204">
        <ele>231</ele>
        <time>2017-08-14T09:10:11Z</time>
      </trkpt>
      <trkpt lat="45.97203" lon="4.78197">
        <ele>231</ele>
        <time>2017-08-14T09:10:12Z</time>
      </trkpt>
      <trkpt lat="45.97199" lon="4.78191">
        <ele>231</ele>
        <time>2017-08-14T09:10:13Z</time>
      </trkpt>
      <trkpt lat="45.97196" lon="4.78185">
        <ele>231</ele>
        <time>2017-08-14T09:10:14Z</time>
      </trkpt>
      <trkpt lat="45.97193" lon="4.78179">
        <ele>231</ele>
        <time>2017-08-14T09:10:15Z</time>
      </trkpt>
      <trkpt lat="45.9719" lon="4.78173">
        <ele>231</ele>
        <time>2017-08-14T09:10:16Z</time>
      </trkpt>
      <trkpt lat="45.97187" lon="4.78168">
        <ele>231</ele>
        <time>2017-08-14T09:10:17Z</time>
      </trkpt>
      <trkpt lat="45.97183" lon="4.78161">
        <ele>231</ele>
        <time>2017-08-14T09:10:18Z</time>
      </trkpt>
      <trkpt lat="45.97179" lon="4.78155">
        <ele>231</ele>
        <time>2017-08-14T09:10:19Z</time>
      </trkpt>
      <trkpt lat="45.97176" lon="4.78149">
        <ele>231</ele>
        <time>2017-08-14T09:10:20Z</time>
      </trkpt>
      <trkpt lat="45.97172" lon="4.78142">
        <ele>231</ele>
        <time>2017-08-14T09:10:21Z</time>
      </trkpt>
      <trkpt lat="45.97168" lon="4.78135">
        <ele>231</ele>
        <time>2017-08-14T09:10:22Z</time>
      </trkpt>
      <trkpt lat="45.97164" lon="4.78127">
        <ele>230</ele>
        <time>2017-08-14T09:10:23Z</time>
      </trkpt>
      <trkpt lat="45.97159" lon="4.7812">
        <ele>230</ele>
        <time>2017-08-14T09:10:24Z</time>
      </trkpt>
      <trkpt lat="45.97155" lon="4.78112">
        <ele>230</ele>
        <time>2017-08-14T09:10:25Z</time>
      </trkpt>
      <trkpt lat="45.97151" lon="4.78104">
        <ele>230</ele>
        <time>2017-08-14T09:10:26Z</time>
      </trkpt>
      <trkpt lat="45.97147" lon="4.78096">
        <ele>230</ele>
        <time>2017-08-14T09:10:27Z</time>
      </trkpt>
      <trkpt lat="45.97143" lon="4.78088">
        <ele>230</ele>
        <time>2017-08-14T09:10:28Z</time>
      </trkpt>
      <trkpt lat="45.97139" lon="4.78081">
        <ele>230</ele>
        <time>2017-08-14T09:10:29Z</time>
      </trkpt>
      <trkpt lat="45.97136" lon="4.78074">
        <ele>230</ele>
        <time>2017-08-14T09:10:30Z</time>
      </trkpt>
      <trkpt lat="45.97132" lon="4.78068">
        <ele>230</ele>
        <time>2017-08-14T09:10:31Z</time>
      </trkpt>
      <trkpt lat="45.97128" lon="4.78063">
        <ele>230</ele>
        <time>2017-08-14T09:10:32Z</time>
      </trkpt>
      <trkpt lat="45.97124" lon="4.78058">
        <ele>229</ele>
        <time>2017-08-14T09:10:33Z</time>
      </trkpt>
      <trkpt lat="45.9712" lon="4.78053">
        <ele>229</ele>
        <time>2017-08-14T09:10:34Z</time>
      </trkpt>
      <trkpt lat="45.97116" lon="4.78048">
        <ele>229</ele>
        <time>2017-08-14T09:10:35Z</time>
      </trkpt>
      <trkpt lat="45.97111" lon="4.78044">
        <ele>229</ele>
        <time>2017-08-14T09:10:36Z</time>
      </trkpt>
      <trkpt lat="45.97107" lon="4.78039">
        <ele>229</ele>
        <time>2017-08-14T09:10:37Z</time>
      </trkpt>
      <trkpt lat="45.97102" lon="4.78034">
        <ele>229</ele>
        <time>2017-08-14T09:10:38Z</time>
      </trkpt>
      <trkpt lat="45.97097" lon="4.7803">
        <ele>229</ele>
        <time>2017-08-14T09:10:39Z</time>
      </trkpt>
      <trkpt lat="45.97092" lon="4.78026">
        <ele>229</ele>
        <time>2017-08-14T09:10:40Z</time>
      </trkpt>
      <trkpt lat="45.97088" lon="4.78021">
        <ele>229</ele>
        <time>2017-08-14T09:10:41Z</time>
      </trkpt>
      <trkpt lat="45.97083" lon="4.78017">
        <ele>229</ele>
        <time>2017-08-14T09:10:42Z</time>
      </trkpt>
      <trkpt lat="45.97078" lon="4.78013">
        <ele>229</ele>
        <time>2017-08-14T09:10:43Z</time>
      </trkpt>
      <trkpt lat="45.97073" lon="4.78008">
        <ele>229</ele>
        <time>2017-08-14T09:10:44Z</time>
      </trkpt>
      <trkpt lat="45.97068" lon="4.78003">
        <ele>229</ele>
        <time>2017-08-14T09:10:45Z</time>
      </trkpt>
      <trkpt lat="45.97062" lon="4.77997">
        <ele>229</ele>
        <time>2017-08-14T09:10:46Z</time>
      </trkpt>
      <trkpt lat="45.97057" lon="4.77992">
        <ele>229</ele>
        <time>2017-08-14T09:10:47Z</time>
      </trkpt>
      <trkpt lat="45.97052" lon="4.77987">
        <ele>229</ele>
        <time>2017-08-14T09:10:48Z</time>
      </trkpt>
      <trkpt lat="45.97047" lon="4.77981">
        <ele>229</ele>
        <time>2017-08-14T09:10:49Z</time>
      </trkpt>
      <trkpt lat="45.97041" lon="4.77976">
        <ele>229</ele>
        <time>2017-08-14T09:10:50Z</time>
      </trkpt>
      <trkpt lat="45.97036" lon="4.7797">
        <ele>229</ele>
        <time>2017-08-14T09:10:51Z</time>
      </trkpt>
      <trkpt lat="45.97032" lon="4.77964">
        <ele>228</ele>
        <time>2017-08-14T09:10:52Z</time>
      </trkpt>
      <trkpt lat="45.97027" lon="4.77959">
        <ele>228</ele>
        <time>2017-08-14T09:10:53Z</time>
      </trkpt>
      <trkpt lat="45.97022" lon="4.77953">
        <ele>228</ele>
        <time>2017-08-14T09:10:54Z</time>
      </trkpt>
      <trkpt lat="45.97018" lon="4.77947">
        <ele>228</ele>
        <time>2017-08-14T09:10:55Z</time>
      </trkpt>
      <trkpt lat="45.97013" lon="4.77942">
        <ele>228</ele>
        <time>2017-08-14T09:10:56Z</time>
      </trkpt>
      <trkpt lat="45.97009" lon="4.77937">
        <ele>228</ele>
        <time>2017-08-14T09:10:57Z</time>
      </trkpt>
      <trkpt lat="45.97004" lon="4.77932">
        <ele>228</ele>
        <time>2017-08-14T09:10:58Z</time>
      </trkpt>
      <trkpt lat="45.97" lon="4.77926">
        <ele>227</ele>
        <time>2017-08-14T09:10:59Z</time>
      </trkpt>
      <trkpt lat="45.96996" lon="4.77921">
        <ele>227</ele>
        <time>2017-08-14T09:11:00Z</time>
      </trkpt>
      <trkpt lat="45.96991" lon="4.77916">
        <ele>227</ele>
        <time>2017-08-14T09:11:01Z</time>
      </trkpt>
      <trkpt lat="45.96987" lon="4.77911">
        <ele>227</ele>
        <time>2017-08-14T09:11:02Z</time>
      </trkpt>
      <trkpt lat="45.96983" lon="4.77906">
        <ele>227</ele>
        <time>2017-08-14T09:11:03Z</time>
      </trkpt>
      <trkpt lat="45.96979" lon="4.77901">
        <ele>227</ele>
        <time>2017-08-14T09:11:04Z</time>
      </trkpt>
      <trkpt lat="45.96975" lon="4.77896">
        <ele>228</ele>
        <time>2017-08-14T09:11:05Z</time>
      </trkpt>
      <trkpt lat="45.9697" lon="4.77891">
        <ele>228</ele>
        <time>2017-08-14T09:11:06Z</time>
      </trkpt>
      <trkpt lat="45.96965" lon="4.77886">
        <ele>228</ele>
        <time>2017-08-14T09:11:07Z</time>
      </trkpt>
      <trkpt lat="45.9696" lon="4.7788">
        <ele>228</ele>
        <time>2017-08-14T09:11:08Z</time>
      </trkpt>
      <trkpt lat="45.96955" lon="4.77874">
        <ele>228</ele>
        <time>2017-08-14T09:11:09Z</time>
      </trkpt>
      <trkpt lat="45.9695" lon="4.77869">
        <ele>228</ele>
        <time>2017-08-14T09:11:10Z</time>
      </trkpt>
      <trkpt lat="45.96945" lon="4.77863">
        <ele>228</ele>
        <time>2017-08-14T09:11:11Z</time>
      </trkpt>
      <trkpt lat="45.9694" lon="4.77857">
        <ele>228</ele>
        <time>2017-08-14T09:11:12Z</time>
      </trkpt>
      <trkpt lat="45.96935" lon="4.77851">
        <ele>228</ele>
        <time>2017-08-14T09:11:13Z</time>
      </trkpt>
      <trkpt lat="45.9693" lon="4.77846">
        <ele>228</ele>
        <time>2017-08-14T09:11:14Z</time>
      </trkpt>
      <trkpt lat="45.96926" lon="4.77841">
        <ele>228</ele>
        <time>2017-08-14T09:11:15Z</time>
      </trkpt>
      <trkpt lat="45.96922" lon="4.77836">
        <ele>228</ele>
        <time>2017-08-14T09:11:16Z</time>
      </trkpt>
      <trkpt lat="45.96917" lon="4.77832">
        <ele>228</ele>
        <time>2017-08-14T09:11:17Z</time>
      </trkpt>
      <trkpt lat="45.96913" lon="4.77827">
        <ele>228</ele>
        <time>2017-08-14T09:11:18Z</time>
      </trkpt>
      <trkpt lat="45.96908" lon="4.77823">
        <ele>228</ele>
        <time>2017-08-14T09:11:19Z</time>
      </trkpt>
      <trkpt lat="45.96904" lon="4.77818">
        <ele>228</ele>
        <time>2017-08-14T09:11:20Z</time>
      </trkpt>
      <trkpt lat="45.969" lon="4.77814">
        <ele>228</ele>
        <time>2017-08-14T09:11:21Z</time>
      </trkpt>
      <trkpt lat="45.96895" lon="4.77809">
        <ele>228</ele>
        <time>2017-08-14T09:11:22Z</time>
      </trkpt>
      <trkpt lat="45.96891" lon="4.77805">
        <ele>228</ele>
        <time>2017-08-14T09:11:23Z</time>
      </trkpt>
      <trkpt lat="45.96887" lon="4.77801">
        <ele>228</ele>
        <time>2017-08-14T09:11:24Z</time>
      </trkpt>
      <trkpt lat="45.96882" lon="4.77796">
        <ele>228</ele>
        <time>2017-08-14T09:11:25Z</time>
      </trkpt>
      <trkpt lat="45.96877" lon="4.77791">
        <ele>228</ele>
        <time>2017-08-14T09:11:26Z</time>
      </trkpt>
      <trkpt lat="45.96872" lon="4.77786">
        <ele>228</ele>
        <time>2017-08-14T09:11:27Z</time>
      </trkpt>
      <trkpt lat="45.96867" lon="4.77781">
        <ele>228</ele>
        <time>2017-08-14T09:11:28Z</time>
      </trkpt>
      <trkpt lat="45.96862" lon="4.77776">
        <ele>228</ele>
        <time>2017-08-14T09:11:29Z</time>
      </trkpt>
      <trkpt lat="45.96857" lon="4.77771">
        <ele>228</ele>
        <time>2017-08-14T09:11:30Z</time>
      </trkpt>
      <trkpt lat="45.96852" lon="4.77765">
        <ele>228</ele>
        <time>2017-08-14T09:11:31Z</time>
      </trkpt>
      <trkpt lat="45.96847" lon="4.77759">
        <ele>228</ele>
        <time>2017-08-14T09:11:32Z</time>
      </trkpt>
      <trkpt lat="45.96842" lon="4.77753">
        <ele>228</ele>
        <time>2017-08-14T09:11:33Z</time>
      </trkpt>
      <trkpt lat="45.96836" lon="4.77747">
        <ele>228</ele>
        <time>2017-08-14T09:11:34Z</time>
      </trkpt>
      <trkpt lat="45.9683" lon="4.7774">
        <ele>228</ele>
        <time>2017-08-14T09:11:35Z</time>
      </trkpt>
      <trkpt lat="45.96824" lon="4.77735">
        <ele>228</ele>
        <time>2017-08-14T09:11:36Z</time>
      </trkpt>
      <trkpt lat="45.96819" lon="4.77729">
        <ele>228</ele>
        <time>2017-08-14T09:11:37Z</time>
      </trkpt>
      <trkpt lat="45.96813" lon="4.77723">
        <ele>228</ele>
        <time>2017-08-14T09:11:38Z</time>
      </trkpt>
      <trkpt lat="45.96808" lon="4.77717">
        <ele>228</ele>
        <time>2017-08-14T09:11:39Z</time>
      </trkpt>
      <trkpt lat="45.96803" lon="4.77711">
        <ele>228</ele>
        <time>2017-08-14T09:11:40Z</time>
      </trkpt>
      <trkpt lat="45.96798" lon="4.77706">
        <ele>228</ele>
        <time>2017-08-14T09:11:41Z</time>
      </trkpt>
      <trkpt lat="45.96793" lon="4.777">
        <ele>228</ele>
        <time>2017-08-14T09:11:42Z</time>
      </trkpt>
      <trkpt lat="45.96788" lon="4.77695">
        <ele>227</ele>
        <time>2017-08-14T09:11:43Z</time>
      </trkpt>
      <trkpt lat="45.96783" lon="4.7769">
        <ele>227</ele>
        <time>2017-08-14T09:11:44Z</time>
      </trkpt>
      <trkpt lat="45.96779" lon="4.77684">
        <ele>227</ele>
        <time>2017-08-14T09:11:45Z</time>
      </trkpt>
      <trkpt lat="45.96775" lon="4.77679">
        <ele>227</ele>
        <time>2017-08-14T09:11:46Z</time>
      </trkpt>
      <trkpt lat="45.9677" lon="4.77674">
        <ele>227</ele>
        <time>2017-08-14T09:11:47Z</time>
      </trkpt>
      <trkpt lat="45.96766" lon="4.77668">
        <ele>227</ele>
        <time>2017-08-14T09:11:48Z</time>
      </trkpt>
      <trkpt lat="45.96761" lon="4.77663">
        <ele>227</ele>
        <time>2017-08-14T09:11:49Z</time>
      </trkpt>
      <trkpt lat="45.96757" lon="4.77657">
        <ele>227</ele>
        <time>2017-08-14T09:11:50Z</time>
      </trkpt>
      <trkpt lat="45.96752" lon="4.77651">
        <ele>227</ele>
        <time>2017-08-14T09:11:51Z</time>
      </trkpt>
      <trkpt lat="45.96747" lon="4.77645">
        <ele>227</ele>
        <time>2017-08-14T09:11:52Z</time>
      </trkpt>
      <trkpt lat="45.96742" lon="4.77639">
        <ele>227</ele>
        <time>2017-08-14T09:11:53Z</time>
      </trkpt>
      <trkpt lat="45.96737" lon="4.77633">
        <ele>226</ele>
        <time>2017-08-14T09:11:54Z</time>
      </trkpt>
      <trkpt lat="45.96732" lon="4.77627">
        <ele>226</ele>
        <time>2017-08-14T09:11:55Z</time>
      </trkpt>
      <trkpt lat="45.96727" lon="4.77621">
        <ele>226</ele>
        <time>2017-08-14T09:11:56Z</time>
      </trkpt>
      <trkpt lat="45.96722" lon="4.77615">
        <ele>226</ele>
        <time>2017-08-14T09:11:57Z</time>
      </trkpt>
      <trkpt lat="45.96717" lon="4.77609">
        <ele>226</ele>
        <time>2017-08-14T09:11:58Z</time>
      </trkpt>
      <trkpt lat="45.96713" lon="4.77603">
        <ele>226</ele>
        <time>2017-08-14T09:11:59Z</time>
      </trkpt>
      <trkpt lat="45.96708" lon="4.77597">
        <ele>226</ele>
        <time>2017-08-14T09:12:00Z</time>
      </trkpt>
      <trkpt lat="45.96704" lon="4.77592">
        <ele>226</ele>
        <time>2017-08-14T09:12:01Z</time>
      </trkpt>
      <trkpt lat="45.96699" lon="4.77586">
        <ele>226</ele>
        <time>2017-08-14T09:12:02Z</time>
      </trkpt>
      <trkpt lat="45.96694" lon="4.7758">
        <ele>225</ele>
        <time>2017-08-14T09:12:03Z</time>
      </trkpt>
      <trkpt lat="45.9669" lon="4.77575">
        <ele>225</ele>
        <time>2017-08-14T09:12:04Z</time>
      </trkpt>
      <trkpt lat="45.96684" lon="4.7757">
        <ele>225</ele>
        <time>2017-08-14T09:12:05Z</time>
      </trkpt>
      <trkpt lat="45.96679" lon="4.77565">
        <ele>225</ele>
        <time>2017-08-14T09:12:06Z</time>
      </trkpt>
      <trkpt lat="45.96673" lon="4.77561">
        <ele>225</ele>
        <time>2017-08-14T09:12:07Z</time>
      </trkpt>
      <trkpt lat="45.96668" lon="4.77558">
        <ele>225</ele>
        <time>2017-08-14T09:12:08Z</time>
      </trkpt>
      <trkpt lat="45.96664" lon="4.77554">
        <ele>224</ele>
        <time>2017-08-14T09:12:09Z</time>
      </trkpt>
      <trkpt lat="45.96658" lon="4.7755">
        <ele>224</ele>
        <time>2017-08-14T09:12:10Z</time>
      </trkpt>
      <trkpt lat="45.96653" lon="4.77547">
        <ele>224</ele>
        <time>2017-08-14T09:12:11Z</time>
      </trkpt>
      <trkpt lat="45.96648" lon="4.77543">
        <ele>224</ele>
        <time>2017-08-14T09:12:12Z</time>
      </trkpt>
      <trkpt lat="45.96643" lon="4.7754">
        <ele>224</ele>
        <time>2017-08-14T09:12:13Z</time>
      </trkpt>
      <trkpt lat="45.96637" lon="4.77537">
        <ele>224</ele>
        <time>2017-08-14T09:12:14Z</time>
      </trkpt>
      <trkpt lat="45.96632" lon="4.77534">
        <ele>224</ele>
        <time>2017-08-14T09:12:15Z</time>
      </trkpt>
      <trkpt lat="45.96626" lon="4.7753">
        <ele>224</ele>
        <time>2017-08-14T09:12:16Z</time>
      </trkpt>
      <trkpt lat="45.96622" lon="4.77527">
        <ele>224</ele>
        <time>2017-08-14T09:12:17Z</time>
      </trkpt>
      <trkpt lat="45.96617" lon="4.77524">
        <ele>224</ele>
        <time>2017-08-14T09:12:18Z</time>
      </trkpt>
      <trkpt lat="45.96611" lon="4.7752">
        <ele>224</ele>
        <time>2017-08-14T09:12:19Z</time>
      </trkpt>
      <trkpt lat="45.96606" lon="4.77517">
        <ele>224</ele>
        <time>2017-08-14T09:12:20Z</time>
      </trkpt>
      <trkpt lat="45.96601" lon="4.77514">
        <ele>224</ele>
        <time>2017-08-14T09:12:21Z</time>
      </trkpt>
      <trkpt lat="45.96596" lon="4.7751">
        <ele>224</ele>
        <time>2017-08-14T09:12:22Z</time>
      </trkpt>
      <trkpt lat="45.96591" lon="4.77507">
        <ele>224</ele>
        <time>2017-08-14T09:12:23Z</time>
      </trkpt>
      <trkpt lat="45.96587" lon="4.77503">
        <ele>224</ele>
        <time>2017-08-14T09:12:24Z</time>
      </trkpt>
      <trkpt lat="45.96581" lon="4.775">
        <ele>224</ele>
        <time>2017-08-14T09:12:25Z</time>
      </trkpt>
      <trkpt lat="45.96575" lon="4.77496">
        <ele>224</ele>
        <time>2017-08-14T09:12:26Z</time>
      </trkpt>
      <trkpt lat="45.9657" lon="4.77493">
        <ele>224</ele>
        <time>2017-08-14T09:12:27Z</time>
      </trkpt>
      <trkpt lat="45.96564" lon="4.77489">
        <ele>224</ele>
        <time>2017-08-14T09:12:28Z</time>
      </trkpt>
      <trkpt lat="45.96558" lon="4.77485">
        <ele>224</ele>
        <time>2017-08-14T09:12:29Z</time>
      </trkpt>
      <trkpt lat="45.96552" lon="4.77481">
        <ele>223</ele>
        <time>2017-08-14T09:12:30Z</time>
      </trkpt>
      <trkpt lat="45.96545" lon="4.77476">
        <ele>223</ele>
        <time>2017-08-14T09:12:31Z</time>
      </trkpt>
      <trkpt lat="45.96538" lon="4.77472">
        <ele>223</ele>
        <time>2017-08-14T09:12:32Z</time>
      </trkpt>
      <trkpt lat="45.96532" lon="4.77468">
        <ele>223</ele>
        <time>2017-08-14T09:12:33Z</time>
      </trkpt>
      <trkpt lat="45.96525" lon="4.77464">
        <ele>223</ele>
        <time>2017-08-14T09:12:34Z</time>
      </trkpt>
      <trkpt lat="45.96519" lon="4.77459">
        <ele>223</ele>
        <time>2017-08-14T09:12:35Z</time>
      </trkpt>
      <trkpt lat="45.96513" lon="4.77455">
        <ele>223</ele>
        <time>2017-08-14T09:12:36Z</time>
      </trkpt>
      <trkpt lat="45.96506" lon="4.7745">
        <ele>223</ele>
        <time>2017-08-14T09:12:37Z</time>
      </trkpt>
      <trkpt lat="45.96499" lon="4.77446">
        <ele>222</ele>
        <time>2017-08-14T09:12:38Z</time>
      </trkpt>
      <trkpt lat="45.96493" lon="4.77442">
        <ele>222</ele>
        <time>2017-08-14T09:12:39Z</time>
      </trkpt>
      <trkpt lat="45.96487" lon="4.77438">
        <ele>222</ele>
        <time>2017-08-14T09:12:40Z</time>
      </trkpt>
      <trkpt lat="45.9648" lon="4.77434">
        <ele>222</ele>
        <time>2017-08-14T09:12:41Z</time>
      </trkpt>
      <trkpt lat="45.96474" lon="4.77429">
        <ele>221</ele>
        <time>2017-08-14T09:12:42Z</time>
      </trkpt>
      <trkpt lat="45.96468" lon="4.77426">
        <ele>221</ele>
        <time>2017-08-14T09:12:43Z</time>
      </trkpt>
      <trkpt lat="45.96462" lon="4.77422">
        <ele>221</ele>
        <time>2017-08-14T09:12:44Z</time>
      </trkpt>
      <trkpt lat="45.96456" lon="4.77418">
        <ele>221</ele>
        <time>2017-08-14T09:12:45Z</time>
      </trkpt>
      <trkpt lat="45.96449" lon="4.77415">
        <ele>222</ele>
        <time>2017-08-14T09:12:46Z</time>
      </trkpt>
      <trkpt lat="45.96443" lon="4.77412">
        <ele>222</ele>
        <time>2017-08-14T09:12:47Z</time>
      </trkpt>
      <trkpt lat="45.96436" lon="4.77407">
        <ele>222</ele>
        <time>2017-08-14T09:12:48Z</time>
      </trkpt>
      <trkpt lat="45.9643" lon="4.77402">
        <ele>222</ele>
        <time>2017-08-14T09:12:49Z</time>
      </trkpt>
      <trkpt lat="45.96423" lon="4.77398">
        <ele>222</ele>
        <time>2017-08-14T09:12:50Z</time>
      </trkpt>
      <trkpt lat="45.96416" lon="4.77394">
        <ele>220</ele>
        <time>2017-08-14T09:12:51Z</time>
      </trkpt>
      <trkpt lat="45.9641" lon="4.7739">
        <ele>220</ele>
        <time>2017-08-14T09:12:52Z</time>
      </trkpt>
      <trkpt lat="45.96403" lon="4.77386">
        <ele>220</ele>
        <time>2017-08-14T09:12:53Z</time>
      </trkpt>
      <trkpt lat="45.96397" lon="4.77383">
        <ele>220</ele>
        <time>2017-08-14T09:12:54Z</time>
      </trkpt>
      <trkpt lat="45.9639" lon="4.7738">
        <ele>220</ele>
        <time>2017-08-14T09:12:55Z</time>
      </trkpt>
      <trkpt lat="45.96384" lon="4.77377">
        <ele>220</ele>
        <time>2017-08-14T09:12:56Z</time>
      </trkpt>
      <trkpt lat="45.96377" lon="4.77373">
        <ele>220</ele>
        <time>2017-08-14T09:12:57Z</time>
      </trkpt>
      <trkpt lat="45.96371" lon="4.77369">
        <ele>220</ele>
        <time>2017-08-14T09:12:58Z</time>
      </trkpt>
      <trkpt lat="45.96365" lon="4.77366">
        <ele>219</ele>
        <time>2017-08-14T09:12:59Z</time>
      </trkpt>
      <trkpt lat="45.96359" lon="4.77363">
        <ele>219</ele>
        <time>2017-08-14T09:13:00Z</time>
      </trkpt>
      <trkpt lat="45.96354" lon="4.7736">
        <ele>219</ele>
        <time>2017-08-14T09:13:01Z</time>
      </trkpt>
      <trkpt lat="45.96348" lon="4.77357">
        <ele>219</ele>
        <time>2017-08-14T09:13:02Z</time>
      </trkpt>
      <trkpt lat="45.96342" lon="4.77353">
        <ele>220</ele>
        <time>2017-08-14T09:13:03Z</time>
      </trkpt>
      <trkpt lat="45.96336" lon="4.7735">
        <ele>220</ele>
        <time>2017-08-14T09:13:04Z</time>
      </trkpt>
      <trkpt lat="45.96331" lon="4.77346">
        <ele>218</ele>
        <time>2017-08-14T09:13:05Z</time>
      </trkpt>
      <trkpt lat="45.96325" lon="4.77344">
        <ele>218</ele>
        <time>2017-08-14T09:13:06Z</time>
      </trkpt>
      <trkpt lat="45.96319" lon="4.77341">
        <ele>218</ele>
        <time>2017-08-14T09:13:07Z</time>
      </trkpt>
      <trkpt lat="45.96313" lon="4.77337">
        <ele>218</ele>
        <time>2017-08-14T09:13:08Z</time>
      </trkpt>
      <trkpt lat="45.96307" lon="4.77334">
        <ele>217</ele>
        <time>2017-08-14T09:13:09Z</time>
      </trkpt>
      <trkpt lat="45.963" lon="4.7733">
        <ele>219</ele>
        <time>2017-08-14T09:13:10Z</time>
      </trkpt>
      <trkpt lat="45.96294" lon="4.77327">
        <ele>219</ele>
        <time>2017-08-14T09:13:11Z</time>
      </trkpt>
      <trkpt lat="45.96288" lon="4.77323">
        <ele>219</ele>
        <time>2017-08-14T09:13:12Z</time>
      </trkpt>
      <trkpt lat="45.96281" lon="4.7732">
        <ele>219</ele>
        <time>2017-08-14T09:13:13Z</time>
      </trkpt>
      <trkpt lat="45.96275" lon="4.77316">
        <ele>219</ele>
        <time>2017-08-14T09:13:14Z</time>
      </trkpt>
      <trkpt lat="45.96269" lon="4.77313">
        <ele>218</ele>
        <time>2017-08-14T09:13:15Z</time>
      </trkpt>
      <trkpt lat="45.96263" lon="4.77309">
        <ele>218</ele>
        <time>2017-08-14T09:13:16Z</time>
      </trkpt>
      <trkpt lat="45.96257" lon="4.77306">
        <ele>219</ele>
        <time>2017-08-14T09:13:17Z</time>
      </trkpt>
      <trkpt lat="45.96251" lon="4.77303">
        <ele>219</ele>
        <time>2017-08-14T09:13:18Z</time>
      </trkpt>
      <trkpt lat="45.96245" lon="4.773">
        <ele>217</ele>
        <time>2017-08-14T09:13:19Z</time>
      </trkpt>
      <trkpt lat="45.96239" lon="4.77297">
        <ele>217</ele>
        <time>2017-08-14T09:13:20Z</time>
      </trkpt>
      <trkpt lat="45.96233" lon="4.77294">
        <ele>217</ele>
        <time>2017-08-14T09:13:21Z</time>
      </trkpt>
      <trkpt lat="45.96228" lon="4.7729">
        <ele>217</ele>
        <time>2017-08-14T09:13:22Z</time>
      </trkpt>
      <trkpt lat="45.96222" lon="4.77286">
        <ele>217</ele>
        <time>2017-08-14T09:13:23Z</time>
      </trkpt>
      <trkpt lat="45.96217" lon="4.77283">
        <ele>217</ele>
        <time>2017-08-14T09:13:24Z</time>
      </trkpt>
      <trkpt lat="45.96212" lon="4.7728">
        <ele>217</ele>
        <time>2017-08-14T09:13:25Z</time>
      </trkpt>
      <trkpt lat="45.96206" lon="4.77277">
        <ele>217</ele>
        <time>2017-08-14T09:13:26Z</time>
      </trkpt>
      <trkpt lat="45.962" lon="4.77274">
        <ele>216</ele>
        <time>2017-08-14T09:13:27Z</time>
      </trkpt>
      <trkpt lat="45.96194" lon="4.7727">
        <ele>216</ele>
        <time>2017-08-14T09:13:28Z</time>
      </trkpt>
      <trkpt lat="45.96187" lon="4.77266">
        <ele>216</ele>
        <time>2017-08-14T09:13:29Z</time>
      </trkpt>
      <trkpt lat="45.96181" lon="4.77263">
        <ele>216</ele>
        <time>2017-08-14T09:13:30Z</time>
      </trkpt>
      <trkpt lat="45.96175" lon="4.77259">
        <ele>216</ele>
        <time>2017-08-14T09:13:31Z</time>
      </trkpt>
      <trkpt lat="45.96169" lon="4.77256">
        <ele>216</ele>
        <time>2017-08-14T09:13:32Z</time>
      </trkpt>
      <trkpt lat="45.96162" lon="4.77252">
        <ele>215</ele>
        <time>2017-08-14T09:13:33Z</time>
      </trkpt>
      <trkpt lat="45.96155" lon="4.77248">
        <ele>216</ele>
        <time>2017-08-14T09:13:34Z</time>
      </trkpt>
      <trkpt lat="45.96148" lon="4.77245">
        <ele>215</ele>
        <time>2017-08-14T09:13:35Z</time>
      </trkpt>
      <trkpt lat="45.96141" lon="4.77242">
        <ele>215</ele>
        <time>2017-08-14T09:13:36Z</time>
      </trkpt>
      <trkpt lat="45.96134" lon="4.7724">
        <ele>215</ele>
        <time>2017-08-14T09:13:37Z</time>
      </trkpt>
      <trkpt lat="45.96126" lon="4.77238">
        <ele>214</ele>
        <time>2017-08-14T09:13:38Z</time>
      </trkpt>
      <trkpt lat="45.9612" lon="4.77237">
        <ele>214</ele>
        <time>2017-08-14T09:13:39Z</time>
      </trkpt>
      <trkpt lat="45.96113" lon="4.77237">
        <ele>214</ele>
        <time>2017-08-14T09:13:40Z</time>
      </trkpt>
      <trkpt lat="45.96106" lon="4.77237">
        <ele>213</ele>
        <time>2017-08-14T09:13:41Z</time>
      </trkpt>
      <trkpt lat="45.96099" lon="4.77238">
        <ele>213</ele>
        <time>2017-08-14T09:13:42Z</time>
      </trkpt>
      <trkpt lat="45.96091" lon="4.77239">
        <ele>212</ele>
        <time>2017-08-14T09:13:43Z</time>
      </trkpt>
      <trkpt lat="45.96084" lon="4.77239">
        <ele>212</ele>
        <time>2017-08-14T09:13:44Z</time>
      </trkpt>
      <trkpt lat="45.96077" lon="4.77241">
        <ele>210</ele>
        <time>2017-08-14T09:13:45Z</time>
      </trkpt>
      <trkpt lat="45.9607" lon="4.77241">
        <ele>210</ele>
        <time>2017-08-14T09:13:46Z</time>
      </trkpt>
      <trkpt lat="45.96063" lon="4.77242">
        <ele>209</ele>
        <time>2017-08-14T09:13:47Z</time>
      </trkpt>
      <trkpt lat="45.96055" lon="4.77242">
        <ele>209</ele>
        <time>2017-08-14T09:13:48Z</time>
      </trkpt>
      <trkpt lat="45.96048" lon="4.77243">
        <ele>209</ele>
        <time>2017-08-14T09:13:49Z</time>
      </trkpt>
      <trkpt lat="45.9604" lon="4.77243">
        <ele>208</ele>
        <time>2017-08-14T09:13:50Z</time>
      </trkpt>
      <trkpt lat="45.96032" lon="4.77244">
        <ele>208</ele>
        <time>2017-08-14T09:13:51Z</time>
      </trkpt>
      <trkpt lat="45.96025" lon="4.77244">
        <ele>207</ele>
        <time>2017-08-14T09:13:52Z</time>
      </trkpt>
      <trkpt lat="45.96017" lon="4.77245">
        <ele>206</ele>
        <time>2017-08-14T09:13:53Z</time>
      </trkpt>
      <trkpt lat="45.96008" lon="4.77245">
        <ele>205</ele>
        <time>2017-08-14T09:13:54Z</time>
      </trkpt>
      <trkpt lat="45.96" lon="4.77243">
        <ele>203</ele>
        <time>2017-08-14T09:13:55Z</time>
      </trkpt>
      <trkpt lat="45.95992" lon="4.77241">
        <ele>202</ele>
        <time>2017-08-14T09:13:56Z</time>
      </trkpt>
      <trkpt lat="45.95983" lon="4.77236">
        <ele>202</ele>
        <time>2017-08-14T09:13:57Z</time>
      </trkpt>
      <trkpt lat="45.95976" lon="4.77231">
        <ele>202</ele>
        <time>2017-08-14T09:13:58Z</time>
      </trkpt>
      <trkpt lat="45.95969" lon="4.77223">
        <ele>202</ele>
        <time>2017-08-14T09:13:59Z</time>
      </trkpt>
      <trkpt lat="45.95962" lon="4.77215">
        <ele>201</ele>
        <time>2017-08-14T09:14:00Z</time>
      </trkpt>
      <trkpt lat="45.95956" lon="4.77205">
        <ele>201</ele>
        <time>2017-08-14T09:14:01Z</time>
      </trkpt>
      <trkpt lat="45.95952" lon="4.77194">
        <ele>201</ele>
        <time>2017-08-14T09:14:02Z</time>
      </trkpt>
      <trkpt lat="45.95948" lon="4.77182">
        <ele>201</ele>
        <time>2017-08-14T09:14:03Z</time>
      </trkpt>
      <trkpt lat="45.95946" lon="4.7717">
        <ele>200</ele>
        <time>2017-08-14T09:14:04Z</time>
      </trkpt>
      <trkpt lat="45.95944" lon="4.77157">
        <ele>201</ele>
        <time>2017-08-14T09:14:05Z</time>
      </trkpt>
      <trkpt lat="45.95943" lon="4.77144">
        <ele>201</ele>
        <time>2017-08-14T09:14:06Z</time>
      </trkpt>
      <trkpt lat="45.95942" lon="4.77131">
        <ele>201</ele>
        <time>2017-08-14T09:14:07Z</time>
      </trkpt>
      <trkpt lat="45.95942" lon="4.77118">
        <ele>201</ele>
        <time>2017-08-14T09:14:08Z</time>
      </trkpt>
      <trkpt lat="45.95943" lon="4.77105">
        <ele>201</ele>
        <time>2017-08-14T09:14:09Z</time>
      </trkpt>
      <trkpt lat="45.95945" lon="4.77092">
        <ele>201</ele>
        <time>2017-08-14T09:14:10Z</time>
      </trkpt>
      <trkpt lat="45.95948" lon="4.77079">
        <ele>200</ele>
        <time>2017-08-14T09:14:11Z</time>
      </trkpt>
      <trkpt lat="45.95951" lon="4.77067">
        <ele>200</ele>
        <time>2017-08-14T09:14:12Z</time>
      </trkpt>
      <trkpt lat="45.95956" lon="4.77056">
        <ele>200</ele>
        <time>2017-08-14T09:14:13Z</time>
      </trkpt>
      <trkpt lat="45.9596" lon="4.77044">
        <ele>200</ele>
        <time>2017-08-14T09:14:14Z</time>
      </trkpt>
      <trkpt lat="45.95965" lon="4.77033">
        <ele>200</ele>
        <time>2017-08-14T09:14:15Z</time>
      </trkpt>
      <trkpt lat="45.95969" lon="4.77022">
        <ele>200</ele>
        <time>2017-08-14T09:14:16Z</time>
      </trkpt>
      <trkpt lat="45.95973" lon="4.7701">
        <ele>200</ele>
        <time>2017-08-14T09:14:17Z</time>
      </trkpt>
      <trkpt lat="45.95977" lon="4.76999">
        <ele>198</ele>
        <time>2017-08-14T09:14:18Z</time>
      </trkpt>
      <trkpt lat="45.9598" lon="4.76986">
        <ele>197</ele>
        <time>2017-08-14T09:14:19Z</time>
      </trkpt>
      <trkpt lat="45.95981" lon="4.76973">
        <ele>197</ele>
        <time>2017-08-14T09:14:20Z</time>
      </trkpt>
      <trkpt lat="45.9598" lon="4.76959">
        <ele>196</ele>
        <time>2017-08-14T09:14:21Z</time>
      </trkpt>
      <trkpt lat="45.95976" lon="4.76945">
        <ele>196</ele>
        <time>2017-08-14T09:14:22Z</time>
      </trkpt>
      <trkpt lat="45.95971" lon="4.76933">
        <ele>195</ele>
        <time>2017-08-14T09:14:23Z</time>
      </trkpt>
      <trkpt lat="45.95964" lon="4.76924">
        <ele>195</ele>
        <time>2017-08-14T09:14:24Z</time>
      </trkpt>
      <trkpt lat="45.95956" lon="4.76916">
        <ele>193</ele>
        <time>2017-08-14T09:14:25Z</time>
      </trkpt>
      <trkpt lat="45.95948" lon="4.76907">
        <ele>193</ele>
        <time>2017-08-14T09:14:26Z</time>
      </trkpt>
      <trkpt lat="45.95941" lon="4.76899">
        <ele>192</ele>
        <time>2017-08-14T09:14:27Z</time>
      </trkpt>
      <trkpt lat="45.95933" lon="4.76891">
        <ele>192</ele>
        <time>2017-08-14T09:14:28Z</time>
      </trkpt>
      <trkpt lat="45.95925" lon="4.76883">
        <ele>192</ele>
        <time>2017-08-14T09:14:29Z</time>
      </trkpt>
      <trkpt lat="45.95918" lon="4.76874">
        <ele>192</ele>
        <time>2017-08-14T09:14:30Z</time>
      </trkpt>
      <trkpt lat="45.9591" lon="4.76866">
        <ele>191</ele>
        <time>2017-08-14T09:14:31Z</time>
      </trkpt>
      <trkpt lat="45.95903" lon="4.76858">
        <ele>191</ele>
        <time>2017-08-14T09:14:32Z</time>
      </trkpt>
      <trkpt lat="45.95896" lon="4.7685">
        <ele>191</ele>
        <time>2017-08-14T09:14:33Z</time>
      </trkpt>
      <trkpt lat="45.95889" lon="4.76842">
        <ele>191</ele>
        <time>2017-08-14T09:14:34Z</time>
      </trkpt>
      <trkpt lat="45.95882" lon="4.76835">
        <ele>191</ele>
        <time>2017-08-14T09:14:35Z</time>
      </trkpt>
      <trkpt lat="45.95875" lon="4.76827">
        <ele>191</ele>
        <time>2017-08-14T09:14:36Z</time>
      </trkpt>
      <trkpt lat="45.95869" lon="4.76819">
        <ele>191</ele>
        <time>2017-08-14T09:14:37Z</time>
      </trkpt>
      <trkpt lat="45.95862" lon="4.76812">
        <ele>191</ele>
        <time>2017-08-14T09:14:38Z</time>
      </trkpt>
      <trkpt lat="45.95855" lon="4.76805">
        <ele>191</ele>
        <time>2017-08-14T09:14:39Z</time>
      </trkpt>
      <trkpt lat="45.95849" lon="4.76798">
        <ele>191</ele>
        <time>2017-08-14T09:14:40Z</time>
      </trkpt>
      <trkpt lat="45.95841" lon="4.76791">
        <ele>191</ele>
        <time>2017-08-14T09:14:41Z</time>
      </trkpt>
      <trkpt lat="45.95836" lon="4.76784">
        <ele>191</ele>
        <time>2017-08-14T09:14:42Z</time>
      </trkpt>
      <trkpt lat="45.95831" lon="4.76775">
        <ele>190</ele>
        <time>2017-08-14T09:14:43Z</time>
      </trkpt>
      <trkpt lat="45.95828" lon="4.76766">
        <ele>190</ele>
        <time>2017-08-14T09:14:44Z</time>
      </trkpt>
      <trkpt lat="45.95826" lon="4.76757">
        <ele>191</ele>
        <time>2017-08-14T09:14:45Z</time>
      </trkpt>
      <trkpt lat="45.95825" lon="4.76747">
        <ele>190</ele>
        <time>2017-08-14T09:14:46Z</time>
      </trkpt>
      <trkpt lat="45.95823" lon="4.76737">
        <ele>190</ele>
        <time>2017-08-14T09:14:47Z</time>
      </trkpt>
      <trkpt lat="45.95822" lon="4.76728">
        <ele>190</ele>
        <time>2017-08-14T09:14:48Z</time>
      </trkpt>
      <trkpt lat="45.9582" lon="4.76719">
        <ele>189</ele>
        <time>2017-08-14T09:14:49Z</time>
      </trkpt>
      <trkpt lat="45.95819" lon="4.76709">
        <ele>189</ele>
        <time>2017-08-14T09:14:50Z</time>
      </trkpt>
      <trkpt lat="45.95818" lon="4.76701">
        <ele>189</ele>
        <time>2017-08-14T09:14:51Z</time>
      </trkpt>
      <trkpt lat="45.95816" lon="4.76692">
        <ele>189</ele>
        <time>2017-08-14T09:14:52Z</time>
      </trkpt>
      <trkpt lat="45.95815" lon="4.76684">
        <ele>189</ele>
        <time>2017-08-14T09:14:53Z</time>
      </trkpt>
      <trkpt lat="45.95814" lon="4.76677">
        <ele>189</ele>
        <time>2017-08-14T09:14:54Z</time>
      </trkpt>
      <trkpt lat="45.95812" lon="4.76668">
        <ele>189</ele>
        <time>2017-08-14T09:14:55Z</time>
      </trkpt>
      <trkpt lat="45.95811" lon="4.7666">
        <ele>188</ele>
        <time>2017-08-14T09:14:56Z</time>
      </trkpt>
      <trkpt lat="45.9581" lon="4.76651">
        <ele>188</ele>
        <time>2017-08-14T09:14:57Z</time>
      </trkpt>
      <trkpt lat="45.95808" lon="4.76642">
        <ele>188</ele>
        <time>2017-08-14T09:14:58Z</time>
      </trkpt>
      <trkpt lat="45.95807" lon="4.76632">
        <ele>188</ele>
        <time>2017-08-14T09:14:59Z</time>
      </trkpt>
      <trkpt lat="45.95805" lon="4.76623">
        <ele>188</ele>
        <time>2017-08-14T09:15:00Z</time>
      </trkpt>
      <trkpt lat="45.95804" lon="4.76613">
        <ele>188</ele>
        <time>2017-08-14T09:15:01Z</time>
      </trkpt>
      <trkpt lat="45.95802" lon="4.76603">
        <ele>187</ele>
        <time>2017-08-14T09:15:02Z</time>
      </trkpt>
      <trkpt lat="45.95801" lon="4.76593">
        <ele>187</ele>
        <time>2017-08-14T09:15:03Z</time>
      </trkpt>
      <trkpt lat="45.958" lon="4.76583">
        <ele>187</ele>
        <time>2017-08-14T09:15:04Z</time>
      </trkpt>
      <trkpt lat="45.95798" lon="4.76574">
        <ele>187</ele>
        <time>2017-08-14T09:15:05Z</time>
      </trkpt>
      <trkpt lat="45.95796" lon="4.76565">
        <ele>187</ele>
        <time>2017-08-14T09:15:06Z</time>
      </trkpt>
      <trkpt lat="45.95795" lon="4.76556">
        <ele>187</ele>
        <time>2017-08-14T09:15:07Z</time>
      </trkpt>
      <trkpt lat="45.95794" lon="4.76548">
        <ele>187</ele>
        <time>2017-08-14T09:15:08Z</time>
      </trkpt>
      <trkpt lat="45.95793" lon="4.76539">
        <ele>187</ele>
        <time>2017-08-14T09:15:09Z</time>
      </trkpt>
      <trkpt lat="45.95792" lon="4.76531">
        <ele>187</ele>
        <time>2017-08-14T09:15:10Z</time>
      </trkpt>
      <trkpt lat="45.95791" lon="4.76523">
        <ele>187</ele>
        <time>2017-08-14T09:15:11Z</time>
      </trkpt>
      <trkpt lat="45.95789" lon="4.76515">
        <ele>187</ele>
        <time>2017-08-14T09:15:12Z</time>
      </trkpt>
      <trkpt lat="45.95788" lon="4.76506">
        <ele>187</ele>
        <time>2017-08-14T09:15:13Z</time>
      </trkpt>
      <trkpt lat="45.95787" lon="4.76498">
        <ele>186</ele>
        <time>2017-08-14T09:15:14Z</time>
      </trkpt>
      <trkpt lat="45.95786" lon="4.7649">
        <ele>186</ele>
        <time>2017-08-14T09:15:15Z</time>
      </trkpt>
      <trkpt lat="45.95785" lon="4.76482">
        <ele>186</ele>
        <time>2017-08-14T09:15:16Z</time>
      </trkpt>
      <trkpt lat="45.95784" lon="4.76474">
        <ele>186</ele>
        <time>2017-08-14T09:15:17Z</time>
      </trkpt>
      <trkpt lat="45.95783" lon="4.76466">
        <ele>186</ele>
        <time>2017-08-14T09:15:18Z</time>
      </trkpt>
      <trkpt lat="45.95781" lon="4.76457">
        <ele>186</ele>
        <time>2017-08-14T09:15:19Z</time>
      </trkpt>
      <trkpt lat="45.9578" lon="4.76448">
        <ele>186</ele>
        <time>2017-08-14T09:15:20Z</time>
      </trkpt>
      <trkpt lat="45.95779" lon="4.7644">
        <ele>186</ele>
        <time>2017-08-14T09:15:21Z</time>
      </trkpt>
      <trkpt lat="45.95778" lon="4.76431">
        <ele>186</ele>
        <time>2017-08-14T09:15:22Z</time>
      </trkpt>
      <trkpt lat="45.95777" lon="4.76422">
        <ele>186</ele>
        <time>2017-08-14T09:15:23Z</time>
      </trkpt>
      <trkpt lat="45.95776" lon="4.76412">
        <ele>186</ele>
        <time>2017-08-14T09:15:24Z</time>
      </trkpt>
      <trkpt lat="45.95776" lon="4.76402">
        <ele>186</ele>
        <time>2017-08-14T09:15:25Z</time>
      </trkpt>
      <trkpt lat="45.95774" lon="4.76393">
        <ele>186</ele>
        <time>2017-08-14T09:15:26Z</time>
      </trkpt>
      <trkpt lat="45.95774" lon="4.76384">
        <ele>186</ele>
        <time>2017-08-14T09:15:27Z</time>
      </trkpt>
      <trkpt lat="45.95773" lon="4.76375">
        <ele>186</ele>
        <time>2017-08-14T09:15:28Z</time>
      </trkpt>
      <trkpt lat="45.95773" lon="4.76366">
        <ele>186</ele>
        <time>2017-08-14T09:15:29Z</time>
      </trkpt>
      <trkpt lat="45.95772" lon="4.76357">
        <ele>186</ele>
        <time>2017-08-14T09:15:30Z</time>
      </trkpt>
      <trkpt lat="45.95771" lon="4.76349">
        <ele>186</ele>
        <time>2017-08-14T09:15:31Z</time>
      </trkpt>
      <trkpt lat="45.95771" lon="4.76341">
        <ele>186</ele>
        <time>2017-08-14T09:15:32Z</time>
      </trkpt>
      <trkpt lat="45.95771" lon="4.76332">
        <ele>185</ele>
        <time>2017-08-14T09:15:33Z</time>
      </trkpt>
      <trkpt lat="45.9577" lon="4.76324">
        <ele>185</ele>
        <time>2017-08-14T09:15:34Z</time>
      </trkpt>
      <trkpt lat="45.9577" lon="4.76317">
        <ele>185</ele>
        <time>2017-08-14T09:15:35Z</time>
      </trkpt>
      <trkpt lat="45.95769" lon="4.76309">
        <ele>186</ele>
        <time>2017-08-14T09:15:36Z</time>
      </trkpt>
      <trkpt lat="45.95769" lon="4.76301">
        <ele>186</ele>
        <time>2017-08-14T09:15:37Z</time>
      </trkpt>
      <trkpt lat="45.95768" lon="4.76293">
        <ele>186</ele>
        <time>2017-08-14T09:15:38Z</time>
      </trkpt>
      <trkpt lat="45.95768" lon="4.76285">
        <ele>186</ele>
        <time>2017-08-14T09:15:39Z</time>
      </trkpt>
      <trkpt lat="45.95768" lon="4.76277">
        <ele>186</ele>
        <time>2017-08-14T09:15:40Z</time>
      </trkpt>
      <trkpt lat="45.95767" lon="4.76268">
        <ele>185</ele>
        <time>2017-08-14T09:15:41Z</time>
      </trkpt>
      <trkpt lat="45.95767" lon="4.76259">
        <ele>185</ele>
        <time>2017-08-14T09:15:42Z</time>
      </trkpt>
      <trkpt lat="45.95767" lon="4.76251">
        <ele>185</ele>
        <time>2017-08-14T09:15:43Z</time>
      </trkpt>
      <trkpt lat="45.95766" lon="4.76242">
        <ele>186</ele>
        <time>2017-08-14T09:15:44Z</time>
      </trkpt>
      <trkpt lat="45.95766" lon="4.76232">
        <ele>186</ele>
        <time>2017-08-14T09:15:45Z</time>
      </trkpt>
      <trkpt lat="45.95766" lon="4.76223">
        <ele>186</ele>
        <time>2017-08-14T09:15:46Z</time>
      </trkpt>
      <trkpt lat="45.95765" lon="4.76214">
        <ele>186</ele>
        <time>2017-08-14T09:15:47Z</time>
      </trkpt>
      <trkpt lat="45.95765" lon="4.76204">
        <ele>186</ele>
        <time>2017-08-14T09:15:48Z</time>
      </trkpt>
      <trkpt lat="45.95764" lon="4.76195">
        <ele>186</ele>
        <time>2017-08-14T09:15:49Z</time>
      </trkpt>
      <trkpt lat="45.95764" lon="4.76185">
        <ele>186</ele>
        <time>2017-08-14T09:15:50Z</time>
      </trkpt>
      <trkpt lat="45.95763" lon="4.76176">
        <ele>185</ele>
        <time>2017-08-14T09:15:51Z</time>
      </trkpt>
      <trkpt lat="45.95763" lon="4.76167">
        <ele>185</ele>
        <time>2017-08-14T09:15:52Z</time>
      </trkpt>
      <trkpt lat="45.95762" lon="4.76159">
        <ele>186</ele>
        <time>2017-08-14T09:15:53Z</time>
      </trkpt>
      <trkpt lat="45.95761" lon="4.76151">
        <ele>186</ele>
        <time>2017-08-14T09:15:54Z</time>
      </trkpt>
      <trkpt lat="45.9576" lon="4.76142">
        <ele>186</ele>
        <time>2017-08-14T09:15:55Z</time>
      </trkpt>
      <trkpt lat="45.95759" lon="4.76135">
        <ele>186</ele>
        <time>2017-08-14T09:15:56Z</time>
      </trkpt>
      <trkpt lat="45.95759" lon="4.76127">
        <ele>186</ele>
        <time>2017-08-14T09:15:57Z</time>
      </trkpt>
      <trkpt lat="45.95758" lon="4.76119">
        <ele>186</ele>
        <time>2017-08-14T09:15:58Z</time>
      </trkpt>
      <trkpt lat="45.95757" lon="4.76112">
        <ele>186</ele>
        <time>2017-08-14T09:15:59Z</time>
      </trkpt>
      <trkpt lat="45.95756" lon="4.76105">
        <ele>186</ele>
        <time>2017-08-14T09:16:00Z</time>
      </trkpt>
      <trkpt lat="45.95754" lon="4.76098">
        <ele>186</ele>
        <time>2017-08-14T09:16:01Z</time>
      </trkpt>
      <trkpt lat="45.95752" lon="4.7609">
        <ele>185</ele>
        <time>2017-08-14T09:16:02Z</time>
      </trkpt>
      <trkpt lat="45.9575" lon="4.76082">
        <ele>185</ele>
        <time>2017-08-14T09:16:03Z</time>
      </trkpt>
      <trkpt lat="45.95747" lon="4.76075">
        <ele>185</ele>
        <time>2017-08-14T09:16:04Z</time>
      </trkpt>
      <trkpt lat="45.95744" lon="4.76067">
        <ele>185</ele>
        <time>2017-08-14T09:16:05Z</time>
      </trkpt>
      <trkpt lat="45.95741" lon="4.76059">
        <ele>184</ele>
        <time>2017-08-14T09:16:06Z</time>
      </trkpt>
      <trkpt lat="45.95737" lon="4.76051">
        <ele>184</ele>
        <time>2017-08-14T09:16:07Z</time>
      </trkpt>
      <trkpt lat="45.95734" lon="4.76043">
        <ele>184</ele>
        <time>2017-08-14T09:16:08Z</time>
      </trkpt>
      <trkpt lat="45.9573" lon="4.76035">
        <ele>184</ele>
        <time>2017-08-14T09:16:09Z</time>
      </trkpt>
      <trkpt lat="45.95726" lon="4.76027">
        <ele>184</ele>
        <time>2017-08-14T09:16:10Z</time>
      </trkpt>
      <trkpt lat="45.95722" lon="4.76018">
        <ele>184</ele>
        <time>2017-08-14T09:16:11Z</time>
      </trkpt>
      <trkpt lat="45.95718" lon="4.7601">
        <ele>184</ele>
        <time>2017-08-14T09:16:12Z</time>
      </trkpt>
      <trkpt lat="45.95714" lon="4.76002">
        <ele>184</ele>
        <time>2017-08-14T09:16:13Z</time>
      </trkpt>
      <trkpt lat="45.9571" lon="4.75994">
        <ele>185</ele>
        <time>2017-08-14T09:16:14Z</time>
      </trkpt>
      <trkpt lat="45.95705" lon="4.75986">
        <ele>185</ele>
        <time>2017-08-14T09:16:15Z</time>
      </trkpt>
      <trkpt lat="45.95701" lon="4.75979">
        <ele>185</ele>
        <time>2017-08-14T09:16:16Z</time>
      </trkpt>
      <trkpt lat="45.95697" lon="4.75971">
        <ele>185</ele>
        <time>2017-08-14T09:16:17Z</time>
      </trkpt>
      <trkpt lat="45.95694" lon="4.75964">
        <ele>185</ele>
        <time>2017-08-14T09:16:18Z</time>
      </trkpt>
      <trkpt lat="45.9569" lon="4.75958">
        <ele>185</ele>
        <time>2017-08-14T09:16:19Z</time>
      </trkpt>
      <trkpt lat="45.95687" lon="4.75951">
        <ele>185</ele>
        <time>2017-08-14T09:16:20Z</time>
      </trkpt>
      <trkpt lat="45.95684" lon="4.75945">
        <ele>185</ele>
        <time>2017-08-14T09:16:21Z</time>
      </trkpt>
      <trkpt lat="45.95682" lon="4.75939">
        <ele>185</ele>
        <time>2017-08-14T09:16:22Z</time>
      </trkpt>
      <trkpt lat="45.9568" lon="4.75932">
        <ele>185</ele>
        <time>2017-08-14T09:16:23Z</time>
      </trkpt>
      <trkpt lat="45.95677" lon="4.75926">
        <ele>185</ele>
        <time>2017-08-14T09:16:24Z</time>
      </trkpt>
      <trkpt lat="45.95674" lon="4.7592">
        <ele>184</ele>
        <time>2017-08-14T09:16:25Z</time>
      </trkpt>
      <trkpt lat="45.95672" lon="4.75914">
        <ele>185</ele>
        <time>2017-08-14T09:16:26Z</time>
      </trkpt>
      <trkpt lat="45.9567" lon="4.75909">
        <ele>185</ele>
        <time>2017-08-14T09:16:27Z</time>
      </trkpt>
      <trkpt lat="45.95668" lon="4.75902">
        <ele>185</ele>
        <time>2017-08-14T09:16:28Z</time>
      </trkpt>
      <trkpt lat="45.95666" lon="4.75896">
        <ele>184</ele>
        <time>2017-08-14T09:16:29Z</time>
      </trkpt>
      <trkpt lat="45.95664" lon="4.7589">
        <ele>184</ele>
        <time>2017-08-14T09:16:30Z</time>
      </trkpt>
      <trkpt lat="45.95661" lon="4.75883">
        <ele>184</ele>
        <time>2017-08-14T09:16:31Z</time>
      </trkpt>
      <trkpt lat="45.95659" lon="4.75876">
        <ele>184</ele>
        <time>2017-08-14T09:16:32Z</time>
      </trkpt>
      <trkpt lat="45.95657" lon="4.75869">
        <ele>184</ele>
        <time>2017-08-14T09:16:33Z</time>
      </trkpt>
      <trkpt lat="45.95655" lon="4.75862">
        <ele>184</ele>
        <time>2017-08-14T09:16:34Z</time>
      </trkpt>
      <trkpt lat="45.95653" lon="4.75854">
        <ele>184</ele>
        <time>2017-08-14T09:16:35Z</time>
      </trkpt>
      <trkpt lat="45.9565" lon="4.75846">
        <ele>185</ele>
        <time>2017-08-14T09:16:36Z</time>
      </trkpt>
      <trkpt lat="45.95648" lon="4.75838">
        <ele>185</ele>
        <time>2017-08-14T09:16:37Z</time>
      </trkpt>
      <trkpt lat="45.95647" lon="4.7583">
        <ele>185</ele>
        <time>2017-08-14T09:16:38Z</time>
      </trkpt>
      <trkpt lat="45.95645" lon="4.75822">
        <ele>185</ele>
        <time>2017-08-14T09:16:39Z</time>
      </trkpt>
      <trkpt lat="45.95643" lon="4.75813">
        <ele>185</ele>
        <time>2017-08-14T09:16:40Z</time>
      </trkpt>
      <trkpt lat="45.95642" lon="4.75804">
        <ele>185</ele>
        <time>2017-08-14T09:16:41Z</time>
      </trkpt>
      <trkpt lat="45.95641" lon="4.75796">
        <ele>185</ele>
        <time>2017-08-14T09:16:42Z</time>
      </trkpt>
      <trkpt lat="45.9564" lon="4.75787">
        <ele>185</ele>
        <time>2017-08-14T09:16:43Z</time>
      </trkpt>
      <trkpt lat="45.95639" lon="4.75779">
        <ele>186</ele>
        <time>2017-08-14T09:16:44Z</time>
      </trkpt>
      <trkpt lat="45.95638" lon="4.75772">
        <ele>186</ele>
        <time>2017-08-14T09:16:45Z</time>
      </trkpt>
      <trkpt lat="45.95637" lon="4.75765">
        <ele>186</ele>
        <time>2017-08-14T09:16:46Z</time>
      </trkpt>
      <trkpt lat="45.95636" lon="4.75757">
        <ele>186</ele>
        <time>2017-08-14T09:16:47Z</time>
      </trkpt>
      <trkpt lat="45.95635" lon="4.7575">
        <ele>187</ele>
        <time>2017-08-14T09:16:48Z</time>
      </trkpt>
      <trkpt lat="45.95634" lon="4.75742">
        <ele>187</ele>
        <time>2017-08-14T09:16:49Z</time>
      </trkpt>
      <trkpt lat="45.95633" lon="4.75734">
        <ele>187</ele>
        <time>2017-08-14T09:16:50Z</time>
      </trkpt>
      <trkpt lat="45.95632" lon="4.75726">
        <ele>187</ele>
        <time>2017-08-14T09:16:51Z</time>
      </trkpt>
      <trkpt lat="45.95632" lon="4.75718">
        <ele>187</ele>
        <time>2017-08-14T09:16:52Z</time>
      </trkpt>
      <trkpt lat="45.95631" lon="4.7571">
        <ele>187</ele>
        <time>2017-08-14T09:16:53Z</time>
      </trkpt>
      <trkpt lat="45.9563" lon="4.75702">
        <ele>187</ele>
        <time>2017-08-14T09:16:54Z</time>
      </trkpt>
      <trkpt lat="45.95629" lon="4.75695">
        <ele>187</ele>
        <time>2017-08-14T09:16:55Z</time>
      </trkpt>
      <trkpt lat="45.95628" lon="4.75687">
        <ele>187</ele>
        <time>2017-08-14T09:16:56Z</time>
      </trkpt>
      <trkpt lat="45.95627" lon="4.7568">
        <ele>187</ele>
        <time>2017-08-14T09:16:57Z</time>
      </trkpt>
      <trkpt lat="45.95626" lon="4.75672">
        <ele>187</ele>
        <time>2017-08-14T09:16:58Z</time>
      </trkpt>
      <trkpt lat="45.95625" lon="4.75665">
        <ele>188</ele>
        <time>2017-08-14T09:16:59Z</time>
      </trkpt>
      <trkpt lat="45.95624" lon="4.75658">
        <ele>188</ele>
        <time>2017-08-14T09:17:00Z</time>
      </trkpt>
      <trkpt lat="45.95622" lon="4.75651">
        <ele>188</ele>
        <time>2017-08-14T09:17:01Z</time>
      </trkpt>
      <trkpt lat="45.9562" lon="4.75644">
        <ele>188</ele>
        <time>2017-08-14T09:17:02Z</time>
      </trkpt>
      <trkpt lat="45.95619" lon="4.75637">
        <ele>188</ele>
        <time>2017-08-14T09:17:03Z</time>
      </trkpt>
      <trkpt lat="45.95617" lon="4.7563">
        <ele>188</ele>
        <time>2017-08-14T09:17:04Z</time>
      </trkpt>
      <trkpt lat="45.95615" lon="4.75623">
        <ele>188</ele>
        <time>2017-08-14T09:17:05Z</time>
      </trkpt>
      <trkpt lat="45.95612" lon="4.75615">
        <ele>188</ele>
        <time>2017-08-14T09:17:06Z</time>
      </trkpt>
      <trkpt lat="45.95609" lon="4.75607">
        <ele>188</ele>
        <time>2017-08-14T09:17:07Z</time>
      </trkpt>
      <trkpt lat="45.95606" lon="4.756">
        <ele>187</ele>
        <time>2017-08-14T09:17:08Z</time>
      </trkpt>
      <trkpt lat="45.95604" lon="4.75593">
        <ele>187</ele>
        <time>2017-08-14T09:17:09Z</time>
      </trkpt>
      <trkpt lat="45.95601" lon="4.75586">
        <ele>187</ele>
        <time>2017-08-14T09:17:10Z</time>
      </trkpt>
      <trkpt lat="45.95597" lon="4.7558">
        <ele>188</ele>
        <time>2017-08-14T09:17:11Z</time>
      </trkpt>
      <trkpt lat="45.95594" lon="4.75573">
        <ele>188</ele>
        <time>2017-08-14T09:17:12Z</time>
      </trkpt>
      <trkpt lat="45.9559" lon="4.75567">
        <ele>188</ele>
        <time>2017-08-14T09:17:13Z</time>
      </trkpt>
      <trkpt lat="45.95587" lon="4.75561">
        <ele>188</ele>
        <time>2017-08-14T09:17:14Z</time>
      </trkpt>
      <trkpt lat="45.95584" lon="4.75555">
        <ele>188</ele>
        <time>2017-08-14T09:17:15Z</time>
      </trkpt>
      <trkpt lat="45.95578" lon="4.7555">
        <ele>186</ele>
        <time>2017-08-14T09:17:16Z</time>
      </trkpt>
      <trkpt lat="45.95573" lon="4.75546">
        <ele>186</ele>
        <time>2017-08-14T09:17:17Z</time>
      </trkpt>
      <trkpt lat="45.95568" lon="4.75541">
        <ele>186</ele>
        <time>2017-08-14T09:17:18Z</time>
      </trkpt>
      <trkpt lat="45.95564" lon="4.75536">
        <ele>186</ele>
        <time>2017-08-14T09:17:19Z</time>
      </trkpt>
      <trkpt lat="45.9556" lon="4.7553">
        <ele>186</ele>
        <time>2017-08-14T09:17:20Z</time>
      </trkpt>
      <trkpt lat="45.95555" lon="4.75526">
        <ele>186</ele>
        <time>2017-08-14T09:17:21Z</time>
      </trkpt>
      <trkpt lat="45.95551" lon="4.75521">
        <ele>186</ele>
        <time>2017-08-14T09:17:22Z</time>
      </trkpt>
      <trkpt lat="45.95547" lon="4.75516">
        <ele>186</ele>
        <time>2017-08-14T09:17:23Z</time>
      </trkpt>
      <trkpt lat="45.95544" lon="4.75512">
        <ele>186</ele>
        <time>2017-08-14T09:17:24Z</time>
      </trkpt>
      <trkpt lat="45.9554" lon="4.75501">
        <ele>186</ele>
        <time>2017-08-14T09:17:26Z</time>
      </trkpt>
      <trkpt lat="45.95539" lon="4.75495">
        <ele>187</ele>
        <time>2017-08-14T09:17:27Z</time>
      </trkpt>
      <trkpt lat="45.95538" lon="4.75489">
        <ele>187</ele>
        <time>2017-08-14T09:17:28Z</time>
      </trkpt>
      <trkpt lat="45.95538" lon="4.75482">
        <ele>187</ele>
        <time>2017-08-14T09:17:29Z</time>
      </trkpt>
      <trkpt lat="45.95538" lon="4.75475">
        <ele>187</ele>
        <time>2017-08-14T09:17:30Z</time>
      </trkpt>
      <trkpt lat="45.95536" lon="4.75468">
        <ele>187</ele>
        <time>2017-08-14T09:17:31Z</time>
      </trkpt>
      <trkpt lat="45.95534" lon="4.75461">
        <ele>187</ele>
        <time>2017-08-14T09:17:32Z</time>
      </trkpt>
      <trkpt lat="45.9553" lon="4.75455">
        <ele>187</ele>
        <time>2017-08-14T09:17:33Z</time>
      </trkpt>
      <trkpt lat="45.95526" lon="4.75449">
        <ele>187</ele>
        <time>2017-08-14T09:17:34Z</time>
      </trkpt>
      <trkpt lat="45.95522" lon="4.75442">
        <ele>187</ele>
        <time>2017-08-14T09:17:35Z</time>
      </trkpt>
      <trkpt lat="45.95517" lon="4.75435">
        <ele>187</ele>
        <time>2017-08-14T09:17:36Z</time>
      </trkpt>
      <trkpt lat="45.95514" lon="4.75427">
        <ele>186</ele>
        <time>2017-08-14T09:17:37Z</time>
      </trkpt>
      <trkpt lat="45.95511" lon="4.75419">
        <ele>186</ele>
        <time>2017-08-14T09:17:38Z</time>
      </trkpt>
      <trkpt lat="45.95508" lon="4.75411">
        <ele>186</ele>
        <time>2017-08-14T09:17:39Z</time>
      </trkpt>
      <trkpt lat="45.95505" lon="4.75404">
        <ele>187</ele>
        <time>2017-08-14T09:17:40Z</time>
      </trkpt>
      <trkpt lat="45.95501" lon="4.75396">
        <ele>187</ele>
        <time>2017-08-14T09:17:41Z</time>
      </trkpt>
      <trkpt lat="45.95498" lon="4.75389">
        <ele>185</ele>
        <time>2017-08-14T09:17:42Z</time>
      </trkpt>
      <trkpt lat="45.95495" lon="4.75382">
        <ele>185</ele>
        <time>2017-08-14T09:17:43Z</time>
      </trkpt>
      <trkpt lat="45.95492" lon="4.75376">
        <ele>185</ele>
        <time>2017-08-14T09:17:44Z</time>
      </trkpt>
      <trkpt lat="45.95488" lon="4.75369">
        <ele>186</ele>
        <time>2017-08-14T09:17:45Z</time>
      </trkpt>
      <trkpt lat="45.95486" lon="4.75362">
        <ele>186</ele>
        <time>2017-08-14T09:17:46Z</time>
      </trkpt>
      <trkpt lat="45.95484" lon="4.75354">
        <ele>186</ele>
        <time>2017-08-14T09:17:47Z</time>
      </trkpt>
      <trkpt lat="45.95482" lon="4.75347">
        <ele>186</ele>
        <time>2017-08-14T09:17:48Z</time>
      </trkpt>
      <trkpt lat="45.95479" lon="4.7534">
        <ele>186</ele>
        <time>2017-08-14T09:17:49Z</time>
      </trkpt>
      <trkpt lat="45.95475" lon="4.75334">
        <ele>186</ele>
        <time>2017-08-14T09:17:50Z</time>
      </trkpt>
      <trkpt lat="45.95472" lon="4.75328">
        <ele>188</ele>
        <time>2017-08-14T09:17:51Z</time>
      </trkpt>
      <trkpt lat="45.95469" lon="4.75321">
        <ele>188</ele>
        <time>2017-08-14T09:17:52Z</time>
      </trkpt>
      <trkpt lat="45.95466" lon="4.75315">
        <ele>188</ele>
        <time>2017-08-14T09:17:53Z</time>
      </trkpt>
      <trkpt lat="45.95463" lon="4.75309">
        <ele>188</ele>
        <time>2017-08-14T09:17:54Z</time>
      </trkpt>
      <trkpt lat="45.9546" lon="4.75302">
        <ele>188</ele>
        <time>2017-08-14T09:17:55Z</time>
      </trkpt>
      <trkpt lat="45.95457" lon="4.75296">
        <ele>188</ele>
        <time>2017-08-14T09:17:56Z</time>
      </trkpt>
      <trkpt lat="45.95453" lon="4.7529">
        <ele>188</ele>
        <time>2017-08-14T09:17:57Z</time>
      </trkpt>
      <trkpt lat="45.9545" lon="4.75285">
        <ele>188</ele>
        <time>2017-08-14T09:17:58Z</time>
      </trkpt>
      <trkpt lat="45.95447" lon="4.75279">
        <ele>189</ele>
        <time>2017-08-14T09:17:59Z</time>
      </trkpt>
      <trkpt lat="45.95444" lon="4.75274">
        <ele>189</ele>
        <time>2017-08-14T09:18:00Z</time>
      </trkpt>
      <trkpt lat="45.95441" lon="4.75269">
        <ele>189</ele>
        <time>2017-08-14T09:18:01Z</time>
      </trkpt>
      <trkpt lat="45.95438" lon="4.75264">
        <ele>189</ele>
        <time>2017-08-14T09:18:02Z</time>
      </trkpt>
      <trkpt lat="45.95435" lon="4.75259">
        <ele>189</ele>
        <time>2017-08-14T09:18:03Z</time>
      </trkpt>
      <trkpt lat="45.95431" lon="4.75253">
        <ele>189</ele>
        <time>2017-08-14T09:18:04Z</time>
      </trkpt>
      <trkpt lat="45.95428" lon="4.75248">
        <ele>190</ele>
        <time>2017-08-14T09:18:05Z</time>
      </trkpt>
      <trkpt lat="45.95425" lon="4.75242">
        <ele>190</ele>
        <time>2017-08-14T09:18:06Z</time>
      </trkpt>
      <trkpt lat="45.95422" lon="4.75237">
        <ele>190</ele>
        <time>2017-08-14T09:18:07Z</time>
      </trkpt>
      <trkpt lat="45.95419" lon="4.75231">
        <ele>190</ele>
        <time>2017-08-14T09:18:08Z</time>
      </trkpt>
      <trkpt lat="45.95416" lon="4.75225">
        <ele>189</ele>
        <time>2017-08-14T09:18:09Z</time>
      </trkpt>
      <trkpt lat="45.95413" lon="4.75219">
        <ele>189</ele>
        <time>2017-08-14T09:18:10Z</time>
      </trkpt>
      <trkpt lat="45.9541" lon="4.75213">
        <ele>189</ele>
        <time>2017-08-14T09:18:11Z</time>
      </trkpt>
      <trkpt lat="45.95407" lon="4.75207">
        <ele>189</ele>
        <time>2017-08-14T09:18:12Z</time>
      </trkpt>
      <trkpt lat="45.95403" lon="4.752">
        <ele>189</ele>
        <time>2017-08-14T09:18:13Z</time>
      </trkpt>
      <trkpt lat="45.954" lon="4.75194">
        <ele>189</ele>
        <time>2017-08-14T09:18:14Z</time>
      </trkpt>
      <trkpt lat="45.95396" lon="4.75188">
        <ele>189</ele>
        <time>2017-08-14T09:18:15Z</time>
      </trkpt>
      <trkpt lat="45.95392" lon="4.75182">
        <ele>189</ele>
        <time>2017-08-14T09:18:16Z</time>
      </trkpt>
      <trkpt lat="45.95389" lon="4.75176">
        <ele>189</ele>
        <time>2017-08-14T09:18:17Z</time>
      </trkpt>
      <trkpt lat="45.95385" lon="4.75169">
        <ele>189</ele>
        <time>2017-08-14T09:18:18Z</time>
      </trkpt>
      <trkpt lat="45.95381" lon="4.75162">
        <ele>191</ele>
        <time>2017-08-14T09:18:19Z</time>
      </trkpt>
      <trkpt lat="45.95377" lon="4.75155">
        <ele>191</ele>
        <time>2017-08-14T09:18:20Z</time>
      </trkpt>
      <trkpt lat="45.95373" lon="4.75149">
        <ele>191</ele>
        <time>2017-08-14T09:18:21Z</time>
      </trkpt>
      <trkpt lat="45.9537" lon="4.75144">
        <ele>191</ele>
        <time>2017-08-14T09:18:22Z</time>
      </trkpt>
      <trkpt lat="45.95366" lon="4.75138">
        <ele>191</ele>
        <time>2017-08-14T09:18:23Z</time>
      </trkpt>
      <trkpt lat="45.95362" lon="4.75132">
        <ele>191</ele>
        <time>2017-08-14T09:18:24Z</time>
      </trkpt>
      <trkpt lat="45.95358" lon="4.75126">
        <ele>191</ele>
        <time>2017-08-14T09:18:25Z</time>
      </trkpt>
      <trkpt lat="45.95355" lon="4.75121">
        <ele>191</ele>
        <time>2017-08-14T09:18:26Z</time>
      </trkpt>
      <trkpt lat="45.95352" lon="4.75115">
        <ele>192</ele>
        <time>2017-08-14T09:18:27Z</time>
      </trkpt>
      <trkpt lat="45.95348" lon="4.7511">
        <ele>192</ele>
        <time>2017-08-14T09:18:28Z</time>
      </trkpt>
      <trkpt lat="45.95346" lon="4.75105">
        <ele>192</ele>
        <time>2017-08-14T09:18:29Z</time>
      </trkpt>
      <trkpt lat="45.9534" lon="4.75096">
        <ele>192</ele>
        <time>2017-08-14T09:18:31Z</time>
      </trkpt>
      <trkpt lat="45.95338" lon="4.75091">
        <ele>193</ele>
        <time>2017-08-14T09:18:32Z</time>
      </trkpt>
      <trkpt lat="45.95333" lon="4.75083">
        <ele>193</ele>
        <time>2017-08-14T09:18:34Z</time>
      </trkpt>
      <trkpt lat="45.9533" lon="4.75079">
        <ele>193</ele>
        <time>2017-08-14T09:18:35Z</time>
      </trkpt>
      <trkpt lat="45.95324" lon="4.75071">
        <ele>192</ele>
        <time>2017-08-14T09:18:37Z</time>
      </trkpt>
      <trkpt lat="45.95321" lon="4.75066">
        <ele>192</ele>
        <time>2017-08-14T09:18:38Z</time>
      </trkpt>
      <trkpt lat="45.95316" lon="4.75057">
        <ele>192</ele>
        <time>2017-08-14T09:18:40Z</time>
      </trkpt>
      <trkpt lat="45.95313" lon="4.75052">
        <ele>192</ele>
        <time>2017-08-14T09:18:41Z</time>
      </trkpt>
      <trkpt lat="45.95309" lon="4.75047">
        <ele>192</ele>
        <time>2017-08-14T09:18:42Z</time>
      </trkpt>
      <trkpt lat="45.95306" lon="4.75042">
        <ele>192</ele>
        <time>2017-08-14T09:18:43Z</time>
      </trkpt>
      <trkpt lat="45.95302" lon="4.75037">
        <ele>192</ele>
        <time>2017-08-14T09:18:44Z</time>
      </trkpt>
      <trkpt lat="45.95299" lon="4.75031">
        <ele>191</ele>
        <time>2017-08-14T09:18:45Z</time>
      </trkpt>
      <trkpt lat="45.95295" lon="4.75026">
        <ele>191</ele>
        <time>2017-08-14T09:18:46Z</time>
      </trkpt>
      <trkpt lat="45.95291" lon="4.7502">
        <ele>191</ele>
        <time>2017-08-14T09:18:47Z</time>
      </trkpt>
      <trkpt lat="45.95287" lon="4.75014">
        <ele>191</ele>
        <time>2017-08-14T09:18:48Z</time>
      </trkpt>
      <trkpt lat="45.95283" lon="4.75008">
        <ele>191</ele>
        <time>2017-08-14T09:18:49Z</time>
      </trkpt>
      <trkpt lat="45.9528" lon="4.75002">
        <ele>191</ele>
        <time>2017-08-14T09:18:50Z</time>
      </trkpt>
      <trkpt lat="45.95276" lon="4.74997">
        <ele>192</ele>
        <time>2017-08-14T09:18:51Z</time>
      </trkpt>
      <trkpt lat="45.95273" lon="4.74991">
        <ele>192</ele>
        <time>2017-08-14T09:18:52Z</time>
      </trkpt>
      <trkpt lat="45.9527" lon="4.74986">
        <ele>192</ele>
        <time>2017-08-14T09:18:53Z</time>
      </trkpt>
      <trkpt lat="45.95264" lon="4.74977">
        <ele>192</ele>
        <time>2017-08-14T09:18:55Z</time>
      </trkpt>
      <trkpt lat="45.95261" lon="4.74973">
        <ele>192</ele>
        <time>2017-08-14T09:18:56Z</time>
      </trkpt>
      <trkpt lat="45.95258" lon="4.74967">
        <ele>192</ele>
        <time>2017-08-14T09:18:57Z</time>
      </trkpt>
      <trkpt lat="45.95255" lon="4.74962">
        <ele>192</ele>
        <time>2017-08-14T09:18:58Z</time>
      </trkpt>
      <trkpt lat="45.95252" lon="4.74956">
        <ele>192</ele>
        <time>2017-08-14T09:18:59Z</time>
      </trkpt>
      <trkpt lat="45.95249" lon="4.74951">
        <ele>192</ele>
        <time>2017-08-14T09:19:00Z</time>
      </trkpt>
      <trkpt lat="45.95245" lon="4.74946">
        <ele>192</ele>
        <time>2017-08-14T09:19:01Z</time>
      </trkpt>
      <trkpt lat="45.95242" lon="4.74941">
        <ele>192</ele>
        <time>2017-08-14T09:19:02Z</time>
      </trkpt>
      <trkpt lat="45.95239" lon="4.74936">
        <ele>192</ele>
        <time>2017-08-14T09:19:03Z</time>
      </trkpt>
      <trkpt lat="45.95235" lon="4.7493">
        <ele>192</ele>
        <time>2017-08-14T09:19:04Z</time>
      </trkpt>
      <trkpt lat="45.95231" lon="4.74924">
        <ele>192</ele>
        <time>2017-08-14T09:19:05Z</time>
      </trkpt>
      <trkpt lat="45.95228" lon="4.74919">
        <ele>192</ele>
        <time>2017-08-14T09:19:06Z</time>
      </trkpt>
      <trkpt lat="45.95224" lon="4.74914">
        <ele>193</ele>
        <time>2017-08-14T09:19:07Z</time>
      </trkpt>
      <trkpt lat="45.9522" lon="4.74908">
        <ele>193</ele>
        <time>2017-08-14T09:19:08Z</time>
      </trkpt>
      <trkpt lat="45.95217" lon="4.74903">
        <ele>193</ele>
        <time>2017-08-14T09:19:09Z</time>
      </trkpt>
      <trkpt lat="45.95213" lon="4.74897">
        <ele>193</ele>
        <time>2017-08-14T09:19:10Z</time>
      </trkpt>
      <trkpt lat="45.9521" lon="4.74891">
        <ele>193</ele>
        <time>2017-08-14T09:19:11Z</time>
      </trkpt>
      <trkpt lat="45.95206" lon="4.74886">
        <ele>194</ele>
        <time>2017-08-14T09:19:12Z</time>
      </trkpt>
      <trkpt lat="45.95203" lon="4.74881">
        <ele>194</ele>
        <time>2017-08-14T09:19:13Z</time>
      </trkpt>
      <trkpt lat="45.95201" lon="4.74875">
        <ele>194</ele>
        <time>2017-08-14T09:19:14Z</time>
      </trkpt>
      <trkpt lat="45.95198" lon="4.7487">
        <ele>194</ele>
        <time>2017-08-14T09:19:15Z</time>
      </trkpt>
      <trkpt lat="45.95195" lon="4.74865">
        <ele>194</ele>
        <time>2017-08-14T09:19:16Z</time>
      </trkpt>
      <trkpt lat="45.95191" lon="4.74859">
        <ele>194</ele>
        <time>2017-08-14T09:19:17Z</time>
      </trkpt>
      <trkpt lat="45.95188" lon="4.74854">
        <ele>194</ele>
        <time>2017-08-14T09:19:18Z</time>
      </trkpt>
      <trkpt lat="45.95184" lon="4.74849">
        <ele>194</ele>
        <time>2017-08-14T09:19:19Z</time>
      </trkpt>
      <trkpt lat="45.9518" lon="4.74843">
        <ele>194</ele>
        <time>2017-08-14T09:19:20Z</time>
      </trkpt>
      <trkpt lat="45.95176" lon="4.74837">
        <ele>194</ele>
        <time>2017-08-14T09:19:21Z</time>
      </trkpt>
      <trkpt lat="45.95172" lon="4.74831">
        <ele>194</ele>
        <time>2017-08-14T09:19:22Z</time>
      </trkpt>
      <trkpt lat="45.95168" lon="4.74825">
        <ele>194</ele>
        <time>2017-08-14T09:19:23Z</time>
      </trkpt>
      <trkpt lat="45.95164" lon="4.7482">
        <ele>194</ele>
        <time>2017-08-14T09:19:24Z</time>
      </trkpt>
      <trkpt lat="45.9516" lon="4.74814">
        <ele>194</ele>
        <time>2017-08-14T09:19:25Z</time>
      </trkpt>
      <trkpt lat="45.95156" lon="4.74808">
        <ele>194</ele>
        <time>2017-08-14T09:19:26Z</time>
      </trkpt>
      <trkpt lat="45.95152" lon="4.74802">
        <ele>194</ele>
        <time>2017-08-14T09:19:27Z</time>
      </trkpt>
      <trkpt lat="45.95148" lon="4.74795">
        <ele>194</ele>
        <time>2017-08-14T09:19:28Z</time>
      </trkpt>
      <trkpt lat="45.95144" lon="4.74789">
        <ele>194</ele>
        <time>2017-08-14T09:19:29Z</time>
      </trkpt>
      <trkpt lat="45.95139" lon="4.74782">
        <ele>194</ele>
        <time>2017-08-14T09:19:30Z</time>
      </trkpt>
      <trkpt lat="45.95135" lon="4.74776">
        <ele>194</ele>
        <time>2017-08-14T09:19:31Z</time>
      </trkpt>
      <trkpt lat="45.95131" lon="4.7477">
        <ele>194</ele>
        <time>2017-08-14T09:19:32Z</time>
      </trkpt>
      <trkpt lat="45.95128" lon="4.74764">
        <ele>194</ele>
        <time>2017-08-14T09:19:33Z</time>
      </trkpt>
      <trkpt lat="45.95125" lon="4.74758">
        <ele>194</ele>
        <time>2017-08-14T09:19:34Z</time>
      </trkpt>
      <trkpt lat="45.95121" lon="4.74752">
        <ele>194</ele>
        <time>2017-08-14T09:19:35Z</time>
      </trkpt>
      <trkpt lat="45.95118" lon="4.74747">
        <ele>194</ele>
        <time>2017-08-14T09:19:36Z</time>
      </trkpt>
      <trkpt lat="45.95115" lon="4.74741">
        <ele>194</ele>
        <time>2017-08-14T09:19:37Z</time>
      </trkpt>
      <trkpt lat="45.95112" lon="4.74735">
        <ele>194</ele>
        <time>2017-08-14T09:19:38Z</time>
      </trkpt>
      <trkpt lat="45.95109" lon="4.74729">
        <ele>194</ele>
        <time>2017-08-14T09:19:39Z</time>
      </trkpt>
      <trkpt lat="45.95106" lon="4.74722">
        <ele>194</ele>
        <time>2017-08-14T09:19:40Z</time>
      </trkpt>
      <trkpt lat="45.95102" lon="4.74716">
        <ele>194</ele>
        <time>2017-08-14T09:19:41Z</time>
      </trkpt>
      <trkpt lat="45.95098" lon="4.7471">
        <ele>194</ele>
        <time>2017-08-14T09:19:42Z</time>
      </trkpt>
      <trkpt lat="45.95095" lon="4.74703">
        <ele>194</ele>
        <time>2017-08-14T09:19:43Z</time>
      </trkpt>
      <trkpt lat="45.9509" lon="4.74696">
        <ele>194</ele>
        <time>2017-08-14T09:19:44Z</time>
      </trkpt>
      <trkpt lat="45.95086" lon="4.7469">
        <ele>195</ele>
        <time>2017-08-14T09:19:45Z</time>
      </trkpt>
      <trkpt lat="45.95082" lon="4.74684">
        <ele>194</ele>
        <time>2017-08-14T09:19:46Z</time>
      </trkpt>
      <trkpt lat="45.95078" lon="4.74677">
        <ele>194</ele>
        <time>2017-08-14T09:19:47Z</time>
      </trkpt>
      <trkpt lat="45.95075" lon="4.74671">
        <ele>195</ele>
        <time>2017-08-14T09:19:48Z</time>
      </trkpt>
      <trkpt lat="45.95072" lon="4.74665">
        <ele>195</ele>
        <time>2017-08-14T09:19:49Z</time>
      </trkpt>
      <trkpt lat="45.95069" lon="4.74659">
        <ele>195</ele>
        <time>2017-08-14T09:19:50Z</time>
      </trkpt>
      <trkpt lat="45.95065" lon="4.74654">
        <ele>195</ele>
        <time>2017-08-14T09:19:51Z</time>
      </trkpt>
      <trkpt lat="45.95062" lon="4.74648">
        <ele>195</ele>
        <time>2017-08-14T09:19:52Z</time>
      </trkpt>
      <trkpt lat="45.95059" lon="4.74642">
        <ele>194</ele>
        <time>2017-08-14T09:19:53Z</time>
      </trkpt>
      <trkpt lat="45.95056" lon="4.74636">
        <ele>194</ele>
        <time>2017-08-14T09:19:54Z</time>
      </trkpt>
      <trkpt lat="45.95053" lon="4.7463">
        <ele>194</ele>
        <time>2017-08-14T09:19:55Z</time>
      </trkpt>
      <trkpt lat="45.95049" lon="4.74624">
        <ele>194</ele>
        <time>2017-08-14T09:19:56Z</time>
      </trkpt>
      <trkpt lat="45.95046" lon="4.74618">
        <ele>194</ele>
        <time>2017-08-14T09:19:57Z</time>
      </trkpt>
      <trkpt lat="45.95043" lon="4.74612">
        <ele>194</ele>
        <time>2017-08-14T09:19:58Z</time>
      </trkpt>
      <trkpt lat="45.95039" lon="4.74606">
        <ele>194</ele>
        <time>2017-08-14T09:19:59Z</time>
      </trkpt>
      <trkpt lat="45.95036" lon="4.74599">
        <ele>194</ele>
        <time>2017-08-14T09:20:00Z</time>
      </trkpt>
      <trkpt lat="45.95032" lon="4.74593">
        <ele>194</ele>
        <time>2017-08-14T09:20:01Z</time>
      </trkpt>
      <trkpt lat="45.95028" lon="4.74586">
        <ele>194</ele>
        <time>2017-08-14T09:20:02Z</time>
      </trkpt>
      <trkpt lat="45.95024" lon="4.74578">
        <ele>194</ele>
        <time>2017-08-14T09:20:03Z</time>
      </trkpt>
      <trkpt lat="45.95019" lon="4.74571">
        <ele>194</ele>
        <time>2017-08-14T09:20:04Z</time>
      </trkpt>
      <trkpt lat="45.95015" lon="4.74563">
        <ele>194</ele>
        <time>2017-08-14T09:20:05Z</time>
      </trkpt>
      <trkpt lat="45.95011" lon="4.74555">
        <ele>194</ele>
        <time>2017-08-14T09:20:06Z</time>
      </trkpt>
      <trkpt lat="45.95007" lon="4.74547">
        <ele>194</ele>
        <time>2017-08-14T09:20:07Z</time>
      </trkpt>
      <trkpt lat="45.95003" lon="4.74539">
        <ele>194</ele>
        <time>2017-08-14T09:20:08Z</time>
      </trkpt>
      <trkpt lat="45.94999" lon="4.74531">
        <ele>193</ele>
        <time>2017-08-14T09:20:09Z</time>
      </trkpt>
      <trkpt lat="45.94995" lon="4.74523">
        <ele>193</ele>
        <time>2017-08-14T09:20:10Z</time>
      </trkpt>
      <trkpt lat="45.94991" lon="4.74516">
        <ele>193</ele>
        <time>2017-08-14T09:20:11Z</time>
      </trkpt>
      <trkpt lat="45.94988" lon="4.7451">
        <ele>193</ele>
        <time>2017-08-14T09:20:12Z</time>
      </trkpt>
      <trkpt lat="45.94984" lon="4.74503">
        <ele>193</ele>
        <time>2017-08-14T09:20:13Z</time>
      </trkpt>
      <trkpt lat="45.94981" lon="4.74496">
        <ele>193</ele>
        <time>2017-08-14T09:20:14Z</time>
      </trkpt>
      <trkpt lat="45.94978" lon="4.7449">
        <ele>193</ele>
        <time>2017-08-14T09:20:15Z</time>
      </trkpt>
      <trkpt lat="45.94975" lon="4.74483">
        <ele>193</ele>
        <time>2017-08-14T09:20:16Z</time>
      </trkpt>
      <trkpt lat="45.94971" lon="4.74477">
        <ele>193</ele>
        <time>2017-08-14T09:20:17Z</time>
      </trkpt>
      <trkpt lat="45.94968" lon="4.7447">
        <ele>193</ele>
        <time>2017-08-14T09:20:18Z</time>
      </trkpt>
      <trkpt lat="45.94965" lon="4.74464">
        <ele>193</ele>
        <time>2017-08-14T09:20:19Z</time>
      </trkpt>
      <trkpt lat="45.94962" lon="4.74458">
        <ele>192</ele>
        <time>2017-08-14T09:20:20Z</time>
      </trkpt>
      <trkpt lat="45.94958" lon="4.74451">
        <ele>192</ele>
        <time>2017-08-14T09:20:21Z</time>
      </trkpt>
      <trkpt lat="45.94954" lon="4.74444">
        <ele>192</ele>
        <time>2017-08-14T09:20:22Z</time>
      </trkpt>
      <trkpt lat="45.94951" lon="4.74437">
        <ele>192</ele>
        <time>2017-08-14T09:20:23Z</time>
      </trkpt>
      <trkpt lat="45.94946" lon="4.74429">
        <ele>192</ele>
        <time>2017-08-14T09:20:24Z</time>
      </trkpt>
      <trkpt lat="45.94942" lon="4.74422">
        <ele>192</ele>
        <time>2017-08-14T09:20:25Z</time>
      </trkpt>
      <trkpt lat="45.94939" lon="4.74415">
        <ele>192</ele>
        <time>2017-08-14T09:20:26Z</time>
      </trkpt>
      <trkpt lat="45.94934" lon="4.74407">
        <ele>192</ele>
        <time>2017-08-14T09:20:27Z</time>
      </trkpt>
      <trkpt lat="45.9493" lon="4.744">
        <ele>192</ele>
        <time>2017-08-14T09:20:28Z</time>
      </trkpt>
      <trkpt lat="45.94926" lon="4.74392">
        <ele>192</ele>
        <time>2017-08-14T09:20:29Z</time>
      </trkpt>
      <trkpt lat="45.94923" lon="4.74384">
        <ele>192</ele>
        <time>2017-08-14T09:20:30Z</time>
      </trkpt>
      <trkpt lat="45.94919" lon="4.74377">
        <ele>192</ele>
        <time>2017-08-14T09:20:31Z</time>
      </trkpt>
      <trkpt lat="45.94915" lon="4.7437">
        <ele>191</ele>
        <time>2017-08-14T09:20:32Z</time>
      </trkpt>
      <trkpt lat="45.94911" lon="4.74362">
        <ele>191</ele>
        <time>2017-08-14T09:20:33Z</time>
      </trkpt>
      <trkpt lat="45.94907" lon="4.74355">
        <ele>191</ele>
        <time>2017-08-14T09:20:34Z</time>
      </trkpt>
      <trkpt lat="45.94904" lon="4.74349">
        <ele>191</ele>
        <time>2017-08-14T09:20:35Z</time>
      </trkpt>
      <trkpt lat="45.949" lon="4.74342">
        <ele>191</ele>
        <time>2017-08-14T09:20:36Z</time>
      </trkpt>
      <trkpt lat="45.94896" lon="4.74335">
        <ele>191</ele>
        <time>2017-08-14T09:20:37Z</time>
      </trkpt>
      <trkpt lat="45.94893" lon="4.74328">
        <ele>191</ele>
        <time>2017-08-14T09:20:38Z</time>
      </trkpt>
      <trkpt lat="45.94889" lon="4.74321">
        <ele>191</ele>
        <time>2017-08-14T09:20:39Z</time>
      </trkpt>
      <trkpt lat="45.94886" lon="4.74315">
        <ele>191</ele>
        <time>2017-08-14T09:20:40Z</time>
      </trkpt>
      <trkpt lat="45.94883" lon="4.74309">
        <ele>191</ele>
        <time>2017-08-14T09:20:41Z</time>
      </trkpt>
      <trkpt lat="45.94879" lon="4.74302">
        <ele>191</ele>
        <time>2017-08-14T09:20:42Z</time>
      </trkpt>
      <trkpt lat="45.94876" lon="4.74296">
        <ele>191</ele>
        <time>2017-08-14T09:20:43Z</time>
      </trkpt>
      <trkpt lat="45.94872" lon="4.74289">
        <ele>191</ele>
        <time>2017-08-14T09:20:44Z</time>
      </trkpt>
      <trkpt lat="45.94869" lon="4.74283">
        <ele>191</ele>
        <time>2017-08-14T09:20:45Z</time>
      </trkpt>
      <trkpt lat="45.94866" lon="4.74276">
        <ele>191</ele>
        <time>2017-08-14T09:20:46Z</time>
      </trkpt>
      <trkpt lat="45.94862" lon="4.74269">
        <ele>190</ele>
        <time>2017-08-14T09:20:47Z</time>
      </trkpt>
      <trkpt lat="45.94858" lon="4.74262">
        <ele>190</ele>
        <time>2017-08-14T09:20:48Z</time>
      </trkpt>
      <trkpt lat="45.94854" lon="4.74254">
        <ele>190</ele>
        <time>2017-08-14T09:20:49Z</time>
      </trkpt>
      <trkpt lat="45.9485" lon="4.74245">
        <ele>190</ele>
        <time>2017-08-14T09:20:50Z</time>
      </trkpt>
      <trkpt lat="45.94847" lon="4.74236">
        <ele>190</ele>
        <time>2017-08-14T09:20:51Z</time>
      </trkpt>
      <trkpt lat="45.94842" lon="4.74228">
        <ele>190</ele>
        <time>2017-08-14T09:20:52Z</time>
      </trkpt>
      <trkpt lat="45.94837" lon="4.74219">
        <ele>190</ele>
        <time>2017-08-14T09:20:53Z</time>
      </trkpt>
      <trkpt lat="45.94833" lon="4.74211">
        <ele>189</ele>
        <time>2017-08-14T09:20:54Z</time>
      </trkpt>
      <trkpt lat="45.94827" lon="4.74204">
        <ele>189</ele>
        <time>2017-08-14T09:20:55Z</time>
      </trkpt>
      <trkpt lat="45.94823" lon="4.74196">
        <ele>189</ele>
        <time>2017-08-14T09:20:56Z</time>
      </trkpt>
      <trkpt lat="45.94818" lon="4.74189">
        <ele>189</ele>
        <time>2017-08-14T09:20:57Z</time>
      </trkpt>
      <trkpt lat="45.94815" lon="4.74181">
        <ele>189</ele>
        <time>2017-08-14T09:20:58Z</time>
      </trkpt>
      <trkpt lat="45.9481" lon="4.74174">
        <ele>189</ele>
        <time>2017-08-14T09:20:59Z</time>
      </trkpt>
      <trkpt lat="45.94806" lon="4.74167">
        <ele>189</ele>
        <time>2017-08-14T09:21:00Z</time>
      </trkpt>
      <trkpt lat="45.94802" lon="4.7416">
        <ele>189</ele>
        <time>2017-08-14T09:21:01Z</time>
      </trkpt>
      <trkpt lat="45.94797" lon="4.74152">
        <ele>189</ele>
        <time>2017-08-14T09:21:02Z</time>
      </trkpt>
      <trkpt lat="45.94793" lon="4.74145">
        <ele>189</ele>
        <time>2017-08-14T09:21:03Z</time>
      </trkpt>
      <trkpt lat="45.94788" lon="4.74138">
        <ele>189</ele>
        <time>2017-08-14T09:21:04Z</time>
      </trkpt>
      <trkpt lat="45.94783" lon="4.7413">
        <ele>189</ele>
        <time>2017-08-14T09:21:05Z</time>
      </trkpt>
      <trkpt lat="45.94779" lon="4.74122">
        <ele>189</ele>
        <time>2017-08-14T09:21:06Z</time>
      </trkpt>
      <trkpt lat="45.94774" lon="4.74115">
        <ele>189</ele>
        <time>2017-08-14T09:21:07Z</time>
      </trkpt>
      <trkpt lat="45.9477" lon="4.74108">
        <ele>189</ele>
        <time>2017-08-14T09:21:08Z</time>
      </trkpt>
      <trkpt lat="45.94765" lon="4.74101">
        <ele>189</ele>
        <time>2017-08-14T09:21:09Z</time>
      </trkpt>
      <trkpt lat="45.9476" lon="4.74095">
        <ele>189</ele>
        <time>2017-08-14T09:21:10Z</time>
      </trkpt>
      <trkpt lat="45.94756" lon="4.74088">
        <ele>189</ele>
        <time>2017-08-14T09:21:11Z</time>
      </trkpt>
      <trkpt lat="45.94752" lon="4.74081">
        <ele>189</ele>
        <time>2017-08-14T09:21:12Z</time>
      </trkpt>
      <trkpt lat="45.94747" lon="4.74076">
        <ele>188</ele>
        <time>2017-08-14T09:21:13Z</time>
      </trkpt>
      <trkpt lat="45.94743" lon="4.74069">
        <ele>188</ele>
        <time>2017-08-14T09:21:14Z</time>
      </trkpt>
      <trkpt lat="45.94739" lon="4.74063">
        <ele>188</ele>
        <time>2017-08-14T09:21:15Z</time>
      </trkpt>
      <trkpt lat="45.94735" lon="4.74057">
        <ele>188</ele>
        <time>2017-08-14T09:21:16Z</time>
      </trkpt>
      <trkpt lat="45.9473" lon="4.74052">
        <ele>188</ele>
        <time>2017-08-14T09:21:17Z</time>
      </trkpt>
      <trkpt lat="45.94726" lon="4.74046">
        <ele>188</ele>
        <time>2017-08-14T09:21:18Z</time>
      </trkpt>
      <trkpt lat="45.94722" lon="4.74041">
        <ele>187</ele>
        <time>2017-08-14T09:21:19Z</time>
      </trkpt>
      <trkpt lat="45.94719" lon="4.74036">
        <ele>187</ele>
        <time>2017-08-14T09:21:20Z</time>
      </trkpt>
      <trkpt lat="45.94715" lon="4.74031">
        <ele>187</ele>
        <time>2017-08-14T09:21:21Z</time>
      </trkpt>
      <trkpt lat="45.94711" lon="4.74025">
        <ele>187</ele>
        <time>2017-08-14T09:21:22Z</time>
      </trkpt>
      <trkpt lat="45.94708" lon="4.7402">
        <ele>187</ele>
        <time>2017-08-14T09:21:23Z</time>
      </trkpt>
      <trkpt lat="45.94704" lon="4.74016">
        <ele>187</ele>
        <time>2017-08-14T09:21:24Z</time>
      </trkpt>
      <trkpt lat="45.947" lon="4.74011">
        <ele>187</ele>
        <time>2017-08-14T09:21:25Z</time>
      </trkpt>
      <trkpt lat="45.94696" lon="4.74006">
        <ele>187</ele>
        <time>2017-08-14T09:21:26Z</time>
      </trkpt>
      <trkpt lat="45.94693" lon="4.74">
        <ele>187</ele>
        <time>2017-08-14T09:21:27Z</time>
      </trkpt>
      <trkpt lat="45.94689" lon="4.73995">
        <ele>187</ele>
        <time>2017-08-14T09:21:28Z</time>
      </trkpt>
      <trkpt lat="45.94685" lon="4.7399">
        <ele>187</ele>
        <time>2017-08-14T09:21:29Z</time>
      </trkpt>
      <trkpt lat="45.94682" lon="4.73984">
        <ele>187</ele>
        <time>2017-08-14T09:21:30Z</time>
      </trkpt>
      <trkpt lat="45.94677" lon="4.73979">
        <ele>187</ele>
        <time>2017-08-14T09:21:31Z</time>
      </trkpt>
      <trkpt lat="45.94672" lon="4.73973">
        <ele>187</ele>
        <time>2017-08-14T09:21:32Z</time>
      </trkpt>
      <trkpt lat="45.94668" lon="4.73967">
        <ele>187</ele>
        <time>2017-08-14T09:21:33Z</time>
      </trkpt>
      <trkpt lat="45.94663" lon="4.73961">
        <ele>187</ele>
        <time>2017-08-14T09:21:34Z</time>
      </trkpt>
      <trkpt lat="45.94659" lon="4.73955">
        <ele>187</ele>
        <time>2017-08-14T09:21:35Z</time>
      </trkpt>
      <trkpt lat="45.94655" lon="4.73949">
        <ele>187</ele>
        <time>2017-08-14T09:21:36Z</time>
      </trkpt>
      <trkpt lat="45.9465" lon="4.73944">
        <ele>187</ele>
        <time>2017-08-14T09:21:37Z</time>
      </trkpt>
      <trkpt lat="45.94645" lon="4.73938">
        <ele>187</ele>
        <time>2017-08-14T09:21:38Z</time>
      </trkpt>
      <trkpt lat="45.94641" lon="4.73933">
        <ele>187</ele>
        <time>2017-08-14T09:21:39Z</time>
      </trkpt>
      <trkpt lat="45.94637" lon="4.73927">
        <ele>187</ele>
        <time>2017-08-14T09:21:40Z</time>
      </trkpt>
      <trkpt lat="45.94633" lon="4.73922">
        <ele>187</ele>
        <time>2017-08-14T09:21:41Z</time>
      </trkpt>
      <trkpt lat="45.94629" lon="4.73917">
        <ele>187</ele>
        <time>2017-08-14T09:21:42Z</time>
      </trkpt>
      <trkpt lat="45.94625" lon="4.73912">
        <ele>187</ele>
        <time>2017-08-14T09:21:43Z</time>
      </trkpt>
      <trkpt lat="45.94621" lon="4.73907">
        <ele>187</ele>
        <time>2017-08-14T09:21:44Z</time>
      </trkpt>
      <trkpt lat="45.94616" lon="4.73902">
        <ele>187</ele>
        <time>2017-08-14T09:21:45Z</time>
      </trkpt>
      <trkpt lat="45.94612" lon="4.73898">
        <ele>187</ele>
        <time>2017-08-14T09:21:46Z</time>
      </trkpt>
      <trkpt lat="45.94608" lon="4.73893">
        <ele>187</ele>
        <time>2017-08-14T09:21:47Z</time>
      </trkpt>
      <trkpt lat="45.94604" lon="4.73888">
        <ele>187</ele>
        <time>2017-08-14T09:21:48Z</time>
      </trkpt>
      <trkpt lat="45.946" lon="4.73883">
        <ele>187</ele>
        <time>2017-08-14T09:21:49Z</time>
      </trkpt>
      <trkpt lat="45.94596" lon="4.73878">
        <ele>187</ele>
        <time>2017-08-14T09:21:50Z</time>
      </trkpt>
      <trkpt lat="45.94591" lon="4.73873">
        <ele>187</ele>
        <time>2017-08-14T09:21:51Z</time>
      </trkpt>
      <trkpt lat="45.94586" lon="4.73867">
        <ele>187</ele>
        <time>2017-08-14T09:21:52Z</time>
      </trkpt>
      <trkpt lat="45.94581" lon="4.73861">
        <ele>186</ele>
        <time>2017-08-14T09:21:53Z</time>
      </trkpt>
      <trkpt lat="45.94577" lon="4.73856">
        <ele>186</ele>
        <time>2017-08-14T09:21:54Z</time>
      </trkpt>
      <trkpt lat="45.94573" lon="4.73849">
        <ele>186</ele>
        <time>2017-08-14T09:21:55Z</time>
      </trkpt>
      <trkpt lat="45.94567" lon="4.73844">
        <ele>186</ele>
        <time>2017-08-14T09:21:56Z</time>
      </trkpt>
      <trkpt lat="45.94563" lon="4.73839">
        <ele>186</ele>
        <time>2017-08-14T09:21:57Z</time>
      </trkpt>
      <trkpt lat="45.94558" lon="4.73834">
        <ele>186</ele>
        <time>2017-08-14T09:21:58Z</time>
      </trkpt>
      <trkpt lat="45.94553" lon="4.73829">
        <ele>186</ele>
        <time>2017-08-14T09:21:59Z</time>
      </trkpt>
      <trkpt lat="45.94549" lon="4.73825">
        <ele>186</ele>
        <time>2017-08-14T09:22:00Z</time>
      </trkpt>
      <trkpt lat="45.94544" lon="4.7382">
        <ele>186</ele>
        <time>2017-08-14T09:22:01Z</time>
      </trkpt>
      <trkpt lat="45.94539" lon="4.73816">
        <ele>186</ele>
        <time>2017-08-14T09:22:02Z</time>
      </trkpt>
      <trkpt lat="45.94534" lon="4.73811">
        <ele>186</ele>
        <time>2017-08-14T09:22:03Z</time>
      </trkpt>
      <trkpt lat="45.94529" lon="4.73807">
        <ele>186</ele>
        <time>2017-08-14T09:22:04Z</time>
      </trkpt>
      <trkpt lat="45.94525" lon="4.73802">
        <ele>186</ele>
        <time>2017-08-14T09:22:05Z</time>
      </trkpt>
      <trkpt lat="45.94521" lon="4.73798">
        <ele>186</ele>
        <time>2017-08-14T09:22:06Z</time>
      </trkpt>
      <trkpt lat="45.94517" lon="4.73794">
        <ele>186</ele>
        <time>2017-08-14T09:22:07Z</time>
      </trkpt>
      <trkpt lat="45.94513" lon="4.73789">
        <ele>186</ele>
        <time>2017-08-14T09:22:08Z</time>
      </trkpt>
      <trkpt lat="45.94509" lon="4.73784">
        <ele>186</ele>
        <time>2017-08-14T09:22:09Z</time>
      </trkpt>
      <trkpt lat="45.94505" lon="4.7378">
        <ele>186</ele>
        <time>2017-08-14T09:22:10Z</time>
      </trkpt>
      <trkpt lat="45.94501" lon="4.73775">
        <ele>186</ele>
        <time>2017-08-14T09:22:11Z</time>
      </trkpt>
      <trkpt lat="45.94497" lon="4.7377">
        <ele>186</ele>
        <time>2017-08-14T09:22:12Z</time>
      </trkpt>
      <trkpt lat="45.94494" lon="4.73765">
        <ele>186</ele>
        <time>2017-08-14T09:22:13Z</time>
      </trkpt>
      <trkpt lat="45.94491" lon="4.7376">
        <ele>186</ele>
        <time>2017-08-14T09:22:14Z</time>
      </trkpt>
      <trkpt lat="45.94487" lon="4.73748">
        <ele>186</ele>
        <time>2017-08-14T09:22:16Z</time>
      </trkpt>
      <trkpt lat="45.94488" lon="4.73741">
        <ele>186</ele>
        <time>2017-08-14T09:22:17Z</time>
      </trkpt>
      <trkpt lat="45.94489" lon="4.73733">
        <ele>186</ele>
        <time>2017-08-14T09:22:18Z</time>
      </trkpt>
      <trkpt lat="45.9449" lon="4.73725">
        <ele>186</ele>
        <time>2017-08-14T09:22:19Z</time>
      </trkpt>
      <trkpt lat="45.94491" lon="4.73717">
        <ele>186</ele>
        <time>2017-08-14T09:22:20Z</time>
      </trkpt>
      <trkpt lat="45.94492" lon="4.73709">
        <ele>186</ele>
        <time>2017-08-14T09:22:21Z</time>
      </trkpt>
      <trkpt lat="45.94494" lon="4.737">
        <ele>186</ele>
        <time>2017-08-14T09:22:22Z</time>
      </trkpt>
      <trkpt lat="45.94495" lon="4.7369">
        <ele>186</ele>
        <time>2017-08-14T09:22:23Z</time>
      </trkpt>
      <trkpt lat="45.94496" lon="4.73681">
        <ele>185</ele>
        <time>2017-08-14T09:22:24Z</time>
      </trkpt>
      <trkpt lat="45.94497" lon="4.73671">
        <ele>185</ele>
        <time>2017-08-14T09:22:25Z</time>
      </trkpt>
      <trkpt lat="45.945" lon="4.73662">
        <ele>185</ele>
        <time>2017-08-14T09:22:26Z</time>
      </trkpt>
      <trkpt lat="45.94501" lon="4.73654">
        <ele>184</ele>
        <time>2017-08-14T09:22:27Z</time>
      </trkpt>
      <trkpt lat="45.94503" lon="4.73644">
        <ele>184</ele>
        <time>2017-08-14T09:22:28Z</time>
      </trkpt>
      <trkpt lat="45.94504" lon="4.73635">
        <ele>184</ele>
        <time>2017-08-14T09:22:29Z</time>
      </trkpt>
      <trkpt lat="45.94505" lon="4.73626">
        <ele>184</ele>
        <time>2017-08-14T09:22:30Z</time>
      </trkpt>
      <trkpt lat="45.94505" lon="4.73617">
        <ele>184</ele>
        <time>2017-08-14T09:22:31Z</time>
      </trkpt>
      <trkpt lat="45.94505" lon="4.73607">
        <ele>184</ele>
        <time>2017-08-14T09:22:32Z</time>
      </trkpt>
      <trkpt lat="45.94506" lon="4.73598">
        <ele>184</ele>
        <time>2017-08-14T09:22:33Z</time>
      </trkpt>
      <trkpt lat="45.94506" lon="4.73589">
        <ele>185</ele>
        <time>2017-08-14T09:22:34Z</time>
      </trkpt>
      <trkpt lat="45.94507" lon="4.73579">
        <ele>184</ele>
        <time>2017-08-14T09:22:35Z</time>
      </trkpt>
      <trkpt lat="45.94507" lon="4.7357">
        <ele>184</ele>
        <time>2017-08-14T09:22:36Z</time>
      </trkpt>
      <trkpt lat="45.94507" lon="4.7356">
        <ele>184</ele>
        <time>2017-08-14T09:22:37Z</time>
      </trkpt>
      <trkpt lat="45.94507" lon="4.73551">
        <ele>183</ele>
        <time>2017-08-14T09:22:38Z</time>
      </trkpt>
      <trkpt lat="45.94507" lon="4.73541">
        <ele>183</ele>
        <time>2017-08-14T09:22:39Z</time>
      </trkpt>
      <trkpt lat="45.94508" lon="4.73531">
        <ele>183</ele>
        <time>2017-08-14T09:22:40Z</time>
      </trkpt>
      <trkpt lat="45.94507" lon="4.73521">
        <ele>183</ele>
        <time>2017-08-14T09:22:41Z</time>
      </trkpt>
      <trkpt lat="45.94507" lon="4.73511">
        <ele>183</ele>
        <time>2017-08-14T09:22:42Z</time>
      </trkpt>
      <trkpt lat="45.94507" lon="4.73501">
        <ele>183</ele>
        <time>2017-08-14T09:22:43Z</time>
      </trkpt>
      <trkpt lat="45.94506" lon="4.7349">
        <ele>182</ele>
        <time>2017-08-14T09:22:44Z</time>
      </trkpt>
      <trkpt lat="45.94506" lon="4.7348">
        <ele>182</ele>
        <time>2017-08-14T09:22:45Z</time>
      </trkpt>
      <trkpt lat="45.94506" lon="4.7347">
        <ele>182</ele>
        <time>2017-08-14T09:22:46Z</time>
      </trkpt>
      <trkpt lat="45.94506" lon="4.73461">
        <ele>181</ele>
        <time>2017-08-14T09:22:47Z</time>
      </trkpt>
      <trkpt lat="45.94506" lon="4.7345">
        <ele>181</ele>
        <time>2017-08-14T09:22:48Z</time>
      </trkpt>
      <trkpt lat="45.94506" lon="4.7344">
        <ele>181</ele>
        <time>2017-08-14T09:22:49Z</time>
      </trkpt>
      <trkpt lat="45.94506" lon="4.73429">
        <ele>180</ele>
        <time>2017-08-14T09:22:50Z</time>
      </trkpt>
      <trkpt lat="45.94506" lon="4.73419">
        <ele>180</ele>
        <time>2017-08-14T09:22:51Z</time>
      </trkpt>
      <trkpt lat="45.94506" lon="4.73408">
        <ele>179</ele>
        <time>2017-08-14T09:22:52Z</time>
      </trkpt>
      <trkpt lat="45.94506" lon="4.73397">
        <ele>179</ele>
        <time>2017-08-14T09:22:53Z</time>
      </trkpt>
      <trkpt lat="45.94504" lon="4.73386">
        <ele>179</ele>
        <time>2017-08-14T09:22:54Z</time>
      </trkpt>
      <trkpt lat="45.94504" lon="4.73374">
        <ele>178</ele>
        <time>2017-08-14T09:22:55Z</time>
      </trkpt>
      <trkpt lat="45.94503" lon="4.73363">
        <ele>178</ele>
        <time>2017-08-14T09:22:56Z</time>
      </trkpt>
      <trkpt lat="45.94503" lon="4.73351">
        <ele>178</ele>
        <time>2017-08-14T09:22:57Z</time>
      </trkpt>
      <trkpt lat="45.94502" lon="4.73339">
        <ele>177</ele>
        <time>2017-08-14T09:22:58Z</time>
      </trkpt>
      <trkpt lat="45.945" lon="4.73328">
        <ele>177</ele>
        <time>2017-08-14T09:22:59Z</time>
      </trkpt>
      <trkpt lat="45.94498" lon="4.73316">
        <ele>177</ele>
        <time>2017-08-14T09:23:00Z</time>
      </trkpt>
      <trkpt lat="45.94495" lon="4.73304">
        <ele>177</ele>
        <time>2017-08-14T09:23:01Z</time>
      </trkpt>
      <trkpt lat="45.94493" lon="4.73293">
        <ele>177</ele>
        <time>2017-08-14T09:23:02Z</time>
      </trkpt>
      <trkpt lat="45.94491" lon="4.73281">
        <ele>177</ele>
        <time>2017-08-14T09:23:03Z</time>
      </trkpt>
      <trkpt lat="45.94489" lon="4.73269">
        <ele>177</ele>
        <time>2017-08-14T09:23:04Z</time>
      </trkpt>
      <trkpt lat="45.94487" lon="4.73257">
        <ele>176</ele>
        <time>2017-08-14T09:23:05Z</time>
      </trkpt>
      <trkpt lat="45.94486" lon="4.73246">
        <ele>175</ele>
        <time>2017-08-14T09:23:06Z</time>
      </trkpt>
      <trkpt lat="45.94485" lon="4.73234">
        <ele>175</ele>
        <time>2017-08-14T09:23:07Z</time>
      </trkpt>
      <trkpt lat="45.94483" lon="4.73223">
        <ele>175</ele>
        <time>2017-08-14T09:23:08Z</time>
      </trkpt>
      <trkpt lat="45.94482" lon="4.73211">
        <ele>175</ele>
        <time>2017-08-14T09:23:09Z</time>
      </trkpt>
      <trkpt lat="45.94481" lon="4.73199">
        <ele>174</ele>
        <time>2017-08-14T09:23:10Z</time>
      </trkpt>
      <trkpt lat="45.9448" lon="4.73187">
        <ele>174</ele>
        <time>2017-08-14T09:23:11Z</time>
      </trkpt>
      <trkpt lat="45.94478" lon="4.73175">
        <ele>174</ele>
        <time>2017-08-14T09:23:12Z</time>
      </trkpt>
      <trkpt lat="45.94477" lon="4.73164">
        <ele>173</ele>
        <time>2017-08-14T09:23:13Z</time>
      </trkpt>
      <trkpt lat="45.94475" lon="4.73152">
        <ele>172</ele>
        <time>2017-08-14T09:23:14Z</time>
      </trkpt>
      <trkpt lat="45.94474" lon="4.73142">
        <ele>172</ele>
        <time>2017-08-14T09:23:15Z</time>
      </trkpt>
      <trkpt lat="45.94473" lon="4.73131">
        <ele>172</ele>
        <time>2017-08-14T09:23:16Z</time>
      </trkpt>
      <trkpt lat="45.94472" lon="4.73121">
        <ele>172</ele>
        <time>2017-08-14T09:23:17Z</time>
      </trkpt>
      <trkpt lat="45.94471" lon="4.73111">
        <ele>172</ele>
        <time>2017-08-14T09:23:18Z</time>
      </trkpt>
      <trkpt lat="45.9447" lon="4.73101">
        <ele>172</ele>
        <time>2017-08-14T09:23:19Z</time>
      </trkpt>
      <trkpt lat="45.94469" lon="4.73091">
        <ele>172</ele>
        <time>2017-08-14T09:23:20Z</time>
      </trkpt>
      <trkpt lat="45.94467" lon="4.73082">
        <ele>170</ele>
        <time>2017-08-14T09:23:21Z</time>
      </trkpt>
      <trkpt lat="45.94466" lon="4.73072">
        <ele>170</ele>
        <time>2017-08-14T09:23:22Z</time>
      </trkpt>
      <trkpt lat="45.94465" lon="4.73063">
        <ele>170</ele>
        <time>2017-08-14T09:23:23Z</time>
      </trkpt>
      <trkpt lat="45.94463" lon="4.73055">
        <ele>170</ele>
        <time>2017-08-14T09:23:24Z</time>
      </trkpt>
      <trkpt lat="45.94462" lon="4.73047">
        <ele>170</ele>
        <time>2017-08-14T09:23:25Z</time>
      </trkpt>
      <trkpt lat="45.9446" lon="4.73038">
        <ele>170</ele>
        <time>2017-08-14T09:23:26Z</time>
      </trkpt>
      <trkpt lat="45.94459" lon="4.7303">
        <ele>169</ele>
        <time>2017-08-14T09:23:27Z</time>
      </trkpt>
      <trkpt lat="45.94458" lon="4.73022">
        <ele>169</ele>
        <time>2017-08-14T09:23:28Z</time>
      </trkpt>
      <trkpt lat="45.94457" lon="4.73013">
        <ele>169</ele>
        <time>2017-08-14T09:23:29Z</time>
      </trkpt>
      <trkpt lat="45.94455" lon="4.73004">
        <ele>169</ele>
        <time>2017-08-14T09:23:30Z</time>
      </trkpt>
      <trkpt lat="45.94454" lon="4.72995">
        <ele>168</ele>
        <time>2017-08-14T09:23:31Z</time>
      </trkpt>
      <trkpt lat="45.94453" lon="4.72987">
        <ele>167</ele>
        <time>2017-08-14T09:23:32Z</time>
      </trkpt>
      <trkpt lat="45.94452" lon="4.72978">
        <ele>167</ele>
        <time>2017-08-14T09:23:33Z</time>
      </trkpt>
      <trkpt lat="45.94451" lon="4.72969">
        <ele>167</ele>
        <time>2017-08-14T09:23:34Z</time>
      </trkpt>
      <trkpt lat="45.9445" lon="4.72961">
        <ele>167</ele>
        <time>2017-08-14T09:23:35Z</time>
      </trkpt>
      <trkpt lat="45.94448" lon="4.72952">
        <ele>167</ele>
        <time>2017-08-14T09:23:36Z</time>
      </trkpt>
      <trkpt lat="45.94447" lon="4.72943">
        <ele>167</ele>
        <time>2017-08-14T09:23:37Z</time>
      </trkpt>
      <trkpt lat="45.94446" lon="4.72935">
        <ele>167</ele>
        <time>2017-08-14T09:23:38Z</time>
      </trkpt>
      <trkpt lat="45.94444" lon="4.72927">
        <ele>167</ele>
        <time>2017-08-14T09:23:39Z</time>
      </trkpt>
      <trkpt lat="45.94443" lon="4.72919">
        <ele>167</ele>
        <time>2017-08-14T09:23:40Z</time>
      </trkpt>
      <trkpt lat="45.94443" lon="4.72912">
        <ele>166</ele>
        <time>2017-08-14T09:23:41Z</time>
      </trkpt>
      <trkpt lat="45.94442" lon="4.72905">
        <ele>166</ele>
        <time>2017-08-14T09:23:42Z</time>
      </trkpt>
      <trkpt lat="45.94442" lon="4.72898">
        <ele>166</ele>
        <time>2017-08-14T09:23:43Z</time>
      </trkpt>
      <trkpt lat="45.94441" lon="4.72891">
        <ele>166</ele>
        <time>2017-08-14T09:23:44Z</time>
      </trkpt>
      <trkpt lat="45.9444" lon="4.72883">
        <ele>166</ele>
        <time>2017-08-14T09:23:45Z</time>
      </trkpt>
      <trkpt lat="45.94439" lon="4.72876">
        <ele>166</ele>
        <time>2017-08-14T09:23:46Z</time>
      </trkpt>
      <trkpt lat="45.94439" lon="4.72869">
        <ele>166</ele>
        <time>2017-08-14T09:23:47Z</time>
      </trkpt>
      <trkpt lat="45.94438" lon="4.72861">
        <ele>166</ele>
        <time>2017-08-14T09:23:48Z</time>
      </trkpt>
      <trkpt lat="45.94437" lon="4.72853">
        <ele>166</ele>
        <time>2017-08-14T09:23:49Z</time>
      </trkpt>
      <trkpt lat="45.94436" lon="4.72845">
        <ele>166</ele>
        <time>2017-08-14T09:23:50Z</time>
      </trkpt>
      <trkpt lat="45.94435" lon="4.72837">
        <ele>166</ele>
        <time>2017-08-14T09:23:51Z</time>
      </trkpt>
      <trkpt lat="45.94434" lon="4.72828">
        <ele>167</ele>
        <time>2017-08-14T09:23:52Z</time>
      </trkpt>
      <trkpt lat="45.94433" lon="4.7282">
        <ele>167</ele>
        <time>2017-08-14T09:23:53Z</time>
      </trkpt>
      <trkpt lat="45.94431" lon="4.7281">
        <ele>167</ele>
        <time>2017-08-14T09:23:54Z</time>
      </trkpt>
      <trkpt lat="45.9443" lon="4.72801">
        <ele>167</ele>
        <time>2017-08-14T09:23:55Z</time>
      </trkpt>
      <trkpt lat="45.94428" lon="4.72792">
        <ele>168</ele>
        <time>2017-08-14T09:23:56Z</time>
      </trkpt>
      <trkpt lat="45.94427" lon="4.72782">
        <ele>168</ele>
        <time>2017-08-14T09:23:57Z</time>
      </trkpt>
      <trkpt lat="45.94426" lon="4.72772">
        <ele>169</ele>
        <time>2017-08-14T09:23:58Z</time>
      </trkpt>
      <trkpt lat="45.94423" lon="4.72762">
        <ele>169</ele>
        <time>2017-08-14T09:23:59Z</time>
      </trkpt>
      <trkpt lat="45.94422" lon="4.72753">
        <ele>170</ele>
        <time>2017-08-14T09:24:00Z</time>
      </trkpt>
      <trkpt lat="45.9442" lon="4.72743">
        <ele>171</ele>
        <time>2017-08-14T09:24:01Z</time>
      </trkpt>
      <trkpt lat="45.94419" lon="4.72734">
        <ele>171</ele>
        <time>2017-08-14T09:24:02Z</time>
      </trkpt>
      <trkpt lat="45.94418" lon="4.72724">
        <ele>171</ele>
        <time>2017-08-14T09:24:03Z</time>
      </trkpt>
      <trkpt lat="45.94416" lon="4.72715">
        <ele>172</ele>
        <time>2017-08-14T09:24:04Z</time>
      </trkpt>
      <trkpt lat="45.94416" lon="4.72706">
        <ele>172</ele>
        <time>2017-08-14T09:24:05Z</time>
      </trkpt>
      <trkpt lat="45.94415" lon="4.72697">
        <ele>173</ele>
        <time>2017-08-14T09:24:06Z</time>
      </trkpt>
      <trkpt lat="45.94414" lon="4.72687">
        <ele>173</ele>
        <time>2017-08-14T09:24:07Z</time>
      </trkpt>
      <trkpt lat="45.94414" lon="4.72678">
        <ele>173</ele>
        <time>2017-08-14T09:24:08Z</time>
      </trkpt>
      <trkpt lat="45.94414" lon="4.72668">
        <ele>174</ele>
        <time>2017-08-14T09:24:09Z</time>
      </trkpt>
      <trkpt lat="45.94413" lon="4.72658">
        <ele>174</ele>
        <time>2017-08-14T09:24:10Z</time>
      </trkpt>
      <trkpt lat="45.94413" lon="4.72648">
        <ele>174</ele>
        <time>2017-08-14T09:24:11Z</time>
      </trkpt>
      <trkpt lat="45.94412" lon="4.72639">
        <ele>174</ele>
        <time>2017-08-14T09:24:12Z</time>
      </trkpt>
      <trkpt lat="45.94411" lon="4.72629">
        <ele>174</ele>
        <time>2017-08-14T09:24:13Z</time>
      </trkpt>
      <trkpt lat="45.9441" lon="4.7262">
        <ele>173</ele>
        <time>2017-08-14T09:24:14Z</time>
      </trkpt>
      <trkpt lat="45.94409" lon="4.72611">
        <ele>173</ele>
        <time>2017-08-14T09:24:15Z</time>
      </trkpt>
      <trkpt lat="45.94408" lon="4.72602">
        <ele>173</ele>
        <time>2017-08-14T09:24:16Z</time>
      </trkpt>
      <trkpt lat="45.94407" lon="4.72593">
        <ele>173</ele>
        <time>2017-08-14T09:24:17Z</time>
      </trkpt>
      <trkpt lat="45.94406" lon="4.72585">
        <ele>173</ele>
        <time>2017-08-14T09:24:18Z</time>
      </trkpt>
      <trkpt lat="45.94405" lon="4.72576">
        <ele>173</ele>
        <time>2017-08-14T09:24:19Z</time>
      </trkpt>
      <trkpt lat="45.94403" lon="4.72568">
        <ele>173</ele>
        <time>2017-08-14T09:24:20Z</time>
      </trkpt>
      <trkpt lat="45.94402" lon="4.7256">
        <ele>173</ele>
        <time>2017-08-14T09:24:21Z</time>
      </trkpt>
      <trkpt lat="45.944" lon="4.72553">
        <ele>173</ele>
        <time>2017-08-14T09:24:22Z</time>
      </trkpt>
      <trkpt lat="45.94399" lon="4.72545">
        <ele>173</ele>
        <time>2017-08-14T09:24:23Z</time>
      </trkpt>
      <trkpt lat="45.94397" lon="4.72538">
        <ele>174</ele>
        <time>2017-08-14T09:24:24Z</time>
      </trkpt>
      <trkpt lat="45.94396" lon="4.7253">
        <ele>174</ele>
        <time>2017-08-14T09:24:25Z</time>
      </trkpt>
      <trkpt lat="45.94394" lon="4.72523">
        <ele>174</ele>
        <time>2017-08-14T09:24:26Z</time>
      </trkpt>
      <trkpt lat="45.94392" lon="4.72516">
        <ele>174</ele>
        <time>2017-08-14T09:24:27Z</time>
      </trkpt>
      <trkpt lat="45.94389" lon="4.72509">
        <ele>174</ele>
        <time>2017-08-14T09:24:28Z</time>
      </trkpt>
      <trkpt lat="45.94387" lon="4.72502">
        <ele>174</ele>
        <time>2017-08-14T09:24:29Z</time>
      </trkpt>
      <trkpt lat="45.94382" lon="4.72494">
        <ele>173</ele>
        <time>2017-08-14T09:24:30Z</time>
      </trkpt>
      <trkpt lat="45.9438" lon="4.72487">
        <ele>173</ele>
        <time>2017-08-14T09:24:31Z</time>
      </trkpt>
      <trkpt lat="45.94377" lon="4.7248">
        <ele>173</ele>
        <time>2017-08-14T09:24:32Z</time>
      </trkpt>
      <trkpt lat="45.94373" lon="4.72473">
        <ele>173</ele>
        <time>2017-08-14T09:24:33Z</time>
      </trkpt>
      <trkpt lat="45.94369" lon="4.72465">
        <ele>173</ele>
        <time>2017-08-14T09:24:34Z</time>
      </trkpt>
      <trkpt lat="45.94366" lon="4.72457">
        <ele>173</ele>
        <time>2017-08-14T09:24:35Z</time>
      </trkpt>
      <trkpt lat="45.94362" lon="4.7245">
        <ele>173</ele>
        <time>2017-08-14T09:24:36Z</time>
      </trkpt>
      <trkpt lat="45.94357" lon="4.72442">
        <ele>173</ele>
        <time>2017-08-14T09:24:37Z</time>
      </trkpt>
      <trkpt lat="45.94353" lon="4.72435">
        <ele>173</ele>
        <time>2017-08-14T09:24:38Z</time>
      </trkpt>
      <trkpt lat="45.9435" lon="4.72427">
        <ele>173</ele>
        <time>2017-08-14T09:24:39Z</time>
      </trkpt>
      <trkpt lat="45.94347" lon="4.72419">
        <ele>173</ele>
        <time>2017-08-14T09:24:40Z</time>
      </trkpt>
      <trkpt lat="45.94344" lon="4.72411">
        <ele>173</ele>
        <time>2017-08-14T09:24:41Z</time>
      </trkpt>
      <trkpt lat="45.94341" lon="4.72404">
        <ele>173</ele>
        <time>2017-08-14T09:24:42Z</time>
      </trkpt>
      <trkpt lat="45.94339" lon="4.72398">
        <ele>172</ele>
        <time>2017-08-14T09:24:43Z</time>
      </trkpt>
      <trkpt lat="45.94336" lon="4.72391">
        <ele>172</ele>
        <time>2017-08-14T09:24:44Z</time>
      </trkpt>
      <trkpt lat="45.94333" lon="4.72385">
        <ele>172</ele>
        <time>2017-08-14T09:24:45Z</time>
      </trkpt>
      <trkpt lat="45.9433" lon="4.72378">
        <ele>172</ele>
        <time>2017-08-14T09:24:46Z</time>
      </trkpt>
      <trkpt lat="45.94327" lon="4.72371">
        <ele>172</ele>
        <time>2017-08-14T09:24:47Z</time>
      </trkpt>
      <trkpt lat="45.94323" lon="4.72364">
        <ele>172</ele>
        <time>2017-08-14T09:24:48Z</time>
      </trkpt>
      <trkpt lat="45.9432" lon="4.72357">
        <ele>172</ele>
        <time>2017-08-14T09:24:49Z</time>
      </trkpt>
      <trkpt lat="45.94318" lon="4.7235">
        <ele>172</ele>
        <time>2017-08-14T09:24:50Z</time>
      </trkpt>
      <trkpt lat="45.94315" lon="4.72344">
        <ele>172</ele>
        <time>2017-08-14T09:24:51Z</time>
      </trkpt>
      <trkpt lat="45.94312" lon="4.72337">
        <ele>172</ele>
        <time>2017-08-14T09:24:52Z</time>
      </trkpt>
      <trkpt lat="45.9431" lon="4.72331">
        <ele>172</ele>
        <time>2017-08-14T09:24:53Z</time>
      </trkpt>
      <trkpt lat="45.94307" lon="4.72324">
        <ele>171</ele>
        <time>2017-08-14T09:24:54Z</time>
      </trkpt>
      <trkpt lat="45.94304" lon="4.72317">
        <ele>171</ele>
        <time>2017-08-14T09:24:55Z</time>
      </trkpt>
      <trkpt lat="45.94301" lon="4.7231">
        <ele>171</ele>
        <time>2017-08-14T09:24:56Z</time>
      </trkpt>
      <trkpt lat="45.94298" lon="4.72302">
        <ele>171</ele>
        <time>2017-08-14T09:24:57Z</time>
      </trkpt>
      <trkpt lat="45.94295" lon="4.72295">
        <ele>171</ele>
        <time>2017-08-14T09:24:58Z</time>
      </trkpt>
      <trkpt lat="45.94292" lon="4.72289">
        <ele>171</ele>
        <time>2017-08-14T09:24:59Z</time>
      </trkpt>
      <trkpt lat="45.94288" lon="4.72282">
        <ele>171</ele>
        <time>2017-08-14T09:25:00Z</time>
      </trkpt>
      <trkpt lat="45.9428" lon="4.72275">
        <ele>171</ele>
        <time>2017-08-14T09:25:01Z</time>
      </trkpt>
      <trkpt lat="45.94273" lon="4.72273">
        <ele>171</ele>
        <time>2017-08-14T09:25:02Z</time>
      </trkpt>
      <trkpt lat="45.94267" lon="4.72272">
        <ele>171</ele>
        <time>2017-08-14T09:25:03Z</time>
      </trkpt>
      <trkpt lat="45.94261" lon="4.72273">
        <ele>171</ele>
        <time>2017-08-14T09:25:04Z</time>
      </trkpt>
      <trkpt lat="45.94255" lon="4.72273">
        <ele>171</ele>
        <time>2017-08-14T09:25:05Z</time>
      </trkpt>
      <trkpt lat="45.94249" lon="4.72274">
        <ele>171</ele>
        <time>2017-08-14T09:25:06Z</time>
      </trkpt>
      <trkpt lat="45.94244" lon="4.72276">
        <ele>171</ele>
        <time>2017-08-14T09:25:07Z</time>
      </trkpt>
      <trkpt lat="45.94238" lon="4.72278">
        <ele>171</ele>
        <time>2017-08-14T09:25:08Z</time>
      </trkpt>
      <trkpt lat="45.94232" lon="4.72279">
        <ele>171</ele>
        <time>2017-08-14T09:25:09Z</time>
      </trkpt>
      <trkpt lat="45.94225" lon="4.7228">
        <ele>171</ele>
        <time>2017-08-14T09:25:10Z</time>
      </trkpt>
      <trkpt lat="45.94219" lon="4.72282">
        <ele>171</ele>
        <time>2017-08-14T09:25:11Z</time>
      </trkpt>
      <trkpt lat="45.94212" lon="4.72282">
        <ele>171</ele>
        <time>2017-08-14T09:25:12Z</time>
      </trkpt>
      <trkpt lat="45.94205" lon="4.72283">
        <ele>171</ele>
        <time>2017-08-14T09:25:13Z</time>
      </trkpt>
      <trkpt lat="45.94198" lon="4.72284">
        <ele>171</ele>
        <time>2017-08-14T09:25:14Z</time>
      </trkpt>
      <trkpt lat="45.94192" lon="4.72284">
        <ele>171</ele>
        <time>2017-08-14T09:25:15Z</time>
      </trkpt>
      <trkpt lat="45.94186" lon="4.72284">
        <ele>171</ele>
        <time>2017-08-14T09:25:16Z</time>
      </trkpt>
      <trkpt lat="45.94179" lon="4.72284">
        <ele>171</ele>
        <time>2017-08-14T09:25:17Z</time>
      </trkpt>
      <trkpt lat="45.94173" lon="4.72284">
        <ele>171</ele>
        <time>2017-08-14T09:25:18Z</time>
      </trkpt>
      <trkpt lat="45.94168" lon="4.72283">
        <ele>171</ele>
        <time>2017-08-14T09:25:19Z</time>
      </trkpt>
      <trkpt lat="45.94162" lon="4.72282">
        <ele>171</ele>
        <time>2017-08-14T09:25:20Z</time>
      </trkpt>
      <trkpt lat="45.94157" lon="4.7228">
        <ele>171</ele>
        <time>2017-08-14T09:25:21Z</time>
      </trkpt>
      <trkpt lat="45.94151" lon="4.72279">
        <ele>171</ele>
        <time>2017-08-14T09:25:22Z</time>
      </trkpt>
      <trkpt lat="45.94146" lon="4.72277">
        <ele>171</ele>
        <time>2017-08-14T09:25:23Z</time>
      </trkpt>
      <trkpt lat="45.94141" lon="4.72276">
        <ele>171</ele>
        <time>2017-08-14T09:25:24Z</time>
      </trkpt>
      <trkpt lat="45.94136" lon="4.72274">
        <ele>171</ele>
        <time>2017-08-14T09:25:25Z</time>
      </trkpt>
      <trkpt lat="45.94132" lon="4.72272">
        <ele>171</ele>
        <time>2017-08-14T09:25:26Z</time>
      </trkpt>
      <trkpt lat="45.94127" lon="4.72269">
        <ele>171</ele>
        <time>2017-08-14T09:25:27Z</time>
      </trkpt>
      <trkpt lat="45.94122" lon="4.72266">
        <ele>171</ele>
        <time>2017-08-14T09:25:28Z</time>
      </trkpt>
      <trkpt lat="45.94117" lon="4.72264">
        <ele>171</ele>
        <time>2017-08-14T09:25:29Z</time>
      </trkpt>
      <trkpt lat="45.94112" lon="4.72262">
        <ele>171</ele>
        <time>2017-08-14T09:25:30Z</time>
      </trkpt>
      <trkpt lat="45.94106" lon="4.72261">
        <ele>171</ele>
        <time>2017-08-14T09:25:31Z</time>
      </trkpt>
      <trkpt lat="45.94098" lon="4.7226">
        <ele>171</ele>
        <time>2017-08-14T09:25:32Z</time>
      </trkpt>
      <trkpt lat="45.94092" lon="4.7226">
        <ele>171</ele>
        <time>2017-08-14T09:25:33Z</time>
      </trkpt>
      <trkpt lat="45.94085" lon="4.72261">
        <ele>171</ele>
        <time>2017-08-14T09:25:34Z</time>
      </trkpt>
      <trkpt lat="45.94078" lon="4.72264">
        <ele>171</ele>
        <time>2017-08-14T09:25:35Z</time>
      </trkpt>
      <trkpt lat="45.94071" lon="4.72267">
        <ele>171</ele>
        <time>2017-08-14T09:25:36Z</time>
      </trkpt>
      <trkpt lat="45.94064" lon="4.72272">
        <ele>171</ele>
        <time>2017-08-14T09:25:37Z</time>
      </trkpt>
      <trkpt lat="45.94059" lon="4.72278">
        <ele>171</ele>
        <time>2017-08-14T09:25:38Z</time>
      </trkpt>
      <trkpt lat="45.94054" lon="4.72283">
        <ele>171</ele>
        <time>2017-08-14T09:25:39Z</time>
      </trkpt>
      <trkpt lat="45.94049" lon="4.72289">
        <ele>171</ele>
        <time>2017-08-14T09:25:40Z</time>
      </trkpt>
      <trkpt lat="45.94044" lon="4.72294">
        <ele>171</ele>
        <time>2017-08-14T09:25:41Z</time>
      </trkpt>
      <trkpt lat="45.94039" lon="4.72299">
        <ele>171</ele>
        <time>2017-08-14T09:25:42Z</time>
      </trkpt>
      <trkpt lat="45.94034" lon="4.72304">
        <ele>171</ele>
        <time>2017-08-14T09:25:43Z</time>
      </trkpt>
      <trkpt lat="45.94029" lon="4.72311">
        <ele>171</ele>
        <time>2017-08-14T09:25:44Z</time>
      </trkpt>
      <trkpt lat="45.94025" lon="4.72316">
        <ele>171</ele>
        <time>2017-08-14T09:25:45Z</time>
      </trkpt>
      <trkpt lat="45.9402" lon="4.72322">
        <ele>171</ele>
        <time>2017-08-14T09:25:46Z</time>
      </trkpt>
      <trkpt lat="45.94015" lon="4.72328">
        <ele>171</ele>
        <time>2017-08-14T09:25:47Z</time>
      </trkpt>
      <trkpt lat="45.94011" lon="4.72333">
        <ele>170</ele>
        <time>2017-08-14T09:25:48Z</time>
      </trkpt>
      <trkpt lat="45.94007" lon="4.7234">
        <ele>170</ele>
        <time>2017-08-14T09:25:49Z</time>
      </trkpt>
      <trkpt lat="45.94003" lon="4.72344">
        <ele>170</ele>
        <time>2017-08-14T09:25:50Z</time>
      </trkpt>
      <trkpt lat="45.93999" lon="4.72349">
        <ele>171</ele>
        <time>2017-08-14T09:25:51Z</time>
      </trkpt>
      <trkpt lat="45.93996" lon="4.72354">
        <ele>171</ele>
        <time>2017-08-14T09:25:52Z</time>
      </trkpt>
      <trkpt lat="45.93992" lon="4.72359">
        <ele>171</ele>
        <time>2017-08-14T09:25:53Z</time>
      </trkpt>
      <trkpt lat="45.93988" lon="4.72364">
        <ele>171</ele>
        <time>2017-08-14T09:25:54Z</time>
      </trkpt>
      <trkpt lat="45.93985" lon="4.72368">
        <ele>171</ele>
        <time>2017-08-14T09:25:55Z</time>
      </trkpt>
      <trkpt lat="45.93981" lon="4.72373">
        <ele>171</ele>
        <time>2017-08-14T09:25:56Z</time>
      </trkpt>
      <trkpt lat="45.93977" lon="4.72378">
        <ele>171</ele>
        <time>2017-08-14T09:25:57Z</time>
      </trkpt>
      <trkpt lat="45.93972" lon="4.72382">
        <ele>171</ele>
        <time>2017-08-14T09:25:58Z</time>
      </trkpt>
      <trkpt lat="45.93968" lon="4.72387">
        <ele>171</ele>
        <time>2017-08-14T09:25:59Z</time>
      </trkpt>
      <trkpt lat="45.93963" lon="4.72392">
        <ele>171</ele>
        <time>2017-08-14T09:26:00Z</time>
      </trkpt>
      <trkpt lat="45.93959" lon="4.72397">
        <ele>171</ele>
        <time>2017-08-14T09:26:01Z</time>
      </trkpt>
      <trkpt lat="45.93954" lon="4.72403">
        <ele>171</ele>
        <time>2017-08-14T09:26:02Z</time>
      </trkpt>
      <trkpt lat="45.9395" lon="4.72409">
        <ele>171</ele>
        <time>2017-08-14T09:26:03Z</time>
      </trkpt>
      <trkpt lat="45.93946" lon="4.72415">
        <ele>171</ele>
        <time>2017-08-14T09:26:04Z</time>
      </trkpt>
      <trkpt lat="45.93941" lon="4.72422">
        <ele>172</ele>
        <time>2017-08-14T09:26:05Z</time>
      </trkpt>
      <trkpt lat="45.93937" lon="4.72429">
        <ele>172</ele>
        <time>2017-08-14T09:26:06Z</time>
      </trkpt>
      <trkpt lat="45.93933" lon="4.72436">
        <ele>172</ele>
        <time>2017-08-14T09:26:07Z</time>
      </trkpt>
      <trkpt lat="45.93927" lon="4.72442">
        <ele>171</ele>
        <time>2017-08-14T09:26:08Z</time>
      </trkpt>
      <trkpt lat="45.93922" lon="4.72448">
        <ele>171</ele>
        <time>2017-08-14T09:26:09Z</time>
      </trkpt>
      <trkpt lat="45.93917" lon="4.72455">
        <ele>171</ele>
        <time>2017-08-14T09:26:10Z</time>
      </trkpt>
      <trkpt lat="45.93912" lon="4.72461">
        <ele>172</ele>
        <time>2017-08-14T09:26:11Z</time>
      </trkpt>
      <trkpt lat="45.93908" lon="4.72467">
        <ele>172</ele>
        <time>2017-08-14T09:26:12Z</time>
      </trkpt>
      <trkpt lat="45.93905" lon="4.72473">
        <ele>172</ele>
        <time>2017-08-14T09:26:13Z</time>
      </trkpt>
      <trkpt lat="45.93902" lon="4.72478">
        <ele>172</ele>
        <time>2017-08-14T09:26:14Z</time>
      </trkpt>
      <trkpt lat="45.93899" lon="4.72483">
        <ele>172</ele>
        <time>2017-08-14T09:26:15Z</time>
      </trkpt>
      <trkpt lat="45.93895" lon="4.72488">
        <ele>172</ele>
        <time>2017-08-14T09:26:16Z</time>
      </trkpt>
      <trkpt lat="45.93892" lon="4.72493">
        <ele>172</ele>
        <time>2017-08-14T09:26:17Z</time>
      </trkpt>
      <trkpt lat="45.93888" lon="4.72497">
        <ele>172</ele>
        <time>2017-08-14T09:26:18Z</time>
      </trkpt>
      <trkpt lat="45.93884" lon="4.72501">
        <ele>173</ele>
        <time>2017-08-14T09:26:19Z</time>
      </trkpt>
      <trkpt lat="45.9388" lon="4.72505">
        <ele>173</ele>
        <time>2017-08-14T09:26:20Z</time>
      </trkpt>
      <trkpt lat="45.93877" lon="4.72509">
        <ele>173</ele>
        <time>2017-08-14T09:26:21Z</time>
      </trkpt>
      <trkpt lat="45.93872" lon="4.72511">
        <ele>173</ele>
        <time>2017-08-14T09:26:22Z</time>
      </trkpt>
      <trkpt lat="45.93867" lon="4.72512">
        <ele>173</ele>
        <time>2017-08-14T09:26:23Z</time>
      </trkpt>
      <trkpt lat="45.93859" lon="4.72511">
        <ele>173</ele>
        <time>2017-08-14T09:26:25Z</time>
      </trkpt>
      <trkpt lat="45.93855" lon="4.72509">
        <ele>173</ele>
        <time>2017-08-14T09:26:26Z</time>
      </trkpt>
      <trkpt lat="45.93848" lon="4.72503">
        <ele>174</ele>
        <time>2017-08-14T09:26:28Z</time>
      </trkpt>
      <trkpt lat="45.93844" lon="4.725">
        <ele>173</ele>
        <time>2017-08-14T09:26:29Z</time>
      </trkpt>
      <trkpt lat="45.93837" lon="4.72492">
        <ele>173</ele>
        <time>2017-08-14T09:26:31Z</time>
      </trkpt>
      <trkpt lat="45.93832" lon="4.72486">
        <ele>173</ele>
        <time>2017-08-14T09:26:32Z</time>
      </trkpt>
      <trkpt lat="45.93828" lon="4.7248">
        <ele>173</ele>
        <time>2017-08-14T09:26:33Z</time>
      </trkpt>
      <trkpt lat="45.93826" lon="4.72473">
        <ele>172</ele>
        <time>2017-08-14T09:26:34Z</time>
      </trkpt>
      <trkpt lat="45.93821" lon="4.7247">
        <ele>172</ele>
        <time>2017-08-14T09:26:35Z</time>
      </trkpt>
      <trkpt lat="45.93817" lon="4.72468">
        <ele>172</ele>
        <time>2017-08-14T09:26:36Z</time>
      </trkpt>
      <trkpt lat="45.9381" lon="4.72462">
        <ele>172</ele>
        <time>2017-08-14T09:26:38Z</time>
      </trkpt>
      <trkpt lat="45.93807" lon="4.72457">
        <ele>172</ele>
        <time>2017-08-14T09:26:39Z</time>
      </trkpt>
      <trkpt lat="45.93802" lon="4.7245">
        <ele>172</ele>
        <time>2017-08-14T09:26:41Z</time>
      </trkpt>
      <trkpt lat="45.93798" lon="4.72447">
        <ele>172</ele>
        <time>2017-08-14T09:26:42Z</time>
      </trkpt>
      <trkpt lat="45.93794" lon="4.72443">
        <ele>172</ele>
        <time>2017-08-14T09:26:43Z</time>
      </trkpt>
      <trkpt lat="45.93789" lon="4.7244">
        <ele>172</ele>
        <time>2017-08-14T09:26:44Z</time>
      </trkpt>
      <trkpt lat="45.93784" lon="4.72436">
        <ele>172</ele>
        <time>2017-08-14T09:26:45Z</time>
      </trkpt>
      <trkpt lat="45.93778" lon="4.72431">
        <ele>172</ele>
        <time>2017-08-14T09:26:46Z</time>
      </trkpt>
      <trkpt lat="45.9377" lon="4.72424">
        <ele>171</ele>
        <time>2017-08-14T09:26:47Z</time>
      </trkpt>
      <trkpt lat="45.93765" lon="4.7242">
        <ele>171</ele>
        <time>2017-08-14T09:26:48Z</time>
      </trkpt>
      <trkpt lat="45.93762" lon="4.72415">
        <ele>171</ele>
        <time>2017-08-14T09:26:49Z</time>
      </trkpt>
      <trkpt lat="45.93759" lon="4.7241">
        <ele>171</ele>
        <time>2017-08-14T09:26:50Z</time>
      </trkpt>
      <trkpt lat="45.93756" lon="4.72405">
        <ele>171</ele>
        <time>2017-08-14T09:26:51Z</time>
      </trkpt>
      <trkpt lat="45.93752" lon="4.724">
        <ele>171</ele>
        <time>2017-08-14T09:26:52Z</time>
      </trkpt>
      <trkpt lat="45.93747" lon="4.72395">
        <ele>171</ele>
        <time>2017-08-14T09:26:53Z</time>
      </trkpt>
      <trkpt lat="45.93742" lon="4.72391">
        <ele>171</ele>
        <time>2017-08-14T09:26:54Z</time>
      </trkpt>
      <trkpt lat="45.93738" lon="4.72388">
        <ele>171</ele>
        <time>2017-08-14T09:26:55Z</time>
      </trkpt>
      <trkpt lat="45.93734" lon="4.72384">
        <ele>171</ele>
        <time>2017-08-14T09:26:56Z</time>
      </trkpt>
      <trkpt lat="45.9373" lon="4.7238">
        <ele>171</ele>
        <time>2017-08-14T09:26:57Z</time>
      </trkpt>
      <trkpt lat="45.93723" lon="4.72373">
        <ele>172</ele>
        <time>2017-08-14T09:26:59Z</time>
      </trkpt>
      <trkpt lat="45.93719" lon="4.7237">
        <ele>172</ele>
        <time>2017-08-14T09:27:00Z</time>
      </trkpt>
      <trkpt lat="45.93713" lon="4.72365">
        <ele>172</ele>
        <time>2017-08-14T09:27:02Z</time>
      </trkpt>
      <trkpt lat="45.9371" lon="4.72362">
        <ele>172</ele>
        <time>2017-08-14T09:27:03Z</time>
      </trkpt>
      <trkpt lat="45.93705" lon="4.72356">
        <ele>171</ele>
        <time>2017-08-14T09:27:05Z</time>
      </trkpt>
      <trkpt lat="45.93702" lon="4.72353">
        <ele>171</ele>
        <time>2017-08-14T09:27:06Z</time>
      </trkpt>
      <trkpt lat="45.93694" lon="4.72348">
        <ele>171</ele>
        <time>2017-08-14T09:27:08Z</time>
      </trkpt>
      <trkpt lat="45.9369" lon="4.72345">
        <ele>171</ele>
        <time>2017-08-14T09:27:09Z</time>
      </trkpt>
      <trkpt lat="45.93687" lon="4.72342">
        <ele>171</ele>
        <time>2017-08-14T09:27:10Z</time>
      </trkpt>
      <trkpt lat="45.93682" lon="4.72338">
        <ele>171</ele>
        <time>2017-08-14T09:27:11Z</time>
      </trkpt>
      <trkpt lat="45.93678" lon="4.72333">
        <ele>171</ele>
        <time>2017-08-14T09:27:12Z</time>
      </trkpt>
      <trkpt lat="45.93673" lon="4.72327">
        <ele>171</ele>
        <time>2017-08-14T09:27:13Z</time>
      </trkpt>
      <trkpt lat="45.93669" lon="4.72322">
        <ele>171</ele>
        <time>2017-08-14T09:27:14Z</time>
      </trkpt>
      <trkpt lat="45.93665" lon="4.72317">
        <ele>172</ele>
        <time>2017-08-14T09:27:15Z</time>
      </trkpt>
      <trkpt lat="45.93661" lon="4.72311">
        <ele>172</ele>
        <time>2017-08-14T09:27:16Z</time>
      </trkpt>
      <trkpt lat="45.93656" lon="4.72306">
        <ele>172</ele>
        <time>2017-08-14T09:27:17Z</time>
      </trkpt>
      <trkpt lat="45.9365" lon="4.72303">
        <ele>172</ele>
        <time>2017-08-14T09:27:18Z</time>
      </trkpt>
      <trkpt lat="45.93644" lon="4.72299">
        <ele>172</ele>
        <time>2017-08-14T09:27:19Z</time>
      </trkpt>
      <trkpt lat="45.93637" lon="4.72294">
        <ele>172</ele>
        <time>2017-08-14T09:27:21Z</time>
      </trkpt>
      <trkpt lat="45.93633" lon="4.72291">
        <ele>172</ele>
        <time>2017-08-14T09:27:22Z</time>
      </trkpt>
      <trkpt lat="45.93628" lon="4.72284">
        <ele>172</ele>
        <time>2017-08-14T09:27:24Z</time>
      </trkpt>
      <trkpt lat="45.93624" lon="4.7228">
        <ele>172</ele>
        <time>2017-08-14T09:27:25Z</time>
      </trkpt>
      <trkpt lat="45.9362" lon="4.72277">
        <ele>172</ele>
        <time>2017-08-14T09:27:26Z</time>
      </trkpt>
      <trkpt lat="45.93617" lon="4.72273">
        <ele>172</ele>
        <time>2017-08-14T09:27:27Z</time>
      </trkpt>
      <trkpt lat="45.93612" lon="4.72268">
        <ele>172</ele>
        <time>2017-08-14T09:27:28Z</time>
      </trkpt>
      <trkpt lat="45.93607" lon="4.72264">
        <ele>173</ele>
        <time>2017-08-14T09:27:29Z</time>
      </trkpt>
      <trkpt lat="45.93603" lon="4.7226">
        <ele>173</ele>
        <time>2017-08-14T09:27:30Z</time>
      </trkpt>
      <trkpt lat="45.93598" lon="4.72256">
        <ele>173</ele>
        <time>2017-08-14T09:27:31Z</time>
      </trkpt>
      <trkpt lat="45.93595" lon="4.72252">
        <ele>173</ele>
        <time>2017-08-14T09:27:32Z</time>
      </trkpt>
      <trkpt lat="45.93591" lon="4.72248">
        <ele>173</ele>
        <time>2017-08-14T09:27:33Z</time>
      </trkpt>
      <trkpt lat="45.93584" lon="4.7224">
        <ele>173</ele>
        <time>2017-08-14T09:27:35Z</time>
      </trkpt>
      <trkpt lat="45.93582" lon="4.72233">
        <ele>173</ele>
        <time>2017-08-14T09:27:36Z</time>
      </trkpt>
      <trkpt lat="45.93574" lon="4.72227">
        <ele>173</ele>
        <time>2017-08-14T09:27:38Z</time>
      </trkpt>
      <trkpt lat="45.93571" lon="4.72225">
        <ele>173</ele>
        <time>2017-08-14T09:27:39Z</time>
      </trkpt>
      <trkpt lat="45.93565" lon="4.72221">
        <ele>173</ele>
        <time>2017-08-14T09:27:41Z</time>
      </trkpt>
      <trkpt lat="45.93561" lon="4.7222">
        <ele>173</ele>
        <time>2017-08-14T09:27:42Z</time>
      </trkpt>
      <trkpt lat="45.93553" lon="4.72224">
        <ele>173</ele>
        <time>2017-08-14T09:27:44Z</time>
      </trkpt>
      <trkpt lat="45.93549" lon="4.72227">
        <ele>172</ele>
        <time>2017-08-14T09:27:45Z</time>
      </trkpt>
      <trkpt lat="45.93545" lon="4.72231">
        <ele>172</ele>
        <time>2017-08-14T09:27:46Z</time>
      </trkpt>
      <trkpt lat="45.93542" lon="4.72236">
        <ele>172</ele>
        <time>2017-08-14T09:27:47Z</time>
      </trkpt>
      <trkpt lat="45.93539" lon="4.72242">
        <ele>172</ele>
        <time>2017-08-14T09:27:48Z</time>
      </trkpt>
      <trkpt lat="45.93535" lon="4.72247">
        <ele>172</ele>
        <time>2017-08-14T09:27:49Z</time>
      </trkpt>
      <trkpt lat="45.93532" lon="4.72253">
        <ele>172</ele>
        <time>2017-08-14T09:27:50Z</time>
      </trkpt>
      <trkpt lat="45.93529" lon="4.72259">
        <ele>172</ele>
        <time>2017-08-14T09:27:51Z</time>
      </trkpt>
      <trkpt lat="45.93527" lon="4.72265">
        <ele>172</ele>
        <time>2017-08-14T09:27:52Z</time>
      </trkpt>
      <trkpt lat="45.93525" lon="4.72271">
        <ele>172</ele>
        <time>2017-08-14T09:27:53Z</time>
      </trkpt>
      <trkpt lat="45.93522" lon="4.72277">
        <ele>172</ele>
        <time>2017-08-14T09:27:54Z</time>
      </trkpt>
      <trkpt lat="45.9352" lon="4.72283">
        <ele>172</ele>
        <time>2017-08-14T09:27:55Z</time>
      </trkpt>
      <trkpt lat="45.93517" lon="4.72288">
        <ele>172</ele>
        <time>2017-08-14T09:27:56Z</time>
      </trkpt>
      <trkpt lat="45.93514" lon="4.72294">
        <ele>172</ele>
        <time>2017-08-14T09:27:57Z</time>
      </trkpt>
      <trkpt lat="45.9351" lon="4.72298">
        <ele>172</ele>
        <time>2017-08-14T09:27:58Z</time>
      </trkpt>
      <trkpt lat="45.93507" lon="4.72303">
        <ele>172</ele>
        <time>2017-08-14T09:27:59Z</time>
      </trkpt>
      <trkpt lat="45.93503" lon="4.72307">
        <ele>173</ele>
        <time>2017-08-14T09:28:00Z</time>
      </trkpt>
      <trkpt lat="45.93498" lon="4.72312">
        <ele>173</ele>
        <time>2017-08-14T09:28:01Z</time>
      </trkpt>
      <trkpt lat="45.93495" lon="4.72317">
        <ele>173</ele>
        <time>2017-08-14T09:28:02Z</time>
      </trkpt>
      <trkpt lat="45.93491" lon="4.72323">
        <ele>173</ele>
        <time>2017-08-14T09:28:03Z</time>
      </trkpt>
      <trkpt lat="45.93487" lon="4.72328">
        <ele>173</ele>
        <time>2017-08-14T09:28:04Z</time>
      </trkpt>
      <trkpt lat="45.93483" lon="4.72333">
        <ele>173</ele>
        <time>2017-08-14T09:28:05Z</time>
      </trkpt>
      <trkpt lat="45.93479" lon="4.72338">
        <ele>173</ele>
        <time>2017-08-14T09:28:06Z</time>
      </trkpt>
      <trkpt lat="45.93475" lon="4.72343">
        <ele>173</ele>
        <time>2017-08-14T09:28:07Z</time>
      </trkpt>
      <trkpt lat="45.9347" lon="4.72346">
        <ele>173</ele>
        <time>2017-08-14T09:28:08Z</time>
      </trkpt>
      <trkpt lat="45.93466" lon="4.7235">
        <ele>173</ele>
        <time>2017-08-14T09:28:09Z</time>
      </trkpt>
      <trkpt lat="45.93461" lon="4.72354">
        <ele>173</ele>
        <time>2017-08-14T09:28:10Z</time>
      </trkpt>
      <trkpt lat="45.93456" lon="4.72358">
        <ele>173</ele>
        <time>2017-08-14T09:28:11Z</time>
      </trkpt>
      <trkpt lat="45.93452" lon="4.72362">
        <ele>173</ele>
        <time>2017-08-14T09:28:12Z</time>
      </trkpt>
      <trkpt lat="45.93448" lon="4.72366">
        <ele>173</ele>
        <time>2017-08-14T09:28:13Z</time>
      </trkpt>
      <trkpt lat="45.93442" lon="4.72375">
        <ele>173</ele>
        <time>2017-08-14T09:28:15Z</time>
      </trkpt>
      <trkpt lat="45.9344" lon="4.72381">
        <ele>173</ele>
        <time>2017-08-14T09:28:16Z</time>
      </trkpt>
      <trkpt lat="45.93436" lon="4.72386">
        <ele>173</ele>
        <time>2017-08-14T09:28:17Z</time>
      </trkpt>
      <trkpt lat="45.93432" lon="4.7239">
        <ele>173</ele>
        <time>2017-08-14T09:28:18Z</time>
      </trkpt>
      <trkpt lat="45.93424" lon="4.72395">
        <ele>174</ele>
        <time>2017-08-14T09:28:20Z</time>
      </trkpt>
      <trkpt lat="45.93417" lon="4.72397">
        <ele>174</ele>
        <time>2017-08-14T09:28:21Z</time>
      </trkpt>
      <trkpt lat="45.93412" lon="4.72398">
        <ele>174</ele>
        <time>2017-08-14T09:28:22Z</time>
      </trkpt>
      <trkpt lat="45.93406" lon="4.72399">
        <ele>174</ele>
        <time>2017-08-14T09:28:23Z</time>
      </trkpt>
      <trkpt lat="45.93398" lon="4.72399">
        <ele>174</ele>
        <time>2017-08-14T09:28:25Z</time>
      </trkpt>
      <trkpt lat="45.93395" lon="4.72399">
        <ele>174</ele>
        <time>2017-08-14T09:28:26Z</time>
      </trkpt>
      <trkpt lat="45.93387" lon="4.72405">
        <ele>174</ele>
        <time>2017-08-14T09:28:28Z</time>
      </trkpt>
      <trkpt lat="45.93384" lon="4.7241">
        <ele>174</ele>
        <time>2017-08-14T09:28:29Z</time>
      </trkpt>
      <trkpt lat="45.93383" lon="4.72416">
        <ele>174</ele>
        <time>2017-08-14T09:28:30Z</time>
      </trkpt>
      <trkpt lat="45.93383" lon="4.72424">
        <ele>173</ele>
        <time>2017-08-14T09:28:31Z</time>
      </trkpt>
      <trkpt lat="45.93385" lon="4.72431">
        <ele>173</ele>
        <time>2017-08-14T09:28:32Z</time>
      </trkpt>
      <trkpt lat="45.93387" lon="4.72438">
        <ele>173</ele>
        <time>2017-08-14T09:28:33Z</time>
      </trkpt>
      <trkpt lat="45.93388" lon="4.72446">
        <ele>173</ele>
        <time>2017-08-14T09:28:34Z</time>
      </trkpt>
      <trkpt lat="45.93387" lon="4.72453">
        <ele>173</ele>
        <time>2017-08-14T09:28:35Z</time>
      </trkpt>
      <trkpt lat="45.93385" lon="4.7246">
        <ele>173</ele>
        <time>2017-08-14T09:28:36Z</time>
      </trkpt>
      <trkpt lat="45.93382" lon="4.72465">
        <ele>173</ele>
        <time>2017-08-14T09:28:37Z</time>
      </trkpt>
      <trkpt lat="45.93378" lon="4.7247">
        <ele>173</ele>
        <time>2017-08-14T09:28:38Z</time>
      </trkpt>
      <trkpt lat="45.93374" lon="4.72474">
        <ele>173</ele>
        <time>2017-08-14T09:28:39Z</time>
      </trkpt>
      <trkpt lat="45.93371" lon="4.72479">
        <ele>173</ele>
        <time>2017-08-14T09:28:40Z</time>
      </trkpt>
      <trkpt lat="45.93367" lon="4.72483">
        <ele>173</ele>
        <time>2017-08-14T09:28:41Z</time>
      </trkpt>
      <trkpt lat="45.93363" lon="4.72487">
        <ele>173</ele>
        <time>2017-08-14T09:28:42Z</time>
      </trkpt>
      <trkpt lat="45.9336" lon="4.72493">
        <ele>173</ele>
        <time>2017-08-14T09:28:43Z</time>
      </trkpt>
      <trkpt lat="45.93357" lon="4.72497">
        <ele>173</ele>
        <time>2017-08-14T09:28:44Z</time>
      </trkpt>
      <trkpt lat="45.93352" lon="4.72502">
        <ele>172</ele>
        <time>2017-08-14T09:28:45Z</time>
      </trkpt>
      <trkpt lat="45.93348" lon="4.72506">
        <ele>172</ele>
        <time>2017-08-14T09:28:46Z</time>
      </trkpt>
      <trkpt lat="45.93344" lon="4.72511">
        <ele>172</ele>
        <time>2017-08-14T09:28:47Z</time>
      </trkpt>
      <trkpt lat="45.9334" lon="4.72516">
        <ele>172</ele>
        <time>2017-08-14T09:28:48Z</time>
      </trkpt>
      <trkpt lat="45.93335" lon="4.72522">
        <ele>172</ele>
        <time>2017-08-14T09:28:49Z</time>
      </trkpt>
      <trkpt lat="45.9333" lon="4.72527">
        <ele>172</ele>
        <time>2017-08-14T09:28:50Z</time>
      </trkpt>
      <trkpt lat="45.93326" lon="4.72534">
        <ele>172</ele>
        <time>2017-08-14T09:28:51Z</time>
      </trkpt>
      <trkpt lat="45.93323" lon="4.72541">
        <ele>172</ele>
        <time>2017-08-14T09:28:52Z</time>
      </trkpt>
      <trkpt lat="45.93319" lon="4.72548">
        <ele>172</ele>
        <time>2017-08-14T09:28:53Z</time>
      </trkpt>
      <trkpt lat="45.93312" lon="4.72553">
        <ele>172</ele>
        <time>2017-08-14T09:28:54Z</time>
      </trkpt>
      <trkpt lat="45.93307" lon="4.72558">
        <ele>172</ele>
        <time>2017-08-14T09:28:55Z</time>
      </trkpt>
      <trkpt lat="45.93303" lon="4.72563">
        <ele>172</ele>
        <time>2017-08-14T09:28:56Z</time>
      </trkpt>
      <trkpt lat="45.93298" lon="4.72568">
        <ele>172</ele>
        <time>2017-08-14T09:28:57Z</time>
      </trkpt>
      <trkpt lat="45.93294" lon="4.72572">
        <ele>172</ele>
        <time>2017-08-14T09:28:58Z</time>
      </trkpt>
      <trkpt lat="45.93289" lon="4.72576">
        <ele>172</ele>
        <time>2017-08-14T09:28:59Z</time>
      </trkpt>
      <trkpt lat="45.93285" lon="4.72581">
        <ele>171</ele>
        <time>2017-08-14T09:29:00Z</time>
      </trkpt>
      <trkpt lat="45.93281" lon="4.72585">
        <ele>170</ele>
        <time>2017-08-14T09:29:01Z</time>
      </trkpt>
      <trkpt lat="45.93278" lon="4.7259">
        <ele>170</ele>
        <time>2017-08-14T09:29:02Z</time>
      </trkpt>
      <trkpt lat="45.93274" lon="4.72595">
        <ele>170</ele>
        <time>2017-08-14T09:29:03Z</time>
      </trkpt>
      <trkpt lat="45.9327" lon="4.726">
        <ele>170</ele>
        <time>2017-08-14T09:29:04Z</time>
      </trkpt>
      <trkpt lat="45.93266" lon="4.72604">
        <ele>170</ele>
        <time>2017-08-14T09:29:05Z</time>
      </trkpt>
      <trkpt lat="45.93262" lon="4.72608">
        <ele>170</ele>
        <time>2017-08-14T09:29:06Z</time>
      </trkpt>
      <trkpt lat="45.93258" lon="4.72613">
        <ele>170</ele>
        <time>2017-08-14T09:29:07Z</time>
      </trkpt>
      <trkpt lat="45.93254" lon="4.72618">
        <ele>170</ele>
        <time>2017-08-14T09:29:08Z</time>
      </trkpt>
      <trkpt lat="45.93249" lon="4.72623">
        <ele>170</ele>
        <time>2017-08-14T09:29:09Z</time>
      </trkpt>
      <trkpt lat="45.93245" lon="4.72627">
        <ele>170</ele>
        <time>2017-08-14T09:29:10Z</time>
      </trkpt>
      <trkpt lat="45.93241" lon="4.72633">
        <ele>170</ele>
        <time>2017-08-14T09:29:11Z</time>
      </trkpt>
      <trkpt lat="45.93237" lon="4.72638">
        <ele>170</ele>
        <time>2017-08-14T09:29:12Z</time>
      </trkpt>
      <trkpt lat="45.93232" lon="4.72643">
        <ele>170</ele>
        <time>2017-08-14T09:29:13Z</time>
      </trkpt>
      <trkpt lat="45.93228" lon="4.72649">
        <ele>170</ele>
        <time>2017-08-14T09:29:14Z</time>
      </trkpt>
      <trkpt lat="45.93223" lon="4.72655">
        <ele>170</ele>
        <time>2017-08-14T09:29:15Z</time>
      </trkpt>
      <trkpt lat="45.93219" lon="4.7266">
        <ele>170</ele>
        <time>2017-08-14T09:29:16Z</time>
      </trkpt>
      <trkpt lat="45.93214" lon="4.72665">
        <ele>170</ele>
        <time>2017-08-14T09:29:17Z</time>
      </trkpt>
      <trkpt lat="45.9321" lon="4.72669">
        <ele>169</ele>
        <time>2017-08-14T09:29:18Z</time>
      </trkpt>
      <trkpt lat="45.93206" lon="4.72674">
        <ele>169</ele>
        <time>2017-08-14T09:29:19Z</time>
      </trkpt>
      <trkpt lat="45.93202" lon="4.72678">
        <ele>169</ele>
        <time>2017-08-14T09:29:20Z</time>
      </trkpt>
      <trkpt lat="45.93199" lon="4.72683">
        <ele>169</ele>
        <time>2017-08-14T09:29:21Z</time>
      </trkpt>
      <trkpt lat="45.93195" lon="4.72687">
        <ele>169</ele>
        <time>2017-08-14T09:29:22Z</time>
      </trkpt>
      <trkpt lat="45.93192" lon="4.72691">
        <ele>169</ele>
        <time>2017-08-14T09:29:23Z</time>
      </trkpt>
      <trkpt lat="45.93188" lon="4.72696">
        <ele>169</ele>
        <time>2017-08-14T09:29:24Z</time>
      </trkpt>
      <trkpt lat="45.93184" lon="4.727">
        <ele>169</ele>
        <time>2017-08-14T09:29:25Z</time>
      </trkpt>
      <trkpt lat="45.9318" lon="4.72706">
        <ele>169</ele>
        <time>2017-08-14T09:29:26Z</time>
      </trkpt>
      <trkpt lat="45.93175" lon="4.72711">
        <ele>170</ele>
        <time>2017-08-14T09:29:27Z</time>
      </trkpt>
      <trkpt lat="45.93171" lon="4.72717">
        <ele>170</ele>
        <time>2017-08-14T09:29:28Z</time>
      </trkpt>
      <trkpt lat="45.93166" lon="4.72722">
        <ele>170</ele>
        <time>2017-08-14T09:29:29Z</time>
      </trkpt>
      <trkpt lat="45.93161" lon="4.72727">
        <ele>170</ele>
        <time>2017-08-14T09:29:30Z</time>
      </trkpt>
      <trkpt lat="45.93155" lon="4.72733">
        <ele>170</ele>
        <time>2017-08-14T09:29:31Z</time>
      </trkpt>
      <trkpt lat="45.9315" lon="4.72739">
        <ele>170</ele>
        <time>2017-08-14T09:29:32Z</time>
      </trkpt>
      <trkpt lat="45.93146" lon="4.72744">
        <ele>170</ele>
        <time>2017-08-14T09:29:33Z</time>
      </trkpt>
      <trkpt lat="45.93141" lon="4.72749">
        <ele>170</ele>
        <time>2017-08-14T09:29:34Z</time>
      </trkpt>
      <trkpt lat="45.93137" lon="4.72754">
        <ele>171</ele>
        <time>2017-08-14T09:29:35Z</time>
      </trkpt>
      <trkpt lat="45.93133" lon="4.72759">
        <ele>171</ele>
        <time>2017-08-14T09:29:36Z</time>
      </trkpt>
      <trkpt lat="45.93129" lon="4.72764">
        <ele>171</ele>
        <time>2017-08-14T09:29:37Z</time>
      </trkpt>
      <trkpt lat="45.93125" lon="4.72769">
        <ele>171</ele>
        <time>2017-08-14T09:29:38Z</time>
      </trkpt>
      <trkpt lat="45.93121" lon="4.72773">
        <ele>171</ele>
        <time>2017-08-14T09:29:39Z</time>
      </trkpt>
      <trkpt lat="45.93117" lon="4.72776">
        <ele>171</ele>
        <time>2017-08-14T09:29:40Z</time>
      </trkpt>
      <trkpt lat="45.93113" lon="4.72781">
        <ele>171</ele>
        <time>2017-08-14T09:29:41Z</time>
      </trkpt>
      <trkpt lat="45.93109" lon="4.72786">
        <ele>171</ele>
        <time>2017-08-14T09:29:42Z</time>
      </trkpt>
      <trkpt lat="45.93105" lon="4.72791">
        <ele>171</ele>
        <time>2017-08-14T09:29:43Z</time>
      </trkpt>
      <trkpt lat="45.93101" lon="4.72796">
        <ele>171</ele>
        <time>2017-08-14T09:29:44Z</time>
      </trkpt>
      <trkpt lat="45.93097" lon="4.728">
        <ele>171</ele>
        <time>2017-08-14T09:29:45Z</time>
      </trkpt>
      <trkpt lat="45.93093" lon="4.72805">
        <ele>172</ele>
        <time>2017-08-14T09:29:46Z</time>
      </trkpt>
      <trkpt lat="45.93089" lon="4.7281">
        <ele>172</ele>
        <time>2017-08-14T09:29:47Z</time>
      </trkpt>
      <trkpt lat="45.93084" lon="4.72813">
        <ele>172</ele>
        <time>2017-08-14T09:29:48Z</time>
      </trkpt>
      <trkpt lat="45.93081" lon="4.72817">
        <ele>172</ele>
        <time>2017-08-14T09:29:49Z</time>
      </trkpt>
      <trkpt lat="45.93076" lon="4.72822">
        <ele>173</ele>
        <time>2017-08-14T09:29:50Z</time>
      </trkpt>
      <trkpt lat="45.93072" lon="4.72827">
        <ele>173</ele>
        <time>2017-08-14T09:29:51Z</time>
      </trkpt>
      <trkpt lat="45.93068" lon="4.72831">
        <ele>173</ele>
        <time>2017-08-14T09:29:52Z</time>
      </trkpt>
      <trkpt lat="45.93064" lon="4.72833">
        <ele>173</ele>
        <time>2017-08-14T09:29:53Z</time>
      </trkpt>
      <trkpt lat="45.93061" lon="4.72838">
        <ele>173</ele>
        <time>2017-08-14T09:29:54Z</time>
      </trkpt>
      <trkpt lat="45.93058" lon="4.72844">
        <ele>172</ele>
        <time>2017-08-14T09:29:55Z</time>
      </trkpt>
      <trkpt lat="45.93054" lon="4.7285">
        <ele>172</ele>
        <time>2017-08-14T09:29:56Z</time>
      </trkpt>
      <trkpt lat="45.93048" lon="4.72856">
        <ele>172</ele>
        <time>2017-08-14T09:29:57Z</time>
      </trkpt>
      <trkpt lat="45.93044" lon="4.7286">
        <ele>172</ele>
        <time>2017-08-14T09:29:58Z</time>
      </trkpt>
      <trkpt lat="45.9304" lon="4.72864">
        <ele>172</ele>
        <time>2017-08-14T09:29:59Z</time>
      </trkpt>
      <trkpt lat="45.93036" lon="4.72869">
        <ele>172</ele>
        <time>2017-08-14T09:30:00Z</time>
      </trkpt>
      <trkpt lat="45.93032" lon="4.72872">
        <ele>172</ele>
        <time>2017-08-14T09:30:01Z</time>
      </trkpt>
      <trkpt lat="45.93025" lon="4.72879">
        <ele>172</ele>
        <time>2017-08-14T09:30:03Z</time>
      </trkpt>
      <trkpt lat="45.93021" lon="4.72883">
        <ele>172</ele>
        <time>2017-08-14T09:30:04Z</time>
      </trkpt>
      <trkpt lat="45.93017" lon="4.72887">
        <ele>172</ele>
        <time>2017-08-14T09:30:05Z</time>
      </trkpt>
      <trkpt lat="45.93013" lon="4.72892">
        <ele>172</ele>
        <time>2017-08-14T09:30:06Z</time>
      </trkpt>
      <trkpt lat="45.93009" lon="4.72897">
        <ele>172</ele>
        <time>2017-08-14T09:30:07Z</time>
      </trkpt>
      <trkpt lat="45.93004" lon="4.72902">
        <ele>171</ele>
        <time>2017-08-14T09:30:08Z</time>
      </trkpt>
      <trkpt lat="45.93" lon="4.72907">
        <ele>171</ele>
        <time>2017-08-14T09:30:09Z</time>
      </trkpt>
      <trkpt lat="45.92996" lon="4.72912">
        <ele>171</ele>
        <time>2017-08-14T09:30:10Z</time>
      </trkpt>
      <trkpt lat="45.92991" lon="4.72917">
        <ele>171</ele>
        <time>2017-08-14T09:30:11Z</time>
      </trkpt>
      <trkpt lat="45.92986" lon="4.72923">
        <ele>171</ele>
        <time>2017-08-14T09:30:12Z</time>
      </trkpt>
      <trkpt lat="45.92982" lon="4.7293">
        <ele>171</ele>
        <time>2017-08-14T09:30:13Z</time>
      </trkpt>
      <trkpt lat="45.92978" lon="4.72935">
        <ele>171</ele>
        <time>2017-08-14T09:30:14Z</time>
      </trkpt>
      <trkpt lat="45.92974" lon="4.7294">
        <ele>171</ele>
        <time>2017-08-14T09:30:15Z</time>
      </trkpt>
      <trkpt lat="45.9297" lon="4.72944">
        <ele>171</ele>
        <time>2017-08-14T09:30:16Z</time>
      </trkpt>
      <trkpt lat="45.92966" lon="4.72948">
        <ele>171</ele>
        <time>2017-08-14T09:30:17Z</time>
      </trkpt>
      <trkpt lat="45.92962" lon="4.72951">
        <ele>171</ele>
        <time>2017-08-14T09:30:18Z</time>
      </trkpt>
      <trkpt lat="45.92955" lon="4.72959">
        <ele>171</ele>
        <time>2017-08-14T09:30:20Z</time>
      </trkpt>
      <trkpt lat="45.92952" lon="4.72963">
        <ele>171</ele>
        <time>2017-08-14T09:30:21Z</time>
      </trkpt>
      <trkpt lat="45.92945" lon="4.7297">
        <ele>171</ele>
        <time>2017-08-14T09:30:23Z</time>
      </trkpt>
      <trkpt lat="45.92941" lon="4.72973">
        <ele>171</ele>
        <time>2017-08-14T09:30:24Z</time>
      </trkpt>
      <trkpt lat="45.92938" lon="4.72977">
        <ele>171</ele>
        <time>2017-08-14T09:30:25Z</time>
      </trkpt>
      <trkpt lat="45.92934" lon="4.72981">
        <ele>172</ele>
        <time>2017-08-14T09:30:26Z</time>
      </trkpt>
      <trkpt lat="45.9293" lon="4.72986">
        <ele>172</ele>
        <time>2017-08-14T09:30:27Z</time>
      </trkpt>
      <trkpt lat="45.92927" lon="4.72991">
        <ele>172</ele>
        <time>2017-08-14T09:30:28Z</time>
      </trkpt>
      <trkpt lat="45.92923" lon="4.72995">
        <ele>172</ele>
        <time>2017-08-14T09:30:29Z</time>
      </trkpt>
      <trkpt lat="45.92919" lon="4.72999">
        <ele>172</ele>
        <time>2017-08-14T09:30:30Z</time>
      </trkpt>
      <trkpt lat="45.92916" lon="4.73004">
        <ele>172</ele>
        <time>2017-08-14T09:30:31Z</time>
      </trkpt>
      <trkpt lat="45.92913" lon="4.73008">
        <ele>172</ele>
        <time>2017-08-14T09:30:32Z</time>
      </trkpt>
      <trkpt lat="45.92909" lon="4.73013">
        <ele>172</ele>
        <time>2017-08-14T09:30:33Z</time>
      </trkpt>
      <trkpt lat="45.92904" lon="4.73019">
        <ele>172</ele>
        <time>2017-08-14T09:30:34Z</time>
      </trkpt>
      <trkpt lat="45.929" lon="4.73025">
        <ele>172</ele>
        <time>2017-08-14T09:30:35Z</time>
      </trkpt>
      <trkpt lat="45.92897" lon="4.7303">
        <ele>172</ele>
        <time>2017-08-14T09:30:36Z</time>
      </trkpt>
      <trkpt lat="45.92893" lon="4.73037">
        <ele>172</ele>
        <time>2017-08-14T09:30:37Z</time>
      </trkpt>
      <trkpt lat="45.92889" lon="4.73043">
        <ele>172</ele>
        <time>2017-08-14T09:30:38Z</time>
      </trkpt>
      <trkpt lat="45.92885" lon="4.73048">
        <ele>172</ele>
        <time>2017-08-14T09:30:39Z</time>
      </trkpt>
      <trkpt lat="45.92881" lon="4.73053">
        <ele>172</ele>
        <time>2017-08-14T09:30:40Z</time>
      </trkpt>
      <trkpt lat="45.92878" lon="4.73059">
        <ele>172</ele>
        <time>2017-08-14T09:30:41Z</time>
      </trkpt>
      <trkpt lat="45.92875" lon="4.73065">
        <ele>172</ele>
        <time>2017-08-14T09:30:42Z</time>
      </trkpt>
      <trkpt lat="45.92872" lon="4.73071">
        <ele>172</ele>
        <time>2017-08-14T09:30:43Z</time>
      </trkpt>
      <trkpt lat="45.92869" lon="4.73076">
        <ele>172</ele>
        <time>2017-08-14T09:30:44Z</time>
      </trkpt>
      <trkpt lat="45.92865" lon="4.73082">
        <ele>172</ele>
        <time>2017-08-14T09:30:45Z</time>
      </trkpt>
      <trkpt lat="45.92861" lon="4.73087">
        <ele>171</ele>
        <time>2017-08-14T09:30:46Z</time>
      </trkpt>
      <trkpt lat="45.92857" lon="4.73092">
        <ele>171</ele>
        <time>2017-08-14T09:30:47Z</time>
      </trkpt>
      <trkpt lat="45.92854" lon="4.73097">
        <ele>171</ele>
        <time>2017-08-14T09:30:48Z</time>
      </trkpt>
      <trkpt lat="45.92847" lon="4.7309">
        <ele>171</ele>
        <time>2017-08-14T09:30:52Z</time>
      </trkpt>
      <trkpt lat="45.92846" lon="4.73084">
        <ele>171</ele>
        <time>2017-08-14T09:30:53Z</time>
      </trkpt>
      <trkpt lat="45.92846" lon="4.73077">
        <ele>171</ele>
        <time>2017-08-14T09:30:54Z</time>
      </trkpt>
      <trkpt lat="45.92845" lon="4.7307">
        <ele>171</ele>
        <time>2017-08-14T09:30:55Z</time>
      </trkpt>
      <trkpt lat="45.92845" lon="4.73063">
        <ele>171</ele>
        <time>2017-08-14T09:30:56Z</time>
      </trkpt>
      <trkpt lat="45.92844" lon="4.73057">
        <ele>171</ele>
        <time>2017-08-14T09:30:57Z</time>
      </trkpt>
      <trkpt lat="45.92843" lon="4.7305">
        <ele>171</ele>
        <time>2017-08-14T09:30:58Z</time>
      </trkpt>
      <trkpt lat="45.92842" lon="4.73044">
        <ele>171</ele>
        <time>2017-08-14T09:30:59Z</time>
      </trkpt>
      <trkpt lat="45.92841" lon="4.73037">
        <ele>171</ele>
        <time>2017-08-14T09:31:00Z</time>
      </trkpt>
      <trkpt lat="45.92839" lon="4.73031">
        <ele>171</ele>
        <time>2017-08-14T09:31:01Z</time>
      </trkpt>
      <trkpt lat="45.92838" lon="4.73019">
        <ele>171</ele>
        <time>2017-08-14T09:31:03Z</time>
      </trkpt>
      <trkpt lat="45.92839" lon="4.73014">
        <ele>171</ele>
        <time>2017-08-14T09:31:04Z</time>
      </trkpt>
      <trkpt lat="45.92837" lon="4.73002">
        <ele>170</ele>
        <time>2017-08-14T09:31:06Z</time>
      </trkpt>
      <trkpt lat="45.92836" lon="4.72996">
        <ele>170</ele>
        <time>2017-08-14T09:31:07Z</time>
      </trkpt>
      <trkpt lat="45.92835" lon="4.72984">
        <ele>171</ele>
        <time>2017-08-14T09:31:09Z</time>
      </trkpt>
      <trkpt lat="45.92834" lon="4.72979">
        <ele>171</ele>
        <time>2017-08-14T09:31:10Z</time>
      </trkpt>
      <trkpt lat="45.92833" lon="4.72968">
        <ele>170</ele>
        <time>2017-08-14T09:31:12Z</time>
      </trkpt>
      <trkpt lat="45.92832" lon="4.72962">
        <ele>170</ele>
        <time>2017-08-14T09:31:13Z</time>
      </trkpt>
      <trkpt lat="45.92831" lon="4.7295">
        <ele>170</ele>
        <time>2017-08-14T09:31:15Z</time>
      </trkpt>
      <trkpt lat="45.9283" lon="4.72943">
        <ele>170</ele>
        <time>2017-08-14T09:31:16Z</time>
      </trkpt>
      <trkpt lat="45.92829" lon="4.72936">
        <ele>170</ele>
        <time>2017-08-14T09:31:17Z</time>
      </trkpt>
      <trkpt lat="45.92828" lon="4.72929">
        <ele>170</ele>
        <time>2017-08-14T09:31:18Z</time>
      </trkpt>
      <trkpt lat="45.92827" lon="4.72921">
        <ele>170</ele>
        <time>2017-08-14T09:31:19Z</time>
      </trkpt>
      <trkpt lat="45.92826" lon="4.72914">
        <ele>170</ele>
        <time>2017-08-14T09:31:20Z</time>
      </trkpt>
      <trkpt lat="45.92825" lon="4.72906">
        <ele>170</ele>
        <time>2017-08-14T09:31:21Z</time>
      </trkpt>
      <trkpt lat="45.92825" lon="4.72899">
        <ele>170</ele>
        <time>2017-08-14T09:31:22Z</time>
      </trkpt>
      <trkpt lat="45.92823" lon="4.72891">
        <ele>170</ele>
        <time>2017-08-14T09:31:23Z</time>
      </trkpt>
      <trkpt lat="45.92822" lon="4.72884">
        <ele>170</ele>
        <time>2017-08-14T09:31:24Z</time>
      </trkpt>
      <trkpt lat="45.92821" lon="4.72876">
        <ele>170</ele>
        <time>2017-08-14T09:31:25Z</time>
      </trkpt>
      <trkpt lat="45.92819" lon="4.72869">
        <ele>170</ele>
        <time>2017-08-14T09:31:26Z</time>
      </trkpt>
      <trkpt lat="45.92817" lon="4.72862">
        <ele>170</ele>
        <time>2017-08-14T09:31:27Z</time>
      </trkpt>
      <trkpt lat="45.92816" lon="4.72855">
        <ele>170</ele>
        <time>2017-08-14T09:31:28Z</time>
      </trkpt>
      <trkpt lat="45.92814" lon="4.72848">
        <ele>170</ele>
        <time>2017-08-14T09:31:29Z</time>
      </trkpt>
      <trkpt lat="45.92813" lon="4.72842">
        <ele>170</ele>
        <time>2017-08-14T09:31:30Z</time>
      </trkpt>
      <trkpt lat="45.92811" lon="4.72836">
        <ele>170</ele>
        <time>2017-08-14T09:31:31Z</time>
      </trkpt>
      <trkpt lat="45.9281" lon="4.7283">
        <ele>171</ele>
        <time>2017-08-14T09:31:32Z</time>
      </trkpt>
      <trkpt lat="45.92808" lon="4.72817">
        <ele>171</ele>
        <time>2017-08-14T09:31:34Z</time>
      </trkpt>
      <trkpt lat="45.92808" lon="4.72812">
        <ele>171</ele>
        <time>2017-08-14T09:31:35Z</time>
      </trkpt>
      <trkpt lat="45.92806" lon="4.72799">
        <ele>171</ele>
        <time>2017-08-14T09:31:37Z</time>
      </trkpt>
      <trkpt lat="45.92804" lon="4.72794">
        <ele>171</ele>
        <time>2017-08-14T09:31:38Z</time>
      </trkpt>
      <trkpt lat="45.92796" lon="4.7279">
        <ele>171</ele>
        <time>2017-08-14T09:31:40Z</time>
      </trkpt>
      <trkpt lat="45.92791" lon="4.72791">
        <ele>171</ele>
        <time>2017-08-14T09:31:41Z</time>
      </trkpt>
      <trkpt lat="45.92783" lon="4.72795">
        <ele>170</ele>
        <time>2017-08-14T09:31:43Z</time>
      </trkpt>
      <trkpt lat="45.92778" lon="4.72798">
        <ele>170</ele>
        <time>2017-08-14T09:31:44Z</time>
      </trkpt>
      <trkpt lat="45.92774" lon="4.72802">
        <ele>170</ele>
        <time>2017-08-14T09:31:45Z</time>
      </trkpt>
      <trkpt lat="45.92769" lon="4.72806">
        <ele>170</ele>
        <time>2017-08-14T09:31:46Z</time>
      </trkpt>
      <trkpt lat="45.92765" lon="4.7281">
        <ele>170</ele>
        <time>2017-08-14T09:31:47Z</time>
      </trkpt>
      <trkpt lat="45.9276" lon="4.72814">
        <ele>170</ele>
        <time>2017-08-14T09:31:48Z</time>
      </trkpt>
      <trkpt lat="45.92754" lon="4.72817">
        <ele>170</ele>
        <time>2017-08-14T09:31:49Z</time>
      </trkpt>
      <trkpt lat="45.92749" lon="4.7282">
        <ele>169</ele>
        <time>2017-08-14T09:31:50Z</time>
      </trkpt>
      <trkpt lat="45.92744" lon="4.72824">
        <ele>169</ele>
        <time>2017-08-14T09:31:51Z</time>
      </trkpt>
      <trkpt lat="45.92739" lon="4.72827">
        <ele>169</ele>
        <time>2017-08-14T09:31:52Z</time>
      </trkpt>
      <trkpt lat="45.92734" lon="4.7283">
        <ele>169</ele>
        <time>2017-08-14T09:31:53Z</time>
      </trkpt>
      <trkpt lat="45.9273" lon="4.72833">
        <ele>169</ele>
        <time>2017-08-14T09:31:54Z</time>
      </trkpt>
      <trkpt lat="45.92725" lon="4.72837">
        <ele>169</ele>
        <time>2017-08-14T09:31:55Z</time>
      </trkpt>
      <trkpt lat="45.92721" lon="4.72841">
        <ele>169</ele>
        <time>2017-08-14T09:31:56Z</time>
      </trkpt>
      <trkpt lat="45.92717" lon="4.72845">
        <ele>169</ele>
        <time>2017-08-14T09:31:57Z</time>
      </trkpt>
      <trkpt lat="45.92712" lon="4.72848">
        <ele>169</ele>
        <time>2017-08-14T09:31:58Z</time>
      </trkpt>
      <trkpt lat="45.92707" lon="4.72852">
        <ele>169</ele>
        <time>2017-08-14T09:31:59Z</time>
      </trkpt>
      <trkpt lat="45.92702" lon="4.72855">
        <ele>169</ele>
        <time>2017-08-14T09:32:00Z</time>
      </trkpt>
      <trkpt lat="45.92697" lon="4.72859">
        <ele>169</ele>
        <time>2017-08-14T09:32:01Z</time>
      </trkpt>
      <trkpt lat="45.92692" lon="4.72863">
        <ele>169</ele>
        <time>2017-08-14T09:32:02Z</time>
      </trkpt>
      <trkpt lat="45.92687" lon="4.72867">
        <ele>169</ele>
        <time>2017-08-14T09:32:03Z</time>
      </trkpt>
      <trkpt lat="45.92682" lon="4.72872">
        <ele>169</ele>
        <time>2017-08-14T09:32:04Z</time>
      </trkpt>
      <trkpt lat="45.92677" lon="4.72876">
        <ele>170</ele>
        <time>2017-08-14T09:32:05Z</time>
      </trkpt>
      <trkpt lat="45.92672" lon="4.72879">
        <ele>170</ele>
        <time>2017-08-14T09:32:06Z</time>
      </trkpt>
      <trkpt lat="45.92666" lon="4.72883">
        <ele>169</ele>
        <time>2017-08-14T09:32:07Z</time>
      </trkpt>
      <trkpt lat="45.92661" lon="4.72887">
        <ele>169</ele>
        <time>2017-08-14T09:32:08Z</time>
      </trkpt>
      <trkpt lat="45.92656" lon="4.72891">
        <ele>169</ele>
        <time>2017-08-14T09:32:09Z</time>
      </trkpt>
      <trkpt lat="45.92652" lon="4.72895">
        <ele>169</ele>
        <time>2017-08-14T09:32:10Z</time>
      </trkpt>
      <trkpt lat="45.92647" lon="4.72898">
        <ele>169</ele>
        <time>2017-08-14T09:32:11Z</time>
      </trkpt>
      <trkpt lat="45.92643" lon="4.72901">
        <ele>169</ele>
        <time>2017-08-14T09:32:12Z</time>
      </trkpt>
      <trkpt lat="45.92635" lon="4.72908">
        <ele>169</ele>
        <time>2017-08-14T09:32:14Z</time>
      </trkpt>
      <trkpt lat="45.92632" lon="4.72911">
        <ele>169</ele>
        <time>2017-08-14T09:32:15Z</time>
      </trkpt>
      <trkpt lat="45.92628" lon="4.72914">
        <ele>169</ele>
        <time>2017-08-14T09:32:16Z</time>
      </trkpt>
      <trkpt lat="45.92623" lon="4.72918">
        <ele>169</ele>
        <time>2017-08-14T09:32:17Z</time>
      </trkpt>
      <trkpt lat="45.92618" lon="4.72922">
        <ele>169</ele>
        <time>2017-08-14T09:32:18Z</time>
      </trkpt>
      <trkpt lat="45.92614" lon="4.72926">
        <ele>169</ele>
        <time>2017-08-14T09:32:19Z</time>
      </trkpt>
      <trkpt lat="45.92609" lon="4.72931">
        <ele>169</ele>
        <time>2017-08-14T09:32:20Z</time>
      </trkpt>
      <trkpt lat="45.92604" lon="4.72936">
        <ele>169</ele>
        <time>2017-08-14T09:32:21Z</time>
      </trkpt>
      <trkpt lat="45.92599" lon="4.72941">
        <ele>169</ele>
        <time>2017-08-14T09:32:22Z</time>
      </trkpt>
      <trkpt lat="45.92595" lon="4.72946">
        <ele>169</ele>
        <time>2017-08-14T09:32:23Z</time>
      </trkpt>
      <trkpt lat="45.92591" lon="4.72951">
        <ele>169</ele>
        <time>2017-08-14T09:32:24Z</time>
      </trkpt>
      <trkpt lat="45.92586" lon="4.72956">
        <ele>169</ele>
        <time>2017-08-14T09:32:25Z</time>
      </trkpt>
      <trkpt lat="45.92582" lon="4.7296">
        <ele>169</ele>
        <time>2017-08-14T09:32:26Z</time>
      </trkpt>
      <trkpt lat="45.92579" lon="4.72964">
        <ele>169</ele>
        <time>2017-08-14T09:32:27Z</time>
      </trkpt>
      <trkpt lat="45.92575" lon="4.72969">
        <ele>169</ele>
        <time>2017-08-14T09:32:28Z</time>
      </trkpt>
      <trkpt lat="45.92571" lon="4.72972">
        <ele>169</ele>
        <time>2017-08-14T09:32:29Z</time>
      </trkpt>
      <trkpt lat="45.92567" lon="4.72976">
        <ele>169</ele>
        <time>2017-08-14T09:32:30Z</time>
      </trkpt>
      <trkpt lat="45.92564" lon="4.72979">
        <ele>169</ele>
        <time>2017-08-14T09:32:31Z</time>
      </trkpt>
      <trkpt lat="45.9256" lon="4.72983">
        <ele>169</ele>
        <time>2017-08-14T09:32:32Z</time>
      </trkpt>
      <trkpt lat="45.92556" lon="4.72988">
        <ele>169</ele>
        <time>2017-08-14T09:32:33Z</time>
      </trkpt>
      <trkpt lat="45.92551" lon="4.72992">
        <ele>169</ele>
        <time>2017-08-14T09:32:34Z</time>
      </trkpt>
      <trkpt lat="45.92546" lon="4.72997">
        <ele>169</ele>
        <time>2017-08-14T09:32:35Z</time>
      </trkpt>
      <trkpt lat="45.92542" lon="4.73002">
        <ele>169</ele>
        <time>2017-08-14T09:32:36Z</time>
      </trkpt>
      <trkpt lat="45.92536" lon="4.73007">
        <ele>169</ele>
        <time>2017-08-14T09:32:37Z</time>
      </trkpt>
      <trkpt lat="45.92532" lon="4.73012">
        <ele>169</ele>
        <time>2017-08-14T09:32:38Z</time>
      </trkpt>
      <trkpt lat="45.92527" lon="4.73017">
        <ele>169</ele>
        <time>2017-08-14T09:32:39Z</time>
      </trkpt>
      <trkpt lat="45.92521" lon="4.73021">
        <ele>169</ele>
        <time>2017-08-14T09:32:40Z</time>
      </trkpt>
      <trkpt lat="45.92517" lon="4.73025">
        <ele>169</ele>
        <time>2017-08-14T09:32:41Z</time>
      </trkpt>
      <trkpt lat="45.92512" lon="4.73028">
        <ele>169</ele>
        <time>2017-08-14T09:32:42Z</time>
      </trkpt>
      <trkpt lat="45.92508" lon="4.73032">
        <ele>169</ele>
        <time>2017-08-14T09:32:43Z</time>
      </trkpt>
      <trkpt lat="45.92503" lon="4.73035">
        <ele>169</ele>
        <time>2017-08-14T09:32:44Z</time>
      </trkpt>
      <trkpt lat="45.925" lon="4.73039">
        <ele>170</ele>
        <time>2017-08-14T09:32:45Z</time>
      </trkpt>
      <trkpt lat="45.92493" lon="4.73046">
        <ele>170</ele>
        <time>2017-08-14T09:32:47Z</time>
      </trkpt>
      <trkpt lat="45.92489" lon="4.7305">
        <ele>170</ele>
        <time>2017-08-14T09:32:48Z</time>
      </trkpt>
      <trkpt lat="45.92485" lon="4.73054">
        <ele>170</ele>
        <time>2017-08-14T09:32:49Z</time>
      </trkpt>
      <trkpt lat="45.92481" lon="4.73057">
        <ele>170</ele>
        <time>2017-08-14T09:32:50Z</time>
      </trkpt>
      <trkpt lat="45.92477" lon="4.73061">
        <ele>170</ele>
        <time>2017-08-14T09:32:51Z</time>
      </trkpt>
      <trkpt lat="45.92472" lon="4.73065">
        <ele>170</ele>
        <time>2017-08-14T09:32:52Z</time>
      </trkpt>
      <trkpt lat="45.92467" lon="4.73069">
        <ele>170</ele>
        <time>2017-08-14T09:32:53Z</time>
      </trkpt>
      <trkpt lat="45.92462" lon="4.73073">
        <ele>170</ele>
        <time>2017-08-14T09:32:54Z</time>
      </trkpt>
      <trkpt lat="45.92458" lon="4.73077">
        <ele>170</ele>
        <time>2017-08-14T09:32:55Z</time>
      </trkpt>
      <trkpt lat="45.92453" lon="4.7308">
        <ele>170</ele>
        <time>2017-08-14T09:32:56Z</time>
      </trkpt>
      <trkpt lat="45.92449" lon="4.73084">
        <ele>170</ele>
        <time>2017-08-14T09:32:57Z</time>
      </trkpt>
      <trkpt lat="45.92445" lon="4.73087">
        <ele>170</ele>
        <time>2017-08-14T09:32:58Z</time>
      </trkpt>
      <trkpt lat="45.9244" lon="4.73091">
        <ele>171</ele>
        <time>2017-08-14T09:32:59Z</time>
      </trkpt>
      <trkpt lat="45.92436" lon="4.73094">
        <ele>171</ele>
        <time>2017-08-14T09:33:00Z</time>
      </trkpt>
      <trkpt lat="45.92432" lon="4.73097">
        <ele>171</ele>
        <time>2017-08-14T09:33:01Z</time>
      </trkpt>
      <trkpt lat="45.92429" lon="4.73101">
        <ele>171</ele>
        <time>2017-08-14T09:33:02Z</time>
      </trkpt>
      <trkpt lat="45.92421" lon="4.73107">
        <ele>171</ele>
        <time>2017-08-14T09:33:04Z</time>
      </trkpt>
      <trkpt lat="45.92417" lon="4.73109">
        <ele>170</ele>
        <time>2017-08-14T09:33:05Z</time>
      </trkpt>
      <trkpt lat="45.92411" lon="4.73117">
        <ele>171</ele>
        <time>2017-08-14T09:33:07Z</time>
      </trkpt>
      <trkpt lat="45.9241" lon="4.73121">
        <ele>171</ele>
        <time>2017-08-14T09:33:08Z</time>
      </trkpt>
      <trkpt lat="45.92407" lon="4.7313">
        <ele>171</ele>
        <time>2017-08-14T09:33:10Z</time>
      </trkpt>
      <trkpt lat="45.92406" lon="4.73136">
        <ele>171</ele>
        <time>2017-08-14T09:33:11Z</time>
      </trkpt>
      <trkpt lat="45.92406" lon="4.73143">
        <ele>171</ele>
        <time>2017-08-14T09:33:12Z</time>
      </trkpt>
      <trkpt lat="45.92406" lon="4.7315">
        <ele>171</ele>
        <time>2017-08-14T09:33:13Z</time>
      </trkpt>
      <trkpt lat="45.92405" lon="4.73157">
        <ele>170</ele>
        <time>2017-08-14T09:33:14Z</time>
      </trkpt>
      <trkpt lat="45.92405" lon="4.73165">
        <ele>170</ele>
        <time>2017-08-14T09:33:15Z</time>
      </trkpt>
      <trkpt lat="45.92404" lon="4.73173">
        <ele>171</ele>
        <time>2017-08-14T09:33:16Z</time>
      </trkpt>
      <trkpt lat="45.92404" lon="4.73181">
        <ele>171</ele>
        <time>2017-08-14T09:33:17Z</time>
      </trkpt>
      <trkpt lat="45.92404" lon="4.73189">
        <ele>171</ele>
        <time>2017-08-14T09:33:18Z</time>
      </trkpt>
      <trkpt lat="45.92404" lon="4.73197">
        <ele>171</ele>
        <time>2017-08-14T09:33:19Z</time>
      </trkpt>
      <trkpt lat="45.92404" lon="4.73205">
        <ele>171</ele>
        <time>2017-08-14T09:33:20Z</time>
      </trkpt>
      <trkpt lat="45.92405" lon="4.73213">
        <ele>171</ele>
        <time>2017-08-14T09:33:21Z</time>
      </trkpt>
      <trkpt lat="45.92405" lon="4.7322">
        <ele>171</ele>
        <time>2017-08-14T09:33:22Z</time>
      </trkpt>
      <trkpt lat="45.92405" lon="4.73227">
        <ele>171</ele>
        <time>2017-08-14T09:33:23Z</time>
      </trkpt>
      <trkpt lat="45.92405" lon="4.73234">
        <ele>171</ele>
        <time>2017-08-14T09:33:24Z</time>
      </trkpt>
      <trkpt lat="45.92406" lon="4.7324">
        <ele>171</ele>
        <time>2017-08-14T09:33:25Z</time>
      </trkpt>
      <trkpt lat="45.92406" lon="4.73247">
        <ele>171</ele>
        <time>2017-08-14T09:33:26Z</time>
      </trkpt>
      <trkpt lat="45.92407" lon="4.73254">
        <ele>171</ele>
        <time>2017-08-14T09:33:27Z</time>
      </trkpt>
      <trkpt lat="45.92407" lon="4.7326">
        <ele>171</ele>
        <time>2017-08-14T09:33:28Z</time>
      </trkpt>
      <trkpt lat="45.92408" lon="4.73267">
        <ele>171</ele>
        <time>2017-08-14T09:33:29Z</time>
      </trkpt>
      <trkpt lat="45.92409" lon="4.73274">
        <ele>171</ele>
        <time>2017-08-14T09:33:30Z</time>
      </trkpt>
      <trkpt lat="45.92409" lon="4.73281">
        <ele>171</ele>
        <time>2017-08-14T09:33:31Z</time>
      </trkpt>
      <trkpt lat="45.9241" lon="4.73289">
        <ele>171</ele>
        <time>2017-08-14T09:33:32Z</time>
      </trkpt>
      <trkpt lat="45.92411" lon="4.73296">
        <ele>171</ele>
        <time>2017-08-14T09:33:33Z</time>
      </trkpt>
      <trkpt lat="45.92411" lon="4.73303">
        <ele>171</ele>
        <time>2017-08-14T09:33:34Z</time>
      </trkpt>
      <trkpt lat="45.92412" lon="4.7331">
        <ele>171</ele>
        <time>2017-08-14T09:33:35Z</time>
      </trkpt>
      <trkpt lat="45.92412" lon="4.73322">
        <ele>171</ele>
        <time>2017-08-14T09:33:37Z</time>
      </trkpt>
      <trkpt lat="45.92413" lon="4.73329">
        <ele>171</ele>
        <time>2017-08-14T09:33:38Z</time>
      </trkpt>
      <trkpt lat="45.92414" lon="4.73341">
        <ele>171</ele>
        <time>2017-08-14T09:33:40Z</time>
      </trkpt>
      <trkpt lat="45.92415" lon="4.73347">
        <ele>171</ele>
        <time>2017-08-14T09:33:41Z</time>
      </trkpt>
      <trkpt lat="45.92415" lon="4.73354">
        <ele>171</ele>
        <time>2017-08-14T09:33:42Z</time>
      </trkpt>
      <trkpt lat="45.92416" lon="4.7336">
        <ele>171</ele>
        <time>2017-08-14T09:33:43Z</time>
      </trkpt>
      <trkpt lat="45.92418" lon="4.73372">
        <ele>172</ele>
        <time>2017-08-14T09:33:45Z</time>
      </trkpt>
      <trkpt lat="45.92419" lon="4.73379">
        <ele>172</ele>
        <time>2017-08-14T09:33:46Z</time>
      </trkpt>
      <trkpt lat="45.9242" lon="4.73385">
        <ele>172</ele>
        <time>2017-08-14T09:33:47Z</time>
      </trkpt>
      <trkpt lat="45.92421" lon="4.73392">
        <ele>172</ele>
        <time>2017-08-14T09:33:48Z</time>
      </trkpt>
      <trkpt lat="45.92423" lon="4.73398">
        <ele>172</ele>
        <time>2017-08-14T09:33:49Z</time>
      </trkpt>
      <trkpt lat="45.92426" lon="4.73404">
        <ele>172</ele>
        <time>2017-08-14T09:33:50Z</time>
      </trkpt>
      <trkpt lat="45.9243" lon="4.7341">
        <ele>172</ele>
        <time>2017-08-14T09:33:51Z</time>
      </trkpt>
      <trkpt lat="45.92434" lon="4.73414">
        <ele>172</ele>
        <time>2017-08-14T09:33:52Z</time>
      </trkpt>
      <trkpt lat="45.92438" lon="4.73417">
        <ele>173</ele>
        <time>2017-08-14T09:33:53Z</time>
      </trkpt>
      <trkpt lat="45.92443" lon="4.7342">
        <ele>173</ele>
        <time>2017-08-14T09:33:54Z</time>
      </trkpt>
      <trkpt lat="45.92447" lon="4.73422">
        <ele>173</ele>
        <time>2017-08-14T09:33:55Z</time>
      </trkpt>
      <trkpt lat="45.92451" lon="4.73426">
        <ele>173</ele>
        <time>2017-08-14T09:33:56Z</time>
      </trkpt>
      <trkpt lat="45.92455" lon="4.7343">
        <ele>173</ele>
        <time>2017-08-14T09:33:57Z</time>
      </trkpt>
      <trkpt lat="45.92458" lon="4.73435">
        <ele>173</ele>
        <time>2017-08-14T09:33:58Z</time>
      </trkpt>
      <trkpt lat="45.9246" lon="4.73441">
        <ele>173</ele>
        <time>2017-08-14T09:33:59Z</time>
      </trkpt>
      <trkpt lat="45.92462" lon="4.73448">
        <ele>173</ele>
        <time>2017-08-14T09:34:00Z</time>
      </trkpt>
      <trkpt lat="45.92464" lon="4.73456">
        <ele>173</ele>
        <time>2017-08-14T09:34:01Z</time>
      </trkpt>
      <trkpt lat="45.92464" lon="4.73463">
        <ele>173</ele>
        <time>2017-08-14T09:34:02Z</time>
      </trkpt>
      <trkpt lat="45.92464" lon="4.73471">
        <ele>173</ele>
        <time>2017-08-14T09:34:03Z</time>
      </trkpt>
      <trkpt lat="45.92464" lon="4.73478">
        <ele>173</ele>
        <time>2017-08-14T09:34:04Z</time>
      </trkpt>
      <trkpt lat="45.92463" lon="4.73485">
        <ele>173</ele>
        <time>2017-08-14T09:34:05Z</time>
      </trkpt>
      <trkpt lat="45.92463" lon="4.73492">
        <ele>173</ele>
        <time>2017-08-14T09:34:06Z</time>
      </trkpt>
      <trkpt lat="45.92463" lon="4.73498">
        <ele>173</ele>
        <time>2017-08-14T09:34:07Z</time>
      </trkpt>
      <trkpt lat="45.92463" lon="4.73505">
        <ele>174</ele>
        <time>2017-08-14T09:34:08Z</time>
      </trkpt>
      <trkpt lat="45.92463" lon="4.73517">
        <ele>174</ele>
        <time>2017-08-14T09:34:10Z</time>
      </trkpt>
      <trkpt lat="45.92463" lon="4.73522">
        <ele>174</ele>
        <time>2017-08-14T09:34:11Z</time>
      </trkpt>
      <trkpt lat="45.92463" lon="4.73533">
        <ele>174</ele>
        <time>2017-08-14T09:34:13Z</time>
      </trkpt>
      <trkpt lat="45.92462" lon="4.73538">
        <ele>174</ele>
        <time>2017-08-14T09:34:14Z</time>
      </trkpt>
      <trkpt lat="45.92462" lon="4.73548">
        <ele>173</ele>
        <time>2017-08-14T09:34:16Z</time>
      </trkpt>
      <trkpt lat="45.92462" lon="4.73553">
        <ele>173</ele>
        <time>2017-08-14T09:34:17Z</time>
      </trkpt>
      <trkpt lat="45.92462" lon="4.73565">
        <ele>173</ele>
        <time>2017-08-14T09:34:19Z</time>
      </trkpt>
      <trkpt lat="45.92462" lon="4.73572">
        <ele>173</ele>
        <time>2017-08-14T09:34:20Z</time>
      </trkpt>
      <trkpt lat="45.92462" lon="4.73578">
        <ele>173</ele>
        <time>2017-08-14T09:34:21Z</time>
      </trkpt>
      <trkpt lat="45.92462" lon="4.73585">
        <ele>174</ele>
        <time>2017-08-14T09:34:22Z</time>
      </trkpt>
      <trkpt lat="45.92462" lon="4.73592">
        <ele>174</ele>
        <time>2017-08-14T09:34:23Z</time>
      </trkpt>
      <trkpt lat="45.92462" lon="4.736">
        <ele>174</ele>
        <time>2017-08-14T09:34:24Z</time>
      </trkpt>
      <trkpt lat="45.92462" lon="4.73607">
        <ele>174</ele>
        <time>2017-08-14T09:34:25Z</time>
      </trkpt>
      <trkpt lat="45.92462" lon="4.73614">
        <ele>174</ele>
        <time>2017-08-14T09:34:26Z</time>
      </trkpt>
      <trkpt lat="45.92462" lon="4.7362">
        <ele>174</ele>
        <time>2017-08-14T09:34:27Z</time>
      </trkpt>
      <trkpt lat="45.92462" lon="4.73627">
        <ele>174</ele>
        <time>2017-08-14T09:34:28Z</time>
      </trkpt>
      <trkpt lat="45.92462" lon="4.73634">
        <ele>174</ele>
        <time>2017-08-14T09:34:29Z</time>
      </trkpt>
      <trkpt lat="45.92462" lon="4.73641">
        <ele>174</ele>
        <time>2017-08-14T09:34:30Z</time>
      </trkpt>
      <trkpt lat="45.92461" lon="4.73653">
        <ele>174</ele>
        <time>2017-08-14T09:34:32Z</time>
      </trkpt>
      <trkpt lat="45.92461" lon="4.73659">
        <ele>174</ele>
        <time>2017-08-14T09:34:33Z</time>
      </trkpt>
      <trkpt lat="45.9246" lon="4.7367">
        <ele>174</ele>
        <time>2017-08-14T09:34:35Z</time>
      </trkpt>
      <trkpt lat="45.9246" lon="4.73677">
        <ele>174</ele>
        <time>2017-08-14T09:34:36Z</time>
      </trkpt>
      <trkpt lat="45.9246" lon="4.73688">
        <ele>174</ele>
        <time>2017-08-14T09:34:38Z</time>
      </trkpt>
      <trkpt lat="45.92459" lon="4.73693">
        <ele>174</ele>
        <time>2017-08-14T09:34:39Z</time>
      </trkpt>
      <trkpt lat="45.92459" lon="4.737">
        <ele>174</ele>
        <time>2017-08-14T09:35:26.918Z</time>
      </trkpt>
    </trkseg>
  </trk>
</gpx>